<?xml version="1.0" encoding="UTF-8" standalone="no" ?>
<gpx xmlns="http://www.topografix.com/GPX/1/1" xmlns:xsi="http://www.w3.org/2001/XMLSchema-instance" xsi:schemaLocation="http://www.topografix.com/GPX/1/1 http://www.topografix.com/GPX/1/1/gpx.xsd" version="1.1" creator="VisuGPX - https://www.visugpx.com">
  <metadata>
    <name>Morning Activity</name>
  </metadata>
  <trk>
    <name><![CDATA[Morning Activity_1]]></name>
    <trkseg>
      <trkpt lat="42.82552" lon="0.25788">
        <ele>1592.4</ele>
        <time>2022-01-09T08:02:38Z</time>
      </trkpt>
      <trkpt lat="42.82552" lon="0.25788">
        <ele>1592.4</ele>
        <time>2022-01-09T08:02:40Z</time>
      </trkpt>
      <trkpt lat="42.82549" lon="0.25787">
        <ele>1592.4</ele>
        <time>2022-01-09T08:02:47Z</time>
      </trkpt>
      <trkpt lat="42.82546" lon="0.25786">
        <ele>1592.8</ele>
        <time>2022-01-09T08:02:48Z</time>
      </trkpt>
      <trkpt lat="42.82544" lon="0.25785">
        <ele>1592.8</ele>
        <time>2022-01-09T08:02:49Z</time>
      </trkpt>
      <trkpt lat="42.8254" lon="0.25785">
        <ele>1592.8</ele>
        <time>2022-01-09T08:02:50Z</time>
      </trkpt>
      <trkpt lat="42.82536" lon="0.25785">
        <ele>1592.6</ele>
        <time>2022-01-09T08:02:51Z</time>
      </trkpt>
      <trkpt lat="42.82532" lon="0.25787">
        <ele>1592.6</ele>
        <time>2022-01-09T08:02:52Z</time>
      </trkpt>
      <trkpt lat="42.82529" lon="0.25789">
        <ele>1592.8</ele>
        <time>2022-01-09T08:02:53Z</time>
      </trkpt>
      <trkpt lat="42.82526" lon="0.25791">
        <ele>1592.8</ele>
        <time>2022-01-09T08:02:54Z</time>
      </trkpt>
      <trkpt lat="42.82524" lon="0.25793">
        <ele>1592.8</ele>
        <time>2022-01-09T08:02:55Z</time>
      </trkpt>
      <trkpt lat="42.82521" lon="0.25795">
        <ele>1592.6</ele>
        <time>2022-01-09T08:02:56Z</time>
      </trkpt>
      <trkpt lat="42.82519" lon="0.25798">
        <ele>1593.2</ele>
        <time>2022-01-09T08:02:57Z</time>
      </trkpt>
      <trkpt lat="42.82516" lon="0.25801">
        <ele>1593.6</ele>
        <time>2022-01-09T08:02:58Z</time>
      </trkpt>
      <trkpt lat="42.82515" lon="0.25802">
        <ele>1593.6</ele>
        <time>2022-01-09T08:02:59Z</time>
      </trkpt>
      <trkpt lat="42.82513" lon="0.25804">
        <ele>1594</ele>
        <time>2022-01-09T08:03:00Z</time>
      </trkpt>
      <trkpt lat="42.82512" lon="0.25805">
        <ele>1594.6</ele>
        <time>2022-01-09T08:03:01Z</time>
      </trkpt>
      <trkpt lat="42.82506" lon="0.25814">
        <ele>1594.8</ele>
        <time>2022-01-09T08:03:02Z</time>
      </trkpt>
      <trkpt lat="42.82504" lon="0.25817">
        <ele>1595.6</ele>
        <time>2022-01-09T08:03:03Z</time>
      </trkpt>
      <trkpt lat="42.82502" lon="0.2582">
        <ele>1595.6</ele>
        <time>2022-01-09T08:03:04Z</time>
      </trkpt>
      <trkpt lat="42.82501" lon="0.25824">
        <ele>1595.8</ele>
        <time>2022-01-09T08:03:05Z</time>
      </trkpt>
      <trkpt lat="42.825" lon="0.25828">
        <ele>1596.4</ele>
        <time>2022-01-09T08:03:06Z</time>
      </trkpt>
      <trkpt lat="42.82498" lon="0.25832">
        <ele>1597</ele>
        <time>2022-01-09T08:03:07Z</time>
      </trkpt>
      <trkpt lat="42.82497" lon="0.25835">
        <ele>1597.8</ele>
        <time>2022-01-09T08:03:08Z</time>
      </trkpt>
      <trkpt lat="42.82495" lon="0.25839">
        <ele>1598.2</ele>
        <time>2022-01-09T08:03:09Z</time>
      </trkpt>
      <trkpt lat="42.82493" lon="0.25842">
        <ele>1598.4</ele>
        <time>2022-01-09T08:03:10Z</time>
      </trkpt>
      <trkpt lat="42.82492" lon="0.25845">
        <ele>1599.2</ele>
        <time>2022-01-09T08:03:11Z</time>
      </trkpt>
      <trkpt lat="42.82491" lon="0.25848">
        <ele>1599.6</ele>
        <time>2022-01-09T08:03:12Z</time>
      </trkpt>
      <trkpt lat="42.8249" lon="0.25851">
        <ele>1600</ele>
        <time>2022-01-09T08:03:13Z</time>
      </trkpt>
      <trkpt lat="42.82489" lon="0.25854">
        <ele>1600.8</ele>
        <time>2022-01-09T08:03:14Z</time>
      </trkpt>
      <trkpt lat="42.82489" lon="0.25856">
        <ele>1600.8</ele>
        <time>2022-01-09T08:03:15Z</time>
      </trkpt>
      <trkpt lat="42.82488" lon="0.25858">
        <ele>1601.2</ele>
        <time>2022-01-09T08:03:16Z</time>
      </trkpt>
      <trkpt lat="42.82488" lon="0.2586">
        <ele>1601.4</ele>
        <time>2022-01-09T08:03:17Z</time>
      </trkpt>
      <trkpt lat="42.82487" lon="0.25861">
        <ele>1601.6</ele>
        <time>2022-01-09T08:03:18Z</time>
      </trkpt>
      <trkpt lat="42.82483" lon="0.25871">
        <ele>1602</ele>
        <time>2022-01-09T08:03:19Z</time>
      </trkpt>
      <trkpt lat="42.82482" lon="0.25874">
        <ele>1602.2</ele>
        <time>2022-01-09T08:03:20Z</time>
      </trkpt>
      <trkpt lat="42.82481" lon="0.25876">
        <ele>1603</ele>
        <time>2022-01-09T08:03:21Z</time>
      </trkpt>
      <trkpt lat="42.8248" lon="0.25879">
        <ele>1603.2</ele>
        <time>2022-01-09T08:03:22Z</time>
      </trkpt>
      <trkpt lat="42.82479" lon="0.2588">
        <ele>1603.6</ele>
        <time>2022-01-09T08:03:23Z</time>
      </trkpt>
      <trkpt lat="42.82479" lon="0.25882">
        <ele>1603.8</ele>
        <time>2022-01-09T08:03:24Z</time>
      </trkpt>
      <trkpt lat="42.82478" lon="0.25883">
        <ele>1603.8</ele>
        <time>2022-01-09T08:03:25Z</time>
      </trkpt>
      <trkpt lat="42.82478" lon="0.25885">
        <ele>1604.2</ele>
        <time>2022-01-09T08:03:26Z</time>
      </trkpt>
      <trkpt lat="42.82478" lon="0.25886">
        <ele>1604.4</ele>
        <time>2022-01-09T08:03:27Z</time>
      </trkpt>
      <trkpt lat="42.82474" lon="0.25896">
        <ele>1605.2</ele>
        <time>2022-01-09T08:03:28Z</time>
      </trkpt>
      <trkpt lat="42.82472" lon="0.259">
        <ele>1605.4</ele>
        <time>2022-01-09T08:03:29Z</time>
      </trkpt>
      <trkpt lat="42.8247" lon="0.25904">
        <ele>1605.8</ele>
        <time>2022-01-09T08:03:30Z</time>
      </trkpt>
      <trkpt lat="42.82468" lon="0.25906">
        <ele>1605.8</ele>
        <time>2022-01-09T08:03:31Z</time>
      </trkpt>
      <trkpt lat="42.82467" lon="0.25909">
        <ele>1606.2</ele>
        <time>2022-01-09T08:03:32Z</time>
      </trkpt>
      <trkpt lat="42.82466" lon="0.25911">
        <ele>1606.2</ele>
        <time>2022-01-09T08:03:33Z</time>
      </trkpt>
      <trkpt lat="42.82464" lon="0.25914">
        <ele>1606.4</ele>
        <time>2022-01-09T08:03:34Z</time>
      </trkpt>
      <trkpt lat="42.82463" lon="0.25915">
        <ele>1606.6</ele>
        <time>2022-01-09T08:03:35Z</time>
      </trkpt>
      <trkpt lat="42.82463" lon="0.25916">
        <ele>1606.8</ele>
        <time>2022-01-09T08:03:36Z</time>
      </trkpt>
      <trkpt lat="42.82462" lon="0.25917">
        <ele>1607</ele>
        <time>2022-01-09T08:03:37Z</time>
      </trkpt>
      <trkpt lat="42.82461" lon="0.25917">
        <ele>1607.2</ele>
        <time>2022-01-09T08:03:38Z</time>
      </trkpt>
      <trkpt lat="42.8246" lon="0.25918">
        <ele>1607.8</ele>
        <time>2022-01-09T08:03:39Z</time>
      </trkpt>
      <trkpt lat="42.82455" lon="0.25924">
        <ele>1607.8</ele>
        <time>2022-01-09T08:03:40Z</time>
      </trkpt>
      <trkpt lat="42.82454" lon="0.25925">
        <ele>1608.2</ele>
        <time>2022-01-09T08:03:41Z</time>
      </trkpt>
      <trkpt lat="42.82454" lon="0.25927">
        <ele>1609</ele>
        <time>2022-01-09T08:03:42Z</time>
      </trkpt>
      <trkpt lat="42.82453" lon="0.25928">
        <ele>1609.4</ele>
        <time>2022-01-09T08:03:43Z</time>
      </trkpt>
      <trkpt lat="42.82453" lon="0.25929">
        <ele>1610</ele>
        <time>2022-01-09T08:03:44Z</time>
      </trkpt>
      <trkpt lat="42.82449" lon="0.25937">
        <ele>1610.6</ele>
        <time>2022-01-09T08:03:45Z</time>
      </trkpt>
      <trkpt lat="42.82448" lon="0.25939">
        <ele>1610.8</ele>
        <time>2022-01-09T08:03:46Z</time>
      </trkpt>
      <trkpt lat="42.82447" lon="0.25942">
        <ele>1610.8</ele>
        <time>2022-01-09T08:03:47Z</time>
      </trkpt>
      <trkpt lat="42.82446" lon="0.25944">
        <ele>1611</ele>
        <time>2022-01-09T08:03:48Z</time>
      </trkpt>
      <trkpt lat="42.82445" lon="0.25947">
        <ele>1611.6</ele>
        <time>2022-01-09T08:03:49Z</time>
      </trkpt>
      <trkpt lat="42.82444" lon="0.25949">
        <ele>1612</ele>
        <time>2022-01-09T08:03:50Z</time>
      </trkpt>
      <trkpt lat="42.82443" lon="0.25951">
        <ele>1612.4</ele>
        <time>2022-01-09T08:03:51Z</time>
      </trkpt>
      <trkpt lat="42.82442" lon="0.25953">
        <ele>1612.8</ele>
        <time>2022-01-09T08:03:52Z</time>
      </trkpt>
      <trkpt lat="42.82441" lon="0.25955">
        <ele>1613</ele>
        <time>2022-01-09T08:03:53Z</time>
      </trkpt>
      <trkpt lat="42.8244" lon="0.25957">
        <ele>1613.4</ele>
        <time>2022-01-09T08:03:54Z</time>
      </trkpt>
      <trkpt lat="42.8244" lon="0.25959">
        <ele>1613.8</ele>
        <time>2022-01-09T08:03:55Z</time>
      </trkpt>
      <trkpt lat="42.8244" lon="0.2596">
        <ele>1614</ele>
        <time>2022-01-09T08:03:56Z</time>
      </trkpt>
      <trkpt lat="42.8244" lon="0.25962">
        <ele>1614.4</ele>
        <time>2022-01-09T08:03:57Z</time>
      </trkpt>
      <trkpt lat="42.82439" lon="0.25963">
        <ele>1614.6</ele>
        <time>2022-01-09T08:03:58Z</time>
      </trkpt>
      <trkpt lat="42.82439" lon="0.25965">
        <ele>1614.8</ele>
        <time>2022-01-09T08:03:59Z</time>
      </trkpt>
      <trkpt lat="42.82438" lon="0.25974">
        <ele>1615.2</ele>
        <time>2022-01-09T08:04:00Z</time>
      </trkpt>
      <trkpt lat="42.82437" lon="0.25977">
        <ele>1615.4</ele>
        <time>2022-01-09T08:04:01Z</time>
      </trkpt>
      <trkpt lat="42.82437" lon="0.25979">
        <ele>1615.6</ele>
        <time>2022-01-09T08:04:02Z</time>
      </trkpt>
      <trkpt lat="42.82436" lon="0.25982">
        <ele>1615.8</ele>
        <time>2022-01-09T08:04:03Z</time>
      </trkpt>
      <trkpt lat="42.82436" lon="0.25984">
        <ele>1616</ele>
        <time>2022-01-09T08:04:04Z</time>
      </trkpt>
      <trkpt lat="42.82436" lon="0.25985">
        <ele>1616.2</ele>
        <time>2022-01-09T08:04:05Z</time>
      </trkpt>
      <trkpt lat="42.82435" lon="0.25987">
        <ele>1616.4</ele>
        <time>2022-01-09T08:04:06Z</time>
      </trkpt>
      <trkpt lat="42.82435" lon="0.25988">
        <ele>1616.8</ele>
        <time>2022-01-09T08:04:07Z</time>
      </trkpt>
      <trkpt lat="42.82435" lon="0.2599">
        <ele>1617</ele>
        <time>2022-01-09T08:04:08Z</time>
      </trkpt>
      <trkpt lat="42.82435" lon="0.25991">
        <ele>1617.2</ele>
        <time>2022-01-09T08:04:09Z</time>
      </trkpt>
      <trkpt lat="42.82434" lon="0.26">
        <ele>1617.6</ele>
        <time>2022-01-09T08:04:10Z</time>
      </trkpt>
      <trkpt lat="42.82434" lon="0.26001">
        <ele>1617.8</ele>
        <time>2022-01-09T08:04:11Z</time>
      </trkpt>
      <trkpt lat="42.82434" lon="0.26003">
        <ele>1618</ele>
        <time>2022-01-09T08:04:12Z</time>
      </trkpt>
      <trkpt lat="42.82434" lon="0.26004">
        <ele>1618.2</ele>
        <time>2022-01-09T08:04:13Z</time>
      </trkpt>
      <trkpt lat="42.82434" lon="0.26006">
        <ele>1618.4</ele>
        <time>2022-01-09T08:04:14Z</time>
      </trkpt>
      <trkpt lat="42.82433" lon="0.26014">
        <ele>1618.8</ele>
        <time>2022-01-09T08:04:15Z</time>
      </trkpt>
      <trkpt lat="42.82433" lon="0.26015">
        <ele>1619.2</ele>
        <time>2022-01-09T08:04:16Z</time>
      </trkpt>
      <trkpt lat="42.82433" lon="0.26017">
        <ele>1619.4</ele>
        <time>2022-01-09T08:04:17Z</time>
      </trkpt>
      <trkpt lat="42.82433" lon="0.26018">
        <ele>1619.6</ele>
        <time>2022-01-09T08:04:18Z</time>
      </trkpt>
      <trkpt lat="42.82432" lon="0.2602">
        <ele>1619.8</ele>
        <time>2022-01-09T08:04:19Z</time>
      </trkpt>
      <trkpt lat="42.82431" lon="0.2603">
        <ele>1620.2</ele>
        <time>2022-01-09T08:04:20Z</time>
      </trkpt>
      <trkpt lat="42.82431" lon="0.26034">
        <ele>1620</ele>
        <time>2022-01-09T08:04:21Z</time>
      </trkpt>
      <trkpt lat="42.8243" lon="0.26037">
        <ele>1620.6</ele>
        <time>2022-01-09T08:04:22Z</time>
      </trkpt>
      <trkpt lat="42.8243" lon="0.2604">
        <ele>1620.8</ele>
        <time>2022-01-09T08:04:23Z</time>
      </trkpt>
      <trkpt lat="42.82429" lon="0.26044">
        <ele>1621</ele>
        <time>2022-01-09T08:04:24Z</time>
      </trkpt>
      <trkpt lat="42.82429" lon="0.26047">
        <ele>1621.6</ele>
        <time>2022-01-09T08:04:25Z</time>
      </trkpt>
      <trkpt lat="42.82428" lon="0.2605">
        <ele>1621.6</ele>
        <time>2022-01-09T08:04:26Z</time>
      </trkpt>
      <trkpt lat="42.82427" lon="0.26054">
        <ele>1622.6</ele>
        <time>2022-01-09T08:04:27Z</time>
      </trkpt>
      <trkpt lat="42.82426" lon="0.26057">
        <ele>1622.8</ele>
        <time>2022-01-09T08:04:28Z</time>
      </trkpt>
      <trkpt lat="42.82426" lon="0.2606">
        <ele>1623.2</ele>
        <time>2022-01-09T08:04:29Z</time>
      </trkpt>
      <trkpt lat="42.82425" lon="0.26063">
        <ele>1623.4</ele>
        <time>2022-01-09T08:04:30Z</time>
      </trkpt>
      <trkpt lat="42.82424" lon="0.26066">
        <ele>1623.8</ele>
        <time>2022-01-09T08:04:31Z</time>
      </trkpt>
      <trkpt lat="42.82423" lon="0.26068">
        <ele>1624.4</ele>
        <time>2022-01-09T08:04:32Z</time>
      </trkpt>
      <trkpt lat="42.82423" lon="0.26069">
        <ele>1624.8</ele>
        <time>2022-01-09T08:04:33Z</time>
      </trkpt>
      <trkpt lat="42.82422" lon="0.2607">
        <ele>1625</ele>
        <time>2022-01-09T08:04:34Z</time>
      </trkpt>
      <trkpt lat="42.82422" lon="0.26072">
        <ele>1625.2</ele>
        <time>2022-01-09T08:04:35Z</time>
      </trkpt>
      <trkpt lat="42.82421" lon="0.26073">
        <ele>1625.6</ele>
        <time>2022-01-09T08:04:36Z</time>
      </trkpt>
      <trkpt lat="42.82418" lon="0.26083">
        <ele>1625.8</ele>
        <time>2022-01-09T08:04:37Z</time>
      </trkpt>
      <trkpt lat="42.82418" lon="0.26087">
        <ele>1626</ele>
        <time>2022-01-09T08:04:38Z</time>
      </trkpt>
      <trkpt lat="42.82417" lon="0.2609">
        <ele>1625.8</ele>
        <time>2022-01-09T08:04:39Z</time>
      </trkpt>
      <trkpt lat="42.82416" lon="0.26094">
        <ele>1626</ele>
        <time>2022-01-09T08:04:40Z</time>
      </trkpt>
      <trkpt lat="42.82416" lon="0.26095">
        <ele>1626.4</ele>
        <time>2022-01-09T08:04:41Z</time>
      </trkpt>
      <trkpt lat="42.82415" lon="0.26097">
        <ele>1626.6</ele>
        <time>2022-01-09T08:04:42Z</time>
      </trkpt>
      <trkpt lat="42.82415" lon="0.26099">
        <ele>1627</ele>
        <time>2022-01-09T08:04:43Z</time>
      </trkpt>
      <trkpt lat="42.82414" lon="0.26101">
        <ele>1627</ele>
        <time>2022-01-09T08:04:44Z</time>
      </trkpt>
      <trkpt lat="42.82411" lon="0.26112">
        <ele>1627</ele>
        <time>2022-01-09T08:04:45Z</time>
      </trkpt>
      <trkpt lat="42.8241" lon="0.26116">
        <ele>1627</ele>
        <time>2022-01-09T08:04:46Z</time>
      </trkpt>
      <trkpt lat="42.82409" lon="0.2612">
        <ele>1627.6</ele>
        <time>2022-01-09T08:04:47Z</time>
      </trkpt>
      <trkpt lat="42.82409" lon="0.26122">
        <ele>1627.8</ele>
        <time>2022-01-09T08:04:48Z</time>
      </trkpt>
      <trkpt lat="42.82408" lon="0.26123">
        <ele>1628</ele>
        <time>2022-01-09T08:04:49Z</time>
      </trkpt>
      <trkpt lat="42.82408" lon="0.26124">
        <ele>1628.4</ele>
        <time>2022-01-09T08:04:50Z</time>
      </trkpt>
      <trkpt lat="42.82407" lon="0.26126">
        <ele>1628.4</ele>
        <time>2022-01-09T08:04:51Z</time>
      </trkpt>
      <trkpt lat="42.82407" lon="0.26127">
        <ele>1629</ele>
        <time>2022-01-09T08:04:52Z</time>
      </trkpt>
      <trkpt lat="42.82405" lon="0.26136">
        <ele>1628.6</ele>
        <time>2022-01-09T08:04:53Z</time>
      </trkpt>
      <trkpt lat="42.82404" lon="0.26138">
        <ele>1628.8</ele>
        <time>2022-01-09T08:04:54Z</time>
      </trkpt>
      <trkpt lat="42.82404" lon="0.2614">
        <ele>1629</ele>
        <time>2022-01-09T08:04:55Z</time>
      </trkpt>
      <trkpt lat="42.82403" lon="0.26141">
        <ele>1629.2</ele>
        <time>2022-01-09T08:04:56Z</time>
      </trkpt>
      <trkpt lat="42.82401" lon="0.26151">
        <ele>1629.2</ele>
        <time>2022-01-09T08:04:57Z</time>
      </trkpt>
      <trkpt lat="42.824" lon="0.26155">
        <ele>1629.2</ele>
        <time>2022-01-09T08:04:58Z</time>
      </trkpt>
      <trkpt lat="42.824" lon="0.26158">
        <ele>1629.2</ele>
        <time>2022-01-09T08:04:59Z</time>
      </trkpt>
      <trkpt lat="42.82399" lon="0.26161">
        <ele>1629.8</ele>
        <time>2022-01-09T08:05:00Z</time>
      </trkpt>
      <trkpt lat="42.82398" lon="0.26164">
        <ele>1630.2</ele>
        <time>2022-01-09T08:05:01Z</time>
      </trkpt>
      <trkpt lat="42.82397" lon="0.26166">
        <ele>1630.6</ele>
        <time>2022-01-09T08:05:02Z</time>
      </trkpt>
      <trkpt lat="42.82396" lon="0.26169">
        <ele>1630.8</ele>
        <time>2022-01-09T08:05:03Z</time>
      </trkpt>
      <trkpt lat="42.82395" lon="0.26172">
        <ele>1631.2</ele>
        <time>2022-01-09T08:05:04Z</time>
      </trkpt>
      <trkpt lat="42.82394" lon="0.26173">
        <ele>1631.4</ele>
        <time>2022-01-09T08:05:05Z</time>
      </trkpt>
      <trkpt lat="42.82394" lon="0.26174">
        <ele>1631.6</ele>
        <time>2022-01-09T08:05:06Z</time>
      </trkpt>
      <trkpt lat="42.82393" lon="0.26176">
        <ele>1631.6</ele>
        <time>2022-01-09T08:05:07Z</time>
      </trkpt>
      <trkpt lat="42.82392" lon="0.26177">
        <ele>1631.8</ele>
        <time>2022-01-09T08:05:08Z</time>
      </trkpt>
      <trkpt lat="42.82392" lon="0.26178">
        <ele>1632.2</ele>
        <time>2022-01-09T08:05:09Z</time>
      </trkpt>
      <trkpt lat="42.82388" lon="0.26186">
        <ele>1632.6</ele>
        <time>2022-01-09T08:05:10Z</time>
      </trkpt>
      <trkpt lat="42.82387" lon="0.26187">
        <ele>1632.8</ele>
        <time>2022-01-09T08:05:11Z</time>
      </trkpt>
      <trkpt lat="42.82386" lon="0.26189">
        <ele>1633.2</ele>
        <time>2022-01-09T08:05:12Z</time>
      </trkpt>
      <trkpt lat="42.82385" lon="0.2619">
        <ele>1633.6</ele>
        <time>2022-01-09T08:05:13Z</time>
      </trkpt>
      <trkpt lat="42.82383" lon="0.26192">
        <ele>1633.8</ele>
        <time>2022-01-09T08:05:14Z</time>
      </trkpt>
      <trkpt lat="42.82382" lon="0.26193">
        <ele>1634</ele>
        <time>2022-01-09T08:05:15Z</time>
      </trkpt>
      <trkpt lat="42.82382" lon="0.26192">
        <ele>1634.4</ele>
        <time>2022-01-09T08:05:16Z</time>
      </trkpt>
      <trkpt lat="42.82382" lon="0.26191">
        <ele>1635</ele>
        <time>2022-01-09T08:05:17Z</time>
      </trkpt>
      <trkpt lat="42.82382" lon="0.26191">
        <ele>1635.2</ele>
        <time>2022-01-09T08:05:18Z</time>
      </trkpt>
      <trkpt lat="42.82381" lon="0.2619">
        <ele>1635.8</ele>
        <time>2022-01-09T08:05:19Z</time>
      </trkpt>
      <trkpt lat="42.82381" lon="0.26189">
        <ele>1636.6</ele>
        <time>2022-01-09T08:05:20Z</time>
      </trkpt>
      <trkpt lat="42.82381" lon="0.26188">
        <ele>1636.8</ele>
        <time>2022-01-09T08:05:21Z</time>
      </trkpt>
      <trkpt lat="42.82381" lon="0.26187">
        <ele>1637.2</ele>
        <time>2022-01-09T08:05:22Z</time>
      </trkpt>
      <trkpt lat="42.8238" lon="0.26186">
        <ele>1637.6</ele>
        <time>2022-01-09T08:05:23Z</time>
      </trkpt>
      <trkpt lat="42.8238" lon="0.26185">
        <ele>1637.8</ele>
        <time>2022-01-09T08:05:24Z</time>
      </trkpt>
      <trkpt lat="42.8238" lon="0.26184">
        <ele>1638.2</ele>
        <time>2022-01-09T08:05:25Z</time>
      </trkpt>
      <trkpt lat="42.8238" lon="0.26184">
        <ele>1638.4</ele>
        <time>2022-01-09T08:05:26Z</time>
      </trkpt>
      <trkpt lat="42.8238" lon="0.26183">
        <ele>1638.8</ele>
        <time>2022-01-09T08:05:27Z</time>
      </trkpt>
      <trkpt lat="42.82379" lon="0.26182">
        <ele>1639</ele>
        <time>2022-01-09T08:05:28Z</time>
      </trkpt>
      <trkpt lat="42.82379" lon="0.26181">
        <ele>1639.4</ele>
        <time>2022-01-09T08:05:29Z</time>
      </trkpt>
      <trkpt lat="42.82379" lon="0.2618">
        <ele>1639.8</ele>
        <time>2022-01-09T08:05:30Z</time>
      </trkpt>
      <trkpt lat="42.82379" lon="0.26179">
        <ele>1640.2</ele>
        <time>2022-01-09T08:05:31Z</time>
      </trkpt>
      <trkpt lat="42.82379" lon="0.26178">
        <ele>1640.6</ele>
        <time>2022-01-09T08:05:32Z</time>
      </trkpt>
      <trkpt lat="42.82379" lon="0.26177">
        <ele>1641.4</ele>
        <time>2022-01-09T08:05:33Z</time>
      </trkpt>
      <trkpt lat="42.82378" lon="0.26176">
        <ele>1641.6</ele>
        <time>2022-01-09T08:05:34Z</time>
      </trkpt>
      <trkpt lat="42.82378" lon="0.26174">
        <ele>1641.8</ele>
        <time>2022-01-09T08:05:35Z</time>
      </trkpt>
      <trkpt lat="42.82378" lon="0.26173">
        <ele>1642.2</ele>
        <time>2022-01-09T08:05:36Z</time>
      </trkpt>
      <trkpt lat="42.82377" lon="0.26164">
        <ele>1642.4</ele>
        <time>2022-01-09T08:05:37Z</time>
      </trkpt>
      <trkpt lat="42.82377" lon="0.26162">
        <ele>1642.8</ele>
        <time>2022-01-09T08:05:38Z</time>
      </trkpt>
      <trkpt lat="42.82378" lon="0.2616">
        <ele>1643.2</ele>
        <time>2022-01-09T08:05:39Z</time>
      </trkpt>
      <trkpt lat="42.82378" lon="0.26158">
        <ele>1643.6</ele>
        <time>2022-01-09T08:05:40Z</time>
      </trkpt>
      <trkpt lat="42.82378" lon="0.26156">
        <ele>1644</ele>
        <time>2022-01-09T08:05:41Z</time>
      </trkpt>
      <trkpt lat="42.82378" lon="0.26154">
        <ele>1644.4</ele>
        <time>2022-01-09T08:05:42Z</time>
      </trkpt>
      <trkpt lat="42.82378" lon="0.26152">
        <ele>1644.8</ele>
        <time>2022-01-09T08:05:43Z</time>
      </trkpt>
      <trkpt lat="42.82377" lon="0.26149">
        <ele>1645.2</ele>
        <time>2022-01-09T08:05:44Z</time>
      </trkpt>
      <trkpt lat="42.82377" lon="0.26147">
        <ele>1645.6</ele>
        <time>2022-01-09T08:05:45Z</time>
      </trkpt>
      <trkpt lat="42.82377" lon="0.26145">
        <ele>1646</ele>
        <time>2022-01-09T08:05:46Z</time>
      </trkpt>
      <trkpt lat="42.82377" lon="0.26143">
        <ele>1646.2</ele>
        <time>2022-01-09T08:05:47Z</time>
      </trkpt>
      <trkpt lat="42.82377" lon="0.26141">
        <ele>1646.4</ele>
        <time>2022-01-09T08:05:48Z</time>
      </trkpt>
      <trkpt lat="42.82376" lon="0.26139">
        <ele>1646.8</ele>
        <time>2022-01-09T08:05:49Z</time>
      </trkpt>
      <trkpt lat="42.82376" lon="0.26137">
        <ele>1647.2</ele>
        <time>2022-01-09T08:05:50Z</time>
      </trkpt>
      <trkpt lat="42.82376" lon="0.26135">
        <ele>1647.6</ele>
        <time>2022-01-09T08:05:51Z</time>
      </trkpt>
      <trkpt lat="42.82375" lon="0.26133">
        <ele>1648</ele>
        <time>2022-01-09T08:05:52Z</time>
      </trkpt>
      <trkpt lat="42.82375" lon="0.26132">
        <ele>1648.8</ele>
        <time>2022-01-09T08:05:53Z</time>
      </trkpt>
      <trkpt lat="42.82375" lon="0.2613">
        <ele>1649</ele>
        <time>2022-01-09T08:05:54Z</time>
      </trkpt>
      <trkpt lat="42.82374" lon="0.26128">
        <ele>1649.2</ele>
        <time>2022-01-09T08:05:55Z</time>
      </trkpt>
      <trkpt lat="42.82374" lon="0.26126">
        <ele>1649.6</ele>
        <time>2022-01-09T08:05:56Z</time>
      </trkpt>
      <trkpt lat="42.82375" lon="0.26124">
        <ele>1650</ele>
        <time>2022-01-09T08:05:57Z</time>
      </trkpt>
      <trkpt lat="42.82375" lon="0.26122">
        <ele>1650.4</ele>
        <time>2022-01-09T08:05:58Z</time>
      </trkpt>
      <trkpt lat="42.82375" lon="0.26119">
        <ele>1651</ele>
        <time>2022-01-09T08:05:59Z</time>
      </trkpt>
      <trkpt lat="42.82375" lon="0.26117">
        <ele>1651.4</ele>
        <time>2022-01-09T08:06:00Z</time>
      </trkpt>
      <trkpt lat="42.82375" lon="0.26115">
        <ele>1651.8</ele>
        <time>2022-01-09T08:06:01Z</time>
      </trkpt>
      <trkpt lat="42.82375" lon="0.26113">
        <ele>1651.8</ele>
        <time>2022-01-09T08:06:02Z</time>
      </trkpt>
      <trkpt lat="42.82375" lon="0.26111">
        <ele>1652</ele>
        <time>2022-01-09T08:06:03Z</time>
      </trkpt>
      <trkpt lat="42.82375" lon="0.26109">
        <ele>1652.4</ele>
        <time>2022-01-09T08:06:04Z</time>
      </trkpt>
      <trkpt lat="42.82375" lon="0.26106">
        <ele>1652.6</ele>
        <time>2022-01-09T08:06:05Z</time>
      </trkpt>
      <trkpt lat="42.82375" lon="0.26104">
        <ele>1653</ele>
        <time>2022-01-09T08:06:06Z</time>
      </trkpt>
      <trkpt lat="42.82375" lon="0.26102">
        <ele>1653.2</ele>
        <time>2022-01-09T08:06:07Z</time>
      </trkpt>
      <trkpt lat="42.82375" lon="0.26099">
        <ele>1653.6</ele>
        <time>2022-01-09T08:06:08Z</time>
      </trkpt>
      <trkpt lat="42.82376" lon="0.26097">
        <ele>1654.4</ele>
        <time>2022-01-09T08:06:09Z</time>
      </trkpt>
      <trkpt lat="42.82377" lon="0.26095">
        <ele>1654.4</ele>
        <time>2022-01-09T08:06:10Z</time>
      </trkpt>
      <trkpt lat="42.82377" lon="0.26092">
        <ele>1654.6</ele>
        <time>2022-01-09T08:06:11Z</time>
      </trkpt>
      <trkpt lat="42.82378" lon="0.2609">
        <ele>1654.8</ele>
        <time>2022-01-09T08:06:12Z</time>
      </trkpt>
      <trkpt lat="42.82378" lon="0.26088">
        <ele>1655</ele>
        <time>2022-01-09T08:06:13Z</time>
      </trkpt>
      <trkpt lat="42.82378" lon="0.26086">
        <ele>1655.2</ele>
        <time>2022-01-09T08:06:14Z</time>
      </trkpt>
      <trkpt lat="42.82378" lon="0.26084">
        <ele>1655.6</ele>
        <time>2022-01-09T08:06:15Z</time>
      </trkpt>
      <trkpt lat="42.82379" lon="0.26082">
        <ele>1656</ele>
        <time>2022-01-09T08:06:16Z</time>
      </trkpt>
      <trkpt lat="42.82379" lon="0.2608">
        <ele>1656.4</ele>
        <time>2022-01-09T08:06:17Z</time>
      </trkpt>
      <trkpt lat="42.82379" lon="0.26078">
        <ele>1656.8</ele>
        <time>2022-01-09T08:06:18Z</time>
      </trkpt>
      <trkpt lat="42.82379" lon="0.26076">
        <ele>1657</ele>
        <time>2022-01-09T08:06:19Z</time>
      </trkpt>
      <trkpt lat="42.82379" lon="0.26075">
        <ele>1657.4</ele>
        <time>2022-01-09T08:06:20Z</time>
      </trkpt>
      <trkpt lat="42.8238" lon="0.26074">
        <ele>1657.6</ele>
        <time>2022-01-09T08:06:21Z</time>
      </trkpt>
      <trkpt lat="42.8238" lon="0.26073">
        <ele>1658</ele>
        <time>2022-01-09T08:06:22Z</time>
      </trkpt>
      <trkpt lat="42.8238" lon="0.26072">
        <ele>1658.2</ele>
        <time>2022-01-09T08:06:23Z</time>
      </trkpt>
      <trkpt lat="42.8238" lon="0.26071">
        <ele>1658.6</ele>
        <time>2022-01-09T08:06:24Z</time>
      </trkpt>
      <trkpt lat="42.82382" lon="0.26061">
        <ele>1658.6</ele>
        <time>2022-01-09T08:06:25Z</time>
      </trkpt>
      <trkpt lat="42.82382" lon="0.26059">
        <ele>1658.8</ele>
        <time>2022-01-09T08:06:26Z</time>
      </trkpt>
      <trkpt lat="42.82382" lon="0.26057">
        <ele>1659.4</ele>
        <time>2022-01-09T08:06:27Z</time>
      </trkpt>
      <trkpt lat="42.82383" lon="0.26055">
        <ele>1659.8</ele>
        <time>2022-01-09T08:06:28Z</time>
      </trkpt>
      <trkpt lat="42.82383" lon="0.26052">
        <ele>1660</ele>
        <time>2022-01-09T08:06:29Z</time>
      </trkpt>
      <trkpt lat="42.82383" lon="0.2605">
        <ele>1660</ele>
        <time>2022-01-09T08:06:30Z</time>
      </trkpt>
      <trkpt lat="42.82383" lon="0.26049">
        <ele>1660.4</ele>
        <time>2022-01-09T08:06:31Z</time>
      </trkpt>
      <trkpt lat="42.82383" lon="0.26047">
        <ele>1660.8</ele>
        <time>2022-01-09T08:06:32Z</time>
      </trkpt>
      <trkpt lat="42.82383" lon="0.26046">
        <ele>1661.4</ele>
        <time>2022-01-09T08:06:33Z</time>
      </trkpt>
      <trkpt lat="42.82383" lon="0.26044">
        <ele>1662</ele>
        <time>2022-01-09T08:06:34Z</time>
      </trkpt>
      <trkpt lat="42.82383" lon="0.26043">
        <ele>1662.2</ele>
        <time>2022-01-09T08:06:35Z</time>
      </trkpt>
      <trkpt lat="42.82383" lon="0.26034">
        <ele>1662.6</ele>
        <time>2022-01-09T08:06:36Z</time>
      </trkpt>
      <trkpt lat="42.82383" lon="0.26031">
        <ele>1663</ele>
        <time>2022-01-09T08:06:37Z</time>
      </trkpt>
      <trkpt lat="42.82383" lon="0.26029">
        <ele>1663.2</ele>
        <time>2022-01-09T08:06:38Z</time>
      </trkpt>
      <trkpt lat="42.82382" lon="0.26027">
        <ele>1663.6</ele>
        <time>2022-01-09T08:06:39Z</time>
      </trkpt>
      <trkpt lat="42.82382" lon="0.26025">
        <ele>1663.8</ele>
        <time>2022-01-09T08:06:40Z</time>
      </trkpt>
      <trkpt lat="42.82382" lon="0.26022">
        <ele>1664.2</ele>
        <time>2022-01-09T08:06:41Z</time>
      </trkpt>
      <trkpt lat="42.82382" lon="0.2602">
        <ele>1664.6</ele>
        <time>2022-01-09T08:06:42Z</time>
      </trkpt>
      <trkpt lat="42.82382" lon="0.26017">
        <ele>1665.2</ele>
        <time>2022-01-09T08:06:43Z</time>
      </trkpt>
      <trkpt lat="42.82382" lon="0.26015">
        <ele>1665.6</ele>
        <time>2022-01-09T08:06:44Z</time>
      </trkpt>
      <trkpt lat="42.82382" lon="0.26013">
        <ele>1666.2</ele>
        <time>2022-01-09T08:06:45Z</time>
      </trkpt>
      <trkpt lat="42.82381" lon="0.2601">
        <ele>1666.6</ele>
        <time>2022-01-09T08:06:46Z</time>
      </trkpt>
      <trkpt lat="42.82381" lon="0.26008">
        <ele>1667</ele>
        <time>2022-01-09T08:06:47Z</time>
      </trkpt>
      <trkpt lat="42.82381" lon="0.26006">
        <ele>1667.4</ele>
        <time>2022-01-09T08:06:48Z</time>
      </trkpt>
      <trkpt lat="42.8238" lon="0.26004">
        <ele>1667.8</ele>
        <time>2022-01-09T08:06:49Z</time>
      </trkpt>
      <trkpt lat="42.8238" lon="0.26001">
        <ele>1668</ele>
        <time>2022-01-09T08:06:50Z</time>
      </trkpt>
      <trkpt lat="42.8238" lon="0.25999">
        <ele>1668.2</ele>
        <time>2022-01-09T08:06:51Z</time>
      </trkpt>
      <trkpt lat="42.82379" lon="0.25997">
        <ele>1668.4</ele>
        <time>2022-01-09T08:06:52Z</time>
      </trkpt>
      <trkpt lat="42.82379" lon="0.25995">
        <ele>1668.8</ele>
        <time>2022-01-09T08:06:53Z</time>
      </trkpt>
      <trkpt lat="42.82378" lon="0.25994">
        <ele>1668.8</ele>
        <time>2022-01-09T08:06:54Z</time>
      </trkpt>
      <trkpt lat="42.82377" lon="0.25992">
        <ele>1669.2</ele>
        <time>2022-01-09T08:06:55Z</time>
      </trkpt>
      <trkpt lat="42.82377" lon="0.2599">
        <ele>1669.4</ele>
        <time>2022-01-09T08:06:56Z</time>
      </trkpt>
      <trkpt lat="42.82376" lon="0.25988">
        <ele>1669.8</ele>
        <time>2022-01-09T08:06:57Z</time>
      </trkpt>
      <trkpt lat="42.82375" lon="0.25986">
        <ele>1670</ele>
        <time>2022-01-09T08:06:58Z</time>
      </trkpt>
      <trkpt lat="42.82376" lon="0.25984">
        <ele>1670.4</ele>
        <time>2022-01-09T08:06:59Z</time>
      </trkpt>
      <trkpt lat="42.82376" lon="0.25981">
        <ele>1670.8</ele>
        <time>2022-01-09T08:07:00Z</time>
      </trkpt>
      <trkpt lat="42.82376" lon="0.25979">
        <ele>1671</ele>
        <time>2022-01-09T08:07:01Z</time>
      </trkpt>
      <trkpt lat="42.82376" lon="0.25976">
        <ele>1671.6</ele>
        <time>2022-01-09T08:07:02Z</time>
      </trkpt>
      <trkpt lat="42.82377" lon="0.25974">
        <ele>1672</ele>
        <time>2022-01-09T08:07:03Z</time>
      </trkpt>
      <trkpt lat="42.82377" lon="0.25971">
        <ele>1672.2</ele>
        <time>2022-01-09T08:07:04Z</time>
      </trkpt>
      <trkpt lat="42.82377" lon="0.25968">
        <ele>1672.4</ele>
        <time>2022-01-09T08:07:05Z</time>
      </trkpt>
      <trkpt lat="42.82377" lon="0.25966">
        <ele>1672.6</ele>
        <time>2022-01-09T08:07:06Z</time>
      </trkpt>
      <trkpt lat="42.82377" lon="0.25963">
        <ele>1673</ele>
        <time>2022-01-09T08:07:07Z</time>
      </trkpt>
      <trkpt lat="42.82377" lon="0.2596">
        <ele>1673.6</ele>
        <time>2022-01-09T08:07:08Z</time>
      </trkpt>
      <trkpt lat="42.82376" lon="0.25958">
        <ele>1674</ele>
        <time>2022-01-09T08:07:09Z</time>
      </trkpt>
      <trkpt lat="42.82376" lon="0.25956">
        <ele>1674.4</ele>
        <time>2022-01-09T08:07:10Z</time>
      </trkpt>
      <trkpt lat="42.82375" lon="0.25954">
        <ele>1674.8</ele>
        <time>2022-01-09T08:07:11Z</time>
      </trkpt>
      <trkpt lat="42.82375" lon="0.25952">
        <ele>1675.4</ele>
        <time>2022-01-09T08:07:12Z</time>
      </trkpt>
      <trkpt lat="42.82375" lon="0.2595">
        <ele>1675.6</ele>
        <time>2022-01-09T08:07:13Z</time>
      </trkpt>
      <trkpt lat="42.82374" lon="0.25948">
        <ele>1675.6</ele>
        <time>2022-01-09T08:07:14Z</time>
      </trkpt>
      <trkpt lat="42.82374" lon="0.25947">
        <ele>1675.8</ele>
        <time>2022-01-09T08:07:15Z</time>
      </trkpt>
      <trkpt lat="42.82374" lon="0.25946">
        <ele>1676.2</ele>
        <time>2022-01-09T08:07:16Z</time>
      </trkpt>
      <trkpt lat="42.82373" lon="0.25945">
        <ele>1676.6</ele>
        <time>2022-01-09T08:07:17Z</time>
      </trkpt>
      <trkpt lat="42.82373" lon="0.25944">
        <ele>1677</ele>
        <time>2022-01-09T08:07:18Z</time>
      </trkpt>
      <trkpt lat="42.82372" lon="0.25943">
        <ele>1677.2</ele>
        <time>2022-01-09T08:07:19Z</time>
      </trkpt>
      <trkpt lat="42.82372" lon="0.25942">
        <ele>1677.8</ele>
        <time>2022-01-09T08:07:20Z</time>
      </trkpt>
      <trkpt lat="42.8237" lon="0.25933">
        <ele>1678.2</ele>
        <time>2022-01-09T08:07:21Z</time>
      </trkpt>
      <trkpt lat="42.8237" lon="0.25931">
        <ele>1678.6</ele>
        <time>2022-01-09T08:07:22Z</time>
      </trkpt>
      <trkpt lat="42.82371" lon="0.25929">
        <ele>1678.8</ele>
        <time>2022-01-09T08:07:23Z</time>
      </trkpt>
      <trkpt lat="42.82371" lon="0.25926">
        <ele>1679</ele>
        <time>2022-01-09T08:07:24Z</time>
      </trkpt>
      <trkpt lat="42.82371" lon="0.25924">
        <ele>1679.4</ele>
        <time>2022-01-09T08:07:25Z</time>
      </trkpt>
      <trkpt lat="42.82371" lon="0.25922">
        <ele>1679.8</ele>
        <time>2022-01-09T08:07:26Z</time>
      </trkpt>
      <trkpt lat="42.82371" lon="0.2592">
        <ele>1679.8</ele>
        <time>2022-01-09T08:07:27Z</time>
      </trkpt>
      <trkpt lat="42.82371" lon="0.25918">
        <ele>1680.2</ele>
        <time>2022-01-09T08:07:28Z</time>
      </trkpt>
      <trkpt lat="42.82371" lon="0.25916">
        <ele>1680.6</ele>
        <time>2022-01-09T08:07:29Z</time>
      </trkpt>
      <trkpt lat="42.8237" lon="0.25914">
        <ele>1680.6</ele>
        <time>2022-01-09T08:07:30Z</time>
      </trkpt>
      <trkpt lat="42.8237" lon="0.25911">
        <ele>1681</ele>
        <time>2022-01-09T08:07:31Z</time>
      </trkpt>
      <trkpt lat="42.8237" lon="0.25909">
        <ele>1681.4</ele>
        <time>2022-01-09T08:07:32Z</time>
      </trkpt>
      <trkpt lat="42.8237" lon="0.25907">
        <ele>1681.6</ele>
        <time>2022-01-09T08:07:33Z</time>
      </trkpt>
      <trkpt lat="42.8237" lon="0.25904">
        <ele>1682</ele>
        <time>2022-01-09T08:07:34Z</time>
      </trkpt>
      <trkpt lat="42.8237" lon="0.25902">
        <ele>1682.6</ele>
        <time>2022-01-09T08:07:35Z</time>
      </trkpt>
      <trkpt lat="42.8237" lon="0.25899">
        <ele>1682.6</ele>
        <time>2022-01-09T08:07:36Z</time>
      </trkpt>
      <trkpt lat="42.8237" lon="0.25897">
        <ele>1683.2</ele>
        <time>2022-01-09T08:07:37Z</time>
      </trkpt>
      <trkpt lat="42.8237" lon="0.25895">
        <ele>1683.6</ele>
        <time>2022-01-09T08:07:38Z</time>
      </trkpt>
      <trkpt lat="42.82371" lon="0.25892">
        <ele>1683.8</ele>
        <time>2022-01-09T08:07:39Z</time>
      </trkpt>
      <trkpt lat="42.82371" lon="0.2589">
        <ele>1684.4</ele>
        <time>2022-01-09T08:07:40Z</time>
      </trkpt>
      <trkpt lat="42.82372" lon="0.25888">
        <ele>1684.6</ele>
        <time>2022-01-09T08:07:41Z</time>
      </trkpt>
      <trkpt lat="42.82372" lon="0.25886">
        <ele>1685</ele>
        <time>2022-01-09T08:07:42Z</time>
      </trkpt>
      <trkpt lat="42.82372" lon="0.25884">
        <ele>1685.4</ele>
        <time>2022-01-09T08:07:43Z</time>
      </trkpt>
      <trkpt lat="42.82373" lon="0.25882">
        <ele>1685.8</ele>
        <time>2022-01-09T08:07:44Z</time>
      </trkpt>
      <trkpt lat="42.82373" lon="0.2588">
        <ele>1686.2</ele>
        <time>2022-01-09T08:07:45Z</time>
      </trkpt>
      <trkpt lat="42.82374" lon="0.25879">
        <ele>1686.4</ele>
        <time>2022-01-09T08:07:46Z</time>
      </trkpt>
      <trkpt lat="42.82375" lon="0.25877">
        <ele>1686.8</ele>
        <time>2022-01-09T08:07:47Z</time>
      </trkpt>
      <trkpt lat="42.82375" lon="0.25875">
        <ele>1687.2</ele>
        <time>2022-01-09T08:07:48Z</time>
      </trkpt>
      <trkpt lat="42.82376" lon="0.25873">
        <ele>1687.8</ele>
        <time>2022-01-09T08:07:49Z</time>
      </trkpt>
      <trkpt lat="42.82376" lon="0.25871">
        <ele>1688.2</ele>
        <time>2022-01-09T08:07:50Z</time>
      </trkpt>
      <trkpt lat="42.82377" lon="0.2587">
        <ele>1688.8</ele>
        <time>2022-01-09T08:07:51Z</time>
      </trkpt>
      <trkpt lat="42.82377" lon="0.25868">
        <ele>1689.2</ele>
        <time>2022-01-09T08:07:52Z</time>
      </trkpt>
      <trkpt lat="42.82378" lon="0.25866">
        <ele>1689.6</ele>
        <time>2022-01-09T08:07:53Z</time>
      </trkpt>
      <trkpt lat="42.82379" lon="0.25864">
        <ele>1689.8</ele>
        <time>2022-01-09T08:07:54Z</time>
      </trkpt>
      <trkpt lat="42.82379" lon="0.25862">
        <ele>1690</ele>
        <time>2022-01-09T08:07:55Z</time>
      </trkpt>
      <trkpt lat="42.8238" lon="0.25861">
        <ele>1690.2</ele>
        <time>2022-01-09T08:07:56Z</time>
      </trkpt>
      <trkpt lat="42.8238" lon="0.25859">
        <ele>1690.6</ele>
        <time>2022-01-09T08:07:57Z</time>
      </trkpt>
      <trkpt lat="42.82381" lon="0.25857">
        <ele>1690.8</ele>
        <time>2022-01-09T08:07:58Z</time>
      </trkpt>
      <trkpt lat="42.82382" lon="0.25855">
        <ele>1690.8</ele>
        <time>2022-01-09T08:07:59Z</time>
      </trkpt>
      <trkpt lat="42.82383" lon="0.25853">
        <ele>1691.2</ele>
        <time>2022-01-09T08:08:00Z</time>
      </trkpt>
      <trkpt lat="42.82383" lon="0.25852">
        <ele>1691.6</ele>
        <time>2022-01-09T08:08:01Z</time>
      </trkpt>
      <trkpt lat="42.82384" lon="0.2585">
        <ele>1691.8</ele>
        <time>2022-01-09T08:08:02Z</time>
      </trkpt>
      <trkpt lat="42.82385" lon="0.25848">
        <ele>1692</ele>
        <time>2022-01-09T08:08:03Z</time>
      </trkpt>
      <trkpt lat="42.82385" lon="0.25845">
        <ele>1692.4</ele>
        <time>2022-01-09T08:08:04Z</time>
      </trkpt>
      <trkpt lat="42.82386" lon="0.25843">
        <ele>1693</ele>
        <time>2022-01-09T08:08:05Z</time>
      </trkpt>
      <trkpt lat="42.82386" lon="0.2584">
        <ele>1693.6</ele>
        <time>2022-01-09T08:08:06Z</time>
      </trkpt>
      <trkpt lat="42.82387" lon="0.25838">
        <ele>1694.2</ele>
        <time>2022-01-09T08:08:07Z</time>
      </trkpt>
      <trkpt lat="42.82387" lon="0.25835">
        <ele>1694.4</ele>
        <time>2022-01-09T08:08:08Z</time>
      </trkpt>
      <trkpt lat="42.82388" lon="0.25832">
        <ele>1695</ele>
        <time>2022-01-09T08:08:09Z</time>
      </trkpt>
      <trkpt lat="42.82388" lon="0.25829">
        <ele>1695</ele>
        <time>2022-01-09T08:08:10Z</time>
      </trkpt>
      <trkpt lat="42.82389" lon="0.25826">
        <ele>1695.2</ele>
        <time>2022-01-09T08:08:11Z</time>
      </trkpt>
      <trkpt lat="42.8239" lon="0.25823">
        <ele>1695</ele>
        <time>2022-01-09T08:08:12Z</time>
      </trkpt>
      <trkpt lat="42.82389" lon="0.2582">
        <ele>1695.4</ele>
        <time>2022-01-09T08:08:13Z</time>
      </trkpt>
      <trkpt lat="42.82389" lon="0.25817">
        <ele>1695.8</ele>
        <time>2022-01-09T08:08:14Z</time>
      </trkpt>
      <trkpt lat="42.82389" lon="0.25813">
        <ele>1695.8</ele>
        <time>2022-01-09T08:08:15Z</time>
      </trkpt>
      <trkpt lat="42.82388" lon="0.2581">
        <ele>1696.2</ele>
        <time>2022-01-09T08:08:16Z</time>
      </trkpt>
      <trkpt lat="42.82388" lon="0.25808">
        <ele>1696.2</ele>
        <time>2022-01-09T08:08:17Z</time>
      </trkpt>
      <trkpt lat="42.82388" lon="0.25807">
        <ele>1696.4</ele>
        <time>2022-01-09T08:08:18Z</time>
      </trkpt>
      <trkpt lat="42.82389" lon="0.25805">
        <ele>1696.4</ele>
        <time>2022-01-09T08:08:19Z</time>
      </trkpt>
      <trkpt lat="42.82389" lon="0.25803">
        <ele>1697</ele>
        <time>2022-01-09T08:08:20Z</time>
      </trkpt>
      <trkpt lat="42.82389" lon="0.25793">
        <ele>1697.4</ele>
        <time>2022-01-09T08:08:21Z</time>
      </trkpt>
      <trkpt lat="42.82389" lon="0.25791">
        <ele>1697.6</ele>
        <time>2022-01-09T08:08:22Z</time>
      </trkpt>
      <trkpt lat="42.82389" lon="0.25788">
        <ele>1697.8</ele>
        <time>2022-01-09T08:08:23Z</time>
      </trkpt>
      <trkpt lat="42.82389" lon="0.25786">
        <ele>1698</ele>
        <time>2022-01-09T08:08:24Z</time>
      </trkpt>
      <trkpt lat="42.82389" lon="0.25783">
        <ele>1698</ele>
        <time>2022-01-09T08:08:25Z</time>
      </trkpt>
      <trkpt lat="42.82389" lon="0.2578">
        <ele>1698.2</ele>
        <time>2022-01-09T08:08:26Z</time>
      </trkpt>
      <trkpt lat="42.82388" lon="0.25777">
        <ele>1698.4</ele>
        <time>2022-01-09T08:08:27Z</time>
      </trkpt>
      <trkpt lat="42.82388" lon="0.25774">
        <ele>1698.4</ele>
        <time>2022-01-09T08:08:28Z</time>
      </trkpt>
      <trkpt lat="42.82388" lon="0.25771">
        <ele>1698.8</ele>
        <time>2022-01-09T08:08:29Z</time>
      </trkpt>
      <trkpt lat="42.82387" lon="0.25768">
        <ele>1699.2</ele>
        <time>2022-01-09T08:08:30Z</time>
      </trkpt>
      <trkpt lat="42.82387" lon="0.25766">
        <ele>1699.6</ele>
        <time>2022-01-09T08:08:31Z</time>
      </trkpt>
      <trkpt lat="42.82386" lon="0.25764">
        <ele>1700</ele>
        <time>2022-01-09T08:08:32Z</time>
      </trkpt>
      <trkpt lat="42.82386" lon="0.25761">
        <ele>1700.2</ele>
        <time>2022-01-09T08:08:33Z</time>
      </trkpt>
      <trkpt lat="42.82385" lon="0.25759">
        <ele>1700.6</ele>
        <time>2022-01-09T08:08:34Z</time>
      </trkpt>
      <trkpt lat="42.82385" lon="0.25757">
        <ele>1701.2</ele>
        <time>2022-01-09T08:08:35Z</time>
      </trkpt>
      <trkpt lat="42.82385" lon="0.25755">
        <ele>1701.6</ele>
        <time>2022-01-09T08:08:36Z</time>
      </trkpt>
      <trkpt lat="42.82385" lon="0.25753">
        <ele>1702</ele>
        <time>2022-01-09T08:08:37Z</time>
      </trkpt>
      <trkpt lat="42.82385" lon="0.25751">
        <ele>1702.4</ele>
        <time>2022-01-09T08:08:38Z</time>
      </trkpt>
      <trkpt lat="42.82385" lon="0.25748">
        <ele>1702.6</ele>
        <time>2022-01-09T08:08:39Z</time>
      </trkpt>
      <trkpt lat="42.82385" lon="0.25746">
        <ele>1703</ele>
        <time>2022-01-09T08:08:40Z</time>
      </trkpt>
      <trkpt lat="42.82385" lon="0.25744">
        <ele>1703.2</ele>
        <time>2022-01-09T08:08:41Z</time>
      </trkpt>
      <trkpt lat="42.82385" lon="0.25742">
        <ele>1703.8</ele>
        <time>2022-01-09T08:08:42Z</time>
      </trkpt>
      <trkpt lat="42.82385" lon="0.25739">
        <ele>1704.2</ele>
        <time>2022-01-09T08:08:43Z</time>
      </trkpt>
      <trkpt lat="42.82385" lon="0.25737">
        <ele>1704.6</ele>
        <time>2022-01-09T08:08:44Z</time>
      </trkpt>
      <trkpt lat="42.82385" lon="0.25735">
        <ele>1705</ele>
        <time>2022-01-09T08:08:45Z</time>
      </trkpt>
      <trkpt lat="42.82385" lon="0.25732">
        <ele>1705.2</ele>
        <time>2022-01-09T08:08:46Z</time>
      </trkpt>
      <trkpt lat="42.82385" lon="0.2573">
        <ele>1705.6</ele>
        <time>2022-01-09T08:08:47Z</time>
      </trkpt>
      <trkpt lat="42.82384" lon="0.25728">
        <ele>1706</ele>
        <time>2022-01-09T08:08:48Z</time>
      </trkpt>
      <trkpt lat="42.82383" lon="0.25726">
        <ele>1706.4</ele>
        <time>2022-01-09T08:08:49Z</time>
      </trkpt>
      <trkpt lat="42.82383" lon="0.25724">
        <ele>1706.8</ele>
        <time>2022-01-09T08:08:50Z</time>
      </trkpt>
      <trkpt lat="42.82382" lon="0.25722">
        <ele>1707.2</ele>
        <time>2022-01-09T08:08:51Z</time>
      </trkpt>
      <trkpt lat="42.82381" lon="0.2572">
        <ele>1707.6</ele>
        <time>2022-01-09T08:08:52Z</time>
      </trkpt>
      <trkpt lat="42.82381" lon="0.25718">
        <ele>1708</ele>
        <time>2022-01-09T08:08:53Z</time>
      </trkpt>
      <trkpt lat="42.8238" lon="0.25716">
        <ele>1708.4</ele>
        <time>2022-01-09T08:08:54Z</time>
      </trkpt>
      <trkpt lat="42.8238" lon="0.25715">
        <ele>1709</ele>
        <time>2022-01-09T08:08:55Z</time>
      </trkpt>
      <trkpt lat="42.82379" lon="0.25713">
        <ele>1709.4</ele>
        <time>2022-01-09T08:08:56Z</time>
      </trkpt>
      <trkpt lat="42.82379" lon="0.25711">
        <ele>1709.8</ele>
        <time>2022-01-09T08:08:57Z</time>
      </trkpt>
      <trkpt lat="42.82378" lon="0.25709">
        <ele>1710.2</ele>
        <time>2022-01-09T08:08:58Z</time>
      </trkpt>
      <trkpt lat="42.82377" lon="0.25707">
        <ele>1710.6</ele>
        <time>2022-01-09T08:08:59Z</time>
      </trkpt>
      <trkpt lat="42.82377" lon="0.25706">
        <ele>1710.8</ele>
        <time>2022-01-09T08:09:00Z</time>
      </trkpt>
      <trkpt lat="42.82376" lon="0.25704">
        <ele>1711.2</ele>
        <time>2022-01-09T08:09:01Z</time>
      </trkpt>
      <trkpt lat="42.82375" lon="0.25702">
        <ele>1711.6</ele>
        <time>2022-01-09T08:09:02Z</time>
      </trkpt>
      <trkpt lat="42.82374" lon="0.25701">
        <ele>1712</ele>
        <time>2022-01-09T08:09:03Z</time>
      </trkpt>
      <trkpt lat="42.82373" lon="0.25699">
        <ele>1712.4</ele>
        <time>2022-01-09T08:09:04Z</time>
      </trkpt>
      <trkpt lat="42.82373" lon="0.25697">
        <ele>1712.6</ele>
        <time>2022-01-09T08:09:05Z</time>
      </trkpt>
      <trkpt lat="42.82372" lon="0.25695">
        <ele>1713</ele>
        <time>2022-01-09T08:09:06Z</time>
      </trkpt>
      <trkpt lat="42.82372" lon="0.25693">
        <ele>1713.4</ele>
        <time>2022-01-09T08:09:07Z</time>
      </trkpt>
      <trkpt lat="42.82371" lon="0.25691">
        <ele>1713.6</ele>
        <time>2022-01-09T08:09:08Z</time>
      </trkpt>
      <trkpt lat="42.82371" lon="0.25689">
        <ele>1713.8</ele>
        <time>2022-01-09T08:09:09Z</time>
      </trkpt>
      <trkpt lat="42.82371" lon="0.25687">
        <ele>1714.2</ele>
        <time>2022-01-09T08:09:10Z</time>
      </trkpt>
      <trkpt lat="42.8237" lon="0.25685">
        <ele>1714.6</ele>
        <time>2022-01-09T08:09:11Z</time>
      </trkpt>
      <trkpt lat="42.8237" lon="0.25683">
        <ele>1715</ele>
        <time>2022-01-09T08:09:12Z</time>
      </trkpt>
      <trkpt lat="42.8237" lon="0.25682">
        <ele>1715.2</ele>
        <time>2022-01-09T08:09:13Z</time>
      </trkpt>
      <trkpt lat="42.8237" lon="0.25681">
        <ele>1715.4</ele>
        <time>2022-01-09T08:09:14Z</time>
      </trkpt>
      <trkpt lat="42.82369" lon="0.2568">
        <ele>1715.6</ele>
        <time>2022-01-09T08:09:15Z</time>
      </trkpt>
      <trkpt lat="42.82369" lon="0.25679">
        <ele>1716</ele>
        <time>2022-01-09T08:09:16Z</time>
      </trkpt>
      <trkpt lat="42.82369" lon="0.25678">
        <ele>1716.4</ele>
        <time>2022-01-09T08:09:17Z</time>
      </trkpt>
      <trkpt lat="42.82369" lon="0.25677">
        <ele>1717.2</ele>
        <time>2022-01-09T08:09:18Z</time>
      </trkpt>
      <trkpt lat="42.82369" lon="0.25676">
        <ele>1717.8</ele>
        <time>2022-01-09T08:09:19Z</time>
      </trkpt>
      <trkpt lat="42.82366" lon="0.25668">
        <ele>1717.8</ele>
        <time>2022-01-09T08:09:20Z</time>
      </trkpt>
      <trkpt lat="42.82366" lon="0.25667">
        <ele>1718.4</ele>
        <time>2022-01-09T08:09:21Z</time>
      </trkpt>
      <trkpt lat="42.82365" lon="0.25666">
        <ele>1718.8</ele>
        <time>2022-01-09T08:09:22Z</time>
      </trkpt>
      <trkpt lat="42.82364" lon="0.25664">
        <ele>1719</ele>
        <time>2022-01-09T08:09:23Z</time>
      </trkpt>
      <trkpt lat="42.82364" lon="0.25663">
        <ele>1719.2</ele>
        <time>2022-01-09T08:09:24Z</time>
      </trkpt>
      <trkpt lat="42.82363" lon="0.25661">
        <ele>1719.4</ele>
        <time>2022-01-09T08:09:25Z</time>
      </trkpt>
      <trkpt lat="42.82362" lon="0.2566">
        <ele>1719.8</ele>
        <time>2022-01-09T08:09:26Z</time>
      </trkpt>
      <trkpt lat="42.82362" lon="0.25659">
        <ele>1720.2</ele>
        <time>2022-01-09T08:09:27Z</time>
      </trkpt>
      <trkpt lat="42.82361" lon="0.25657">
        <ele>1720.6</ele>
        <time>2022-01-09T08:09:28Z</time>
      </trkpt>
      <trkpt lat="42.82361" lon="0.25655">
        <ele>1721.2</ele>
        <time>2022-01-09T08:09:29Z</time>
      </trkpt>
      <trkpt lat="42.8236" lon="0.25653">
        <ele>1721.6</ele>
        <time>2022-01-09T08:09:30Z</time>
      </trkpt>
      <trkpt lat="42.8236" lon="0.2565">
        <ele>1722</ele>
        <time>2022-01-09T08:09:31Z</time>
      </trkpt>
      <trkpt lat="42.82359" lon="0.25648">
        <ele>1722.2</ele>
        <time>2022-01-09T08:09:32Z</time>
      </trkpt>
      <trkpt lat="42.82358" lon="0.25646">
        <ele>1722.8</ele>
        <time>2022-01-09T08:09:33Z</time>
      </trkpt>
      <trkpt lat="42.82358" lon="0.25645">
        <ele>1723</ele>
        <time>2022-01-09T08:09:34Z</time>
      </trkpt>
      <trkpt lat="42.82357" lon="0.25644">
        <ele>1723.4</ele>
        <time>2022-01-09T08:09:35Z</time>
      </trkpt>
      <trkpt lat="42.82357" lon="0.25642">
        <ele>1723.8</ele>
        <time>2022-01-09T08:09:36Z</time>
      </trkpt>
      <trkpt lat="42.82356" lon="0.25641">
        <ele>1724.2</ele>
        <time>2022-01-09T08:09:37Z</time>
      </trkpt>
      <trkpt lat="42.82356" lon="0.25639">
        <ele>1724.8</ele>
        <time>2022-01-09T08:09:38Z</time>
      </trkpt>
      <trkpt lat="42.82355" lon="0.25638">
        <ele>1725.2</ele>
        <time>2022-01-09T08:09:39Z</time>
      </trkpt>
      <trkpt lat="42.82355" lon="0.25637">
        <ele>1725.6</ele>
        <time>2022-01-09T08:09:40Z</time>
      </trkpt>
      <trkpt lat="42.82354" lon="0.25635">
        <ele>1726</ele>
        <time>2022-01-09T08:09:41Z</time>
      </trkpt>
      <trkpt lat="42.82354" lon="0.25634">
        <ele>1726.2</ele>
        <time>2022-01-09T08:09:42Z</time>
      </trkpt>
      <trkpt lat="42.82354" lon="0.25632">
        <ele>1726.6</ele>
        <time>2022-01-09T08:09:43Z</time>
      </trkpt>
      <trkpt lat="42.82354" lon="0.2563">
        <ele>1727</ele>
        <time>2022-01-09T08:09:44Z</time>
      </trkpt>
      <trkpt lat="42.82354" lon="0.25628">
        <ele>1727.4</ele>
        <time>2022-01-09T08:09:45Z</time>
      </trkpt>
      <trkpt lat="42.82353" lon="0.25627">
        <ele>1727.6</ele>
        <time>2022-01-09T08:09:46Z</time>
      </trkpt>
      <trkpt lat="42.82353" lon="0.25625">
        <ele>1728.4</ele>
        <time>2022-01-09T08:09:47Z</time>
      </trkpt>
      <trkpt lat="42.82353" lon="0.25623">
        <ele>1729</ele>
        <time>2022-01-09T08:09:48Z</time>
      </trkpt>
      <trkpt lat="42.82352" lon="0.25621">
        <ele>1729.6</ele>
        <time>2022-01-09T08:09:49Z</time>
      </trkpt>
      <trkpt lat="42.82352" lon="0.25619">
        <ele>1730</ele>
        <time>2022-01-09T08:09:50Z</time>
      </trkpt>
      <trkpt lat="42.82351" lon="0.25617">
        <ele>1730.2</ele>
        <time>2022-01-09T08:09:51Z</time>
      </trkpt>
      <trkpt lat="42.8235" lon="0.25615">
        <ele>1730.6</ele>
        <time>2022-01-09T08:09:52Z</time>
      </trkpt>
      <trkpt lat="42.8235" lon="0.25614">
        <ele>1731</ele>
        <time>2022-01-09T08:09:53Z</time>
      </trkpt>
      <trkpt lat="42.82349" lon="0.25612">
        <ele>1731.2</ele>
        <time>2022-01-09T08:09:54Z</time>
      </trkpt>
      <trkpt lat="42.82348" lon="0.2561">
        <ele>1731.4</ele>
        <time>2022-01-09T08:09:55Z</time>
      </trkpt>
      <trkpt lat="42.82348" lon="0.25608">
        <ele>1732</ele>
        <time>2022-01-09T08:09:56Z</time>
      </trkpt>
      <trkpt lat="42.82348" lon="0.25607">
        <ele>1733</ele>
        <time>2022-01-09T08:09:57Z</time>
      </trkpt>
      <trkpt lat="42.82347" lon="0.25605">
        <ele>1733.4</ele>
        <time>2022-01-09T08:09:58Z</time>
      </trkpt>
      <trkpt lat="42.82347" lon="0.25603">
        <ele>1733.8</ele>
        <time>2022-01-09T08:09:59Z</time>
      </trkpt>
      <trkpt lat="42.82346" lon="0.25601">
        <ele>1734.2</ele>
        <time>2022-01-09T08:10:00Z</time>
      </trkpt>
      <trkpt lat="42.82346" lon="0.256">
        <ele>1734.6</ele>
        <time>2022-01-09T08:10:01Z</time>
      </trkpt>
      <trkpt lat="42.82346" lon="0.25599">
        <ele>1734.8</ele>
        <time>2022-01-09T08:10:02Z</time>
      </trkpt>
      <trkpt lat="42.82345" lon="0.25598">
        <ele>1734.8</ele>
        <time>2022-01-09T08:10:03Z</time>
      </trkpt>
      <trkpt lat="42.82345" lon="0.25597">
        <ele>1735</ele>
        <time>2022-01-09T08:10:04Z</time>
      </trkpt>
      <trkpt lat="42.82345" lon="0.25596">
        <ele>1735.2</ele>
        <time>2022-01-09T08:10:05Z</time>
      </trkpt>
      <trkpt lat="42.82344" lon="0.25595">
        <ele>1735.8</ele>
        <time>2022-01-09T08:10:06Z</time>
      </trkpt>
      <trkpt lat="42.82344" lon="0.25594">
        <ele>1736.4</ele>
        <time>2022-01-09T08:10:07Z</time>
      </trkpt>
      <trkpt lat="42.82344" lon="0.25593">
        <ele>1736.8</ele>
        <time>2022-01-09T08:10:08Z</time>
      </trkpt>
      <trkpt lat="42.82341" lon="0.25585">
        <ele>1737</ele>
        <time>2022-01-09T08:10:09Z</time>
      </trkpt>
      <trkpt lat="42.8234" lon="0.25584">
        <ele>1737.4</ele>
        <time>2022-01-09T08:10:10Z</time>
      </trkpt>
      <trkpt lat="42.8234" lon="0.25582">
        <ele>1737.8</ele>
        <time>2022-01-09T08:10:11Z</time>
      </trkpt>
      <trkpt lat="42.82339" lon="0.25581">
        <ele>1737.8</ele>
        <time>2022-01-09T08:10:12Z</time>
      </trkpt>
      <trkpt lat="42.82339" lon="0.25579">
        <ele>1738</ele>
        <time>2022-01-09T08:10:13Z</time>
      </trkpt>
      <trkpt lat="42.82338" lon="0.25578">
        <ele>1738.4</ele>
        <time>2022-01-09T08:10:14Z</time>
      </trkpt>
      <trkpt lat="42.82337" lon="0.25576">
        <ele>1738.8</ele>
        <time>2022-01-09T08:10:15Z</time>
      </trkpt>
      <trkpt lat="42.82337" lon="0.25575">
        <ele>1739</ele>
        <time>2022-01-09T08:10:16Z</time>
      </trkpt>
      <trkpt lat="42.82336" lon="0.25574">
        <ele>1739.4</ele>
        <time>2022-01-09T08:10:17Z</time>
      </trkpt>
      <trkpt lat="42.82335" lon="0.25573">
        <ele>1739.6</ele>
        <time>2022-01-09T08:10:18Z</time>
      </trkpt>
      <trkpt lat="42.82334" lon="0.25572">
        <ele>1740.4</ele>
        <time>2022-01-09T08:10:19Z</time>
      </trkpt>
      <trkpt lat="42.82333" lon="0.25572">
        <ele>1740.8</ele>
        <time>2022-01-09T08:10:20Z</time>
      </trkpt>
      <trkpt lat="42.82331" lon="0.25571">
        <ele>1741.2</ele>
        <time>2022-01-09T08:10:21Z</time>
      </trkpt>
      <trkpt lat="42.8233" lon="0.2557">
        <ele>1741.2</ele>
        <time>2022-01-09T08:10:22Z</time>
      </trkpt>
      <trkpt lat="42.82329" lon="0.25569">
        <ele>1741.6</ele>
        <time>2022-01-09T08:10:23Z</time>
      </trkpt>
      <trkpt lat="42.82328" lon="0.25568">
        <ele>1742</ele>
        <time>2022-01-09T08:10:24Z</time>
      </trkpt>
      <trkpt lat="42.82327" lon="0.25568">
        <ele>1742.4</ele>
        <time>2022-01-09T08:10:25Z</time>
      </trkpt>
      <trkpt lat="42.82326" lon="0.25567">
        <ele>1742.6</ele>
        <time>2022-01-09T08:10:26Z</time>
      </trkpt>
      <trkpt lat="42.82326" lon="0.25567">
        <ele>1743.2</ele>
        <time>2022-01-09T08:10:27Z</time>
      </trkpt>
      <trkpt lat="42.82325" lon="0.25566">
        <ele>1744</ele>
        <time>2022-01-09T08:10:28Z</time>
      </trkpt>
      <trkpt lat="42.82324" lon="0.25566">
        <ele>1744.6</ele>
        <time>2022-01-09T08:10:29Z</time>
      </trkpt>
      <trkpt lat="42.82323" lon="0.25565">
        <ele>1745</ele>
        <time>2022-01-09T08:10:30Z</time>
      </trkpt>
      <trkpt lat="42.82322" lon="0.25565">
        <ele>1745.4</ele>
        <time>2022-01-09T08:10:31Z</time>
      </trkpt>
      <trkpt lat="42.82321" lon="0.25564">
        <ele>1746</ele>
        <time>2022-01-09T08:10:32Z</time>
      </trkpt>
      <trkpt lat="42.8232" lon="0.25564">
        <ele>1746.6</ele>
        <time>2022-01-09T08:10:33Z</time>
      </trkpt>
      <trkpt lat="42.8232" lon="0.25563">
        <ele>1746.8</ele>
        <time>2022-01-09T08:10:34Z</time>
      </trkpt>
      <trkpt lat="42.82319" lon="0.25563">
        <ele>1746.8</ele>
        <time>2022-01-09T08:10:35Z</time>
      </trkpt>
      <trkpt lat="42.82318" lon="0.25562">
        <ele>1747</ele>
        <time>2022-01-09T08:10:36Z</time>
      </trkpt>
      <trkpt lat="42.82317" lon="0.25561">
        <ele>1747.4</ele>
        <time>2022-01-09T08:10:37Z</time>
      </trkpt>
      <trkpt lat="42.82316" lon="0.25561">
        <ele>1748</ele>
        <time>2022-01-09T08:10:38Z</time>
      </trkpt>
      <trkpt lat="42.82316" lon="0.2556">
        <ele>1748.4</ele>
        <time>2022-01-09T08:10:39Z</time>
      </trkpt>
      <trkpt lat="42.82315" lon="0.25559">
        <ele>1748.8</ele>
        <time>2022-01-09T08:10:40Z</time>
      </trkpt>
      <trkpt lat="42.82314" lon="0.25558">
        <ele>1749</ele>
        <time>2022-01-09T08:10:41Z</time>
      </trkpt>
      <trkpt lat="42.82313" lon="0.25558">
        <ele>1749.4</ele>
        <time>2022-01-09T08:10:42Z</time>
      </trkpt>
      <trkpt lat="42.82312" lon="0.25557">
        <ele>1749.8</ele>
        <time>2022-01-09T08:10:43Z</time>
      </trkpt>
      <trkpt lat="42.82312" lon="0.25556">
        <ele>1750.4</ele>
        <time>2022-01-09T08:10:44Z</time>
      </trkpt>
      <trkpt lat="42.82311" lon="0.25555">
        <ele>1751</ele>
        <time>2022-01-09T08:10:45Z</time>
      </trkpt>
      <trkpt lat="42.8231" lon="0.25554">
        <ele>1751.6</ele>
        <time>2022-01-09T08:10:46Z</time>
      </trkpt>
      <trkpt lat="42.8231" lon="0.25552">
        <ele>1752</ele>
        <time>2022-01-09T08:10:47Z</time>
      </trkpt>
      <trkpt lat="42.82309" lon="0.25551">
        <ele>1752.6</ele>
        <time>2022-01-09T08:10:48Z</time>
      </trkpt>
      <trkpt lat="42.82308" lon="0.25549">
        <ele>1752.8</ele>
        <time>2022-01-09T08:10:49Z</time>
      </trkpt>
      <trkpt lat="42.82308" lon="0.25548">
        <ele>1753.4</ele>
        <time>2022-01-09T08:10:50Z</time>
      </trkpt>
      <trkpt lat="42.82307" lon="0.25546">
        <ele>1753.8</ele>
        <time>2022-01-09T08:10:51Z</time>
      </trkpt>
      <trkpt lat="42.82306" lon="0.25545">
        <ele>1754.6</ele>
        <time>2022-01-09T08:10:52Z</time>
      </trkpt>
      <trkpt lat="42.82306" lon="0.25543">
        <ele>1755</ele>
        <time>2022-01-09T08:10:53Z</time>
      </trkpt>
      <trkpt lat="42.82306" lon="0.25541">
        <ele>1755.4</ele>
        <time>2022-01-09T08:10:54Z</time>
      </trkpt>
      <trkpt lat="42.82307" lon="0.25539">
        <ele>1756</ele>
        <time>2022-01-09T08:10:55Z</time>
      </trkpt>
      <trkpt lat="42.82307" lon="0.25537">
        <ele>1756.4</ele>
        <time>2022-01-09T08:10:56Z</time>
      </trkpt>
      <trkpt lat="42.82307" lon="0.25535">
        <ele>1756.8</ele>
        <time>2022-01-09T08:10:57Z</time>
      </trkpt>
      <trkpt lat="42.82308" lon="0.25533">
        <ele>1757.2</ele>
        <time>2022-01-09T08:10:58Z</time>
      </trkpt>
      <trkpt lat="42.82308" lon="0.25531">
        <ele>1757.4</ele>
        <time>2022-01-09T08:10:59Z</time>
      </trkpt>
      <trkpt lat="42.82309" lon="0.25528">
        <ele>1757.8</ele>
        <time>2022-01-09T08:11:00Z</time>
      </trkpt>
      <trkpt lat="42.82309" lon="0.25526">
        <ele>1758</ele>
        <time>2022-01-09T08:11:01Z</time>
      </trkpt>
      <trkpt lat="42.8231" lon="0.25523">
        <ele>1758.2</ele>
        <time>2022-01-09T08:11:02Z</time>
      </trkpt>
      <trkpt lat="42.82311" lon="0.25521">
        <ele>1758.4</ele>
        <time>2022-01-09T08:11:03Z</time>
      </trkpt>
      <trkpt lat="42.82311" lon="0.25518">
        <ele>1758.8</ele>
        <time>2022-01-09T08:11:04Z</time>
      </trkpt>
      <trkpt lat="42.82311" lon="0.25517">
        <ele>1759</ele>
        <time>2022-01-09T08:11:05Z</time>
      </trkpt>
      <trkpt lat="42.82312" lon="0.25515">
        <ele>1759</ele>
        <time>2022-01-09T08:11:06Z</time>
      </trkpt>
      <trkpt lat="42.82312" lon="0.25514">
        <ele>1759.6</ele>
        <time>2022-01-09T08:11:07Z</time>
      </trkpt>
      <trkpt lat="42.82312" lon="0.25513">
        <ele>1759.8</ele>
        <time>2022-01-09T08:11:08Z</time>
      </trkpt>
      <trkpt lat="42.82313" lon="0.25511">
        <ele>1760</ele>
        <time>2022-01-09T08:11:09Z</time>
      </trkpt>
      <trkpt lat="42.82315" lon="0.25502">
        <ele>1760.6</ele>
        <time>2022-01-09T08:11:10Z</time>
      </trkpt>
      <trkpt lat="42.82315" lon="0.25499">
        <ele>1760.6</ele>
        <time>2022-01-09T08:11:11Z</time>
      </trkpt>
      <trkpt lat="42.82316" lon="0.25497">
        <ele>1761</ele>
        <time>2022-01-09T08:11:12Z</time>
      </trkpt>
      <trkpt lat="42.82317" lon="0.25495">
        <ele>1761.4</ele>
        <time>2022-01-09T08:11:13Z</time>
      </trkpt>
      <trkpt lat="42.82317" lon="0.25492">
        <ele>1761.8</ele>
        <time>2022-01-09T08:11:14Z</time>
      </trkpt>
      <trkpt lat="42.82318" lon="0.2549">
        <ele>1762.8</ele>
        <time>2022-01-09T08:11:15Z</time>
      </trkpt>
      <trkpt lat="42.82319" lon="0.25488">
        <ele>1763</ele>
        <time>2022-01-09T08:11:16Z</time>
      </trkpt>
      <trkpt lat="42.8232" lon="0.25485">
        <ele>1763.4</ele>
        <time>2022-01-09T08:11:17Z</time>
      </trkpt>
      <trkpt lat="42.8232" lon="0.25483">
        <ele>1763.8</ele>
        <time>2022-01-09T08:11:18Z</time>
      </trkpt>
      <trkpt lat="42.82321" lon="0.2548">
        <ele>1764.2</ele>
        <time>2022-01-09T08:11:19Z</time>
      </trkpt>
      <trkpt lat="42.82322" lon="0.25479">
        <ele>1765</ele>
        <time>2022-01-09T08:11:20Z</time>
      </trkpt>
      <trkpt lat="42.82322" lon="0.25478">
        <ele>1765</ele>
        <time>2022-01-09T08:11:21Z</time>
      </trkpt>
      <trkpt lat="42.82322" lon="0.25476">
        <ele>1765.2</ele>
        <time>2022-01-09T08:11:22Z</time>
      </trkpt>
      <trkpt lat="42.82323" lon="0.25475">
        <ele>1765.6</ele>
        <time>2022-01-09T08:11:23Z</time>
      </trkpt>
      <trkpt lat="42.82323" lon="0.25473">
        <ele>1765.8</ele>
        <time>2022-01-09T08:11:24Z</time>
      </trkpt>
      <trkpt lat="42.82326" lon="0.25464">
        <ele>1766</ele>
        <time>2022-01-09T08:11:25Z</time>
      </trkpt>
      <trkpt lat="42.82327" lon="0.25461">
        <ele>1766.4</ele>
        <time>2022-01-09T08:11:26Z</time>
      </trkpt>
      <trkpt lat="42.82328" lon="0.25458">
        <ele>1766.6</ele>
        <time>2022-01-09T08:11:27Z</time>
      </trkpt>
      <trkpt lat="42.82329" lon="0.25456">
        <ele>1766.6</ele>
        <time>2022-01-09T08:11:28Z</time>
      </trkpt>
      <trkpt lat="42.8233" lon="0.25454">
        <ele>1767</ele>
        <time>2022-01-09T08:11:29Z</time>
      </trkpt>
      <trkpt lat="42.8233" lon="0.25453">
        <ele>1767.2</ele>
        <time>2022-01-09T08:11:30Z</time>
      </trkpt>
      <trkpt lat="42.82331" lon="0.25452">
        <ele>1767.6</ele>
        <time>2022-01-09T08:11:31Z</time>
      </trkpt>
      <trkpt lat="42.82331" lon="0.2545">
        <ele>1768</ele>
        <time>2022-01-09T08:11:32Z</time>
      </trkpt>
      <trkpt lat="42.82332" lon="0.25449">
        <ele>1768</ele>
        <time>2022-01-09T08:11:33Z</time>
      </trkpt>
      <trkpt lat="42.82335" lon="0.2544">
        <ele>1768.4</ele>
        <time>2022-01-09T08:11:34Z</time>
      </trkpt>
      <trkpt lat="42.82336" lon="0.25438">
        <ele>1768.8</ele>
        <time>2022-01-09T08:11:35Z</time>
      </trkpt>
      <trkpt lat="42.82337" lon="0.25436">
        <ele>1769</ele>
        <time>2022-01-09T08:11:36Z</time>
      </trkpt>
      <trkpt lat="42.82338" lon="0.25434">
        <ele>1769.4</ele>
        <time>2022-01-09T08:11:37Z</time>
      </trkpt>
      <trkpt lat="42.82339" lon="0.25432">
        <ele>1769.8</ele>
        <time>2022-01-09T08:11:38Z</time>
      </trkpt>
      <trkpt lat="42.8234" lon="0.25429">
        <ele>1770</ele>
        <time>2022-01-09T08:11:39Z</time>
      </trkpt>
      <trkpt lat="42.82341" lon="0.25427">
        <ele>1770.2</ele>
        <time>2022-01-09T08:11:40Z</time>
      </trkpt>
      <trkpt lat="42.82342" lon="0.25425">
        <ele>1770.2</ele>
        <time>2022-01-09T08:11:41Z</time>
      </trkpt>
      <trkpt lat="42.82343" lon="0.25422">
        <ele>1770.8</ele>
        <time>2022-01-09T08:11:42Z</time>
      </trkpt>
      <trkpt lat="42.82344" lon="0.2542">
        <ele>1771.4</ele>
        <time>2022-01-09T08:11:43Z</time>
      </trkpt>
      <trkpt lat="42.82344" lon="0.25419">
        <ele>1771.6</ele>
        <time>2022-01-09T08:11:44Z</time>
      </trkpt>
      <trkpt lat="42.82345" lon="0.25418">
        <ele>1771.8</ele>
        <time>2022-01-09T08:11:45Z</time>
      </trkpt>
      <trkpt lat="42.82345" lon="0.25417">
        <ele>1771.8</ele>
        <time>2022-01-09T08:11:46Z</time>
      </trkpt>
      <trkpt lat="42.82346" lon="0.25417">
        <ele>1772</ele>
        <time>2022-01-09T08:11:47Z</time>
      </trkpt>
      <trkpt lat="42.82346" lon="0.25416">
        <ele>1772.4</ele>
        <time>2022-01-09T08:11:48Z</time>
      </trkpt>
      <trkpt lat="42.82346" lon="0.25415">
        <ele>1772.8</ele>
        <time>2022-01-09T08:11:49Z</time>
      </trkpt>
      <trkpt lat="42.82347" lon="0.25414">
        <ele>1772.8</ele>
        <time>2022-01-09T08:11:50Z</time>
      </trkpt>
      <trkpt lat="42.82351" lon="0.25406">
        <ele>1773.2</ele>
        <time>2022-01-09T08:11:51Z</time>
      </trkpt>
      <trkpt lat="42.82351" lon="0.25404">
        <ele>1773.4</ele>
        <time>2022-01-09T08:11:52Z</time>
      </trkpt>
      <trkpt lat="42.82352" lon="0.25402">
        <ele>1773.6</ele>
        <time>2022-01-09T08:11:53Z</time>
      </trkpt>
      <trkpt lat="42.82353" lon="0.254">
        <ele>1773.8</ele>
        <time>2022-01-09T08:11:54Z</time>
      </trkpt>
      <trkpt lat="42.82354" lon="0.25398">
        <ele>1773.8</ele>
        <time>2022-01-09T08:11:55Z</time>
      </trkpt>
      <trkpt lat="42.82355" lon="0.25396">
        <ele>1774.2</ele>
        <time>2022-01-09T08:11:56Z</time>
      </trkpt>
      <trkpt lat="42.82356" lon="0.25395">
        <ele>1774.2</ele>
        <time>2022-01-09T08:11:57Z</time>
      </trkpt>
      <trkpt lat="42.82357" lon="0.25393">
        <ele>1775</ele>
        <time>2022-01-09T08:11:58Z</time>
      </trkpt>
      <trkpt lat="42.82359" lon="0.25391">
        <ele>1775.2</ele>
        <time>2022-01-09T08:11:59Z</time>
      </trkpt>
      <trkpt lat="42.8236" lon="0.25389">
        <ele>1775.4</ele>
        <time>2022-01-09T08:12:00Z</time>
      </trkpt>
      <trkpt lat="42.82362" lon="0.25388">
        <ele>1775.4</ele>
        <time>2022-01-09T08:12:01Z</time>
      </trkpt>
      <trkpt lat="42.82363" lon="0.25386">
        <ele>1775.8</ele>
        <time>2022-01-09T08:12:02Z</time>
      </trkpt>
      <trkpt lat="42.82364" lon="0.25384">
        <ele>1775.8</ele>
        <time>2022-01-09T08:12:03Z</time>
      </trkpt>
      <trkpt lat="42.82364" lon="0.25382">
        <ele>1776.2</ele>
        <time>2022-01-09T08:12:04Z</time>
      </trkpt>
      <trkpt lat="42.82365" lon="0.2538">
        <ele>1776.8</ele>
        <time>2022-01-09T08:12:05Z</time>
      </trkpt>
      <trkpt lat="42.82366" lon="0.25378">
        <ele>1777.2</ele>
        <time>2022-01-09T08:12:06Z</time>
      </trkpt>
      <trkpt lat="42.82367" lon="0.25376">
        <ele>1777.6</ele>
        <time>2022-01-09T08:12:07Z</time>
      </trkpt>
      <trkpt lat="42.82368" lon="0.25375">
        <ele>1777.2</ele>
        <time>2022-01-09T08:12:08Z</time>
      </trkpt>
      <trkpt lat="42.82369" lon="0.25373">
        <ele>1777.6</ele>
        <time>2022-01-09T08:12:09Z</time>
      </trkpt>
      <trkpt lat="42.8237" lon="0.25372">
        <ele>1778</ele>
        <time>2022-01-09T08:12:10Z</time>
      </trkpt>
      <trkpt lat="42.8237" lon="0.2537">
        <ele>1778</ele>
        <time>2022-01-09T08:12:11Z</time>
      </trkpt>
      <trkpt lat="42.82371" lon="0.25369">
        <ele>1778.4</ele>
        <time>2022-01-09T08:12:12Z</time>
      </trkpt>
      <trkpt lat="42.82372" lon="0.25367">
        <ele>1778.6</ele>
        <time>2022-01-09T08:12:13Z</time>
      </trkpt>
      <trkpt lat="42.82373" lon="0.25366">
        <ele>1779.2</ele>
        <time>2022-01-09T08:12:14Z</time>
      </trkpt>
      <trkpt lat="42.82374" lon="0.25364">
        <ele>1779.6</ele>
        <time>2022-01-09T08:12:15Z</time>
      </trkpt>
      <trkpt lat="42.82375" lon="0.25362">
        <ele>1779.8</ele>
        <time>2022-01-09T08:12:16Z</time>
      </trkpt>
      <trkpt lat="42.82377" lon="0.2536">
        <ele>1780</ele>
        <time>2022-01-09T08:12:17Z</time>
      </trkpt>
      <trkpt lat="42.82378" lon="0.25358">
        <ele>1780.4</ele>
        <time>2022-01-09T08:12:18Z</time>
      </trkpt>
      <trkpt lat="42.82379" lon="0.25356">
        <ele>1780.4</ele>
        <time>2022-01-09T08:12:19Z</time>
      </trkpt>
      <trkpt lat="42.8238" lon="0.25354">
        <ele>1780.6</ele>
        <time>2022-01-09T08:12:20Z</time>
      </trkpt>
      <trkpt lat="42.82381" lon="0.25353">
        <ele>1781</ele>
        <time>2022-01-09T08:12:21Z</time>
      </trkpt>
      <trkpt lat="42.82382" lon="0.25351">
        <ele>1781.4</ele>
        <time>2022-01-09T08:12:22Z</time>
      </trkpt>
      <trkpt lat="42.82383" lon="0.25349">
        <ele>1782</ele>
        <time>2022-01-09T08:12:23Z</time>
      </trkpt>
      <trkpt lat="42.82384" lon="0.25348">
        <ele>1782.8</ele>
        <time>2022-01-09T08:12:24Z</time>
      </trkpt>
      <trkpt lat="42.82385" lon="0.25346">
        <ele>1783.6</ele>
        <time>2022-01-09T08:12:25Z</time>
      </trkpt>
      <trkpt lat="42.82386" lon="0.25345">
        <ele>1783.6</ele>
        <time>2022-01-09T08:12:26Z</time>
      </trkpt>
      <trkpt lat="42.82386" lon="0.25344">
        <ele>1783.6</ele>
        <time>2022-01-09T08:12:27Z</time>
      </trkpt>
      <trkpt lat="42.82387" lon="0.25343">
        <ele>1783.8</ele>
        <time>2022-01-09T08:12:28Z</time>
      </trkpt>
      <trkpt lat="42.82387" lon="0.25343">
        <ele>1783.8</ele>
        <time>2022-01-09T08:12:29Z</time>
      </trkpt>
      <trkpt lat="42.82388" lon="0.25342">
        <ele>1784.6</ele>
        <time>2022-01-09T08:12:30Z</time>
      </trkpt>
      <trkpt lat="42.82389" lon="0.25341">
        <ele>1785</ele>
        <time>2022-01-09T08:12:31Z</time>
      </trkpt>
      <trkpt lat="42.82393" lon="0.25335">
        <ele>1785.2</ele>
        <time>2022-01-09T08:12:32Z</time>
      </trkpt>
      <trkpt lat="42.82393" lon="0.25334">
        <ele>1785.6</ele>
        <time>2022-01-09T08:12:33Z</time>
      </trkpt>
      <trkpt lat="42.82394" lon="0.25333">
        <ele>1785.8</ele>
        <time>2022-01-09T08:12:34Z</time>
      </trkpt>
      <trkpt lat="42.82395" lon="0.25332">
        <ele>1786.2</ele>
        <time>2022-01-09T08:12:35Z</time>
      </trkpt>
      <trkpt lat="42.82395" lon="0.25331">
        <ele>1787.2</ele>
        <time>2022-01-09T08:12:36Z</time>
      </trkpt>
      <trkpt lat="42.82396" lon="0.2533">
        <ele>1787.8</ele>
        <time>2022-01-09T08:12:37Z</time>
      </trkpt>
      <trkpt lat="42.824" lon="0.25324">
        <ele>1787.8</ele>
        <time>2022-01-09T08:12:38Z</time>
      </trkpt>
      <trkpt lat="42.82401" lon="0.25322">
        <ele>1788</ele>
        <time>2022-01-09T08:12:39Z</time>
      </trkpt>
      <trkpt lat="42.82403" lon="0.25321">
        <ele>1788.2</ele>
        <time>2022-01-09T08:12:40Z</time>
      </trkpt>
      <trkpt lat="42.82404" lon="0.2532">
        <ele>1788.4</ele>
        <time>2022-01-09T08:12:41Z</time>
      </trkpt>
      <trkpt lat="42.82405" lon="0.25319">
        <ele>1788.6</ele>
        <time>2022-01-09T08:12:42Z</time>
      </trkpt>
      <trkpt lat="42.82406" lon="0.25317">
        <ele>1789</ele>
        <time>2022-01-09T08:12:43Z</time>
      </trkpt>
      <trkpt lat="42.82407" lon="0.25316">
        <ele>1788.8</ele>
        <time>2022-01-09T08:12:44Z</time>
      </trkpt>
      <trkpt lat="42.82408" lon="0.25315">
        <ele>1789.4</ele>
        <time>2022-01-09T08:12:45Z</time>
      </trkpt>
      <trkpt lat="42.82409" lon="0.25313">
        <ele>1789.8</ele>
        <time>2022-01-09T08:12:46Z</time>
      </trkpt>
      <trkpt lat="42.8241" lon="0.25312">
        <ele>1790</ele>
        <time>2022-01-09T08:12:47Z</time>
      </trkpt>
      <trkpt lat="42.82411" lon="0.2531">
        <ele>1790.6</ele>
        <time>2022-01-09T08:12:48Z</time>
      </trkpt>
      <trkpt lat="42.82412" lon="0.25309">
        <ele>1790.6</ele>
        <time>2022-01-09T08:12:49Z</time>
      </trkpt>
      <trkpt lat="42.82413" lon="0.25307">
        <ele>1790.6</ele>
        <time>2022-01-09T08:12:50Z</time>
      </trkpt>
      <trkpt lat="42.82414" lon="0.25306">
        <ele>1791</ele>
        <time>2022-01-09T08:12:51Z</time>
      </trkpt>
      <trkpt lat="42.82415" lon="0.25305">
        <ele>1791.4</ele>
        <time>2022-01-09T08:12:52Z</time>
      </trkpt>
      <trkpt lat="42.82416" lon="0.25303">
        <ele>1791.8</ele>
        <time>2022-01-09T08:12:53Z</time>
      </trkpt>
      <trkpt lat="42.82417" lon="0.25302">
        <ele>1791.8</ele>
        <time>2022-01-09T08:12:54Z</time>
      </trkpt>
      <trkpt lat="42.82419" lon="0.253">
        <ele>1792.2</ele>
        <time>2022-01-09T08:12:55Z</time>
      </trkpt>
      <trkpt lat="42.8242" lon="0.25299">
        <ele>1792.4</ele>
        <time>2022-01-09T08:12:56Z</time>
      </trkpt>
      <trkpt lat="42.82421" lon="0.25297">
        <ele>1792.4</ele>
        <time>2022-01-09T08:12:57Z</time>
      </trkpt>
      <trkpt lat="42.82422" lon="0.25296">
        <ele>1793</ele>
        <time>2022-01-09T08:12:58Z</time>
      </trkpt>
      <trkpt lat="42.82424" lon="0.25295">
        <ele>1793.6</ele>
        <time>2022-01-09T08:12:59Z</time>
      </trkpt>
      <trkpt lat="42.82425" lon="0.25294">
        <ele>1794</ele>
        <time>2022-01-09T08:13:00Z</time>
      </trkpt>
      <trkpt lat="42.82426" lon="0.25292">
        <ele>1794.2</ele>
        <time>2022-01-09T08:13:01Z</time>
      </trkpt>
      <trkpt lat="42.82427" lon="0.25291">
        <ele>1794.2</ele>
        <time>2022-01-09T08:13:02Z</time>
      </trkpt>
      <trkpt lat="42.82429" lon="0.2529">
        <ele>1794.6</ele>
        <time>2022-01-09T08:13:03Z</time>
      </trkpt>
      <trkpt lat="42.82429" lon="0.25289">
        <ele>1794.8</ele>
        <time>2022-01-09T08:13:04Z</time>
      </trkpt>
      <trkpt lat="42.8243" lon="0.25288">
        <ele>1795</ele>
        <time>2022-01-09T08:13:05Z</time>
      </trkpt>
      <trkpt lat="42.82431" lon="0.25288">
        <ele>1795.4</ele>
        <time>2022-01-09T08:13:06Z</time>
      </trkpt>
      <trkpt lat="42.82431" lon="0.25287">
        <ele>1795.4</ele>
        <time>2022-01-09T08:13:07Z</time>
      </trkpt>
      <trkpt lat="42.82432" lon="0.25286">
        <ele>1796</ele>
        <time>2022-01-09T08:13:08Z</time>
      </trkpt>
      <trkpt lat="42.82433" lon="0.25285">
        <ele>1796</ele>
        <time>2022-01-09T08:13:09Z</time>
      </trkpt>
      <trkpt lat="42.82438" lon="0.25279">
        <ele>1797.6</ele>
        <time>2022-01-09T08:13:10Z</time>
      </trkpt>
      <trkpt lat="42.82439" lon="0.25278">
        <ele>1798</ele>
        <time>2022-01-09T08:13:11Z</time>
      </trkpt>
      <trkpt lat="42.8244" lon="0.25276">
        <ele>1798.6</ele>
        <time>2022-01-09T08:13:12Z</time>
      </trkpt>
      <trkpt lat="42.82441" lon="0.25275">
        <ele>1798.8</ele>
        <time>2022-01-09T08:13:13Z</time>
      </trkpt>
      <trkpt lat="42.82443" lon="0.25273">
        <ele>1798.8</ele>
        <time>2022-01-09T08:13:14Z</time>
      </trkpt>
      <trkpt lat="42.82444" lon="0.25271">
        <ele>1799.2</ele>
        <time>2022-01-09T08:13:15Z</time>
      </trkpt>
      <trkpt lat="42.82444" lon="0.25271">
        <ele>1799.4</ele>
        <time>2022-01-09T08:13:16Z</time>
      </trkpt>
      <trkpt lat="42.82445" lon="0.2527">
        <ele>1799.4</ele>
        <time>2022-01-09T08:13:17Z</time>
      </trkpt>
      <trkpt lat="42.82445" lon="0.25269">
        <ele>1799.2</ele>
        <time>2022-01-09T08:13:18Z</time>
      </trkpt>
      <trkpt lat="42.82446" lon="0.25268">
        <ele>1799.6</ele>
        <time>2022-01-09T08:13:19Z</time>
      </trkpt>
      <trkpt lat="42.82446" lon="0.25268">
        <ele>1800.2</ele>
        <time>2022-01-09T08:13:20Z</time>
      </trkpt>
      <trkpt lat="42.82447" lon="0.25267">
        <ele>1800.4</ele>
        <time>2022-01-09T08:13:21Z</time>
      </trkpt>
      <trkpt lat="42.82447" lon="0.25266">
        <ele>1801</ele>
        <time>2022-01-09T08:13:22Z</time>
      </trkpt>
      <trkpt lat="42.82452" lon="0.25259">
        <ele>1801.6</ele>
        <time>2022-01-09T08:13:23Z</time>
      </trkpt>
      <trkpt lat="42.82452" lon="0.25258">
        <ele>1802.2</ele>
        <time>2022-01-09T08:13:24Z</time>
      </trkpt>
      <trkpt lat="42.82453" lon="0.25256">
        <ele>1802.8</ele>
        <time>2022-01-09T08:13:25Z</time>
      </trkpt>
      <trkpt lat="42.82454" lon="0.25254">
        <ele>1803.2</ele>
        <time>2022-01-09T08:13:26Z</time>
      </trkpt>
      <trkpt lat="42.82454" lon="0.25253">
        <ele>1803.6</ele>
        <time>2022-01-09T08:13:27Z</time>
      </trkpt>
      <trkpt lat="42.82455" lon="0.25251">
        <ele>1803.8</ele>
        <time>2022-01-09T08:13:28Z</time>
      </trkpt>
      <trkpt lat="42.82455" lon="0.2525">
        <ele>1803.4</ele>
        <time>2022-01-09T08:13:29Z</time>
      </trkpt>
      <trkpt lat="42.82457" lon="0.25248">
        <ele>1804</ele>
        <time>2022-01-09T08:13:30Z</time>
      </trkpt>
      <trkpt lat="42.82458" lon="0.25246">
        <ele>1805</ele>
        <time>2022-01-09T08:13:31Z</time>
      </trkpt>
      <trkpt lat="42.82459" lon="0.25244">
        <ele>1804.2</ele>
        <time>2022-01-09T08:13:32Z</time>
      </trkpt>
      <trkpt lat="42.82461" lon="0.25243">
        <ele>1804.2</ele>
        <time>2022-01-09T08:13:33Z</time>
      </trkpt>
      <trkpt lat="42.82462" lon="0.25241">
        <ele>1804.2</ele>
        <time>2022-01-09T08:13:34Z</time>
      </trkpt>
      <trkpt lat="42.82463" lon="0.25239">
        <ele>1804.2</ele>
        <time>2022-01-09T08:13:35Z</time>
      </trkpt>
      <trkpt lat="42.82463" lon="0.25238">
        <ele>1804.6</ele>
        <time>2022-01-09T08:13:36Z</time>
      </trkpt>
      <trkpt lat="42.82464" lon="0.25236">
        <ele>1804.8</ele>
        <time>2022-01-09T08:13:37Z</time>
      </trkpt>
      <trkpt lat="42.82465" lon="0.25235">
        <ele>1805.2</ele>
        <time>2022-01-09T08:13:38Z</time>
      </trkpt>
      <trkpt lat="42.82465" lon="0.25233">
        <ele>1805.6</ele>
        <time>2022-01-09T08:13:39Z</time>
      </trkpt>
      <trkpt lat="42.82466" lon="0.25232">
        <ele>1806.4</ele>
        <time>2022-01-09T08:13:40Z</time>
      </trkpt>
      <trkpt lat="42.82467" lon="0.2523">
        <ele>1807</ele>
        <time>2022-01-09T08:13:41Z</time>
      </trkpt>
      <trkpt lat="42.82468" lon="0.25228">
        <ele>1807.8</ele>
        <time>2022-01-09T08:13:42Z</time>
      </trkpt>
      <trkpt lat="42.82469" lon="0.25226">
        <ele>1808</ele>
        <time>2022-01-09T08:13:43Z</time>
      </trkpt>
      <trkpt lat="42.82471" lon="0.25223">
        <ele>1808.2</ele>
        <time>2022-01-09T08:13:44Z</time>
      </trkpt>
      <trkpt lat="42.82472" lon="0.25221">
        <ele>1808.8</ele>
        <time>2022-01-09T08:13:45Z</time>
      </trkpt>
      <trkpt lat="42.82473" lon="0.25219">
        <ele>1809</ele>
        <time>2022-01-09T08:13:46Z</time>
      </trkpt>
      <trkpt lat="42.82474" lon="0.25217">
        <ele>1808.8</ele>
        <time>2022-01-09T08:13:47Z</time>
      </trkpt>
      <trkpt lat="42.82475" lon="0.25214">
        <ele>1808.8</ele>
        <time>2022-01-09T08:13:48Z</time>
      </trkpt>
      <trkpt lat="42.82476" lon="0.25212">
        <ele>1809.4</ele>
        <time>2022-01-09T08:13:49Z</time>
      </trkpt>
      <trkpt lat="42.82477" lon="0.2521">
        <ele>1810.4</ele>
        <time>2022-01-09T08:13:50Z</time>
      </trkpt>
      <trkpt lat="42.82478" lon="0.25207">
        <ele>1810.4</ele>
        <time>2022-01-09T08:13:51Z</time>
      </trkpt>
      <trkpt lat="42.82479" lon="0.25206">
        <ele>1810.4</ele>
        <time>2022-01-09T08:13:52Z</time>
      </trkpt>
      <trkpt lat="42.82479" lon="0.25205">
        <ele>1810.8</ele>
        <time>2022-01-09T08:13:53Z</time>
      </trkpt>
      <trkpt lat="42.8248" lon="0.25204">
        <ele>1811.4</ele>
        <time>2022-01-09T08:13:54Z</time>
      </trkpt>
      <trkpt lat="42.82481" lon="0.25203">
        <ele>1811.6</ele>
        <time>2022-01-09T08:13:55Z</time>
      </trkpt>
      <trkpt lat="42.82481" lon="0.25201">
        <ele>1812</ele>
        <time>2022-01-09T08:13:56Z</time>
      </trkpt>
      <trkpt lat="42.82486" lon="0.25194">
        <ele>1812.6</ele>
        <time>2022-01-09T08:13:57Z</time>
      </trkpt>
      <trkpt lat="42.82487" lon="0.25193">
        <ele>1812.8</ele>
        <time>2022-01-09T08:13:58Z</time>
      </trkpt>
      <trkpt lat="42.82488" lon="0.25191">
        <ele>1812.6</ele>
        <time>2022-01-09T08:13:59Z</time>
      </trkpt>
      <trkpt lat="42.82489" lon="0.2519">
        <ele>1812.6</ele>
        <time>2022-01-09T08:14:00Z</time>
      </trkpt>
      <trkpt lat="42.8249" lon="0.25188">
        <ele>1812.8</ele>
        <time>2022-01-09T08:14:01Z</time>
      </trkpt>
      <trkpt lat="42.82491" lon="0.25186">
        <ele>1813.4</ele>
        <time>2022-01-09T08:14:02Z</time>
      </trkpt>
      <trkpt lat="42.82491" lon="0.25186">
        <ele>1814.2</ele>
        <time>2022-01-09T08:14:03Z</time>
      </trkpt>
      <trkpt lat="42.82491" lon="0.25185">
        <ele>1814.6</ele>
        <time>2022-01-09T08:14:04Z</time>
      </trkpt>
      <trkpt lat="42.82491" lon="0.25184">
        <ele>1814.8</ele>
        <time>2022-01-09T08:14:05Z</time>
      </trkpt>
      <trkpt lat="42.82492" lon="0.25183">
        <ele>1814.8</ele>
        <time>2022-01-09T08:14:06Z</time>
      </trkpt>
      <trkpt lat="42.82492" lon="0.25183">
        <ele>1815.2</ele>
        <time>2022-01-09T08:14:07Z</time>
      </trkpt>
      <trkpt lat="42.82492" lon="0.25182">
        <ele>1815.4</ele>
        <time>2022-01-09T08:14:08Z</time>
      </trkpt>
      <trkpt lat="42.82493" lon="0.25181">
        <ele>1815.8</ele>
        <time>2022-01-09T08:14:09Z</time>
      </trkpt>
      <trkpt lat="42.82493" lon="0.2518">
        <ele>1816</ele>
        <time>2022-01-09T08:14:10Z</time>
      </trkpt>
      <trkpt lat="42.82496" lon="0.25172">
        <ele>1816.6</ele>
        <time>2022-01-09T08:14:11Z</time>
      </trkpt>
      <trkpt lat="42.82497" lon="0.2517">
        <ele>1816.6</ele>
        <time>2022-01-09T08:14:12Z</time>
      </trkpt>
      <trkpt lat="42.82498" lon="0.25168">
        <ele>1817.2</ele>
        <time>2022-01-09T08:14:13Z</time>
      </trkpt>
      <trkpt lat="42.82499" lon="0.25166">
        <ele>1817.8</ele>
        <time>2022-01-09T08:14:14Z</time>
      </trkpt>
      <trkpt lat="42.825" lon="0.25164">
        <ele>1817.8</ele>
        <time>2022-01-09T08:14:15Z</time>
      </trkpt>
      <trkpt lat="42.82501" lon="0.25162">
        <ele>1817.8</ele>
        <time>2022-01-09T08:14:16Z</time>
      </trkpt>
      <trkpt lat="42.82502" lon="0.25161">
        <ele>1818.8</ele>
        <time>2022-01-09T08:14:17Z</time>
      </trkpt>
      <trkpt lat="42.82504" lon="0.25159">
        <ele>1819.4</ele>
        <time>2022-01-09T08:14:18Z</time>
      </trkpt>
      <trkpt lat="42.82505" lon="0.25157">
        <ele>1819.4</ele>
        <time>2022-01-09T08:14:19Z</time>
      </trkpt>
      <trkpt lat="42.82506" lon="0.25155">
        <ele>1819.8</ele>
        <time>2022-01-09T08:14:20Z</time>
      </trkpt>
      <trkpt lat="42.82507" lon="0.25153">
        <ele>1819.8</ele>
        <time>2022-01-09T08:14:21Z</time>
      </trkpt>
      <trkpt lat="42.82508" lon="0.25151">
        <ele>1819.6</ele>
        <time>2022-01-09T08:14:22Z</time>
      </trkpt>
      <trkpt lat="42.82509" lon="0.25149">
        <ele>1820.8</ele>
        <time>2022-01-09T08:14:23Z</time>
      </trkpt>
      <trkpt lat="42.8251" lon="0.25148">
        <ele>1820.6</ele>
        <time>2022-01-09T08:14:24Z</time>
      </trkpt>
      <trkpt lat="42.8251" lon="0.25146">
        <ele>1820.4</ele>
        <time>2022-01-09T08:14:25Z</time>
      </trkpt>
      <trkpt lat="42.82513" lon="0.25138">
        <ele>1820.4</ele>
        <time>2022-01-09T08:14:26Z</time>
      </trkpt>
      <trkpt lat="42.82514" lon="0.25136">
        <ele>1819.8</ele>
        <time>2022-01-09T08:14:27Z</time>
      </trkpt>
      <trkpt lat="42.82514" lon="0.25134">
        <ele>1819.6</ele>
        <time>2022-01-09T08:14:28Z</time>
      </trkpt>
      <trkpt lat="42.82514" lon="0.25133">
        <ele>1819.4</ele>
        <time>2022-01-09T08:14:29Z</time>
      </trkpt>
      <trkpt lat="42.82516" lon="0.25125">
        <ele>1820</ele>
        <time>2022-01-09T08:14:30Z</time>
      </trkpt>
      <trkpt lat="42.82516" lon="0.25123">
        <ele>1819.6</ele>
        <time>2022-01-09T08:14:31Z</time>
      </trkpt>
      <trkpt lat="42.82516" lon="0.25122">
        <ele>1819.6</ele>
        <time>2022-01-09T08:14:32Z</time>
      </trkpt>
      <trkpt lat="42.82517" lon="0.2512">
        <ele>1820</ele>
        <time>2022-01-09T08:14:33Z</time>
      </trkpt>
      <trkpt lat="42.82517" lon="0.25119">
        <ele>1820</ele>
        <time>2022-01-09T08:14:34Z</time>
      </trkpt>
      <trkpt lat="42.8252" lon="0.25109">
        <ele>1819.6</ele>
        <time>2022-01-09T08:14:35Z</time>
      </trkpt>
      <trkpt lat="42.8252" lon="0.25106">
        <ele>1820</ele>
        <time>2022-01-09T08:14:36Z</time>
      </trkpt>
      <trkpt lat="42.82521" lon="0.25103">
        <ele>1820.4</ele>
        <time>2022-01-09T08:14:37Z</time>
      </trkpt>
      <trkpt lat="42.82522" lon="0.251">
        <ele>1820.4</ele>
        <time>2022-01-09T08:14:38Z</time>
      </trkpt>
      <trkpt lat="42.82522" lon="0.25099">
        <ele>1821</ele>
        <time>2022-01-09T08:14:39Z</time>
      </trkpt>
      <trkpt lat="42.82522" lon="0.25097">
        <ele>1821.2</ele>
        <time>2022-01-09T08:14:40Z</time>
      </trkpt>
      <trkpt lat="42.82522" lon="0.25096">
        <ele>1821</ele>
        <time>2022-01-09T08:14:41Z</time>
      </trkpt>
      <trkpt lat="42.82523" lon="0.25094">
        <ele>1821.2</ele>
        <time>2022-01-09T08:14:42Z</time>
      </trkpt>
      <trkpt lat="42.82523" lon="0.25093">
        <ele>1821.8</ele>
        <time>2022-01-09T08:14:43Z</time>
      </trkpt>
      <trkpt lat="42.82525" lon="0.25083">
        <ele>1821.4</ele>
        <time>2022-01-09T08:14:44Z</time>
      </trkpt>
      <trkpt lat="42.82524" lon="0.2508">
        <ele>1821.6</ele>
        <time>2022-01-09T08:14:45Z</time>
      </trkpt>
      <trkpt lat="42.82524" lon="0.25077">
        <ele>1821.6</ele>
        <time>2022-01-09T08:14:46Z</time>
      </trkpt>
      <trkpt lat="42.82524" lon="0.25074">
        <ele>1821.6</ele>
        <time>2022-01-09T08:14:47Z</time>
      </trkpt>
      <trkpt lat="42.82524" lon="0.25072">
        <ele>1821.6</ele>
        <time>2022-01-09T08:14:48Z</time>
      </trkpt>
      <trkpt lat="42.82524" lon="0.2507">
        <ele>1821.6</ele>
        <time>2022-01-09T08:14:49Z</time>
      </trkpt>
      <trkpt lat="42.82525" lon="0.25069">
        <ele>1821.6</ele>
        <time>2022-01-09T08:14:50Z</time>
      </trkpt>
      <trkpt lat="42.82525" lon="0.25067">
        <ele>1822</ele>
        <time>2022-01-09T08:14:51Z</time>
      </trkpt>
      <trkpt lat="42.82525" lon="0.25066">
        <ele>1822.4</ele>
        <time>2022-01-09T08:14:52Z</time>
      </trkpt>
      <trkpt lat="42.82525" lon="0.25065">
        <ele>1822.6</ele>
        <time>2022-01-09T08:14:53Z</time>
      </trkpt>
      <trkpt lat="42.82527" lon="0.25056">
        <ele>1823.2</ele>
        <time>2022-01-09T08:14:54Z</time>
      </trkpt>
      <trkpt lat="42.82527" lon="0.25054">
        <ele>1823.2</ele>
        <time>2022-01-09T08:14:55Z</time>
      </trkpt>
      <trkpt lat="42.82527" lon="0.25052">
        <ele>1822.8</ele>
        <time>2022-01-09T08:14:56Z</time>
      </trkpt>
      <trkpt lat="42.82527" lon="0.25051">
        <ele>1823</ele>
        <time>2022-01-09T08:14:57Z</time>
      </trkpt>
      <trkpt lat="42.82529" lon="0.25041">
        <ele>1822.8</ele>
        <time>2022-01-09T08:14:58Z</time>
      </trkpt>
      <trkpt lat="42.82529" lon="0.25037">
        <ele>1822.6</ele>
        <time>2022-01-09T08:14:59Z</time>
      </trkpt>
      <trkpt lat="42.8253" lon="0.25034">
        <ele>1823</ele>
        <time>2022-01-09T08:15:00Z</time>
      </trkpt>
      <trkpt lat="42.8253" lon="0.25031">
        <ele>1823.2</ele>
        <time>2022-01-09T08:15:01Z</time>
      </trkpt>
      <trkpt lat="42.8253" lon="0.25028">
        <ele>1824.4</ele>
        <time>2022-01-09T08:15:02Z</time>
      </trkpt>
      <trkpt lat="42.82531" lon="0.25025">
        <ele>1824.6</ele>
        <time>2022-01-09T08:15:03Z</time>
      </trkpt>
      <trkpt lat="42.82531" lon="0.25022">
        <ele>1824.6</ele>
        <time>2022-01-09T08:15:04Z</time>
      </trkpt>
      <trkpt lat="42.82531" lon="0.25019">
        <ele>1824.8</ele>
        <time>2022-01-09T08:15:05Z</time>
      </trkpt>
      <trkpt lat="42.82531" lon="0.25017">
        <ele>1825</ele>
        <time>2022-01-09T08:15:06Z</time>
      </trkpt>
      <trkpt lat="42.82532" lon="0.25014">
        <ele>1825</ele>
        <time>2022-01-09T08:15:07Z</time>
      </trkpt>
      <trkpt lat="42.82532" lon="0.25011">
        <ele>1825</ele>
        <time>2022-01-09T08:15:08Z</time>
      </trkpt>
      <trkpt lat="42.82532" lon="0.25008">
        <ele>1825.6</ele>
        <time>2022-01-09T08:15:09Z</time>
      </trkpt>
      <trkpt lat="42.82533" lon="0.25006">
        <ele>1826</ele>
        <time>2022-01-09T08:15:10Z</time>
      </trkpt>
      <trkpt lat="42.82533" lon="0.25003">
        <ele>1826.6</ele>
        <time>2022-01-09T08:15:11Z</time>
      </trkpt>
      <trkpt lat="42.82533" lon="0.25002">
        <ele>1827.2</ele>
        <time>2022-01-09T08:15:12Z</time>
      </trkpt>
      <trkpt lat="42.82533" lon="0.25">
        <ele>1827.2</ele>
        <time>2022-01-09T08:15:13Z</time>
      </trkpt>
      <trkpt lat="42.82533" lon="0.24999">
        <ele>1827</ele>
        <time>2022-01-09T08:15:14Z</time>
      </trkpt>
      <trkpt lat="42.82533" lon="0.24998">
        <ele>1827.2</ele>
        <time>2022-01-09T08:15:15Z</time>
      </trkpt>
      <trkpt lat="42.82533" lon="0.24996">
        <ele>1827.2</ele>
        <time>2022-01-09T08:15:16Z</time>
      </trkpt>
      <trkpt lat="42.82534" lon="0.24987">
        <ele>1827.8</ele>
        <time>2022-01-09T08:15:17Z</time>
      </trkpt>
      <trkpt lat="42.82534" lon="0.24985">
        <ele>1828</ele>
        <time>2022-01-09T08:15:18Z</time>
      </trkpt>
      <trkpt lat="42.82535" lon="0.24982">
        <ele>1828.4</ele>
        <time>2022-01-09T08:15:19Z</time>
      </trkpt>
      <trkpt lat="42.82535" lon="0.2498">
        <ele>1828.6</ele>
        <time>2022-01-09T08:15:20Z</time>
      </trkpt>
      <trkpt lat="42.82536" lon="0.24977">
        <ele>1829</ele>
        <time>2022-01-09T08:15:21Z</time>
      </trkpt>
      <trkpt lat="42.82537" lon="0.24975">
        <ele>1829</ele>
        <time>2022-01-09T08:15:22Z</time>
      </trkpt>
      <trkpt lat="42.82537" lon="0.24973">
        <ele>1829.4</ele>
        <time>2022-01-09T08:15:23Z</time>
      </trkpt>
      <trkpt lat="42.82538" lon="0.24971">
        <ele>1829.4</ele>
        <time>2022-01-09T08:15:24Z</time>
      </trkpt>
      <trkpt lat="42.82539" lon="0.24968">
        <ele>1830.2</ele>
        <time>2022-01-09T08:15:25Z</time>
      </trkpt>
      <trkpt lat="42.8254" lon="0.24966">
        <ele>1830.2</ele>
        <time>2022-01-09T08:15:26Z</time>
      </trkpt>
      <trkpt lat="42.8254" lon="0.24964">
        <ele>1830</ele>
        <time>2022-01-09T08:15:27Z</time>
      </trkpt>
      <trkpt lat="42.82541" lon="0.24961">
        <ele>1830</ele>
        <time>2022-01-09T08:15:28Z</time>
      </trkpt>
      <trkpt lat="42.82541" lon="0.24959">
        <ele>1830.4</ele>
        <time>2022-01-09T08:15:29Z</time>
      </trkpt>
      <trkpt lat="42.82541" lon="0.24956">
        <ele>1830.8</ele>
        <time>2022-01-09T08:15:30Z</time>
      </trkpt>
      <trkpt lat="42.82542" lon="0.24954">
        <ele>1831.2</ele>
        <time>2022-01-09T08:15:31Z</time>
      </trkpt>
      <trkpt lat="42.82542" lon="0.24952">
        <ele>1831.4</ele>
        <time>2022-01-09T08:15:32Z</time>
      </trkpt>
      <trkpt lat="42.82542" lon="0.2495">
        <ele>1831.6</ele>
        <time>2022-01-09T08:15:33Z</time>
      </trkpt>
      <trkpt lat="42.82543" lon="0.24948">
        <ele>1831.6</ele>
        <time>2022-01-09T08:15:34Z</time>
      </trkpt>
      <trkpt lat="42.82543" lon="0.24946">
        <ele>1831.8</ele>
        <time>2022-01-09T08:15:35Z</time>
      </trkpt>
      <trkpt lat="42.82543" lon="0.24944">
        <ele>1832.4</ele>
        <time>2022-01-09T08:15:36Z</time>
      </trkpt>
      <trkpt lat="42.82544" lon="0.24942">
        <ele>1833.4</ele>
        <time>2022-01-09T08:15:37Z</time>
      </trkpt>
      <trkpt lat="42.82544" lon="0.24939">
        <ele>1834.4</ele>
        <time>2022-01-09T08:15:38Z</time>
      </trkpt>
      <trkpt lat="42.82544" lon="0.24937">
        <ele>1835.2</ele>
        <time>2022-01-09T08:15:39Z</time>
      </trkpt>
      <trkpt lat="42.82544" lon="0.24935">
        <ele>1835.8</ele>
        <time>2022-01-09T08:15:40Z</time>
      </trkpt>
      <trkpt lat="42.82545" lon="0.24933">
        <ele>1836.4</ele>
        <time>2022-01-09T08:15:41Z</time>
      </trkpt>
      <trkpt lat="42.82545" lon="0.24931">
        <ele>1836.4</ele>
        <time>2022-01-09T08:15:42Z</time>
      </trkpt>
      <trkpt lat="42.82545" lon="0.24929">
        <ele>1837</ele>
        <time>2022-01-09T08:15:43Z</time>
      </trkpt>
      <trkpt lat="42.82546" lon="0.24927">
        <ele>1837.6</ele>
        <time>2022-01-09T08:15:44Z</time>
      </trkpt>
      <trkpt lat="42.82546" lon="0.24925">
        <ele>1838</ele>
        <time>2022-01-09T08:15:45Z</time>
      </trkpt>
      <trkpt lat="42.82546" lon="0.24923">
        <ele>1837.8</ele>
        <time>2022-01-09T08:15:46Z</time>
      </trkpt>
      <trkpt lat="42.82547" lon="0.24921">
        <ele>1838</ele>
        <time>2022-01-09T08:15:47Z</time>
      </trkpt>
      <trkpt lat="42.82547" lon="0.24919">
        <ele>1837.8</ele>
        <time>2022-01-09T08:15:48Z</time>
      </trkpt>
      <trkpt lat="42.82548" lon="0.24917">
        <ele>1838.4</ele>
        <time>2022-01-09T08:15:49Z</time>
      </trkpt>
      <trkpt lat="42.82549" lon="0.24915">
        <ele>1838.2</ele>
        <time>2022-01-09T08:15:50Z</time>
      </trkpt>
      <trkpt lat="42.8255" lon="0.24912">
        <ele>1838</ele>
        <time>2022-01-09T08:15:51Z</time>
      </trkpt>
      <trkpt lat="42.82551" lon="0.2491">
        <ele>1838.2</ele>
        <time>2022-01-09T08:15:52Z</time>
      </trkpt>
      <trkpt lat="42.82552" lon="0.24907">
        <ele>1838.6</ele>
        <time>2022-01-09T08:15:53Z</time>
      </trkpt>
      <trkpt lat="42.82553" lon="0.24905">
        <ele>1838.6</ele>
        <time>2022-01-09T08:15:54Z</time>
      </trkpt>
      <trkpt lat="42.82555" lon="0.24903">
        <ele>1839.2</ele>
        <time>2022-01-09T08:15:55Z</time>
      </trkpt>
      <trkpt lat="42.82556" lon="0.24901">
        <ele>1839.4</ele>
        <time>2022-01-09T08:15:56Z</time>
      </trkpt>
      <trkpt lat="42.82558" lon="0.24898">
        <ele>1839.2</ele>
        <time>2022-01-09T08:15:57Z</time>
      </trkpt>
      <trkpt lat="42.8256" lon="0.24896">
        <ele>1839.4</ele>
        <time>2022-01-09T08:15:58Z</time>
      </trkpt>
      <trkpt lat="42.82561" lon="0.24895">
        <ele>1839.2</ele>
        <time>2022-01-09T08:15:59Z</time>
      </trkpt>
      <trkpt lat="42.82563" lon="0.24893">
        <ele>1839.2</ele>
        <time>2022-01-09T08:16:00Z</time>
      </trkpt>
      <trkpt lat="42.82564" lon="0.24892">
        <ele>1839.6</ele>
        <time>2022-01-09T08:16:01Z</time>
      </trkpt>
      <trkpt lat="42.82566" lon="0.2489">
        <ele>1839.4</ele>
        <time>2022-01-09T08:16:02Z</time>
      </trkpt>
      <trkpt lat="42.82568" lon="0.24888">
        <ele>1839.4</ele>
        <time>2022-01-09T08:16:03Z</time>
      </trkpt>
      <trkpt lat="42.8257" lon="0.24887">
        <ele>1839.4</ele>
        <time>2022-01-09T08:16:04Z</time>
      </trkpt>
      <trkpt lat="42.82571" lon="0.24886">
        <ele>1839.6</ele>
        <time>2022-01-09T08:16:05Z</time>
      </trkpt>
      <trkpt lat="42.82573" lon="0.24885">
        <ele>1839.8</ele>
        <time>2022-01-09T08:16:06Z</time>
      </trkpt>
      <trkpt lat="42.82575" lon="0.24884">
        <ele>1839.6</ele>
        <time>2022-01-09T08:16:07Z</time>
      </trkpt>
      <trkpt lat="42.82577" lon="0.24883">
        <ele>1840.4</ele>
        <time>2022-01-09T08:16:08Z</time>
      </trkpt>
      <trkpt lat="42.82579" lon="0.24882">
        <ele>1840.8</ele>
        <time>2022-01-09T08:16:09Z</time>
      </trkpt>
      <trkpt lat="42.82582" lon="0.24881">
        <ele>1840.8</ele>
        <time>2022-01-09T08:16:10Z</time>
      </trkpt>
      <trkpt lat="42.82584" lon="0.2488">
        <ele>1840.4</ele>
        <time>2022-01-09T08:16:11Z</time>
      </trkpt>
      <trkpt lat="42.82587" lon="0.24879">
        <ele>1840.2</ele>
        <time>2022-01-09T08:16:12Z</time>
      </trkpt>
      <trkpt lat="42.82587" lon="0.24879">
        <ele>1840</ele>
        <time>2022-01-09T08:16:13Z</time>
      </trkpt>
      <trkpt lat="42.82588" lon="0.24879">
        <ele>1839.8</ele>
        <time>2022-01-09T08:16:14Z</time>
      </trkpt>
      <trkpt lat="42.82588" lon="0.24879">
        <ele>1839.6</ele>
        <time>2022-01-09T08:16:15Z</time>
      </trkpt>
      <trkpt lat="42.82588" lon="0.24879">
        <ele>1839.8</ele>
        <time>2022-01-09T08:16:16Z</time>
      </trkpt>
      <trkpt lat="42.82589" lon="0.24879">
        <ele>1839.4</ele>
        <time>2022-01-09T08:16:17Z</time>
      </trkpt>
      <trkpt lat="42.82589" lon="0.2488">
        <ele>1839.4</ele>
        <time>2022-01-09T08:16:18Z</time>
      </trkpt>
      <trkpt lat="42.82589" lon="0.2488">
        <ele>1839.6</ele>
        <time>2022-01-09T08:16:19Z</time>
      </trkpt>
      <trkpt lat="42.8259" lon="0.2488">
        <ele>1840.2</ele>
        <time>2022-01-09T08:16:20Z</time>
      </trkpt>
      <trkpt lat="42.8259" lon="0.2488">
        <ele>1840.2</ele>
        <time>2022-01-09T08:16:21Z</time>
      </trkpt>
      <trkpt lat="42.82591" lon="0.2488">
        <ele>1839.8</ele>
        <time>2022-01-09T08:16:22Z</time>
      </trkpt>
      <trkpt lat="42.82591" lon="0.24881">
        <ele>1839.8</ele>
        <time>2022-01-09T08:16:23Z</time>
      </trkpt>
      <trkpt lat="42.82591" lon="0.24881">
        <ele>1839.8</ele>
        <time>2022-01-09T08:16:24Z</time>
      </trkpt>
      <trkpt lat="42.82592" lon="0.24881">
        <ele>1840</ele>
        <time>2022-01-09T08:16:25Z</time>
      </trkpt>
      <trkpt lat="42.82592" lon="0.24881">
        <ele>1840</ele>
        <time>2022-01-09T08:16:26Z</time>
      </trkpt>
      <trkpt lat="42.82592" lon="0.24881">
        <ele>1839.8</ele>
        <time>2022-01-09T08:16:27Z</time>
      </trkpt>
      <trkpt lat="42.82593" lon="0.24881">
        <ele>1839.6</ele>
        <time>2022-01-09T08:16:28Z</time>
      </trkpt>
      <trkpt lat="42.82593" lon="0.24882">
        <ele>1839.6</ele>
        <time>2022-01-09T08:16:29Z</time>
      </trkpt>
      <trkpt lat="42.82594" lon="0.24882">
        <ele>1839.6</ele>
        <time>2022-01-09T08:16:30Z</time>
      </trkpt>
      <trkpt lat="42.82594" lon="0.24882">
        <ele>1839.6</ele>
        <time>2022-01-09T08:16:31Z</time>
      </trkpt>
      <trkpt lat="42.82594" lon="0.24882">
        <ele>1840</ele>
        <time>2022-01-09T08:16:32Z</time>
      </trkpt>
      <trkpt lat="42.82595" lon="0.24882">
        <ele>1839.8</ele>
        <time>2022-01-09T08:16:33Z</time>
      </trkpt>
      <trkpt lat="42.82595" lon="0.24882">
        <ele>1840</ele>
        <time>2022-01-09T08:16:34Z</time>
      </trkpt>
      <trkpt lat="42.82595" lon="0.24883">
        <ele>1839.8</ele>
        <time>2022-01-09T08:16:35Z</time>
      </trkpt>
      <trkpt lat="42.82596" lon="0.24883">
        <ele>1839.8</ele>
        <time>2022-01-09T08:16:36Z</time>
      </trkpt>
      <trkpt lat="42.82597" lon="0.24884">
        <ele>1838.8</ele>
        <time>2022-01-09T08:16:37Z</time>
      </trkpt>
      <trkpt lat="42.82598" lon="0.24886">
        <ele>1837.6</ele>
        <time>2022-01-09T08:16:38Z</time>
      </trkpt>
      <trkpt lat="42.826" lon="0.24888">
        <ele>1836</ele>
        <time>2022-01-09T08:16:39Z</time>
      </trkpt>
      <trkpt lat="42.82605" lon="0.24895">
        <ele>1834</ele>
        <time>2022-01-09T08:16:40Z</time>
      </trkpt>
      <trkpt lat="42.82607" lon="0.24899">
        <ele>1832.4</ele>
        <time>2022-01-09T08:16:41Z</time>
      </trkpt>
      <trkpt lat="42.8261" lon="0.24912">
        <ele>1831</ele>
        <time>2022-01-09T08:16:42Z</time>
      </trkpt>
      <trkpt lat="42.8261" lon="0.2492">
        <ele>1828.4</ele>
        <time>2022-01-09T08:16:43Z</time>
      </trkpt>
      <trkpt lat="42.82611" lon="0.24935">
        <ele>1825.6</ele>
        <time>2022-01-09T08:16:44Z</time>
      </trkpt>
      <trkpt lat="42.82611" lon="0.24945">
        <ele>1824.4</ele>
        <time>2022-01-09T08:16:45Z</time>
      </trkpt>
      <trkpt lat="42.82612" lon="0.24954">
        <ele>1822.2</ele>
        <time>2022-01-09T08:16:46Z</time>
      </trkpt>
      <trkpt lat="42.82613" lon="0.24972">
        <ele>1818.4</ele>
        <time>2022-01-09T08:16:47Z</time>
      </trkpt>
      <trkpt lat="42.82617" lon="0.24984">
        <ele>1815.6</ele>
        <time>2022-01-09T08:16:48Z</time>
      </trkpt>
      <trkpt lat="42.82622" lon="0.24994">
        <ele>1811.8</ele>
        <time>2022-01-09T08:16:49Z</time>
      </trkpt>
      <trkpt lat="42.82623" lon="0.24999">
        <ele>1808.6</ele>
        <time>2022-01-09T08:16:50Z</time>
      </trkpt>
      <trkpt lat="42.82624" lon="0.25005">
        <ele>1805.2</ele>
        <time>2022-01-09T08:16:51Z</time>
      </trkpt>
      <trkpt lat="42.82627" lon="0.2502">
        <ele>1802.8</ele>
        <time>2022-01-09T08:16:52Z</time>
      </trkpt>
      <trkpt lat="42.82629" lon="0.25025">
        <ele>1798.6</ele>
        <time>2022-01-09T08:16:53Z</time>
      </trkpt>
      <trkpt lat="42.82636" lon="0.25043">
        <ele>1797.2</ele>
        <time>2022-01-09T08:16:54Z</time>
      </trkpt>
      <trkpt lat="42.82638" lon="0.25052">
        <ele>1794.6</ele>
        <time>2022-01-09T08:16:55Z</time>
      </trkpt>
      <trkpt lat="42.82643" lon="0.25068">
        <ele>1790.4</ele>
        <time>2022-01-09T08:16:56Z</time>
      </trkpt>
      <trkpt lat="42.82644" lon="0.25082">
        <ele>1787.2</ele>
        <time>2022-01-09T08:16:57Z</time>
      </trkpt>
      <trkpt lat="42.82647" lon="0.25095">
        <ele>1784.6</ele>
        <time>2022-01-09T08:16:58Z</time>
      </trkpt>
      <trkpt lat="42.82647" lon="0.25108">
        <ele>1780.8</ele>
        <time>2022-01-09T08:16:59Z</time>
      </trkpt>
      <trkpt lat="42.82647" lon="0.25121">
        <ele>1777.6</ele>
        <time>2022-01-09T08:17:00Z</time>
      </trkpt>
      <trkpt lat="42.82651" lon="0.25133">
        <ele>1775.2</ele>
        <time>2022-01-09T08:17:01Z</time>
      </trkpt>
      <trkpt lat="42.82651" lon="0.25139">
        <ele>1772.4</ele>
        <time>2022-01-09T08:17:02Z</time>
      </trkpt>
      <trkpt lat="42.82652" lon="0.25145">
        <ele>1768.6</ele>
        <time>2022-01-09T08:17:03Z</time>
      </trkpt>
      <trkpt lat="42.82652" lon="0.25161">
        <ele>1765.2</ele>
        <time>2022-01-09T08:17:04Z</time>
      </trkpt>
      <trkpt lat="42.82652" lon="0.25167">
        <ele>1762.2</ele>
        <time>2022-01-09T08:17:05Z</time>
      </trkpt>
      <trkpt lat="42.82652" lon="0.25182">
        <ele>1758.6</ele>
        <time>2022-01-09T08:17:06Z</time>
      </trkpt>
      <trkpt lat="42.82652" lon="0.25186">
        <ele>1755.2</ele>
        <time>2022-01-09T08:17:07Z</time>
      </trkpt>
      <trkpt lat="42.82653" lon="0.25201">
        <ele>1750.6</ele>
        <time>2022-01-09T08:17:08Z</time>
      </trkpt>
      <trkpt lat="42.82655" lon="0.25205">
        <ele>1747</ele>
        <time>2022-01-09T08:17:09Z</time>
      </trkpt>
      <trkpt lat="42.82661" lon="0.25218">
        <ele>1744.2</ele>
        <time>2022-01-09T08:17:10Z</time>
      </trkpt>
      <trkpt lat="42.82664" lon="0.25222">
        <ele>1740.2</ele>
        <time>2022-01-09T08:17:11Z</time>
      </trkpt>
      <trkpt lat="42.82673" lon="0.25237">
        <ele>1735.8</ele>
        <time>2022-01-09T08:17:12Z</time>
      </trkpt>
      <trkpt lat="42.82675" lon="0.25246">
        <ele>1732</ele>
        <time>2022-01-09T08:17:13Z</time>
      </trkpt>
      <trkpt lat="42.8268" lon="0.25262">
        <ele>1727.8</ele>
        <time>2022-01-09T08:17:14Z</time>
      </trkpt>
      <trkpt lat="42.82679" lon="0.25267">
        <ele>1723.2</ele>
        <time>2022-01-09T08:17:15Z</time>
      </trkpt>
      <trkpt lat="42.82678" lon="0.25273">
        <ele>1718.2</ele>
        <time>2022-01-09T08:17:16Z</time>
      </trkpt>
      <trkpt lat="42.82679" lon="0.2529">
        <ele>1713.6</ele>
        <time>2022-01-09T08:17:17Z</time>
      </trkpt>
      <trkpt lat="42.82682" lon="0.25296">
        <ele>1709.8</ele>
        <time>2022-01-09T08:17:18Z</time>
      </trkpt>
      <trkpt lat="42.82689" lon="0.25309">
        <ele>1705</ele>
        <time>2022-01-09T08:17:19Z</time>
      </trkpt>
      <trkpt lat="42.8269" lon="0.25317">
        <ele>1700.8</ele>
        <time>2022-01-09T08:17:20Z</time>
      </trkpt>
      <trkpt lat="42.82692" lon="0.25325">
        <ele>1695</ele>
        <time>2022-01-09T08:17:21Z</time>
      </trkpt>
      <trkpt lat="42.82695" lon="0.25341">
        <ele>1692.2</ele>
        <time>2022-01-09T08:17:22Z</time>
      </trkpt>
      <trkpt lat="42.82692" lon="0.25356">
        <ele>1688.2</ele>
        <time>2022-01-09T08:17:23Z</time>
      </trkpt>
      <trkpt lat="42.82687" lon="0.25373">
        <ele>1683.6</ele>
        <time>2022-01-09T08:17:24Z</time>
      </trkpt>
      <trkpt lat="42.8268" lon="0.25388">
        <ele>1680.6</ele>
        <time>2022-01-09T08:17:25Z</time>
      </trkpt>
      <trkpt lat="42.82672" lon="0.25402">
        <ele>1677.8</ele>
        <time>2022-01-09T08:17:26Z</time>
      </trkpt>
      <trkpt lat="42.82663" lon="0.25419">
        <ele>1674.8</ele>
        <time>2022-01-09T08:17:27Z</time>
      </trkpt>
      <trkpt lat="42.82655" lon="0.25437">
        <ele>1670.2</ele>
        <time>2022-01-09T08:17:28Z</time>
      </trkpt>
      <trkpt lat="42.82647" lon="0.25456">
        <ele>1665</ele>
        <time>2022-01-09T08:17:29Z</time>
      </trkpt>
      <trkpt lat="42.82638" lon="0.25474">
        <ele>1660.6</ele>
        <time>2022-01-09T08:17:30Z</time>
      </trkpt>
      <trkpt lat="42.82628" lon="0.25494">
        <ele>1656.6</ele>
        <time>2022-01-09T08:17:31Z</time>
      </trkpt>
      <trkpt lat="42.82619" lon="0.25514">
        <ele>1651.8</ele>
        <time>2022-01-09T08:17:32Z</time>
      </trkpt>
      <trkpt lat="42.82612" lon="0.25535">
        <ele>1646.4</ele>
        <time>2022-01-09T08:17:33Z</time>
      </trkpt>
      <trkpt lat="42.82607" lon="0.25559">
        <ele>1641.2</ele>
        <time>2022-01-09T08:17:34Z</time>
      </trkpt>
      <trkpt lat="42.82604" lon="0.25589">
        <ele>1637.8</ele>
        <time>2022-01-09T08:17:35Z</time>
      </trkpt>
      <trkpt lat="42.82605" lon="0.25611">
        <ele>1634.2</ele>
        <time>2022-01-09T08:17:36Z</time>
      </trkpt>
      <trkpt lat="42.8261" lon="0.2564">
        <ele>1630</ele>
        <time>2022-01-09T08:17:37Z</time>
      </trkpt>
      <trkpt lat="42.82615" lon="0.25661">
        <ele>1626.4</ele>
        <time>2022-01-09T08:17:38Z</time>
      </trkpt>
      <trkpt lat="42.82616" lon="0.25679">
        <ele>1622.4</ele>
        <time>2022-01-09T08:17:39Z</time>
      </trkpt>
      <trkpt lat="42.82615" lon="0.25698">
        <ele>1619.4</ele>
        <time>2022-01-09T08:17:40Z</time>
      </trkpt>
      <trkpt lat="42.82616" lon="0.25717">
        <ele>1616.8</ele>
        <time>2022-01-09T08:17:41Z</time>
      </trkpt>
      <trkpt lat="42.82617" lon="0.25736">
        <ele>1613.8</ele>
        <time>2022-01-09T08:17:42Z</time>
      </trkpt>
      <trkpt lat="42.82615" lon="0.25752">
        <ele>1611.4</ele>
        <time>2022-01-09T08:17:43Z</time>
      </trkpt>
      <trkpt lat="42.82608" lon="0.25766">
        <ele>1608.6</ele>
        <time>2022-01-09T08:17:44Z</time>
      </trkpt>
      <trkpt lat="42.826" lon="0.25779">
        <ele>1606.4</ele>
        <time>2022-01-09T08:17:45Z</time>
      </trkpt>
      <trkpt lat="42.82595" lon="0.25793">
        <ele>1604.6</ele>
        <time>2022-01-09T08:17:46Z</time>
      </trkpt>
      <trkpt lat="42.82597" lon="0.25798">
        <ele>1603</ele>
        <time>2022-01-09T08:17:47Z</time>
      </trkpt>
      <trkpt lat="42.82599" lon="0.25804">
        <ele>1602</ele>
        <time>2022-01-09T08:17:48Z</time>
      </trkpt>
      <trkpt lat="42.82598" lon="0.25804">
        <ele>1601.4</ele>
        <time>2022-01-09T08:17:49Z</time>
      </trkpt>
      <trkpt lat="42.82596" lon="0.25804">
        <ele>1600.4</ele>
        <time>2022-01-09T08:17:50Z</time>
      </trkpt>
      <trkpt lat="42.82594" lon="0.25804">
        <ele>1599.8</ele>
        <time>2022-01-09T08:17:51Z</time>
      </trkpt>
      <trkpt lat="42.82588" lon="0.25804">
        <ele>1599</ele>
        <time>2022-01-09T08:17:52Z</time>
      </trkpt>
      <trkpt lat="42.82588" lon="0.25803">
        <ele>1598.6</ele>
        <time>2022-01-09T08:17:53Z</time>
      </trkpt>
      <trkpt lat="42.82588" lon="0.25803">
        <ele>1598.2</ele>
        <time>2022-01-09T08:17:54Z</time>
      </trkpt>
      <trkpt lat="42.82588" lon="0.25803">
        <ele>1597.8</ele>
        <time>2022-01-09T08:17:55Z</time>
      </trkpt>
      <trkpt lat="42.82587" lon="0.25802">
        <ele>1597.6</ele>
        <time>2022-01-09T08:17:56Z</time>
      </trkpt>
      <trkpt lat="42.82587" lon="0.25802">
        <ele>1597.6</ele>
        <time>2022-01-09T08:17:57Z</time>
      </trkpt>
      <trkpt lat="42.82587" lon="0.25801">
        <ele>1597.4</ele>
        <time>2022-01-09T08:17:58Z</time>
      </trkpt>
      <trkpt lat="42.82587" lon="0.25801">
        <ele>1597.2</ele>
        <time>2022-01-09T08:17:59Z</time>
      </trkpt>
      <trkpt lat="42.82586" lon="0.25801">
        <ele>1597.2</ele>
        <time>2022-01-09T08:18:00Z</time>
      </trkpt>
      <trkpt lat="42.82586" lon="0.258">
        <ele>1597.2</ele>
        <time>2022-01-09T08:18:01Z</time>
      </trkpt>
      <trkpt lat="42.82586" lon="0.258">
        <ele>1597.4</ele>
        <time>2022-01-09T08:18:02Z</time>
      </trkpt>
      <trkpt lat="42.82586" lon="0.258">
        <ele>1597.6</ele>
        <time>2022-01-09T08:18:03Z</time>
      </trkpt>
      <trkpt lat="42.82585" lon="0.25799">
        <ele>1597.2</ele>
        <time>2022-01-09T08:18:04Z</time>
      </trkpt>
      <trkpt lat="42.82585" lon="0.25799">
        <ele>1597.2</ele>
        <time>2022-01-09T08:18:05Z</time>
      </trkpt>
      <trkpt lat="42.82585" lon="0.25799">
        <ele>1597</ele>
        <time>2022-01-09T08:18:06Z</time>
      </trkpt>
      <trkpt lat="42.82585" lon="0.25799">
        <ele>1597</ele>
        <time>2022-01-09T08:18:07Z</time>
      </trkpt>
      <trkpt lat="42.82586" lon="0.25803">
        <ele>1597</ele>
        <time>2022-01-09T08:18:08Z</time>
      </trkpt>
      <trkpt lat="42.82586" lon="0.25803">
        <ele>1596.6</ele>
        <time>2022-01-09T08:18:09Z</time>
      </trkpt>
      <trkpt lat="42.82586" lon="0.25803">
        <ele>1596.6</ele>
        <time>2022-01-09T08:18:10Z</time>
      </trkpt>
      <trkpt lat="42.82586" lon="0.25803">
        <ele>1596.4</ele>
        <time>2022-01-09T08:18:11Z</time>
      </trkpt>
      <trkpt lat="42.82586" lon="0.25803">
        <ele>1596.6</ele>
        <time>2022-01-09T08:18:12Z</time>
      </trkpt>
      <trkpt lat="42.82586" lon="0.25803">
        <ele>1596.6</ele>
        <time>2022-01-09T08:18:13Z</time>
      </trkpt>
      <trkpt lat="42.82586" lon="0.25803">
        <ele>1596.4</ele>
        <time>2022-01-09T08:18:14Z</time>
      </trkpt>
      <trkpt lat="42.82586" lon="0.25803">
        <ele>1596.6</ele>
        <time>2022-01-09T08:18:15Z</time>
      </trkpt>
      <trkpt lat="42.82586" lon="0.25803">
        <ele>1596.6</ele>
        <time>2022-01-09T08:18:16Z</time>
      </trkpt>
      <trkpt lat="42.82586" lon="0.25803">
        <ele>1596.8</ele>
        <time>2022-01-09T08:18:17Z</time>
      </trkpt>
      <trkpt lat="42.82586" lon="0.25803">
        <ele>1596.8</ele>
        <time>2022-01-09T08:18:18Z</time>
      </trkpt>
      <trkpt lat="42.82586" lon="0.25803">
        <ele>1597</ele>
        <time>2022-01-09T08:18:19Z</time>
      </trkpt>
      <trkpt lat="42.82586" lon="0.25803">
        <ele>1597.2</ele>
        <time>2022-01-09T08:18:20Z</time>
      </trkpt>
      <trkpt lat="42.82586" lon="0.25803">
        <ele>1597.2</ele>
        <time>2022-01-09T08:18:21Z</time>
      </trkpt>
      <trkpt lat="42.82586" lon="0.25803">
        <ele>1597</ele>
        <time>2022-01-09T08:18:22Z</time>
      </trkpt>
      <trkpt lat="42.82584" lon="0.25802">
        <ele>1597</ele>
        <time>2022-01-09T08:18:23Z</time>
      </trkpt>
      <trkpt lat="42.82584" lon="0.25802">
        <ele>1596.8</ele>
        <time>2022-01-09T08:18:24Z</time>
      </trkpt>
      <trkpt lat="42.82584" lon="0.25802">
        <ele>1596.8</ele>
        <time>2022-01-09T08:18:25Z</time>
      </trkpt>
      <trkpt lat="42.82584" lon="0.25802">
        <ele>1596.6</ele>
        <time>2022-01-09T08:18:26Z</time>
      </trkpt>
      <trkpt lat="42.82584" lon="0.25802">
        <ele>1596.6</ele>
        <time>2022-01-09T08:18:27Z</time>
      </trkpt>
      <trkpt lat="42.82584" lon="0.25802">
        <ele>1596.6</ele>
        <time>2022-01-09T08:18:28Z</time>
      </trkpt>
      <trkpt lat="42.82584" lon="0.25802">
        <ele>1596.6</ele>
        <time>2022-01-09T08:18:29Z</time>
      </trkpt>
      <trkpt lat="42.82584" lon="0.25802">
        <ele>1597</ele>
        <time>2022-01-09T08:18:30Z</time>
      </trkpt>
      <trkpt lat="42.82584" lon="0.25802">
        <ele>1597</ele>
        <time>2022-01-09T08:18:31Z</time>
      </trkpt>
      <trkpt lat="42.82581" lon="0.258">
        <ele>1597.4</ele>
        <time>2022-01-09T08:18:32Z</time>
      </trkpt>
      <trkpt lat="42.82578" lon="0.25799">
        <ele>1597.6</ele>
        <time>2022-01-09T08:18:33Z</time>
      </trkpt>
      <trkpt lat="42.82575" lon="0.25796">
        <ele>1597.6</ele>
        <time>2022-01-09T08:18:34Z</time>
      </trkpt>
      <trkpt lat="42.82573" lon="0.25794">
        <ele>1597.4</ele>
        <time>2022-01-09T08:18:35Z</time>
      </trkpt>
      <trkpt lat="42.8257" lon="0.25791">
        <ele>1597.4</ele>
        <time>2022-01-09T08:18:36Z</time>
      </trkpt>
      <trkpt lat="42.82567" lon="0.25789">
        <ele>1597.4</ele>
        <time>2022-01-09T08:18:37Z</time>
      </trkpt>
      <trkpt lat="42.82563" lon="0.25787">
        <ele>1597.2</ele>
        <time>2022-01-09T08:18:38Z</time>
      </trkpt>
      <trkpt lat="42.8256" lon="0.25785">
        <ele>1597.2</ele>
        <time>2022-01-09T08:18:39Z</time>
      </trkpt>
      <trkpt lat="42.82557" lon="0.25782">
        <ele>1597.2</ele>
        <time>2022-01-09T08:18:40Z</time>
      </trkpt>
      <trkpt lat="42.82555" lon="0.25779">
        <ele>1597.2</ele>
        <time>2022-01-09T08:18:41Z</time>
      </trkpt>
      <trkpt lat="42.82552" lon="0.25776">
        <ele>1597</ele>
        <time>2022-01-09T08:18:42Z</time>
      </trkpt>
      <trkpt lat="42.8255" lon="0.25773">
        <ele>1597.2</ele>
        <time>2022-01-09T08:18:43Z</time>
      </trkpt>
      <trkpt lat="42.82548" lon="0.25769">
        <ele>1597.2</ele>
        <time>2022-01-09T08:18:44Z</time>
      </trkpt>
      <trkpt lat="42.82546" lon="0.25765">
        <ele>1597.2</ele>
        <time>2022-01-09T08:18:45Z</time>
      </trkpt>
      <trkpt lat="42.82545" lon="0.25762">
        <ele>1597.2</ele>
        <time>2022-01-09T08:18:46Z</time>
      </trkpt>
      <trkpt lat="42.82543" lon="0.2576">
        <ele>1597.4</ele>
        <time>2022-01-09T08:18:47Z</time>
      </trkpt>
      <trkpt lat="42.82542" lon="0.25758">
        <ele>1598</ele>
        <time>2022-01-09T08:18:48Z</time>
      </trkpt>
      <trkpt lat="42.8254" lon="0.25756">
        <ele>1598.4</ele>
        <time>2022-01-09T08:18:49Z</time>
      </trkpt>
      <trkpt lat="42.8254" lon="0.25754">
        <ele>1598.6</ele>
        <time>2022-01-09T08:18:50Z</time>
      </trkpt>
      <trkpt lat="42.82541" lon="0.25752">
        <ele>1599</ele>
        <time>2022-01-09T08:18:51Z</time>
      </trkpt>
      <trkpt lat="42.82541" lon="0.25751">
        <ele>1599.2</ele>
        <time>2022-01-09T08:18:52Z</time>
      </trkpt>
      <trkpt lat="42.82541" lon="0.25749">
        <ele>1599.6</ele>
        <time>2022-01-09T08:18:53Z</time>
      </trkpt>
      <trkpt lat="42.82541" lon="0.25747">
        <ele>1600.2</ele>
        <time>2022-01-09T08:18:54Z</time>
      </trkpt>
      <trkpt lat="42.82541" lon="0.25745">
        <ele>1600.4</ele>
        <time>2022-01-09T08:18:55Z</time>
      </trkpt>
      <trkpt lat="42.82542" lon="0.25743">
        <ele>1600.6</ele>
        <time>2022-01-09T08:18:56Z</time>
      </trkpt>
      <trkpt lat="42.82542" lon="0.25742">
        <ele>1600.8</ele>
        <time>2022-01-09T08:18:57Z</time>
      </trkpt>
      <trkpt lat="42.82542" lon="0.2574">
        <ele>1601.2</ele>
        <time>2022-01-09T08:18:58Z</time>
      </trkpt>
      <trkpt lat="42.82542" lon="0.25738">
        <ele>1601.4</ele>
        <time>2022-01-09T08:18:59Z</time>
      </trkpt>
      <trkpt lat="42.82543" lon="0.25736">
        <ele>1601.8</ele>
        <time>2022-01-09T08:19:00Z</time>
      </trkpt>
      <trkpt lat="42.82543" lon="0.25734">
        <ele>1602.4</ele>
        <time>2022-01-09T08:19:01Z</time>
      </trkpt>
      <trkpt lat="42.82543" lon="0.25733">
        <ele>1602.8</ele>
        <time>2022-01-09T08:19:02Z</time>
      </trkpt>
      <trkpt lat="42.82543" lon="0.25731">
        <ele>1603.4</ele>
        <time>2022-01-09T08:19:03Z</time>
      </trkpt>
      <trkpt lat="42.82543" lon="0.25729">
        <ele>1603.8</ele>
        <time>2022-01-09T08:19:04Z</time>
      </trkpt>
      <trkpt lat="42.82544" lon="0.25727">
        <ele>1604.2</ele>
        <time>2022-01-09T08:19:05Z</time>
      </trkpt>
      <trkpt lat="42.82544" lon="0.25726">
        <ele>1604.6</ele>
        <time>2022-01-09T08:19:06Z</time>
      </trkpt>
      <trkpt lat="42.82544" lon="0.25724">
        <ele>1605</ele>
        <time>2022-01-09T08:19:07Z</time>
      </trkpt>
      <trkpt lat="42.82544" lon="0.25722">
        <ele>1605.2</ele>
        <time>2022-01-09T08:19:08Z</time>
      </trkpt>
      <trkpt lat="42.82544" lon="0.2572">
        <ele>1605.8</ele>
        <time>2022-01-09T08:19:09Z</time>
      </trkpt>
      <trkpt lat="42.82545" lon="0.25719">
        <ele>1606.4</ele>
        <time>2022-01-09T08:19:10Z</time>
      </trkpt>
      <trkpt lat="42.82543" lon="0.25717">
        <ele>1606.6</ele>
        <time>2022-01-09T08:19:11Z</time>
      </trkpt>
      <trkpt lat="42.82542" lon="0.25716">
        <ele>1606.8</ele>
        <time>2022-01-09T08:19:12Z</time>
      </trkpt>
      <trkpt lat="42.82541" lon="0.25714">
        <ele>1607</ele>
        <time>2022-01-09T08:19:13Z</time>
      </trkpt>
      <trkpt lat="42.8254" lon="0.25713">
        <ele>1607.2</ele>
        <time>2022-01-09T08:19:14Z</time>
      </trkpt>
      <trkpt lat="42.82539" lon="0.25711">
        <ele>1607.6</ele>
        <time>2022-01-09T08:19:15Z</time>
      </trkpt>
      <trkpt lat="42.82538" lon="0.2571">
        <ele>1608</ele>
        <time>2022-01-09T08:19:16Z</time>
      </trkpt>
      <trkpt lat="42.82537" lon="0.25708">
        <ele>1608.2</ele>
        <time>2022-01-09T08:19:17Z</time>
      </trkpt>
      <trkpt lat="42.82536" lon="0.25707">
        <ele>1608.8</ele>
        <time>2022-01-09T08:19:18Z</time>
      </trkpt>
      <trkpt lat="42.82534" lon="0.25706">
        <ele>1609.2</ele>
        <time>2022-01-09T08:19:19Z</time>
      </trkpt>
      <trkpt lat="42.82534" lon="0.25706">
        <ele>1609.2</ele>
        <time>2022-01-09T08:19:20Z</time>
      </trkpt>
      <trkpt lat="42.82532" lon="0.25704">
        <ele>1609.4</ele>
        <time>2022-01-09T08:19:21Z</time>
      </trkpt>
      <trkpt lat="42.82532" lon="0.25704">
        <ele>1609.8</ele>
        <time>2022-01-09T08:19:22Z</time>
      </trkpt>
      <trkpt lat="42.8253" lon="0.25702">
        <ele>1610.4</ele>
        <time>2022-01-09T08:19:23Z</time>
      </trkpt>
      <trkpt lat="42.8253" lon="0.25702">
        <ele>1610.6</ele>
        <time>2022-01-09T08:19:24Z</time>
      </trkpt>
      <trkpt lat="42.82527" lon="0.25699">
        <ele>1611</ele>
        <time>2022-01-09T08:19:25Z</time>
      </trkpt>
      <trkpt lat="42.82526" lon="0.25698">
        <ele>1611.2</ele>
        <time>2022-01-09T08:19:26Z</time>
      </trkpt>
      <trkpt lat="42.82525" lon="0.25697">
        <ele>1611.6</ele>
        <time>2022-01-09T08:19:27Z</time>
      </trkpt>
      <trkpt lat="42.82524" lon="0.25696">
        <ele>1612</ele>
        <time>2022-01-09T08:19:28Z</time>
      </trkpt>
      <trkpt lat="42.82524" lon="0.25694">
        <ele>1612.2</ele>
        <time>2022-01-09T08:19:29Z</time>
      </trkpt>
      <trkpt lat="42.82524" lon="0.25692">
        <ele>1612.6</ele>
        <time>2022-01-09T08:19:30Z</time>
      </trkpt>
      <trkpt lat="42.82524" lon="0.25691">
        <ele>1612.8</ele>
        <time>2022-01-09T08:19:31Z</time>
      </trkpt>
      <trkpt lat="42.82524" lon="0.25689">
        <ele>1613</ele>
        <time>2022-01-09T08:19:32Z</time>
      </trkpt>
      <trkpt lat="42.82523" lon="0.25687">
        <ele>1613.4</ele>
        <time>2022-01-09T08:19:33Z</time>
      </trkpt>
      <trkpt lat="42.82523" lon="0.25685">
        <ele>1613.8</ele>
        <time>2022-01-09T08:19:34Z</time>
      </trkpt>
      <trkpt lat="42.82523" lon="0.25684">
        <ele>1614.2</ele>
        <time>2022-01-09T08:19:35Z</time>
      </trkpt>
      <trkpt lat="42.82524" lon="0.25682">
        <ele>1614.8</ele>
        <time>2022-01-09T08:19:36Z</time>
      </trkpt>
      <trkpt lat="42.82524" lon="0.2568">
        <ele>1615</ele>
        <time>2022-01-09T08:19:37Z</time>
      </trkpt>
      <trkpt lat="42.82524" lon="0.25678">
        <ele>1615</ele>
        <time>2022-01-09T08:19:38Z</time>
      </trkpt>
      <trkpt lat="42.82524" lon="0.25677">
        <ele>1615.6</ele>
        <time>2022-01-09T08:19:39Z</time>
      </trkpt>
      <trkpt lat="42.82525" lon="0.25675">
        <ele>1616</ele>
        <time>2022-01-09T08:19:40Z</time>
      </trkpt>
      <trkpt lat="42.82525" lon="0.25673">
        <ele>1616</ele>
        <time>2022-01-09T08:19:41Z</time>
      </trkpt>
      <trkpt lat="42.82525" lon="0.25672">
        <ele>1616.4</ele>
        <time>2022-01-09T08:19:42Z</time>
      </trkpt>
      <trkpt lat="42.82525" lon="0.2567">
        <ele>1616.6</ele>
        <time>2022-01-09T08:19:43Z</time>
      </trkpt>
      <trkpt lat="42.82526" lon="0.25669">
        <ele>1616.6</ele>
        <time>2022-01-09T08:19:44Z</time>
      </trkpt>
      <trkpt lat="42.82526" lon="0.25668">
        <ele>1616.8</ele>
        <time>2022-01-09T08:19:45Z</time>
      </trkpt>
      <trkpt lat="42.82526" lon="0.25667">
        <ele>1617.2</ele>
        <time>2022-01-09T08:19:46Z</time>
      </trkpt>
      <trkpt lat="42.82526" lon="0.25666">
        <ele>1617.4</ele>
        <time>2022-01-09T08:19:47Z</time>
      </trkpt>
      <trkpt lat="42.82527" lon="0.25664">
        <ele>1617.6</ele>
        <time>2022-01-09T08:19:48Z</time>
      </trkpt>
      <trkpt lat="42.82529" lon="0.25655">
        <ele>1617.8</ele>
        <time>2022-01-09T08:19:49Z</time>
      </trkpt>
      <trkpt lat="42.82529" lon="0.25653">
        <ele>1618</ele>
        <time>2022-01-09T08:19:50Z</time>
      </trkpt>
      <trkpt lat="42.8253" lon="0.25651">
        <ele>1618.4</ele>
        <time>2022-01-09T08:19:51Z</time>
      </trkpt>
      <trkpt lat="42.8253" lon="0.25649">
        <ele>1618.6</ele>
        <time>2022-01-09T08:19:52Z</time>
      </trkpt>
      <trkpt lat="42.82531" lon="0.25647">
        <ele>1619</ele>
        <time>2022-01-09T08:19:53Z</time>
      </trkpt>
      <trkpt lat="42.82531" lon="0.25645">
        <ele>1619</ele>
        <time>2022-01-09T08:19:54Z</time>
      </trkpt>
      <trkpt lat="42.82532" lon="0.25643">
        <ele>1619.2</ele>
        <time>2022-01-09T08:19:55Z</time>
      </trkpt>
      <trkpt lat="42.82532" lon="0.25641">
        <ele>1619.2</ele>
        <time>2022-01-09T08:19:56Z</time>
      </trkpt>
      <trkpt lat="42.82532" lon="0.25639">
        <ele>1619.6</ele>
        <time>2022-01-09T08:19:57Z</time>
      </trkpt>
      <trkpt lat="42.82532" lon="0.25637">
        <ele>1620</ele>
        <time>2022-01-09T08:19:58Z</time>
      </trkpt>
      <trkpt lat="42.82533" lon="0.25635">
        <ele>1620</ele>
        <time>2022-01-09T08:19:59Z</time>
      </trkpt>
      <trkpt lat="42.82533" lon="0.25634">
        <ele>1620.4</ele>
        <time>2022-01-09T08:20:00Z</time>
      </trkpt>
      <trkpt lat="42.82533" lon="0.25632">
        <ele>1621.2</ele>
        <time>2022-01-09T08:20:01Z</time>
      </trkpt>
      <trkpt lat="42.82532" lon="0.2563">
        <ele>1621.4</ele>
        <time>2022-01-09T08:20:02Z</time>
      </trkpt>
      <trkpt lat="42.82532" lon="0.25629">
        <ele>1621.4</ele>
        <time>2022-01-09T08:20:03Z</time>
      </trkpt>
      <trkpt lat="42.82531" lon="0.25627">
        <ele>1622</ele>
        <time>2022-01-09T08:20:04Z</time>
      </trkpt>
      <trkpt lat="42.8253" lon="0.25626">
        <ele>1622.4</ele>
        <time>2022-01-09T08:20:05Z</time>
      </trkpt>
      <trkpt lat="42.8253" lon="0.25625">
        <ele>1622.6</ele>
        <time>2022-01-09T08:20:06Z</time>
      </trkpt>
      <trkpt lat="42.82529" lon="0.25623">
        <ele>1622.8</ele>
        <time>2022-01-09T08:20:07Z</time>
      </trkpt>
      <trkpt lat="42.82528" lon="0.25622">
        <ele>1622.8</ele>
        <time>2022-01-09T08:20:08Z</time>
      </trkpt>
      <trkpt lat="42.82527" lon="0.2562">
        <ele>1623.2</ele>
        <time>2022-01-09T08:20:09Z</time>
      </trkpt>
      <trkpt lat="42.82527" lon="0.25619">
        <ele>1623.6</ele>
        <time>2022-01-09T08:20:10Z</time>
      </trkpt>
      <trkpt lat="42.82526" lon="0.25618">
        <ele>1623.8</ele>
        <time>2022-01-09T08:20:11Z</time>
      </trkpt>
      <trkpt lat="42.82525" lon="0.25617">
        <ele>1624</ele>
        <time>2022-01-09T08:20:12Z</time>
      </trkpt>
      <trkpt lat="42.82524" lon="0.25616">
        <ele>1624.4</ele>
        <time>2022-01-09T08:20:13Z</time>
      </trkpt>
      <trkpt lat="42.82523" lon="0.25615">
        <ele>1624.8</ele>
        <time>2022-01-09T08:20:14Z</time>
      </trkpt>
      <trkpt lat="42.82523" lon="0.25615">
        <ele>1625.4</ele>
        <time>2022-01-09T08:20:15Z</time>
      </trkpt>
      <trkpt lat="42.8252" lon="0.25614">
        <ele>1625.6</ele>
        <time>2022-01-09T08:20:16Z</time>
      </trkpt>
      <trkpt lat="42.8252" lon="0.25614">
        <ele>1625.8</ele>
        <time>2022-01-09T08:20:17Z</time>
      </trkpt>
      <trkpt lat="42.82518" lon="0.25612">
        <ele>1626</ele>
        <time>2022-01-09T08:20:18Z</time>
      </trkpt>
      <trkpt lat="42.82516" lon="0.25612">
        <ele>1626.4</ele>
        <time>2022-01-09T08:20:19Z</time>
      </trkpt>
      <trkpt lat="42.82515" lon="0.25612">
        <ele>1626.8</ele>
        <time>2022-01-09T08:20:20Z</time>
      </trkpt>
      <trkpt lat="42.82514" lon="0.25612">
        <ele>1627.2</ele>
        <time>2022-01-09T08:20:21Z</time>
      </trkpt>
      <trkpt lat="42.82512" lon="0.25612">
        <ele>1627.8</ele>
        <time>2022-01-09T08:20:22Z</time>
      </trkpt>
      <trkpt lat="42.82512" lon="0.25612">
        <ele>1628.2</ele>
        <time>2022-01-09T08:20:23Z</time>
      </trkpt>
      <trkpt lat="42.8251" lon="0.2561">
        <ele>1628.4</ele>
        <time>2022-01-09T08:20:24Z</time>
      </trkpt>
      <trkpt lat="42.8251" lon="0.2561">
        <ele>1628.6</ele>
        <time>2022-01-09T08:20:25Z</time>
      </trkpt>
      <trkpt lat="42.82508" lon="0.25611">
        <ele>1629</ele>
        <time>2022-01-09T08:20:26Z</time>
      </trkpt>
      <trkpt lat="42.82508" lon="0.25611">
        <ele>1629.4</ele>
        <time>2022-01-09T08:20:27Z</time>
      </trkpt>
      <trkpt lat="42.82506" lon="0.25611">
        <ele>1629.8</ele>
        <time>2022-01-09T08:20:28Z</time>
      </trkpt>
      <trkpt lat="42.82506" lon="0.2561">
        <ele>1630</ele>
        <time>2022-01-09T08:20:29Z</time>
      </trkpt>
      <trkpt lat="42.82506" lon="0.25609">
        <ele>1630.6</ele>
        <time>2022-01-09T08:20:30Z</time>
      </trkpt>
      <trkpt lat="42.82506" lon="0.25609">
        <ele>1631</ele>
        <time>2022-01-09T08:20:31Z</time>
      </trkpt>
      <trkpt lat="42.82505" lon="0.25608">
        <ele>1631.6</ele>
        <time>2022-01-09T08:20:32Z</time>
      </trkpt>
      <trkpt lat="42.82505" lon="0.25607">
        <ele>1631.8</ele>
        <time>2022-01-09T08:20:33Z</time>
      </trkpt>
      <trkpt lat="42.82505" lon="0.25607">
        <ele>1632.4</ele>
        <time>2022-01-09T08:20:34Z</time>
      </trkpt>
      <trkpt lat="42.82505" lon="0.25606">
        <ele>1632.8</ele>
        <time>2022-01-09T08:20:35Z</time>
      </trkpt>
      <trkpt lat="42.82505" lon="0.25605">
        <ele>1633.2</ele>
        <time>2022-01-09T08:20:36Z</time>
      </trkpt>
      <trkpt lat="42.82505" lon="0.25605">
        <ele>1633.6</ele>
        <time>2022-01-09T08:20:37Z</time>
      </trkpt>
      <trkpt lat="42.82505" lon="0.25604">
        <ele>1633.6</ele>
        <time>2022-01-09T08:20:38Z</time>
      </trkpt>
      <trkpt lat="42.82504" lon="0.25596">
        <ele>1633.8</ele>
        <time>2022-01-09T08:20:39Z</time>
      </trkpt>
      <trkpt lat="42.82504" lon="0.25594">
        <ele>1634</ele>
        <time>2022-01-09T08:20:40Z</time>
      </trkpt>
      <trkpt lat="42.82504" lon="0.25593">
        <ele>1634.2</ele>
        <time>2022-01-09T08:20:41Z</time>
      </trkpt>
      <trkpt lat="42.82504" lon="0.25591">
        <ele>1634.4</ele>
        <time>2022-01-09T08:20:42Z</time>
      </trkpt>
      <trkpt lat="42.82504" lon="0.25589">
        <ele>1634.8</ele>
        <time>2022-01-09T08:20:43Z</time>
      </trkpt>
      <trkpt lat="42.82505" lon="0.25588">
        <ele>1635</ele>
        <time>2022-01-09T08:20:44Z</time>
      </trkpt>
      <trkpt lat="42.82505" lon="0.25586">
        <ele>1635.2</ele>
        <time>2022-01-09T08:20:45Z</time>
      </trkpt>
      <trkpt lat="42.82505" lon="0.25585">
        <ele>1635.6</ele>
        <time>2022-01-09T08:20:46Z</time>
      </trkpt>
      <trkpt lat="42.82505" lon="0.25583">
        <ele>1636</ele>
        <time>2022-01-09T08:20:47Z</time>
      </trkpt>
      <trkpt lat="42.82505" lon="0.25581">
        <ele>1636.4</ele>
        <time>2022-01-09T08:20:48Z</time>
      </trkpt>
      <trkpt lat="42.82505" lon="0.25579">
        <ele>1636.8</ele>
        <time>2022-01-09T08:20:49Z</time>
      </trkpt>
      <trkpt lat="42.82505" lon="0.25577">
        <ele>1637</ele>
        <time>2022-01-09T08:20:50Z</time>
      </trkpt>
      <trkpt lat="42.82505" lon="0.25576">
        <ele>1637.2</ele>
        <time>2022-01-09T08:20:51Z</time>
      </trkpt>
      <trkpt lat="42.82505" lon="0.25574">
        <ele>1637.8</ele>
        <time>2022-01-09T08:20:52Z</time>
      </trkpt>
      <trkpt lat="42.82505" lon="0.25572">
        <ele>1638.2</ele>
        <time>2022-01-09T08:20:53Z</time>
      </trkpt>
      <trkpt lat="42.82505" lon="0.25572">
        <ele>1638.4</ele>
        <time>2022-01-09T08:20:54Z</time>
      </trkpt>
      <trkpt lat="42.82504" lon="0.25572">
        <ele>1638.8</ele>
        <time>2022-01-09T08:20:55Z</time>
      </trkpt>
      <trkpt lat="42.82504" lon="0.25571">
        <ele>1639</ele>
        <time>2022-01-09T08:20:56Z</time>
      </trkpt>
      <trkpt lat="42.82503" lon="0.25571">
        <ele>1639.6</ele>
        <time>2022-01-09T08:20:57Z</time>
      </trkpt>
      <trkpt lat="42.82503" lon="0.25571">
        <ele>1639.8</ele>
        <time>2022-01-09T08:20:58Z</time>
      </trkpt>
      <trkpt lat="42.82502" lon="0.25571">
        <ele>1639.2</ele>
        <time>2022-01-09T08:20:59Z</time>
      </trkpt>
      <trkpt lat="42.82502" lon="0.2557">
        <ele>1640.2</ele>
        <time>2022-01-09T08:21:00Z</time>
      </trkpt>
      <trkpt lat="42.82501" lon="0.2557">
        <ele>1640.2</ele>
        <time>2022-01-09T08:21:01Z</time>
      </trkpt>
      <trkpt lat="42.82501" lon="0.2557">
        <ele>1640.8</ele>
        <time>2022-01-09T08:21:02Z</time>
      </trkpt>
      <trkpt lat="42.825" lon="0.2557">
        <ele>1641.2</ele>
        <time>2022-01-09T08:21:03Z</time>
      </trkpt>
      <trkpt lat="42.825" lon="0.25569">
        <ele>1641.4</ele>
        <time>2022-01-09T08:21:04Z</time>
      </trkpt>
      <trkpt lat="42.82499" lon="0.25569">
        <ele>1641.8</ele>
        <time>2022-01-09T08:21:05Z</time>
      </trkpt>
      <trkpt lat="42.82499" lon="0.25569">
        <ele>1641.8</ele>
        <time>2022-01-09T08:21:06Z</time>
      </trkpt>
      <trkpt lat="42.82498" lon="0.25569">
        <ele>1642</ele>
        <time>2022-01-09T08:21:07Z</time>
      </trkpt>
      <trkpt lat="42.82498" lon="0.25568">
        <ele>1642.6</ele>
        <time>2022-01-09T08:21:08Z</time>
      </trkpt>
      <trkpt lat="42.82497" lon="0.25568">
        <ele>1643</ele>
        <time>2022-01-09T08:21:09Z</time>
      </trkpt>
      <trkpt lat="42.82497" lon="0.25568">
        <ele>1643.4</ele>
        <time>2022-01-09T08:21:10Z</time>
      </trkpt>
      <trkpt lat="42.82496" lon="0.25566">
        <ele>1643.8</ele>
        <time>2022-01-09T08:21:11Z</time>
      </trkpt>
      <trkpt lat="42.82496" lon="0.25565">
        <ele>1644.2</ele>
        <time>2022-01-09T08:21:12Z</time>
      </trkpt>
      <trkpt lat="42.82496" lon="0.25564">
        <ele>1644.6</ele>
        <time>2022-01-09T08:21:13Z</time>
      </trkpt>
      <trkpt lat="42.82496" lon="0.25563">
        <ele>1645</ele>
        <time>2022-01-09T08:21:14Z</time>
      </trkpt>
      <trkpt lat="42.82496" lon="0.25562">
        <ele>1645.4</ele>
        <time>2022-01-09T08:21:15Z</time>
      </trkpt>
      <trkpt lat="42.82496" lon="0.2556">
        <ele>1645.6</ele>
        <time>2022-01-09T08:21:16Z</time>
      </trkpt>
      <trkpt lat="42.82496" lon="0.25559">
        <ele>1646</ele>
        <time>2022-01-09T08:21:17Z</time>
      </trkpt>
      <trkpt lat="42.82495" lon="0.25558">
        <ele>1646.4</ele>
        <time>2022-01-09T08:21:18Z</time>
      </trkpt>
      <trkpt lat="42.82495" lon="0.25557">
        <ele>1646.8</ele>
        <time>2022-01-09T08:21:19Z</time>
      </trkpt>
      <trkpt lat="42.82495" lon="0.25555">
        <ele>1647.2</ele>
        <time>2022-01-09T08:21:20Z</time>
      </trkpt>
      <trkpt lat="42.82495" lon="0.25554">
        <ele>1647.8</ele>
        <time>2022-01-09T08:21:21Z</time>
      </trkpt>
      <trkpt lat="42.82496" lon="0.25553">
        <ele>1648</ele>
        <time>2022-01-09T08:21:22Z</time>
      </trkpt>
      <trkpt lat="42.82496" lon="0.25551">
        <ele>1648.8</ele>
        <time>2022-01-09T08:21:23Z</time>
      </trkpt>
      <trkpt lat="42.82497" lon="0.2555">
        <ele>1649</ele>
        <time>2022-01-09T08:21:24Z</time>
      </trkpt>
      <trkpt lat="42.82497" lon="0.25549">
        <ele>1649.2</ele>
        <time>2022-01-09T08:21:25Z</time>
      </trkpt>
      <trkpt lat="42.82498" lon="0.25547">
        <ele>1649.8</ele>
        <time>2022-01-09T08:21:26Z</time>
      </trkpt>
      <trkpt lat="42.82499" lon="0.25546">
        <ele>1650.4</ele>
        <time>2022-01-09T08:21:27Z</time>
      </trkpt>
      <trkpt lat="42.82499" lon="0.25544">
        <ele>1650.6</ele>
        <time>2022-01-09T08:21:28Z</time>
      </trkpt>
      <trkpt lat="42.825" lon="0.25543">
        <ele>1650.8</ele>
        <time>2022-01-09T08:21:29Z</time>
      </trkpt>
      <trkpt lat="42.825" lon="0.25542">
        <ele>1651.2</ele>
        <time>2022-01-09T08:21:30Z</time>
      </trkpt>
      <trkpt lat="42.825" lon="0.2554">
        <ele>1651.6</ele>
        <time>2022-01-09T08:21:31Z</time>
      </trkpt>
      <trkpt lat="42.825" lon="0.25539">
        <ele>1651.6</ele>
        <time>2022-01-09T08:21:32Z</time>
      </trkpt>
      <trkpt lat="42.82501" lon="0.25538">
        <ele>1651.8</ele>
        <time>2022-01-09T08:21:33Z</time>
      </trkpt>
      <trkpt lat="42.82501" lon="0.25537">
        <ele>1652.2</ele>
        <time>2022-01-09T08:21:34Z</time>
      </trkpt>
      <trkpt lat="42.82501" lon="0.25535">
        <ele>1652.8</ele>
        <time>2022-01-09T08:21:35Z</time>
      </trkpt>
      <trkpt lat="42.82501" lon="0.25534">
        <ele>1653.2</ele>
        <time>2022-01-09T08:21:36Z</time>
      </trkpt>
      <trkpt lat="42.82501" lon="0.25533">
        <ele>1653.6</ele>
        <time>2022-01-09T08:21:37Z</time>
      </trkpt>
      <trkpt lat="42.82502" lon="0.25531">
        <ele>1653.8</ele>
        <time>2022-01-09T08:21:38Z</time>
      </trkpt>
      <trkpt lat="42.82502" lon="0.2553">
        <ele>1654.4</ele>
        <time>2022-01-09T08:21:39Z</time>
      </trkpt>
      <trkpt lat="42.82502" lon="0.25529">
        <ele>1654.8</ele>
        <time>2022-01-09T08:21:40Z</time>
      </trkpt>
      <trkpt lat="42.82502" lon="0.25528">
        <ele>1655.4</ele>
        <time>2022-01-09T08:21:41Z</time>
      </trkpt>
      <trkpt lat="42.82502" lon="0.25527">
        <ele>1655.8</ele>
        <time>2022-01-09T08:21:42Z</time>
      </trkpt>
      <trkpt lat="42.82502" lon="0.25526">
        <ele>1656.2</ele>
        <time>2022-01-09T08:21:43Z</time>
      </trkpt>
      <trkpt lat="42.82503" lon="0.25524">
        <ele>1656.4</ele>
        <time>2022-01-09T08:21:44Z</time>
      </trkpt>
      <trkpt lat="42.82503" lon="0.25523">
        <ele>1657</ele>
        <time>2022-01-09T08:21:45Z</time>
      </trkpt>
      <trkpt lat="42.82503" lon="0.25522">
        <ele>1657.4</ele>
        <time>2022-01-09T08:21:46Z</time>
      </trkpt>
      <trkpt lat="42.82503" lon="0.25521">
        <ele>1657.8</ele>
        <time>2022-01-09T08:21:47Z</time>
      </trkpt>
      <trkpt lat="42.82503" lon="0.2552">
        <ele>1658.2</ele>
        <time>2022-01-09T08:21:48Z</time>
      </trkpt>
      <trkpt lat="42.82504" lon="0.25519">
        <ele>1658.6</ele>
        <time>2022-01-09T08:21:49Z</time>
      </trkpt>
      <trkpt lat="42.82504" lon="0.25518">
        <ele>1659</ele>
        <time>2022-01-09T08:21:50Z</time>
      </trkpt>
      <trkpt lat="42.82504" lon="0.25516">
        <ele>1659.4</ele>
        <time>2022-01-09T08:21:51Z</time>
      </trkpt>
      <trkpt lat="42.82504" lon="0.25515">
        <ele>1659.8</ele>
        <time>2022-01-09T08:21:52Z</time>
      </trkpt>
      <trkpt lat="42.82504" lon="0.25513">
        <ele>1660</ele>
        <time>2022-01-09T08:21:53Z</time>
      </trkpt>
      <trkpt lat="42.82504" lon="0.25512">
        <ele>1660.4</ele>
        <time>2022-01-09T08:21:54Z</time>
      </trkpt>
      <trkpt lat="42.82504" lon="0.2551">
        <ele>1660.8</ele>
        <time>2022-01-09T08:21:55Z</time>
      </trkpt>
      <trkpt lat="42.82504" lon="0.25509">
        <ele>1661.2</ele>
        <time>2022-01-09T08:21:56Z</time>
      </trkpt>
      <trkpt lat="42.82504" lon="0.25507">
        <ele>1662</ele>
        <time>2022-01-09T08:21:57Z</time>
      </trkpt>
      <trkpt lat="42.82504" lon="0.25506">
        <ele>1662.2</ele>
        <time>2022-01-09T08:21:58Z</time>
      </trkpt>
      <trkpt lat="42.82504" lon="0.25504">
        <ele>1662.6</ele>
        <time>2022-01-09T08:21:59Z</time>
      </trkpt>
      <trkpt lat="42.82504" lon="0.25503">
        <ele>1663</ele>
        <time>2022-01-09T08:22:00Z</time>
      </trkpt>
      <trkpt lat="42.82504" lon="0.25502">
        <ele>1663.4</ele>
        <time>2022-01-09T08:22:01Z</time>
      </trkpt>
      <trkpt lat="42.82504" lon="0.25501">
        <ele>1663.8</ele>
        <time>2022-01-09T08:22:02Z</time>
      </trkpt>
      <trkpt lat="42.82504" lon="0.25499">
        <ele>1664</ele>
        <time>2022-01-09T08:22:03Z</time>
      </trkpt>
      <trkpt lat="42.82505" lon="0.25498">
        <ele>1664.6</ele>
        <time>2022-01-09T08:22:04Z</time>
      </trkpt>
      <trkpt lat="42.82505" lon="0.25497">
        <ele>1665.2</ele>
        <time>2022-01-09T08:22:05Z</time>
      </trkpt>
      <trkpt lat="42.82505" lon="0.25496">
        <ele>1665.4</ele>
        <time>2022-01-09T08:22:06Z</time>
      </trkpt>
      <trkpt lat="42.82505" lon="0.25494">
        <ele>1665.8</ele>
        <time>2022-01-09T08:22:07Z</time>
      </trkpt>
      <trkpt lat="42.82505" lon="0.25493">
        <ele>1666.2</ele>
        <time>2022-01-09T08:22:08Z</time>
      </trkpt>
      <trkpt lat="42.82506" lon="0.25492">
        <ele>1666.4</ele>
        <time>2022-01-09T08:22:09Z</time>
      </trkpt>
      <trkpt lat="42.82505" lon="0.25492">
        <ele>1666.6</ele>
        <time>2022-01-09T08:22:10Z</time>
      </trkpt>
      <trkpt lat="42.82504" lon="0.25492">
        <ele>1666.8</ele>
        <time>2022-01-09T08:22:11Z</time>
      </trkpt>
      <trkpt lat="42.82503" lon="0.25492">
        <ele>1667.2</ele>
        <time>2022-01-09T08:22:12Z</time>
      </trkpt>
      <trkpt lat="42.82502" lon="0.25491">
        <ele>1667.4</ele>
        <time>2022-01-09T08:22:13Z</time>
      </trkpt>
      <trkpt lat="42.82501" lon="0.25491">
        <ele>1667.8</ele>
        <time>2022-01-09T08:22:14Z</time>
      </trkpt>
      <trkpt lat="42.825" lon="0.25491">
        <ele>1668.4</ele>
        <time>2022-01-09T08:22:15Z</time>
      </trkpt>
      <trkpt lat="42.82499" lon="0.25491">
        <ele>1668.4</ele>
        <time>2022-01-09T08:22:16Z</time>
      </trkpt>
      <trkpt lat="42.82498" lon="0.25491">
        <ele>1669</ele>
        <time>2022-01-09T08:22:17Z</time>
      </trkpt>
      <trkpt lat="42.82497" lon="0.25491">
        <ele>1669.2</ele>
        <time>2022-01-09T08:22:18Z</time>
      </trkpt>
      <trkpt lat="42.82496" lon="0.2549">
        <ele>1669.6</ele>
        <time>2022-01-09T08:22:19Z</time>
      </trkpt>
      <trkpt lat="42.82495" lon="0.25491">
        <ele>1669.8</ele>
        <time>2022-01-09T08:22:20Z</time>
      </trkpt>
      <trkpt lat="42.82494" lon="0.25491">
        <ele>1670</ele>
        <time>2022-01-09T08:22:21Z</time>
      </trkpt>
      <trkpt lat="42.82493" lon="0.25491">
        <ele>1670.6</ele>
        <time>2022-01-09T08:22:22Z</time>
      </trkpt>
      <trkpt lat="42.82492" lon="0.25491">
        <ele>1670.8</ele>
        <time>2022-01-09T08:22:23Z</time>
      </trkpt>
      <trkpt lat="42.82491" lon="0.25492">
        <ele>1671.2</ele>
        <time>2022-01-09T08:22:24Z</time>
      </trkpt>
      <trkpt lat="42.8249" lon="0.25492">
        <ele>1671.6</ele>
        <time>2022-01-09T08:22:25Z</time>
      </trkpt>
      <trkpt lat="42.82489" lon="0.25492">
        <ele>1672</ele>
        <time>2022-01-09T08:22:26Z</time>
      </trkpt>
      <trkpt lat="42.82488" lon="0.25492">
        <ele>1672.6</ele>
        <time>2022-01-09T08:22:27Z</time>
      </trkpt>
      <trkpt lat="42.82487" lon="0.25492">
        <ele>1673</ele>
        <time>2022-01-09T08:22:28Z</time>
      </trkpt>
      <trkpt lat="42.82486" lon="0.25493">
        <ele>1673.2</ele>
        <time>2022-01-09T08:22:29Z</time>
      </trkpt>
      <trkpt lat="42.82485" lon="0.25493">
        <ele>1673.6</ele>
        <time>2022-01-09T08:22:30Z</time>
      </trkpt>
      <trkpt lat="42.82484" lon="0.25494">
        <ele>1673.8</ele>
        <time>2022-01-09T08:22:31Z</time>
      </trkpt>
      <trkpt lat="42.82483" lon="0.25494">
        <ele>1674</ele>
        <time>2022-01-09T08:22:32Z</time>
      </trkpt>
      <trkpt lat="42.82482" lon="0.25495">
        <ele>1674.2</ele>
        <time>2022-01-09T08:22:33Z</time>
      </trkpt>
      <trkpt lat="42.8248" lon="0.25495">
        <ele>1674.6</ele>
        <time>2022-01-09T08:22:34Z</time>
      </trkpt>
      <trkpt lat="42.82479" lon="0.25495">
        <ele>1674.6</ele>
        <time>2022-01-09T08:22:35Z</time>
      </trkpt>
      <trkpt lat="42.82478" lon="0.25496">
        <ele>1675.2</ele>
        <time>2022-01-09T08:22:36Z</time>
      </trkpt>
      <trkpt lat="42.82477" lon="0.25496">
        <ele>1675.4</ele>
        <time>2022-01-09T08:22:37Z</time>
      </trkpt>
      <trkpt lat="42.82477" lon="0.25496">
        <ele>1675.6</ele>
        <time>2022-01-09T08:22:38Z</time>
      </trkpt>
      <trkpt lat="42.82477" lon="0.25495">
        <ele>1675.8</ele>
        <time>2022-01-09T08:22:39Z</time>
      </trkpt>
      <trkpt lat="42.82477" lon="0.25494">
        <ele>1676.2</ele>
        <time>2022-01-09T08:22:40Z</time>
      </trkpt>
      <trkpt lat="42.82477" lon="0.25493">
        <ele>1676.4</ele>
        <time>2022-01-09T08:22:41Z</time>
      </trkpt>
      <trkpt lat="42.82477" lon="0.25492">
        <ele>1676.6</ele>
        <time>2022-01-09T08:22:42Z</time>
      </trkpt>
      <trkpt lat="42.82477" lon="0.25491">
        <ele>1677.4</ele>
        <time>2022-01-09T08:22:43Z</time>
      </trkpt>
      <trkpt lat="42.82477" lon="0.2549">
        <ele>1677.6</ele>
        <time>2022-01-09T08:22:44Z</time>
      </trkpt>
      <trkpt lat="42.82477" lon="0.25489">
        <ele>1678.2</ele>
        <time>2022-01-09T08:22:45Z</time>
      </trkpt>
      <trkpt lat="42.82477" lon="0.25488">
        <ele>1678.2</ele>
        <time>2022-01-09T08:22:46Z</time>
      </trkpt>
      <trkpt lat="42.82477" lon="0.25487">
        <ele>1678.6</ele>
        <time>2022-01-09T08:22:47Z</time>
      </trkpt>
      <trkpt lat="42.82477" lon="0.25486">
        <ele>1678.8</ele>
        <time>2022-01-09T08:22:48Z</time>
      </trkpt>
      <trkpt lat="42.82477" lon="0.25485">
        <ele>1679</ele>
        <time>2022-01-09T08:22:49Z</time>
      </trkpt>
      <trkpt lat="42.82477" lon="0.25484">
        <ele>1679</ele>
        <time>2022-01-09T08:22:50Z</time>
      </trkpt>
      <trkpt lat="42.82477" lon="0.25483">
        <ele>1679.2</ele>
        <time>2022-01-09T08:22:51Z</time>
      </trkpt>
      <trkpt lat="42.82476" lon="0.25482">
        <ele>1679.6</ele>
        <time>2022-01-09T08:22:52Z</time>
      </trkpt>
      <trkpt lat="42.82476" lon="0.25481">
        <ele>1679.8</ele>
        <time>2022-01-09T08:22:53Z</time>
      </trkpt>
      <trkpt lat="42.82476" lon="0.2548">
        <ele>1680.2</ele>
        <time>2022-01-09T08:22:54Z</time>
      </trkpt>
      <trkpt lat="42.82476" lon="0.25478">
        <ele>1680.6</ele>
        <time>2022-01-09T08:22:55Z</time>
      </trkpt>
      <trkpt lat="42.82476" lon="0.25477">
        <ele>1681</ele>
        <time>2022-01-09T08:22:56Z</time>
      </trkpt>
      <trkpt lat="42.82475" lon="0.25476">
        <ele>1681.2</ele>
        <time>2022-01-09T08:22:57Z</time>
      </trkpt>
      <trkpt lat="42.82475" lon="0.25475">
        <ele>1681.6</ele>
        <time>2022-01-09T08:22:58Z</time>
      </trkpt>
      <trkpt lat="42.82475" lon="0.25474">
        <ele>1681.8</ele>
        <time>2022-01-09T08:22:59Z</time>
      </trkpt>
      <trkpt lat="42.82475" lon="0.25472">
        <ele>1682.2</ele>
        <time>2022-01-09T08:23:00Z</time>
      </trkpt>
      <trkpt lat="42.82475" lon="0.25471">
        <ele>1682.6</ele>
        <time>2022-01-09T08:23:01Z</time>
      </trkpt>
      <trkpt lat="42.82474" lon="0.25471">
        <ele>1683</ele>
        <time>2022-01-09T08:23:02Z</time>
      </trkpt>
      <trkpt lat="42.82473" lon="0.25472">
        <ele>1683.2</ele>
        <time>2022-01-09T08:23:03Z</time>
      </trkpt>
      <trkpt lat="42.82472" lon="0.25472">
        <ele>1683.4</ele>
        <time>2022-01-09T08:23:04Z</time>
      </trkpt>
      <trkpt lat="42.82471" lon="0.25472">
        <ele>1683.6</ele>
        <time>2022-01-09T08:23:05Z</time>
      </trkpt>
      <trkpt lat="42.8247" lon="0.25472">
        <ele>1684</ele>
        <time>2022-01-09T08:23:06Z</time>
      </trkpt>
      <trkpt lat="42.82469" lon="0.25472">
        <ele>1684.6</ele>
        <time>2022-01-09T08:23:07Z</time>
      </trkpt>
      <trkpt lat="42.82468" lon="0.25472">
        <ele>1684.8</ele>
        <time>2022-01-09T08:23:08Z</time>
      </trkpt>
      <trkpt lat="42.82467" lon="0.25473">
        <ele>1685.2</ele>
        <time>2022-01-09T08:23:09Z</time>
      </trkpt>
      <trkpt lat="42.82466" lon="0.25473">
        <ele>1685.8</ele>
        <time>2022-01-09T08:23:10Z</time>
      </trkpt>
      <trkpt lat="42.82465" lon="0.25474">
        <ele>1686.2</ele>
        <time>2022-01-09T08:23:11Z</time>
      </trkpt>
      <trkpt lat="42.82464" lon="0.25475">
        <ele>1686.4</ele>
        <time>2022-01-09T08:23:12Z</time>
      </trkpt>
      <trkpt lat="42.82463" lon="0.25476">
        <ele>1686.6</ele>
        <time>2022-01-09T08:23:13Z</time>
      </trkpt>
      <trkpt lat="42.82463" lon="0.25477">
        <ele>1687</ele>
        <time>2022-01-09T08:23:14Z</time>
      </trkpt>
      <trkpt lat="42.82462" lon="0.25478">
        <ele>1687.2</ele>
        <time>2022-01-09T08:23:15Z</time>
      </trkpt>
      <trkpt lat="42.82461" lon="0.25479">
        <ele>1687.4</ele>
        <time>2022-01-09T08:23:16Z</time>
      </trkpt>
      <trkpt lat="42.8246" lon="0.2548">
        <ele>1688</ele>
        <time>2022-01-09T08:23:17Z</time>
      </trkpt>
      <trkpt lat="42.8246" lon="0.25481">
        <ele>1688.4</ele>
        <time>2022-01-09T08:23:18Z</time>
      </trkpt>
      <trkpt lat="42.82459" lon="0.25482">
        <ele>1688.6</ele>
        <time>2022-01-09T08:23:19Z</time>
      </trkpt>
      <trkpt lat="42.82458" lon="0.25483">
        <ele>1689</ele>
        <time>2022-01-09T08:23:20Z</time>
      </trkpt>
      <trkpt lat="42.82457" lon="0.25484">
        <ele>1689.6</ele>
        <time>2022-01-09T08:23:21Z</time>
      </trkpt>
      <trkpt lat="42.82457" lon="0.25485">
        <ele>1690</ele>
        <time>2022-01-09T08:23:22Z</time>
      </trkpt>
      <trkpt lat="42.82456" lon="0.25486">
        <ele>1690.4</ele>
        <time>2022-01-09T08:23:23Z</time>
      </trkpt>
      <trkpt lat="42.82455" lon="0.25487">
        <ele>1690.6</ele>
        <time>2022-01-09T08:23:24Z</time>
      </trkpt>
      <trkpt lat="42.82454" lon="0.25487">
        <ele>1691.2</ele>
        <time>2022-01-09T08:23:25Z</time>
      </trkpt>
      <trkpt lat="42.82454" lon="0.25488">
        <ele>1691.4</ele>
        <time>2022-01-09T08:23:26Z</time>
      </trkpt>
      <trkpt lat="42.82453" lon="0.25489">
        <ele>1691.6</ele>
        <time>2022-01-09T08:23:27Z</time>
      </trkpt>
      <trkpt lat="42.82452" lon="0.2549">
        <ele>1692</ele>
        <time>2022-01-09T08:23:28Z</time>
      </trkpt>
      <trkpt lat="42.82451" lon="0.25491">
        <ele>1692.2</ele>
        <time>2022-01-09T08:23:29Z</time>
      </trkpt>
      <trkpt lat="42.82451" lon="0.25492">
        <ele>1692.4</ele>
        <time>2022-01-09T08:23:30Z</time>
      </trkpt>
      <trkpt lat="42.8245" lon="0.25492">
        <ele>1692.6</ele>
        <time>2022-01-09T08:23:31Z</time>
      </trkpt>
      <trkpt lat="42.82449" lon="0.25493">
        <ele>1693.2</ele>
        <time>2022-01-09T08:23:32Z</time>
      </trkpt>
      <trkpt lat="42.82449" lon="0.25494">
        <ele>1693.4</ele>
        <time>2022-01-09T08:23:33Z</time>
      </trkpt>
      <trkpt lat="42.82448" lon="0.25495">
        <ele>1693.8</ele>
        <time>2022-01-09T08:23:34Z</time>
      </trkpt>
      <trkpt lat="42.82447" lon="0.25496">
        <ele>1693.8</ele>
        <time>2022-01-09T08:23:35Z</time>
      </trkpt>
      <trkpt lat="42.82446" lon="0.25497">
        <ele>1694.4</ele>
        <time>2022-01-09T08:23:36Z</time>
      </trkpt>
      <trkpt lat="42.82446" lon="0.25497">
        <ele>1694.6</ele>
        <time>2022-01-09T08:23:37Z</time>
      </trkpt>
      <trkpt lat="42.82445" lon="0.25498">
        <ele>1695</ele>
        <time>2022-01-09T08:23:38Z</time>
      </trkpt>
      <trkpt lat="42.82444" lon="0.25499">
        <ele>1695.2</ele>
        <time>2022-01-09T08:23:39Z</time>
      </trkpt>
      <trkpt lat="42.82443" lon="0.255">
        <ele>1695.4</ele>
        <time>2022-01-09T08:23:40Z</time>
      </trkpt>
      <trkpt lat="42.82443" lon="0.25502">
        <ele>1695.6</ele>
        <time>2022-01-09T08:23:41Z</time>
      </trkpt>
      <trkpt lat="42.82442" lon="0.25503">
        <ele>1696.2</ele>
        <time>2022-01-09T08:23:42Z</time>
      </trkpt>
      <trkpt lat="42.82441" lon="0.25504">
        <ele>1696.8</ele>
        <time>2022-01-09T08:23:43Z</time>
      </trkpt>
      <trkpt lat="42.8244" lon="0.25505">
        <ele>1696.8</ele>
        <time>2022-01-09T08:23:44Z</time>
      </trkpt>
      <trkpt lat="42.82439" lon="0.25506">
        <ele>1697</ele>
        <time>2022-01-09T08:23:45Z</time>
      </trkpt>
      <trkpt lat="42.82439" lon="0.25507">
        <ele>1697.6</ele>
        <time>2022-01-09T08:23:46Z</time>
      </trkpt>
      <trkpt lat="42.82438" lon="0.25509">
        <ele>1697.6</ele>
        <time>2022-01-09T08:23:47Z</time>
      </trkpt>
      <trkpt lat="42.82437" lon="0.2551">
        <ele>1698</ele>
        <time>2022-01-09T08:23:48Z</time>
      </trkpt>
      <trkpt lat="42.82436" lon="0.25511">
        <ele>1698.4</ele>
        <time>2022-01-09T08:23:49Z</time>
      </trkpt>
      <trkpt lat="42.82435" lon="0.25511">
        <ele>1698.6</ele>
        <time>2022-01-09T08:23:50Z</time>
      </trkpt>
      <trkpt lat="42.82435" lon="0.25512">
        <ele>1699</ele>
        <time>2022-01-09T08:23:51Z</time>
      </trkpt>
      <trkpt lat="42.82434" lon="0.25513">
        <ele>1699.4</ele>
        <time>2022-01-09T08:23:52Z</time>
      </trkpt>
      <trkpt lat="42.82433" lon="0.25514">
        <ele>1699.6</ele>
        <time>2022-01-09T08:23:53Z</time>
      </trkpt>
      <trkpt lat="42.82432" lon="0.25515">
        <ele>1700</ele>
        <time>2022-01-09T08:23:54Z</time>
      </trkpt>
      <trkpt lat="42.82431" lon="0.25516">
        <ele>1700.2</ele>
        <time>2022-01-09T08:23:55Z</time>
      </trkpt>
      <trkpt lat="42.82431" lon="0.25517">
        <ele>1700.6</ele>
        <time>2022-01-09T08:23:56Z</time>
      </trkpt>
      <trkpt lat="42.8243" lon="0.25518">
        <ele>1701.2</ele>
        <time>2022-01-09T08:23:57Z</time>
      </trkpt>
      <trkpt lat="42.82429" lon="0.25519">
        <ele>1701.6</ele>
        <time>2022-01-09T08:23:58Z</time>
      </trkpt>
      <trkpt lat="42.82429" lon="0.2552">
        <ele>1702.2</ele>
        <time>2022-01-09T08:23:59Z</time>
      </trkpt>
      <trkpt lat="42.82428" lon="0.25521">
        <ele>1702.4</ele>
        <time>2022-01-09T08:24:00Z</time>
      </trkpt>
      <trkpt lat="42.82427" lon="0.25521">
        <ele>1702.8</ele>
        <time>2022-01-09T08:24:01Z</time>
      </trkpt>
      <trkpt lat="42.82427" lon="0.25522">
        <ele>1703</ele>
        <time>2022-01-09T08:24:02Z</time>
      </trkpt>
      <trkpt lat="42.82426" lon="0.25523">
        <ele>1703.4</ele>
        <time>2022-01-09T08:24:03Z</time>
      </trkpt>
      <trkpt lat="42.82425" lon="0.25524">
        <ele>1703.8</ele>
        <time>2022-01-09T08:24:04Z</time>
      </trkpt>
      <trkpt lat="42.82424" lon="0.25525">
        <ele>1704</ele>
        <time>2022-01-09T08:24:05Z</time>
      </trkpt>
      <trkpt lat="42.82424" lon="0.25526">
        <ele>1704.2</ele>
        <time>2022-01-09T08:24:06Z</time>
      </trkpt>
      <trkpt lat="42.82424" lon="0.25526">
        <ele>1704.6</ele>
        <time>2022-01-09T08:24:07Z</time>
      </trkpt>
      <trkpt lat="42.82422" lon="0.25527">
        <ele>1705.2</ele>
        <time>2022-01-09T08:24:08Z</time>
      </trkpt>
      <trkpt lat="42.82422" lon="0.25527">
        <ele>1705.2</ele>
        <time>2022-01-09T08:24:09Z</time>
      </trkpt>
      <trkpt lat="42.8242" lon="0.25527">
        <ele>1705.6</ele>
        <time>2022-01-09T08:24:10Z</time>
      </trkpt>
      <trkpt lat="42.82419" lon="0.25528">
        <ele>1706.2</ele>
        <time>2022-01-09T08:24:11Z</time>
      </trkpt>
      <trkpt lat="42.82418" lon="0.25528">
        <ele>1706.6</ele>
        <time>2022-01-09T08:24:12Z</time>
      </trkpt>
      <trkpt lat="42.82418" lon="0.25528">
        <ele>1706.8</ele>
        <time>2022-01-09T08:24:13Z</time>
      </trkpt>
      <trkpt lat="42.82417" lon="0.25529">
        <ele>1707.2</ele>
        <time>2022-01-09T08:24:14Z</time>
      </trkpt>
      <trkpt lat="42.82416" lon="0.25529">
        <ele>1707.6</ele>
        <time>2022-01-09T08:24:15Z</time>
      </trkpt>
      <trkpt lat="42.82416" lon="0.25529">
        <ele>1708</ele>
        <time>2022-01-09T08:24:16Z</time>
      </trkpt>
      <trkpt lat="42.82415" lon="0.25529">
        <ele>1708.4</ele>
        <time>2022-01-09T08:24:17Z</time>
      </trkpt>
      <trkpt lat="42.82415" lon="0.2553">
        <ele>1708.6</ele>
        <time>2022-01-09T08:24:18Z</time>
      </trkpt>
      <trkpt lat="42.82415" lon="0.2553">
        <ele>1709.2</ele>
        <time>2022-01-09T08:24:19Z</time>
      </trkpt>
      <trkpt lat="42.82415" lon="0.2553">
        <ele>1709.6</ele>
        <time>2022-01-09T08:24:20Z</time>
      </trkpt>
      <trkpt lat="42.82415" lon="0.2553">
        <ele>1710</ele>
        <time>2022-01-09T08:24:21Z</time>
      </trkpt>
      <trkpt lat="42.82415" lon="0.2553">
        <ele>1710.2</ele>
        <time>2022-01-09T08:24:22Z</time>
      </trkpt>
      <trkpt lat="42.82411" lon="0.25532">
        <ele>1710.6</ele>
        <time>2022-01-09T08:24:23Z</time>
      </trkpt>
      <trkpt lat="42.82411" lon="0.25532">
        <ele>1710.8</ele>
        <time>2022-01-09T08:24:24Z</time>
      </trkpt>
      <trkpt lat="42.82409" lon="0.25533">
        <ele>1711.2</ele>
        <time>2022-01-09T08:24:25Z</time>
      </trkpt>
      <trkpt lat="42.82409" lon="0.25533">
        <ele>1711.6</ele>
        <time>2022-01-09T08:24:26Z</time>
      </trkpt>
      <trkpt lat="42.82407" lon="0.25535">
        <ele>1711.8</ele>
        <time>2022-01-09T08:24:27Z</time>
      </trkpt>
      <trkpt lat="42.82407" lon="0.25535">
        <ele>1712.2</ele>
        <time>2022-01-09T08:24:28Z</time>
      </trkpt>
      <trkpt lat="42.82406" lon="0.25537">
        <ele>1712.8</ele>
        <time>2022-01-09T08:24:29Z</time>
      </trkpt>
      <trkpt lat="42.82405" lon="0.25538">
        <ele>1713</ele>
        <time>2022-01-09T08:24:30Z</time>
      </trkpt>
      <trkpt lat="42.82404" lon="0.2554">
        <ele>1713.4</ele>
        <time>2022-01-09T08:24:31Z</time>
      </trkpt>
      <trkpt lat="42.82403" lon="0.25541">
        <ele>1713.6</ele>
        <time>2022-01-09T08:24:32Z</time>
      </trkpt>
      <trkpt lat="42.82403" lon="0.25541">
        <ele>1714.2</ele>
        <time>2022-01-09T08:24:33Z</time>
      </trkpt>
      <trkpt lat="42.82402" lon="0.25543">
        <ele>1714.6</ele>
        <time>2022-01-09T08:24:34Z</time>
      </trkpt>
      <trkpt lat="42.82402" lon="0.25543">
        <ele>1714.8</ele>
        <time>2022-01-09T08:24:35Z</time>
      </trkpt>
      <trkpt lat="42.82402" lon="0.25543">
        <ele>1715</ele>
        <time>2022-01-09T08:24:36Z</time>
      </trkpt>
      <trkpt lat="42.824" lon="0.25546">
        <ele>1715.4</ele>
        <time>2022-01-09T08:24:37Z</time>
      </trkpt>
      <trkpt lat="42.824" lon="0.25546">
        <ele>1715.8</ele>
        <time>2022-01-09T08:24:38Z</time>
      </trkpt>
      <trkpt lat="42.82398" lon="0.25549">
        <ele>1715.8</ele>
        <time>2022-01-09T08:24:39Z</time>
      </trkpt>
      <trkpt lat="42.82398" lon="0.25549">
        <ele>1716</ele>
        <time>2022-01-09T08:24:40Z</time>
      </trkpt>
      <trkpt lat="42.82396" lon="0.25552">
        <ele>1716.8</ele>
        <time>2022-01-09T08:24:41Z</time>
      </trkpt>
      <trkpt lat="42.82395" lon="0.25551">
        <ele>1717.2</ele>
        <time>2022-01-09T08:24:42Z</time>
      </trkpt>
      <trkpt lat="42.82395" lon="0.2555">
        <ele>1717.6</ele>
        <time>2022-01-09T08:24:43Z</time>
      </trkpt>
      <trkpt lat="42.82394" lon="0.25549">
        <ele>1718.2</ele>
        <time>2022-01-09T08:24:44Z</time>
      </trkpt>
      <trkpt lat="42.82394" lon="0.25548">
        <ele>1718.8</ele>
        <time>2022-01-09T08:24:45Z</time>
      </trkpt>
      <trkpt lat="42.82393" lon="0.25546">
        <ele>1719</ele>
        <time>2022-01-09T08:24:46Z</time>
      </trkpt>
      <trkpt lat="42.82393" lon="0.25545">
        <ele>1719.6</ele>
        <time>2022-01-09T08:24:47Z</time>
      </trkpt>
      <trkpt lat="42.82392" lon="0.25544">
        <ele>1720</ele>
        <time>2022-01-09T08:24:48Z</time>
      </trkpt>
      <trkpt lat="42.82392" lon="0.25543">
        <ele>1720</ele>
        <time>2022-01-09T08:24:49Z</time>
      </trkpt>
      <trkpt lat="42.82391" lon="0.25542">
        <ele>1720.2</ele>
        <time>2022-01-09T08:24:50Z</time>
      </trkpt>
      <trkpt lat="42.8239" lon="0.25541">
        <ele>1720.6</ele>
        <time>2022-01-09T08:24:51Z</time>
      </trkpt>
      <trkpt lat="42.8239" lon="0.25541">
        <ele>1721</ele>
        <time>2022-01-09T08:24:52Z</time>
      </trkpt>
      <trkpt lat="42.8239" lon="0.25541">
        <ele>1721.2</ele>
        <time>2022-01-09T08:24:53Z</time>
      </trkpt>
      <trkpt lat="42.8239" lon="0.25537">
        <ele>1721.2</ele>
        <time>2022-01-09T08:24:54Z</time>
      </trkpt>
      <trkpt lat="42.8239" lon="0.25537">
        <ele>1721.6</ele>
        <time>2022-01-09T08:24:55Z</time>
      </trkpt>
      <trkpt lat="42.8239" lon="0.25534">
        <ele>1721.8</ele>
        <time>2022-01-09T08:24:56Z</time>
      </trkpt>
      <trkpt lat="42.8239" lon="0.25534">
        <ele>1722.2</ele>
        <time>2022-01-09T08:24:57Z</time>
      </trkpt>
      <trkpt lat="42.8239" lon="0.25534">
        <ele>1722.6</ele>
        <time>2022-01-09T08:24:58Z</time>
      </trkpt>
      <trkpt lat="42.8239" lon="0.25534">
        <ele>1723</ele>
        <time>2022-01-09T08:24:59Z</time>
      </trkpt>
      <trkpt lat="42.8239" lon="0.2553">
        <ele>1723.2</ele>
        <time>2022-01-09T08:25:00Z</time>
      </trkpt>
      <trkpt lat="42.8239" lon="0.25528">
        <ele>1723.6</ele>
        <time>2022-01-09T08:25:01Z</time>
      </trkpt>
      <trkpt lat="42.8239" lon="0.25526">
        <ele>1723.8</ele>
        <time>2022-01-09T08:25:02Z</time>
      </trkpt>
      <trkpt lat="42.8239" lon="0.25525">
        <ele>1724.4</ele>
        <time>2022-01-09T08:25:03Z</time>
      </trkpt>
      <trkpt lat="42.82389" lon="0.25523">
        <ele>1724.6</ele>
        <time>2022-01-09T08:25:04Z</time>
      </trkpt>
      <trkpt lat="42.82389" lon="0.25522">
        <ele>1724.8</ele>
        <time>2022-01-09T08:25:05Z</time>
      </trkpt>
      <trkpt lat="42.82389" lon="0.2552">
        <ele>1725</ele>
        <time>2022-01-09T08:25:06Z</time>
      </trkpt>
      <trkpt lat="42.82389" lon="0.25519">
        <ele>1725.6</ele>
        <time>2022-01-09T08:25:07Z</time>
      </trkpt>
      <trkpt lat="42.82389" lon="0.25517">
        <ele>1725.8</ele>
        <time>2022-01-09T08:25:08Z</time>
      </trkpt>
      <trkpt lat="42.82389" lon="0.25517">
        <ele>1726.2</ele>
        <time>2022-01-09T08:25:09Z</time>
      </trkpt>
      <trkpt lat="42.82389" lon="0.25517">
        <ele>1726.6</ele>
        <time>2022-01-09T08:25:10Z</time>
      </trkpt>
      <trkpt lat="42.82389" lon="0.25513">
        <ele>1726.8</ele>
        <time>2022-01-09T08:25:11Z</time>
      </trkpt>
      <trkpt lat="42.82389" lon="0.25513">
        <ele>1727.2</ele>
        <time>2022-01-09T08:25:12Z</time>
      </trkpt>
      <trkpt lat="42.82389" lon="0.25513">
        <ele>1727.8</ele>
        <time>2022-01-09T08:25:13Z</time>
      </trkpt>
      <trkpt lat="42.82387" lon="0.25512">
        <ele>1728</ele>
        <time>2022-01-09T08:25:14Z</time>
      </trkpt>
      <trkpt lat="42.82387" lon="0.25512">
        <ele>1728.2</ele>
        <time>2022-01-09T08:25:15Z</time>
      </trkpt>
      <trkpt lat="42.82385" lon="0.25513">
        <ele>1728.4</ele>
        <time>2022-01-09T08:25:16Z</time>
      </trkpt>
      <trkpt lat="42.82385" lon="0.25513">
        <ele>1728.8</ele>
        <time>2022-01-09T08:25:17Z</time>
      </trkpt>
      <trkpt lat="42.82383" lon="0.25515">
        <ele>1729</ele>
        <time>2022-01-09T08:25:18Z</time>
      </trkpt>
      <trkpt lat="42.82383" lon="0.25515">
        <ele>1729.4</ele>
        <time>2022-01-09T08:25:19Z</time>
      </trkpt>
      <trkpt lat="42.82382" lon="0.25517">
        <ele>1729.8</ele>
        <time>2022-01-09T08:25:20Z</time>
      </trkpt>
      <trkpt lat="42.82382" lon="0.25517">
        <ele>1729.8</ele>
        <time>2022-01-09T08:25:21Z</time>
      </trkpt>
      <trkpt lat="42.82382" lon="0.25517">
        <ele>1730.4</ele>
        <time>2022-01-09T08:25:22Z</time>
      </trkpt>
      <trkpt lat="42.8238" lon="0.25519">
        <ele>1730.8</ele>
        <time>2022-01-09T08:25:23Z</time>
      </trkpt>
      <trkpt lat="42.8238" lon="0.25519">
        <ele>1730.8</ele>
        <time>2022-01-09T08:25:24Z</time>
      </trkpt>
      <trkpt lat="42.82378" lon="0.25521">
        <ele>1731.2</ele>
        <time>2022-01-09T08:25:25Z</time>
      </trkpt>
      <trkpt lat="42.82378" lon="0.25521">
        <ele>1731.6</ele>
        <time>2022-01-09T08:25:26Z</time>
      </trkpt>
      <trkpt lat="42.82376" lon="0.25523">
        <ele>1731.6</ele>
        <time>2022-01-09T08:25:27Z</time>
      </trkpt>
      <trkpt lat="42.82376" lon="0.25523">
        <ele>1732</ele>
        <time>2022-01-09T08:25:28Z</time>
      </trkpt>
      <trkpt lat="42.82376" lon="0.25523">
        <ele>1732</ele>
        <time>2022-01-09T08:25:29Z</time>
      </trkpt>
      <trkpt lat="42.82374" lon="0.25526">
        <ele>1732.4</ele>
        <time>2022-01-09T08:25:30Z</time>
      </trkpt>
      <trkpt lat="42.82374" lon="0.25526">
        <ele>1733</ele>
        <time>2022-01-09T08:25:31Z</time>
      </trkpt>
      <trkpt lat="42.82373" lon="0.25528">
        <ele>1733</ele>
        <time>2022-01-09T08:25:32Z</time>
      </trkpt>
      <trkpt lat="42.82373" lon="0.25528">
        <ele>1733.4</ele>
        <time>2022-01-09T08:25:33Z</time>
      </trkpt>
      <trkpt lat="42.82372" lon="0.2553">
        <ele>1733.8</ele>
        <time>2022-01-09T08:25:34Z</time>
      </trkpt>
      <trkpt lat="42.82372" lon="0.2553">
        <ele>1734</ele>
        <time>2022-01-09T08:25:35Z</time>
      </trkpt>
      <trkpt lat="42.8237" lon="0.25532">
        <ele>1734.2</ele>
        <time>2022-01-09T08:25:36Z</time>
      </trkpt>
      <trkpt lat="42.8237" lon="0.25532">
        <ele>1734.6</ele>
        <time>2022-01-09T08:25:37Z</time>
      </trkpt>
      <trkpt lat="42.8237" lon="0.25532">
        <ele>1735</ele>
        <time>2022-01-09T08:25:38Z</time>
      </trkpt>
      <trkpt lat="42.82368" lon="0.25535">
        <ele>1735.2</ele>
        <time>2022-01-09T08:25:39Z</time>
      </trkpt>
      <trkpt lat="42.82368" lon="0.25535">
        <ele>1735.6</ele>
        <time>2022-01-09T08:25:40Z</time>
      </trkpt>
      <trkpt lat="42.82366" lon="0.25537">
        <ele>1735.8</ele>
        <time>2022-01-09T08:25:41Z</time>
      </trkpt>
      <trkpt lat="42.82366" lon="0.25537">
        <ele>1736</ele>
        <time>2022-01-09T08:25:42Z</time>
      </trkpt>
      <trkpt lat="42.82366" lon="0.25537">
        <ele>1736.4</ele>
        <time>2022-01-09T08:25:43Z</time>
      </trkpt>
      <trkpt lat="42.82363" lon="0.2554">
        <ele>1736.6</ele>
        <time>2022-01-09T08:25:44Z</time>
      </trkpt>
      <trkpt lat="42.82363" lon="0.2554">
        <ele>1737.2</ele>
        <time>2022-01-09T08:25:45Z</time>
      </trkpt>
      <trkpt lat="42.82361" lon="0.25542">
        <ele>1737.4</ele>
        <time>2022-01-09T08:25:46Z</time>
      </trkpt>
      <trkpt lat="42.82361" lon="0.25542">
        <ele>1737.6</ele>
        <time>2022-01-09T08:25:47Z</time>
      </trkpt>
      <trkpt lat="42.82359" lon="0.25544">
        <ele>1738</ele>
        <time>2022-01-09T08:25:48Z</time>
      </trkpt>
      <trkpt lat="42.82359" lon="0.25544">
        <ele>1738</ele>
        <time>2022-01-09T08:25:49Z</time>
      </trkpt>
      <trkpt lat="42.82356" lon="0.25546">
        <ele>1738.6</ele>
        <time>2022-01-09T08:25:50Z</time>
      </trkpt>
      <trkpt lat="42.82356" lon="0.25546">
        <ele>1738.8</ele>
        <time>2022-01-09T08:25:51Z</time>
      </trkpt>
      <trkpt lat="42.82356" lon="0.25546">
        <ele>1739</ele>
        <time>2022-01-09T08:25:52Z</time>
      </trkpt>
      <trkpt lat="42.82354" lon="0.25546">
        <ele>1739.6</ele>
        <time>2022-01-09T08:25:53Z</time>
      </trkpt>
      <trkpt lat="42.82354" lon="0.25546">
        <ele>1740</ele>
        <time>2022-01-09T08:25:54Z</time>
      </trkpt>
      <trkpt lat="42.82353" lon="0.25544">
        <ele>1740.2</ele>
        <time>2022-01-09T08:25:55Z</time>
      </trkpt>
      <trkpt lat="42.82353" lon="0.25542">
        <ele>1741</ele>
        <time>2022-01-09T08:25:56Z</time>
      </trkpt>
      <trkpt lat="42.82353" lon="0.25541">
        <ele>1741.2</ele>
        <time>2022-01-09T08:25:57Z</time>
      </trkpt>
      <trkpt lat="42.82352" lon="0.25539">
        <ele>1741.6</ele>
        <time>2022-01-09T08:25:58Z</time>
      </trkpt>
      <trkpt lat="42.82352" lon="0.25538">
        <ele>1742</ele>
        <time>2022-01-09T08:25:59Z</time>
      </trkpt>
      <trkpt lat="42.82352" lon="0.25536">
        <ele>1742.4</ele>
        <time>2022-01-09T08:26:00Z</time>
      </trkpt>
      <trkpt lat="42.82351" lon="0.25535">
        <ele>1742.6</ele>
        <time>2022-01-09T08:26:01Z</time>
      </trkpt>
      <trkpt lat="42.82351" lon="0.25533">
        <ele>1742.8</ele>
        <time>2022-01-09T08:26:02Z</time>
      </trkpt>
      <trkpt lat="42.82351" lon="0.25532">
        <ele>1743.2</ele>
        <time>2022-01-09T08:26:03Z</time>
      </trkpt>
      <trkpt lat="42.8235" lon="0.2553">
        <ele>1743.6</ele>
        <time>2022-01-09T08:26:04Z</time>
      </trkpt>
      <trkpt lat="42.8235" lon="0.25529">
        <ele>1743.8</ele>
        <time>2022-01-09T08:26:05Z</time>
      </trkpt>
      <trkpt lat="42.8235" lon="0.25528">
        <ele>1744</ele>
        <time>2022-01-09T08:26:06Z</time>
      </trkpt>
      <trkpt lat="42.8235" lon="0.25526">
        <ele>1744.6</ele>
        <time>2022-01-09T08:26:07Z</time>
      </trkpt>
      <trkpt lat="42.8235" lon="0.25525">
        <ele>1744.8</ele>
        <time>2022-01-09T08:26:08Z</time>
      </trkpt>
      <trkpt lat="42.8235" lon="0.25524">
        <ele>1745</ele>
        <time>2022-01-09T08:26:09Z</time>
      </trkpt>
      <trkpt lat="42.8235" lon="0.25522">
        <ele>1745.6</ele>
        <time>2022-01-09T08:26:10Z</time>
      </trkpt>
      <trkpt lat="42.8235" lon="0.25522">
        <ele>1745.8</ele>
        <time>2022-01-09T08:26:11Z</time>
      </trkpt>
      <trkpt lat="42.8235" lon="0.25519">
        <ele>1746.2</ele>
        <time>2022-01-09T08:26:12Z</time>
      </trkpt>
      <trkpt lat="42.8235" lon="0.25519">
        <ele>1746.4</ele>
        <time>2022-01-09T08:26:13Z</time>
      </trkpt>
      <trkpt lat="42.82349" lon="0.25517">
        <ele>1746.8</ele>
        <time>2022-01-09T08:26:14Z</time>
      </trkpt>
      <trkpt lat="42.82349" lon="0.25517">
        <ele>1746.8</ele>
        <time>2022-01-09T08:26:15Z</time>
      </trkpt>
      <trkpt lat="42.82348" lon="0.25513">
        <ele>1747.2</ele>
        <time>2022-01-09T08:26:16Z</time>
      </trkpt>
      <trkpt lat="42.82348" lon="0.25513">
        <ele>1747.6</ele>
        <time>2022-01-09T08:26:17Z</time>
      </trkpt>
      <trkpt lat="42.82347" lon="0.25512">
        <ele>1748</ele>
        <time>2022-01-09T08:26:18Z</time>
      </trkpt>
      <trkpt lat="42.82347" lon="0.25512">
        <ele>1748.2</ele>
        <time>2022-01-09T08:26:19Z</time>
      </trkpt>
      <trkpt lat="42.82347" lon="0.25512">
        <ele>1748.4</ele>
        <time>2022-01-09T08:26:20Z</time>
      </trkpt>
      <trkpt lat="42.82345" lon="0.25513">
        <ele>1748.6</ele>
        <time>2022-01-09T08:26:21Z</time>
      </trkpt>
      <trkpt lat="42.82345" lon="0.25513">
        <ele>1748.8</ele>
        <time>2022-01-09T08:26:22Z</time>
      </trkpt>
      <trkpt lat="42.82343" lon="0.25515">
        <ele>1749.4</ele>
        <time>2022-01-09T08:26:23Z</time>
      </trkpt>
      <trkpt lat="42.82343" lon="0.25515">
        <ele>1749.6</ele>
        <time>2022-01-09T08:26:24Z</time>
      </trkpt>
      <trkpt lat="42.8234" lon="0.25516">
        <ele>1750</ele>
        <time>2022-01-09T08:26:25Z</time>
      </trkpt>
      <trkpt lat="42.8234" lon="0.25516">
        <ele>1750.4</ele>
        <time>2022-01-09T08:26:26Z</time>
      </trkpt>
      <trkpt lat="42.82338" lon="0.25518">
        <ele>1750.6</ele>
        <time>2022-01-09T08:26:27Z</time>
      </trkpt>
      <trkpt lat="42.82338" lon="0.25518">
        <ele>1751</ele>
        <time>2022-01-09T08:26:28Z</time>
      </trkpt>
      <trkpt lat="42.82336" lon="0.2552">
        <ele>1751.2</ele>
        <time>2022-01-09T08:26:29Z</time>
      </trkpt>
      <trkpt lat="42.82336" lon="0.2552">
        <ele>1751.4</ele>
        <time>2022-01-09T08:26:30Z</time>
      </trkpt>
      <trkpt lat="42.82335" lon="0.25521">
        <ele>1751.8</ele>
        <time>2022-01-09T08:26:31Z</time>
      </trkpt>
      <trkpt lat="42.82335" lon="0.25521">
        <ele>1752</ele>
        <time>2022-01-09T08:26:32Z</time>
      </trkpt>
      <trkpt lat="42.82333" lon="0.25523">
        <ele>1752.4</ele>
        <time>2022-01-09T08:26:33Z</time>
      </trkpt>
      <trkpt lat="42.82333" lon="0.25523">
        <ele>1752.8</ele>
        <time>2022-01-09T08:26:34Z</time>
      </trkpt>
      <trkpt lat="42.82331" lon="0.25524">
        <ele>1753.2</ele>
        <time>2022-01-09T08:26:35Z</time>
      </trkpt>
      <trkpt lat="42.82331" lon="0.25524">
        <ele>1753.6</ele>
        <time>2022-01-09T08:26:36Z</time>
      </trkpt>
      <trkpt lat="42.82329" lon="0.25524">
        <ele>1754</ele>
        <time>2022-01-09T08:26:37Z</time>
      </trkpt>
      <trkpt lat="42.82329" lon="0.25524">
        <ele>1754.4</ele>
        <time>2022-01-09T08:26:38Z</time>
      </trkpt>
      <trkpt lat="42.82329" lon="0.25524">
        <ele>1754.4</ele>
        <time>2022-01-09T08:26:39Z</time>
      </trkpt>
      <trkpt lat="42.82328" lon="0.2552">
        <ele>1755</ele>
        <time>2022-01-09T08:26:40Z</time>
      </trkpt>
      <trkpt lat="42.82328" lon="0.2552">
        <ele>1755.4</ele>
        <time>2022-01-09T08:26:41Z</time>
      </trkpt>
      <trkpt lat="42.82329" lon="0.25516">
        <ele>1755.6</ele>
        <time>2022-01-09T08:26:42Z</time>
      </trkpt>
      <trkpt lat="42.82329" lon="0.25516">
        <ele>1756</ele>
        <time>2022-01-09T08:26:43Z</time>
      </trkpt>
      <trkpt lat="42.82328" lon="0.25512">
        <ele>1756.2</ele>
        <time>2022-01-09T08:26:44Z</time>
      </trkpt>
      <trkpt lat="42.82328" lon="0.25512">
        <ele>1756.6</ele>
        <time>2022-01-09T08:26:45Z</time>
      </trkpt>
      <trkpt lat="42.82329" lon="0.25509">
        <ele>1757</ele>
        <time>2022-01-09T08:26:46Z</time>
      </trkpt>
      <trkpt lat="42.82329" lon="0.25509">
        <ele>1757.6</ele>
        <time>2022-01-09T08:26:47Z</time>
      </trkpt>
      <trkpt lat="42.82329" lon="0.25506">
        <ele>1757.8</ele>
        <time>2022-01-09T08:26:48Z</time>
      </trkpt>
      <trkpt lat="42.82329" lon="0.25506">
        <ele>1758.4</ele>
        <time>2022-01-09T08:26:49Z</time>
      </trkpt>
      <trkpt lat="42.8233" lon="0.25503">
        <ele>1758.8</ele>
        <time>2022-01-09T08:26:50Z</time>
      </trkpt>
      <trkpt lat="42.8233" lon="0.25501">
        <ele>1759</ele>
        <time>2022-01-09T08:26:51Z</time>
      </trkpt>
      <trkpt lat="42.8233" lon="0.255">
        <ele>1759.4</ele>
        <time>2022-01-09T08:26:52Z</time>
      </trkpt>
      <trkpt lat="42.8233" lon="0.25498">
        <ele>1759.6</ele>
        <time>2022-01-09T08:26:53Z</time>
      </trkpt>
      <trkpt lat="42.8233" lon="0.25497">
        <ele>1760</ele>
        <time>2022-01-09T08:26:54Z</time>
      </trkpt>
      <trkpt lat="42.8233" lon="0.25495">
        <ele>1760.2</ele>
        <time>2022-01-09T08:26:55Z</time>
      </trkpt>
      <trkpt lat="42.8233" lon="0.25494">
        <ele>1760.4</ele>
        <time>2022-01-09T08:26:56Z</time>
      </trkpt>
      <trkpt lat="42.8233" lon="0.25494">
        <ele>1760.8</ele>
        <time>2022-01-09T08:26:57Z</time>
      </trkpt>
      <trkpt lat="42.8233" lon="0.2549">
        <ele>1761</ele>
        <time>2022-01-09T08:26:58Z</time>
      </trkpt>
      <trkpt lat="42.8233" lon="0.2549">
        <ele>1761.4</ele>
        <time>2022-01-09T08:26:59Z</time>
      </trkpt>
      <trkpt lat="42.8233" lon="0.25486">
        <ele>1761.8</ele>
        <time>2022-01-09T08:27:00Z</time>
      </trkpt>
      <trkpt lat="42.8233" lon="0.25485">
        <ele>1762</ele>
        <time>2022-01-09T08:27:01Z</time>
      </trkpt>
      <trkpt lat="42.8233" lon="0.25483">
        <ele>1762.2</ele>
        <time>2022-01-09T08:27:02Z</time>
      </trkpt>
      <trkpt lat="42.82331" lon="0.25481">
        <ele>1762.8</ele>
        <time>2022-01-09T08:27:03Z</time>
      </trkpt>
      <trkpt lat="42.82331" lon="0.25479">
        <ele>1763.4</ele>
        <time>2022-01-09T08:27:04Z</time>
      </trkpt>
      <trkpt lat="42.82331" lon="0.25477">
        <ele>1763.6</ele>
        <time>2022-01-09T08:27:05Z</time>
      </trkpt>
      <trkpt lat="42.82331" lon="0.25475">
        <ele>1764.6</ele>
        <time>2022-01-09T08:27:06Z</time>
      </trkpt>
      <trkpt lat="42.82331" lon="0.25474">
        <ele>1764.6</ele>
        <time>2022-01-09T08:27:07Z</time>
      </trkpt>
      <trkpt lat="42.82332" lon="0.25472">
        <ele>1764.8</ele>
        <time>2022-01-09T08:27:08Z</time>
      </trkpt>
      <trkpt lat="42.82332" lon="0.2547">
        <ele>1764.8</ele>
        <time>2022-01-09T08:27:09Z</time>
      </trkpt>
      <trkpt lat="42.82333" lon="0.25468">
        <ele>1764.8</ele>
        <time>2022-01-09T08:27:10Z</time>
      </trkpt>
      <trkpt lat="42.82333" lon="0.25467">
        <ele>1765.2</ele>
        <time>2022-01-09T08:27:11Z</time>
      </trkpt>
      <trkpt lat="42.82335" lon="0.25458">
        <ele>1765.6</ele>
        <time>2022-01-09T08:27:12Z</time>
      </trkpt>
      <trkpt lat="42.82336" lon="0.25456">
        <ele>1765.6</ele>
        <time>2022-01-09T08:27:13Z</time>
      </trkpt>
      <trkpt lat="42.82336" lon="0.25456">
        <ele>1765.6</ele>
        <time>2022-01-09T08:27:14Z</time>
      </trkpt>
      <trkpt lat="42.82337" lon="0.25451">
        <ele>1765.8</ele>
        <time>2022-01-09T08:27:15Z</time>
      </trkpt>
      <trkpt lat="42.82338" lon="0.25449">
        <ele>1765.8</ele>
        <time>2022-01-09T08:27:16Z</time>
      </trkpt>
      <trkpt lat="42.82338" lon="0.25447">
        <ele>1766</ele>
        <time>2022-01-09T08:27:17Z</time>
      </trkpt>
      <trkpt lat="42.82339" lon="0.25445">
        <ele>1766.2</ele>
        <time>2022-01-09T08:27:18Z</time>
      </trkpt>
      <trkpt lat="42.82339" lon="0.25442">
        <ele>1766.4</ele>
        <time>2022-01-09T08:27:19Z</time>
      </trkpt>
      <trkpt lat="42.8234" lon="0.2544">
        <ele>1766.8</ele>
        <time>2022-01-09T08:27:20Z</time>
      </trkpt>
      <trkpt lat="42.8234" lon="0.25438">
        <ele>1767.2</ele>
        <time>2022-01-09T08:27:21Z</time>
      </trkpt>
      <trkpt lat="42.82341" lon="0.25437">
        <ele>1767.6</ele>
        <time>2022-01-09T08:27:22Z</time>
      </trkpt>
      <trkpt lat="42.82341" lon="0.25435">
        <ele>1768</ele>
        <time>2022-01-09T08:27:23Z</time>
      </trkpt>
      <trkpt lat="42.82342" lon="0.25434">
        <ele>1768</ele>
        <time>2022-01-09T08:27:24Z</time>
      </trkpt>
      <trkpt lat="42.82342" lon="0.25433">
        <ele>1768</ele>
        <time>2022-01-09T08:27:25Z</time>
      </trkpt>
      <trkpt lat="42.82343" lon="0.25432">
        <ele>1768</ele>
        <time>2022-01-09T08:27:26Z</time>
      </trkpt>
      <trkpt lat="42.82347" lon="0.25424">
        <ele>1768.6</ele>
        <time>2022-01-09T08:27:27Z</time>
      </trkpt>
      <trkpt lat="42.82348" lon="0.25422">
        <ele>1768.8</ele>
        <time>2022-01-09T08:27:28Z</time>
      </trkpt>
      <trkpt lat="42.82348" lon="0.2542">
        <ele>1769</ele>
        <time>2022-01-09T08:27:29Z</time>
      </trkpt>
      <trkpt lat="42.82349" lon="0.25419">
        <ele>1769.2</ele>
        <time>2022-01-09T08:27:30Z</time>
      </trkpt>
      <trkpt lat="42.8235" lon="0.25417">
        <ele>1769.4</ele>
        <time>2022-01-09T08:27:31Z</time>
      </trkpt>
      <trkpt lat="42.82351" lon="0.25415">
        <ele>1770</ele>
        <time>2022-01-09T08:27:32Z</time>
      </trkpt>
      <trkpt lat="42.82352" lon="0.25413">
        <ele>1770.4</ele>
        <time>2022-01-09T08:27:33Z</time>
      </trkpt>
      <trkpt lat="42.82352" lon="0.25411">
        <ele>1770.8</ele>
        <time>2022-01-09T08:27:34Z</time>
      </trkpt>
      <trkpt lat="42.82353" lon="0.25409">
        <ele>1770.8</ele>
        <time>2022-01-09T08:27:35Z</time>
      </trkpt>
      <trkpt lat="42.82354" lon="0.25408">
        <ele>1771</ele>
        <time>2022-01-09T08:27:36Z</time>
      </trkpt>
      <trkpt lat="42.82355" lon="0.25406">
        <ele>1771.2</ele>
        <time>2022-01-09T08:27:37Z</time>
      </trkpt>
      <trkpt lat="42.82356" lon="0.25404">
        <ele>1771.8</ele>
        <time>2022-01-09T08:27:38Z</time>
      </trkpt>
      <trkpt lat="42.82356" lon="0.25402">
        <ele>1771.8</ele>
        <time>2022-01-09T08:27:39Z</time>
      </trkpt>
      <trkpt lat="42.82356" lon="0.25401">
        <ele>1772.2</ele>
        <time>2022-01-09T08:27:40Z</time>
      </trkpt>
      <trkpt lat="42.82357" lon="0.254">
        <ele>1772.4</ele>
        <time>2022-01-09T08:27:41Z</time>
      </trkpt>
      <trkpt lat="42.82357" lon="0.25398">
        <ele>1772.6</ele>
        <time>2022-01-09T08:27:42Z</time>
      </trkpt>
      <trkpt lat="42.82357" lon="0.25397">
        <ele>1772.8</ele>
        <time>2022-01-09T08:27:43Z</time>
      </trkpt>
      <trkpt lat="42.8236" lon="0.25388">
        <ele>1773</ele>
        <time>2022-01-09T08:27:44Z</time>
      </trkpt>
      <trkpt lat="42.82361" lon="0.25387">
        <ele>1773.4</ele>
        <time>2022-01-09T08:27:45Z</time>
      </trkpt>
      <trkpt lat="42.82361" lon="0.25385">
        <ele>1774</ele>
        <time>2022-01-09T08:27:46Z</time>
      </trkpt>
      <trkpt lat="42.82362" lon="0.25383">
        <ele>1774.4</ele>
        <time>2022-01-09T08:27:47Z</time>
      </trkpt>
      <trkpt lat="42.82363" lon="0.25381">
        <ele>1775</ele>
        <time>2022-01-09T08:27:48Z</time>
      </trkpt>
      <trkpt lat="42.82364" lon="0.25379">
        <ele>1775.2</ele>
        <time>2022-01-09T08:27:49Z</time>
      </trkpt>
      <trkpt lat="42.82365" lon="0.25377">
        <ele>1775.2</ele>
        <time>2022-01-09T08:27:50Z</time>
      </trkpt>
      <trkpt lat="42.82366" lon="0.25375">
        <ele>1775.4</ele>
        <time>2022-01-09T08:27:51Z</time>
      </trkpt>
      <trkpt lat="42.82368" lon="0.25374">
        <ele>1775.6</ele>
        <time>2022-01-09T08:27:52Z</time>
      </trkpt>
      <trkpt lat="42.82369" lon="0.25372">
        <ele>1775.8</ele>
        <time>2022-01-09T08:27:53Z</time>
      </trkpt>
      <trkpt lat="42.8237" lon="0.2537">
        <ele>1776</ele>
        <time>2022-01-09T08:27:54Z</time>
      </trkpt>
      <trkpt lat="42.82371" lon="0.25368">
        <ele>1776.2</ele>
        <time>2022-01-09T08:27:55Z</time>
      </trkpt>
      <trkpt lat="42.82372" lon="0.25367">
        <ele>1776.4</ele>
        <time>2022-01-09T08:27:56Z</time>
      </trkpt>
      <trkpt lat="42.82372" lon="0.25365">
        <ele>1776.8</ele>
        <time>2022-01-09T08:27:57Z</time>
      </trkpt>
      <trkpt lat="42.82373" lon="0.25364">
        <ele>1777.2</ele>
        <time>2022-01-09T08:27:58Z</time>
      </trkpt>
      <trkpt lat="42.82374" lon="0.25362">
        <ele>1777.6</ele>
        <time>2022-01-09T08:27:59Z</time>
      </trkpt>
      <trkpt lat="42.82374" lon="0.2536">
        <ele>1778.2</ele>
        <time>2022-01-09T08:28:00Z</time>
      </trkpt>
      <trkpt lat="42.82375" lon="0.25359">
        <ele>1778.6</ele>
        <time>2022-01-09T08:28:01Z</time>
      </trkpt>
      <trkpt lat="42.82376" lon="0.25357">
        <ele>1778.4</ele>
        <time>2022-01-09T08:28:02Z</time>
      </trkpt>
      <trkpt lat="42.82377" lon="0.25356">
        <ele>1778.8</ele>
        <time>2022-01-09T08:28:03Z</time>
      </trkpt>
      <trkpt lat="42.82378" lon="0.25354">
        <ele>1778.8</ele>
        <time>2022-01-09T08:28:04Z</time>
      </trkpt>
      <trkpt lat="42.82379" lon="0.25352">
        <ele>1779</ele>
        <time>2022-01-09T08:28:05Z</time>
      </trkpt>
      <trkpt lat="42.8238" lon="0.25351">
        <ele>1779.6</ele>
        <time>2022-01-09T08:28:06Z</time>
      </trkpt>
      <trkpt lat="42.82381" lon="0.25349">
        <ele>1779.8</ele>
        <time>2022-01-09T08:28:07Z</time>
      </trkpt>
      <trkpt lat="42.82382" lon="0.25348">
        <ele>1780.2</ele>
        <time>2022-01-09T08:28:08Z</time>
      </trkpt>
      <trkpt lat="42.82382" lon="0.25347">
        <ele>1780.4</ele>
        <time>2022-01-09T08:28:09Z</time>
      </trkpt>
      <trkpt lat="42.82383" lon="0.25347">
        <ele>1780.6</ele>
        <time>2022-01-09T08:28:10Z</time>
      </trkpt>
      <trkpt lat="42.82383" lon="0.25346">
        <ele>1780.8</ele>
        <time>2022-01-09T08:28:11Z</time>
      </trkpt>
      <trkpt lat="42.82384" lon="0.25345">
        <ele>1781</ele>
        <time>2022-01-09T08:28:12Z</time>
      </trkpt>
      <trkpt lat="42.82384" lon="0.25344">
        <ele>1781.6</ele>
        <time>2022-01-09T08:28:13Z</time>
      </trkpt>
      <trkpt lat="42.82389" lon="0.25336">
        <ele>1782</ele>
        <time>2022-01-09T08:28:14Z</time>
      </trkpt>
      <trkpt lat="42.8239" lon="0.25335">
        <ele>1782.4</ele>
        <time>2022-01-09T08:28:15Z</time>
      </trkpt>
      <trkpt lat="42.82391" lon="0.25334">
        <ele>1782.6</ele>
        <time>2022-01-09T08:28:16Z</time>
      </trkpt>
      <trkpt lat="42.82393" lon="0.25333">
        <ele>1783</ele>
        <time>2022-01-09T08:28:17Z</time>
      </trkpt>
      <trkpt lat="42.82394" lon="0.25331">
        <ele>1783.2</ele>
        <time>2022-01-09T08:28:18Z</time>
      </trkpt>
      <trkpt lat="42.82395" lon="0.2533">
        <ele>1783.4</ele>
        <time>2022-01-09T08:28:19Z</time>
      </trkpt>
      <trkpt lat="42.82396" lon="0.25328">
        <ele>1783.8</ele>
        <time>2022-01-09T08:28:20Z</time>
      </trkpt>
      <trkpt lat="42.82397" lon="0.25327">
        <ele>1784</ele>
        <time>2022-01-09T08:28:21Z</time>
      </trkpt>
      <trkpt lat="42.82399" lon="0.25326">
        <ele>1784.2</ele>
        <time>2022-01-09T08:28:22Z</time>
      </trkpt>
      <trkpt lat="42.824" lon="0.25324">
        <ele>1784.4</ele>
        <time>2022-01-09T08:28:23Z</time>
      </trkpt>
      <trkpt lat="42.82401" lon="0.25323">
        <ele>1784.8</ele>
        <time>2022-01-09T08:28:24Z</time>
      </trkpt>
      <trkpt lat="42.82403" lon="0.25321">
        <ele>1785.2</ele>
        <time>2022-01-09T08:28:25Z</time>
      </trkpt>
      <trkpt lat="42.82404" lon="0.2532">
        <ele>1785.6</ele>
        <time>2022-01-09T08:28:26Z</time>
      </trkpt>
      <trkpt lat="42.82405" lon="0.25319">
        <ele>1786</ele>
        <time>2022-01-09T08:28:27Z</time>
      </trkpt>
      <trkpt lat="42.82406" lon="0.25318">
        <ele>1786.4</ele>
        <time>2022-01-09T08:28:28Z</time>
      </trkpt>
      <trkpt lat="42.82407" lon="0.25316">
        <ele>1786.6</ele>
        <time>2022-01-09T08:28:29Z</time>
      </trkpt>
      <trkpt lat="42.82408" lon="0.25315">
        <ele>1786.8</ele>
        <time>2022-01-09T08:28:30Z</time>
      </trkpt>
      <trkpt lat="42.8241" lon="0.25314">
        <ele>1787</ele>
        <time>2022-01-09T08:28:31Z</time>
      </trkpt>
      <trkpt lat="42.82411" lon="0.25313">
        <ele>1787.2</ele>
        <time>2022-01-09T08:28:32Z</time>
      </trkpt>
      <trkpt lat="42.82412" lon="0.25312">
        <ele>1787.4</ele>
        <time>2022-01-09T08:28:33Z</time>
      </trkpt>
      <trkpt lat="42.82413" lon="0.2531">
        <ele>1787.8</ele>
        <time>2022-01-09T08:28:34Z</time>
      </trkpt>
      <trkpt lat="42.82414" lon="0.25309">
        <ele>1788.2</ele>
        <time>2022-01-09T08:28:35Z</time>
      </trkpt>
      <trkpt lat="42.82415" lon="0.25308">
        <ele>1788</ele>
        <time>2022-01-09T08:28:36Z</time>
      </trkpt>
      <trkpt lat="42.82417" lon="0.25307">
        <ele>1788.2</ele>
        <time>2022-01-09T08:28:37Z</time>
      </trkpt>
      <trkpt lat="42.82418" lon="0.25306">
        <ele>1788.8</ele>
        <time>2022-01-09T08:28:38Z</time>
      </trkpt>
      <trkpt lat="42.82419" lon="0.25305">
        <ele>1789</ele>
        <time>2022-01-09T08:28:39Z</time>
      </trkpt>
      <trkpt lat="42.8242" lon="0.25304">
        <ele>1789</ele>
        <time>2022-01-09T08:28:40Z</time>
      </trkpt>
      <trkpt lat="42.82421" lon="0.25303">
        <ele>1789.4</ele>
        <time>2022-01-09T08:28:41Z</time>
      </trkpt>
      <trkpt lat="42.82422" lon="0.25302">
        <ele>1790.2</ele>
        <time>2022-01-09T08:28:42Z</time>
      </trkpt>
      <trkpt lat="42.82422" lon="0.25302">
        <ele>1790.2</ele>
        <time>2022-01-09T08:28:43Z</time>
      </trkpt>
      <trkpt lat="42.82423" lon="0.25301">
        <ele>1790.6</ele>
        <time>2022-01-09T08:28:44Z</time>
      </trkpt>
      <trkpt lat="42.82429" lon="0.25295">
        <ele>1790.8</ele>
        <time>2022-01-09T08:28:45Z</time>
      </trkpt>
      <trkpt lat="42.82431" lon="0.25294">
        <ele>1790.8</ele>
        <time>2022-01-09T08:28:46Z</time>
      </trkpt>
      <trkpt lat="42.82432" lon="0.25292">
        <ele>1791.2</ele>
        <time>2022-01-09T08:28:47Z</time>
      </trkpt>
      <trkpt lat="42.82434" lon="0.25291">
        <ele>1791.4</ele>
        <time>2022-01-09T08:28:48Z</time>
      </trkpt>
      <trkpt lat="42.82435" lon="0.25289">
        <ele>1791.6</ele>
        <time>2022-01-09T08:28:49Z</time>
      </trkpt>
      <trkpt lat="42.82436" lon="0.25288">
        <ele>1792</ele>
        <time>2022-01-09T08:28:50Z</time>
      </trkpt>
      <trkpt lat="42.82437" lon="0.25286">
        <ele>1792.6</ele>
        <time>2022-01-09T08:28:51Z</time>
      </trkpt>
      <trkpt lat="42.82438" lon="0.25285">
        <ele>1792.8</ele>
        <time>2022-01-09T08:28:52Z</time>
      </trkpt>
      <trkpt lat="42.82439" lon="0.25283">
        <ele>1793</ele>
        <time>2022-01-09T08:28:53Z</time>
      </trkpt>
      <trkpt lat="42.8244" lon="0.25282">
        <ele>1793.2</ele>
        <time>2022-01-09T08:28:54Z</time>
      </trkpt>
      <trkpt lat="42.82442" lon="0.2528">
        <ele>1793.6</ele>
        <time>2022-01-09T08:28:55Z</time>
      </trkpt>
      <trkpt lat="42.82443" lon="0.25279">
        <ele>1794</ele>
        <time>2022-01-09T08:28:56Z</time>
      </trkpt>
      <trkpt lat="42.82445" lon="0.25277">
        <ele>1794.4</ele>
        <time>2022-01-09T08:28:57Z</time>
      </trkpt>
      <trkpt lat="42.82446" lon="0.25275">
        <ele>1794.8</ele>
        <time>2022-01-09T08:28:58Z</time>
      </trkpt>
      <trkpt lat="42.82448" lon="0.25274">
        <ele>1795.2</ele>
        <time>2022-01-09T08:28:59Z</time>
      </trkpt>
      <trkpt lat="42.82449" lon="0.25272">
        <ele>1795.6</ele>
        <time>2022-01-09T08:29:00Z</time>
      </trkpt>
      <trkpt lat="42.8245" lon="0.25271">
        <ele>1795.6</ele>
        <time>2022-01-09T08:29:01Z</time>
      </trkpt>
      <trkpt lat="42.82451" lon="0.25269">
        <ele>1795.8</ele>
        <time>2022-01-09T08:29:02Z</time>
      </trkpt>
      <trkpt lat="42.82452" lon="0.25268">
        <ele>1796</ele>
        <time>2022-01-09T08:29:03Z</time>
      </trkpt>
      <trkpt lat="42.82454" lon="0.25266">
        <ele>1796.2</ele>
        <time>2022-01-09T08:29:04Z</time>
      </trkpt>
      <trkpt lat="42.82455" lon="0.25265">
        <ele>1796.6</ele>
        <time>2022-01-09T08:29:05Z</time>
      </trkpt>
      <trkpt lat="42.82456" lon="0.25263">
        <ele>1796.8</ele>
        <time>2022-01-09T08:29:06Z</time>
      </trkpt>
      <trkpt lat="42.82457" lon="0.25262">
        <ele>1797</ele>
        <time>2022-01-09T08:29:07Z</time>
      </trkpt>
      <trkpt lat="42.82458" lon="0.2526">
        <ele>1797.2</ele>
        <time>2022-01-09T08:29:08Z</time>
      </trkpt>
      <trkpt lat="42.82458" lon="0.25258">
        <ele>1797.6</ele>
        <time>2022-01-09T08:29:09Z</time>
      </trkpt>
      <trkpt lat="42.82459" lon="0.25257">
        <ele>1798</ele>
        <time>2022-01-09T08:29:10Z</time>
      </trkpt>
      <trkpt lat="42.8246" lon="0.25255">
        <ele>1798.4</ele>
        <time>2022-01-09T08:29:11Z</time>
      </trkpt>
      <trkpt lat="42.82461" lon="0.25254">
        <ele>1798.8</ele>
        <time>2022-01-09T08:29:12Z</time>
      </trkpt>
      <trkpt lat="42.82462" lon="0.25252">
        <ele>1799</ele>
        <time>2022-01-09T08:29:13Z</time>
      </trkpt>
      <trkpt lat="42.82463" lon="0.25251">
        <ele>1799.2</ele>
        <time>2022-01-09T08:29:14Z</time>
      </trkpt>
      <trkpt lat="42.82464" lon="0.25249">
        <ele>1799.6</ele>
        <time>2022-01-09T08:29:15Z</time>
      </trkpt>
      <trkpt lat="42.82466" lon="0.25248">
        <ele>1799.8</ele>
        <time>2022-01-09T08:29:16Z</time>
      </trkpt>
      <trkpt lat="42.82467" lon="0.25247">
        <ele>1800.2</ele>
        <time>2022-01-09T08:29:17Z</time>
      </trkpt>
      <trkpt lat="42.82468" lon="0.25245">
        <ele>1800.2</ele>
        <time>2022-01-09T08:29:18Z</time>
      </trkpt>
      <trkpt lat="42.82469" lon="0.25244">
        <ele>1800.4</ele>
        <time>2022-01-09T08:29:19Z</time>
      </trkpt>
      <trkpt lat="42.8247" lon="0.25242">
        <ele>1800.6</ele>
        <time>2022-01-09T08:29:20Z</time>
      </trkpt>
      <trkpt lat="42.82471" lon="0.25241">
        <ele>1801</ele>
        <time>2022-01-09T08:29:21Z</time>
      </trkpt>
      <trkpt lat="42.82471" lon="0.25239">
        <ele>1801.4</ele>
        <time>2022-01-09T08:29:22Z</time>
      </trkpt>
      <trkpt lat="42.82472" lon="0.25238">
        <ele>1801.8</ele>
        <time>2022-01-09T08:29:23Z</time>
      </trkpt>
      <trkpt lat="42.82473" lon="0.25236">
        <ele>1802.2</ele>
        <time>2022-01-09T08:29:24Z</time>
      </trkpt>
      <trkpt lat="42.82474" lon="0.25235">
        <ele>1802.4</ele>
        <time>2022-01-09T08:29:25Z</time>
      </trkpt>
      <trkpt lat="42.82474" lon="0.25233">
        <ele>1802.8</ele>
        <time>2022-01-09T08:29:26Z</time>
      </trkpt>
      <trkpt lat="42.82475" lon="0.25232">
        <ele>1803</ele>
        <time>2022-01-09T08:29:27Z</time>
      </trkpt>
      <trkpt lat="42.82475" lon="0.25232">
        <ele>1803</ele>
        <time>2022-01-09T08:29:28Z</time>
      </trkpt>
      <trkpt lat="42.82476" lon="0.25231">
        <ele>1803.4</ele>
        <time>2022-01-09T08:29:29Z</time>
      </trkpt>
      <trkpt lat="42.82476" lon="0.2523">
        <ele>1803.6</ele>
        <time>2022-01-09T08:29:30Z</time>
      </trkpt>
      <trkpt lat="42.82477" lon="0.25229">
        <ele>1804</ele>
        <time>2022-01-09T08:29:31Z</time>
      </trkpt>
      <trkpt lat="42.82477" lon="0.25228">
        <ele>1804.6</ele>
        <time>2022-01-09T08:29:32Z</time>
      </trkpt>
      <trkpt lat="42.82478" lon="0.25228">
        <ele>1804.6</ele>
        <time>2022-01-09T08:29:33Z</time>
      </trkpt>
      <trkpt lat="42.82482" lon="0.2522">
        <ele>1805.2</ele>
        <time>2022-01-09T08:29:34Z</time>
      </trkpt>
      <trkpt lat="42.82483" lon="0.25217">
        <ele>1805.4</ele>
        <time>2022-01-09T08:29:35Z</time>
      </trkpt>
      <trkpt lat="42.82484" lon="0.25215">
        <ele>1805.6</ele>
        <time>2022-01-09T08:29:36Z</time>
      </trkpt>
      <trkpt lat="42.82485" lon="0.25213">
        <ele>1805.8</ele>
        <time>2022-01-09T08:29:37Z</time>
      </trkpt>
      <trkpt lat="42.82486" lon="0.2521">
        <ele>1806</ele>
        <time>2022-01-09T08:29:38Z</time>
      </trkpt>
      <trkpt lat="42.82487" lon="0.25208">
        <ele>1806.4</ele>
        <time>2022-01-09T08:29:39Z</time>
      </trkpt>
      <trkpt lat="42.82488" lon="0.25206">
        <ele>1806.6</ele>
        <time>2022-01-09T08:29:40Z</time>
      </trkpt>
      <trkpt lat="42.82489" lon="0.25204">
        <ele>1806.8</ele>
        <time>2022-01-09T08:29:41Z</time>
      </trkpt>
      <trkpt lat="42.8249" lon="0.25201">
        <ele>1807.2</ele>
        <time>2022-01-09T08:29:42Z</time>
      </trkpt>
      <trkpt lat="42.82491" lon="0.25199">
        <ele>1807.6</ele>
        <time>2022-01-09T08:29:43Z</time>
      </trkpt>
      <trkpt lat="42.82492" lon="0.25198">
        <ele>1807.8</ele>
        <time>2022-01-09T08:29:44Z</time>
      </trkpt>
      <trkpt lat="42.82493" lon="0.25196">
        <ele>1808.2</ele>
        <time>2022-01-09T08:29:45Z</time>
      </trkpt>
      <trkpt lat="42.82494" lon="0.25195">
        <ele>1808.6</ele>
        <time>2022-01-09T08:29:46Z</time>
      </trkpt>
      <trkpt lat="42.82495" lon="0.25193">
        <ele>1809</ele>
        <time>2022-01-09T08:29:47Z</time>
      </trkpt>
      <trkpt lat="42.82496" lon="0.25191">
        <ele>1809</ele>
        <time>2022-01-09T08:29:48Z</time>
      </trkpt>
      <trkpt lat="42.82497" lon="0.2519">
        <ele>1809.6</ele>
        <time>2022-01-09T08:29:49Z</time>
      </trkpt>
      <trkpt lat="42.82498" lon="0.25188">
        <ele>1810</ele>
        <time>2022-01-09T08:29:50Z</time>
      </trkpt>
      <trkpt lat="42.82498" lon="0.25186">
        <ele>1810.4</ele>
        <time>2022-01-09T08:29:51Z</time>
      </trkpt>
      <trkpt lat="42.82499" lon="0.25184">
        <ele>1810.8</ele>
        <time>2022-01-09T08:29:52Z</time>
      </trkpt>
      <trkpt lat="42.825" lon="0.25183">
        <ele>1811.2</ele>
        <time>2022-01-09T08:29:53Z</time>
      </trkpt>
      <trkpt lat="42.82501" lon="0.25181">
        <ele>1811.6</ele>
        <time>2022-01-09T08:29:54Z</time>
      </trkpt>
      <trkpt lat="42.82502" lon="0.25179">
        <ele>1812</ele>
        <time>2022-01-09T08:29:55Z</time>
      </trkpt>
      <trkpt lat="42.82502" lon="0.25177">
        <ele>1812.2</ele>
        <time>2022-01-09T08:29:56Z</time>
      </trkpt>
      <trkpt lat="42.82503" lon="0.25175">
        <ele>1812.8</ele>
        <time>2022-01-09T08:29:57Z</time>
      </trkpt>
      <trkpt lat="42.82503" lon="0.25173">
        <ele>1813</ele>
        <time>2022-01-09T08:29:58Z</time>
      </trkpt>
      <trkpt lat="42.82504" lon="0.25171">
        <ele>1813.2</ele>
        <time>2022-01-09T08:29:59Z</time>
      </trkpt>
      <trkpt lat="42.82504" lon="0.25169">
        <ele>1813.4</ele>
        <time>2022-01-09T08:30:00Z</time>
      </trkpt>
      <trkpt lat="42.82505" lon="0.25167">
        <ele>1813.6</ele>
        <time>2022-01-09T08:30:01Z</time>
      </trkpt>
      <trkpt lat="42.82505" lon="0.25165">
        <ele>1814</ele>
        <time>2022-01-09T08:30:02Z</time>
      </trkpt>
      <trkpt lat="42.82506" lon="0.25163">
        <ele>1814.2</ele>
        <time>2022-01-09T08:30:03Z</time>
      </trkpt>
      <trkpt lat="42.82507" lon="0.25161">
        <ele>1814.4</ele>
        <time>2022-01-09T08:30:04Z</time>
      </trkpt>
      <trkpt lat="42.82508" lon="0.25159">
        <ele>1815</ele>
        <time>2022-01-09T08:30:05Z</time>
      </trkpt>
      <trkpt lat="42.82508" lon="0.25158">
        <ele>1815.2</ele>
        <time>2022-01-09T08:30:06Z</time>
      </trkpt>
      <trkpt lat="42.82509" lon="0.25156">
        <ele>1815.6</ele>
        <time>2022-01-09T08:30:07Z</time>
      </trkpt>
      <trkpt lat="42.8251" lon="0.25153">
        <ele>1815.6</ele>
        <time>2022-01-09T08:30:08Z</time>
      </trkpt>
      <trkpt lat="42.82511" lon="0.2515">
        <ele>1816</ele>
        <time>2022-01-09T08:30:09Z</time>
      </trkpt>
      <trkpt lat="42.82512" lon="0.25147">
        <ele>1816.2</ele>
        <time>2022-01-09T08:30:10Z</time>
      </trkpt>
      <trkpt lat="42.82513" lon="0.25144">
        <ele>1815.6</ele>
        <time>2022-01-09T08:30:11Z</time>
      </trkpt>
      <trkpt lat="42.82514" lon="0.25142">
        <ele>1815.6</ele>
        <time>2022-01-09T08:30:12Z</time>
      </trkpt>
      <trkpt lat="42.82514" lon="0.2514">
        <ele>1815.4</ele>
        <time>2022-01-09T08:30:13Z</time>
      </trkpt>
      <trkpt lat="42.82515" lon="0.25139">
        <ele>1815.2</ele>
        <time>2022-01-09T08:30:14Z</time>
      </trkpt>
      <trkpt lat="42.82515" lon="0.25137">
        <ele>1815.6</ele>
        <time>2022-01-09T08:30:15Z</time>
      </trkpt>
      <trkpt lat="42.82518" lon="0.25126">
        <ele>1815.6</ele>
        <time>2022-01-09T08:30:16Z</time>
      </trkpt>
      <trkpt lat="42.8252" lon="0.25122">
        <ele>1816</ele>
        <time>2022-01-09T08:30:17Z</time>
      </trkpt>
      <trkpt lat="42.82521" lon="0.25118">
        <ele>1816</ele>
        <time>2022-01-09T08:30:18Z</time>
      </trkpt>
      <trkpt lat="42.82521" lon="0.25117">
        <ele>1816</ele>
        <time>2022-01-09T08:30:19Z</time>
      </trkpt>
      <trkpt lat="42.82522" lon="0.25115">
        <ele>1815.6</ele>
        <time>2022-01-09T08:30:20Z</time>
      </trkpt>
      <trkpt lat="42.82522" lon="0.25113">
        <ele>1815.6</ele>
        <time>2022-01-09T08:30:21Z</time>
      </trkpt>
      <trkpt lat="42.82523" lon="0.25111">
        <ele>1816.2</ele>
        <time>2022-01-09T08:30:22Z</time>
      </trkpt>
      <trkpt lat="42.82525" lon="0.25102">
        <ele>1816.2</ele>
        <time>2022-01-09T08:30:23Z</time>
      </trkpt>
      <trkpt lat="42.82526" lon="0.25099">
        <ele>1816.4</ele>
        <time>2022-01-09T08:30:24Z</time>
      </trkpt>
      <trkpt lat="42.82527" lon="0.25096">
        <ele>1816.8</ele>
        <time>2022-01-09T08:30:25Z</time>
      </trkpt>
      <trkpt lat="42.82528" lon="0.25093">
        <ele>1816.8</ele>
        <time>2022-01-09T08:30:26Z</time>
      </trkpt>
      <trkpt lat="42.82528" lon="0.2509">
        <ele>1816.8</ele>
        <time>2022-01-09T08:30:27Z</time>
      </trkpt>
      <trkpt lat="42.82528" lon="0.25087">
        <ele>1817</ele>
        <time>2022-01-09T08:30:28Z</time>
      </trkpt>
      <trkpt lat="42.82528" lon="0.25084">
        <ele>1817.2</ele>
        <time>2022-01-09T08:30:29Z</time>
      </trkpt>
      <trkpt lat="42.82528" lon="0.25081">
        <ele>1817.4</ele>
        <time>2022-01-09T08:30:30Z</time>
      </trkpt>
      <trkpt lat="42.82528" lon="0.25079">
        <ele>1817.6</ele>
        <time>2022-01-09T08:30:31Z</time>
      </trkpt>
      <trkpt lat="42.82528" lon="0.25078">
        <ele>1818</ele>
        <time>2022-01-09T08:30:32Z</time>
      </trkpt>
      <trkpt lat="42.82528" lon="0.25076">
        <ele>1817.8</ele>
        <time>2022-01-09T08:30:33Z</time>
      </trkpt>
      <trkpt lat="42.82528" lon="0.25075">
        <ele>1818</ele>
        <time>2022-01-09T08:30:34Z</time>
      </trkpt>
      <trkpt lat="42.82528" lon="0.25074">
        <ele>1818.2</ele>
        <time>2022-01-09T08:30:35Z</time>
      </trkpt>
      <trkpt lat="42.82528" lon="0.25063">
        <ele>1818.2</ele>
        <time>2022-01-09T08:30:36Z</time>
      </trkpt>
      <trkpt lat="42.82529" lon="0.2506">
        <ele>1818.4</ele>
        <time>2022-01-09T08:30:37Z</time>
      </trkpt>
      <trkpt lat="42.8253" lon="0.25057">
        <ele>1819</ele>
        <time>2022-01-09T08:30:38Z</time>
      </trkpt>
      <trkpt lat="42.8253" lon="0.25054">
        <ele>1818.8</ele>
        <time>2022-01-09T08:30:39Z</time>
      </trkpt>
      <trkpt lat="42.82531" lon="0.25051">
        <ele>1818.8</ele>
        <time>2022-01-09T08:30:40Z</time>
      </trkpt>
      <trkpt lat="42.82531" lon="0.25048">
        <ele>1819</ele>
        <time>2022-01-09T08:30:41Z</time>
      </trkpt>
      <trkpt lat="42.82532" lon="0.25045">
        <ele>1819.4</ele>
        <time>2022-01-09T08:30:42Z</time>
      </trkpt>
      <trkpt lat="42.82532" lon="0.25042">
        <ele>1819.6</ele>
        <time>2022-01-09T08:30:43Z</time>
      </trkpt>
      <trkpt lat="42.82533" lon="0.25039">
        <ele>1820</ele>
        <time>2022-01-09T08:30:44Z</time>
      </trkpt>
      <trkpt lat="42.82534" lon="0.25036">
        <ele>1820.2</ele>
        <time>2022-01-09T08:30:45Z</time>
      </trkpt>
      <trkpt lat="42.82535" lon="0.25033">
        <ele>1820</ele>
        <time>2022-01-09T08:30:46Z</time>
      </trkpt>
      <trkpt lat="42.82535" lon="0.2503">
        <ele>1820</ele>
        <time>2022-01-09T08:30:47Z</time>
      </trkpt>
      <trkpt lat="42.82535" lon="0.25028">
        <ele>1820.6</ele>
        <time>2022-01-09T08:30:48Z</time>
      </trkpt>
      <trkpt lat="42.82535" lon="0.25027">
        <ele>1820.8</ele>
        <time>2022-01-09T08:30:49Z</time>
      </trkpt>
      <trkpt lat="42.82535" lon="0.25025">
        <ele>1821</ele>
        <time>2022-01-09T08:30:50Z</time>
      </trkpt>
      <trkpt lat="42.82535" lon="0.25024">
        <ele>1821.2</ele>
        <time>2022-01-09T08:30:51Z</time>
      </trkpt>
      <trkpt lat="42.82535" lon="0.25022">
        <ele>1821.4</ele>
        <time>2022-01-09T08:30:52Z</time>
      </trkpt>
      <trkpt lat="42.82536" lon="0.25013">
        <ele>1821.4</ele>
        <time>2022-01-09T08:30:53Z</time>
      </trkpt>
      <trkpt lat="42.82536" lon="0.25012">
        <ele>1821.8</ele>
        <time>2022-01-09T08:30:54Z</time>
      </trkpt>
      <trkpt lat="42.82537" lon="0.2501">
        <ele>1822.2</ele>
        <time>2022-01-09T08:30:55Z</time>
      </trkpt>
      <trkpt lat="42.82537" lon="0.25009">
        <ele>1822.4</ele>
        <time>2022-01-09T08:30:56Z</time>
      </trkpt>
      <trkpt lat="42.82538" lon="0.25008">
        <ele>1822.8</ele>
        <time>2022-01-09T08:30:57Z</time>
      </trkpt>
      <trkpt lat="42.8254" lon="0.24998">
        <ele>1823</ele>
        <time>2022-01-09T08:30:58Z</time>
      </trkpt>
      <trkpt lat="42.8254" lon="0.24996">
        <ele>1823.2</ele>
        <time>2022-01-09T08:30:59Z</time>
      </trkpt>
      <trkpt lat="42.8254" lon="0.24993">
        <ele>1823.2</ele>
        <time>2022-01-09T08:31:00Z</time>
      </trkpt>
      <trkpt lat="42.8254" lon="0.2499">
        <ele>1824</ele>
        <time>2022-01-09T08:31:01Z</time>
      </trkpt>
      <trkpt lat="42.8254" lon="0.24988">
        <ele>1824.2</ele>
        <time>2022-01-09T08:31:02Z</time>
      </trkpt>
      <trkpt lat="42.8254" lon="0.24985">
        <ele>1824.4</ele>
        <time>2022-01-09T08:31:03Z</time>
      </trkpt>
      <trkpt lat="42.8254" lon="0.24983">
        <ele>1824.8</ele>
        <time>2022-01-09T08:31:04Z</time>
      </trkpt>
      <trkpt lat="42.82541" lon="0.24981">
        <ele>1824.8</ele>
        <time>2022-01-09T08:31:05Z</time>
      </trkpt>
      <trkpt lat="42.82541" lon="0.24979">
        <ele>1824.6</ele>
        <time>2022-01-09T08:31:06Z</time>
      </trkpt>
      <trkpt lat="42.82541" lon="0.24977">
        <ele>1825</ele>
        <time>2022-01-09T08:31:07Z</time>
      </trkpt>
      <trkpt lat="42.82542" lon="0.24974">
        <ele>1825.6</ele>
        <time>2022-01-09T08:31:08Z</time>
      </trkpt>
      <trkpt lat="42.82542" lon="0.24972">
        <ele>1825.6</ele>
        <time>2022-01-09T08:31:09Z</time>
      </trkpt>
      <trkpt lat="42.82542" lon="0.24969">
        <ele>1825.8</ele>
        <time>2022-01-09T08:31:10Z</time>
      </trkpt>
      <trkpt lat="42.82543" lon="0.24966">
        <ele>1826.4</ele>
        <time>2022-01-09T08:31:11Z</time>
      </trkpt>
      <trkpt lat="42.82543" lon="0.24964">
        <ele>1827.2</ele>
        <time>2022-01-09T08:31:12Z</time>
      </trkpt>
      <trkpt lat="42.82544" lon="0.24961">
        <ele>1827.6</ele>
        <time>2022-01-09T08:31:13Z</time>
      </trkpt>
      <trkpt lat="42.82544" lon="0.2496">
        <ele>1827.6</ele>
        <time>2022-01-09T08:31:14Z</time>
      </trkpt>
      <trkpt lat="42.82544" lon="0.24959">
        <ele>1827.8</ele>
        <time>2022-01-09T08:31:15Z</time>
      </trkpt>
      <trkpt lat="42.82544" lon="0.24958">
        <ele>1828.2</ele>
        <time>2022-01-09T08:31:16Z</time>
      </trkpt>
      <trkpt lat="42.82544" lon="0.24956">
        <ele>1828.4</ele>
        <time>2022-01-09T08:31:17Z</time>
      </trkpt>
      <trkpt lat="42.82544" lon="0.24955">
        <ele>1828.8</ele>
        <time>2022-01-09T08:31:18Z</time>
      </trkpt>
      <trkpt lat="42.82544" lon="0.24954">
        <ele>1829</ele>
        <time>2022-01-09T08:31:19Z</time>
      </trkpt>
      <trkpt lat="42.82545" lon="0.24945">
        <ele>1829.4</ele>
        <time>2022-01-09T08:31:20Z</time>
      </trkpt>
      <trkpt lat="42.82545" lon="0.24943">
        <ele>1829.8</ele>
        <time>2022-01-09T08:31:21Z</time>
      </trkpt>
      <trkpt lat="42.82546" lon="0.24941">
        <ele>1830</ele>
        <time>2022-01-09T08:31:22Z</time>
      </trkpt>
      <trkpt lat="42.82546" lon="0.24939">
        <ele>1830.4</ele>
        <time>2022-01-09T08:31:23Z</time>
      </trkpt>
      <trkpt lat="42.82547" lon="0.24937">
        <ele>1830.6</ele>
        <time>2022-01-09T08:31:24Z</time>
      </trkpt>
      <trkpt lat="42.82548" lon="0.24935">
        <ele>1831.2</ele>
        <time>2022-01-09T08:31:25Z</time>
      </trkpt>
      <trkpt lat="42.82548" lon="0.24933">
        <ele>1831.6</ele>
        <time>2022-01-09T08:31:26Z</time>
      </trkpt>
      <trkpt lat="42.82548" lon="0.24931">
        <ele>1831.8</ele>
        <time>2022-01-09T08:31:27Z</time>
      </trkpt>
      <trkpt lat="42.82549" lon="0.24929">
        <ele>1832.2</ele>
        <time>2022-01-09T08:31:28Z</time>
      </trkpt>
      <trkpt lat="42.82549" lon="0.24926">
        <ele>1832.4</ele>
        <time>2022-01-09T08:31:29Z</time>
      </trkpt>
      <trkpt lat="42.82549" lon="0.24924">
        <ele>1832.8</ele>
        <time>2022-01-09T08:31:30Z</time>
      </trkpt>
      <trkpt lat="42.8255" lon="0.24922">
        <ele>1833</ele>
        <time>2022-01-09T08:31:31Z</time>
      </trkpt>
      <trkpt lat="42.82551" lon="0.2492">
        <ele>1833.2</ele>
        <time>2022-01-09T08:31:32Z</time>
      </trkpt>
      <trkpt lat="42.82553" lon="0.24918">
        <ele>1833.6</ele>
        <time>2022-01-09T08:31:33Z</time>
      </trkpt>
      <trkpt lat="42.82554" lon="0.24915">
        <ele>1833.6</ele>
        <time>2022-01-09T08:31:34Z</time>
      </trkpt>
      <trkpt lat="42.82556" lon="0.24913">
        <ele>1833.4</ele>
        <time>2022-01-09T08:31:35Z</time>
      </trkpt>
      <trkpt lat="42.82557" lon="0.24911">
        <ele>1833.8</ele>
        <time>2022-01-09T08:31:36Z</time>
      </trkpt>
      <trkpt lat="42.82558" lon="0.24909">
        <ele>1834.4</ele>
        <time>2022-01-09T08:31:37Z</time>
      </trkpt>
      <trkpt lat="42.82559" lon="0.24908">
        <ele>1834.6</ele>
        <time>2022-01-09T08:31:38Z</time>
      </trkpt>
      <trkpt lat="42.8256" lon="0.24906">
        <ele>1834.8</ele>
        <time>2022-01-09T08:31:39Z</time>
      </trkpt>
      <trkpt lat="42.82562" lon="0.24904">
        <ele>1834.8</ele>
        <time>2022-01-09T08:31:40Z</time>
      </trkpt>
      <trkpt lat="42.82563" lon="0.24902">
        <ele>1835</ele>
        <time>2022-01-09T08:31:41Z</time>
      </trkpt>
      <trkpt lat="42.82563" lon="0.24901">
        <ele>1835</ele>
        <time>2022-01-09T08:31:42Z</time>
      </trkpt>
      <trkpt lat="42.82564" lon="0.24901">
        <ele>1835.2</ele>
        <time>2022-01-09T08:31:43Z</time>
      </trkpt>
      <trkpt lat="42.82565" lon="0.249">
        <ele>1835.2</ele>
        <time>2022-01-09T08:31:44Z</time>
      </trkpt>
      <trkpt lat="42.82565" lon="0.24899">
        <ele>1835.4</ele>
        <time>2022-01-09T08:31:45Z</time>
      </trkpt>
      <trkpt lat="42.82566" lon="0.24898">
        <ele>1835.4</ele>
        <time>2022-01-09T08:31:46Z</time>
      </trkpt>
      <trkpt lat="42.82567" lon="0.24898">
        <ele>1835.4</ele>
        <time>2022-01-09T08:31:47Z</time>
      </trkpt>
      <trkpt lat="42.82573" lon="0.24892">
        <ele>1835.8</ele>
        <time>2022-01-09T08:31:48Z</time>
      </trkpt>
      <trkpt lat="42.82574" lon="0.2489">
        <ele>1835.8</ele>
        <time>2022-01-09T08:31:49Z</time>
      </trkpt>
      <trkpt lat="42.82576" lon="0.24889">
        <ele>1836.2</ele>
        <time>2022-01-09T08:31:50Z</time>
      </trkpt>
      <trkpt lat="42.82578" lon="0.24887">
        <ele>1836.4</ele>
        <time>2022-01-09T08:31:51Z</time>
      </trkpt>
      <trkpt lat="42.82579" lon="0.24886">
        <ele>1836.4</ele>
        <time>2022-01-09T08:31:52Z</time>
      </trkpt>
      <trkpt lat="42.8258" lon="0.24885">
        <ele>1836.6</ele>
        <time>2022-01-09T08:31:53Z</time>
      </trkpt>
      <trkpt lat="42.82581" lon="0.24884">
        <ele>1836.6</ele>
        <time>2022-01-09T08:31:54Z</time>
      </trkpt>
      <trkpt lat="42.82582" lon="0.24884">
        <ele>1836.6</ele>
        <time>2022-01-09T08:31:55Z</time>
      </trkpt>
      <trkpt lat="42.82582" lon="0.24883">
        <ele>1836.8</ele>
        <time>2022-01-09T08:31:56Z</time>
      </trkpt>
      <trkpt lat="42.82583" lon="0.24882">
        <ele>1836.8</ele>
        <time>2022-01-09T08:31:57Z</time>
      </trkpt>
      <trkpt lat="42.82584" lon="0.24882">
        <ele>1836.8</ele>
        <time>2022-01-09T08:31:58Z</time>
      </trkpt>
      <trkpt lat="42.82589" lon="0.24878">
        <ele>1837</ele>
        <time>2022-01-09T08:31:59Z</time>
      </trkpt>
      <trkpt lat="42.82589" lon="0.24878">
        <ele>1836.6</ele>
        <time>2022-01-09T08:32:00Z</time>
      </trkpt>
      <trkpt lat="42.82589" lon="0.24878">
        <ele>1836.4</ele>
        <time>2022-01-09T08:32:01Z</time>
      </trkpt>
      <trkpt lat="42.82589" lon="0.24879">
        <ele>1836.4</ele>
        <time>2022-01-09T08:32:02Z</time>
      </trkpt>
      <trkpt lat="42.82589" lon="0.24879">
        <ele>1836.2</ele>
        <time>2022-01-09T08:32:03Z</time>
      </trkpt>
      <trkpt lat="42.82589" lon="0.24879">
        <ele>1836.2</ele>
        <time>2022-01-09T08:32:04Z</time>
      </trkpt>
      <trkpt lat="42.8259" lon="0.24879">
        <ele>1836.2</ele>
        <time>2022-01-09T08:32:05Z</time>
      </trkpt>
      <trkpt lat="42.8259" lon="0.24879">
        <ele>1836.2</ele>
        <time>2022-01-09T08:32:06Z</time>
      </trkpt>
      <trkpt lat="42.8259" lon="0.2488">
        <ele>1836.2</ele>
        <time>2022-01-09T08:32:07Z</time>
      </trkpt>
      <trkpt lat="42.8259" lon="0.2488">
        <ele>1836</ele>
        <time>2022-01-09T08:32:08Z</time>
      </trkpt>
      <trkpt lat="42.8259" lon="0.2488">
        <ele>1836</ele>
        <time>2022-01-09T08:32:09Z</time>
      </trkpt>
      <trkpt lat="42.82591" lon="0.2488">
        <ele>1836.2</ele>
        <time>2022-01-09T08:32:10Z</time>
      </trkpt>
      <trkpt lat="42.82591" lon="0.2488">
        <ele>1836.6</ele>
        <time>2022-01-09T08:32:11Z</time>
      </trkpt>
      <trkpt lat="42.82591" lon="0.24881">
        <ele>1836.6</ele>
        <time>2022-01-09T08:32:12Z</time>
      </trkpt>
      <trkpt lat="42.82591" lon="0.24881">
        <ele>1836.4</ele>
        <time>2022-01-09T08:32:13Z</time>
      </trkpt>
      <trkpt lat="42.82591" lon="0.24881">
        <ele>1836.2</ele>
        <time>2022-01-09T08:32:14Z</time>
      </trkpt>
      <trkpt lat="42.82591" lon="0.24881">
        <ele>1836.4</ele>
        <time>2022-01-09T08:32:15Z</time>
      </trkpt>
      <trkpt lat="42.82592" lon="0.24882">
        <ele>1836.4</ele>
        <time>2022-01-09T08:32:16Z</time>
      </trkpt>
      <trkpt lat="42.82592" lon="0.24882">
        <ele>1836</ele>
        <time>2022-01-09T08:32:17Z</time>
      </trkpt>
      <trkpt lat="42.82592" lon="0.24882">
        <ele>1836.4</ele>
        <time>2022-01-09T08:32:18Z</time>
      </trkpt>
      <trkpt lat="42.82592" lon="0.24882">
        <ele>1836.2</ele>
        <time>2022-01-09T08:32:19Z</time>
      </trkpt>
      <trkpt lat="42.82592" lon="0.24882">
        <ele>1836</ele>
        <time>2022-01-09T08:32:20Z</time>
      </trkpt>
      <trkpt lat="42.82593" lon="0.24883">
        <ele>1835.8</ele>
        <time>2022-01-09T08:32:21Z</time>
      </trkpt>
      <trkpt lat="42.82593" lon="0.24883">
        <ele>1833.8</ele>
        <time>2022-01-09T08:32:22Z</time>
      </trkpt>
      <trkpt lat="42.82598" lon="0.24892">
        <ele>1833.4</ele>
        <time>2022-01-09T08:32:23Z</time>
      </trkpt>
      <trkpt lat="42.826" lon="0.24896">
        <ele>1831.8</ele>
        <time>2022-01-09T08:32:24Z</time>
      </trkpt>
      <trkpt lat="42.82604" lon="0.24908">
        <ele>1829.8</ele>
        <time>2022-01-09T08:32:25Z</time>
      </trkpt>
      <trkpt lat="42.82605" lon="0.24912">
        <ele>1827.8</ele>
        <time>2022-01-09T08:32:26Z</time>
      </trkpt>
      <trkpt lat="42.82608" lon="0.24927">
        <ele>1825.6</ele>
        <time>2022-01-09T08:32:27Z</time>
      </trkpt>
      <trkpt lat="42.82609" lon="0.24932">
        <ele>1822.6</ele>
        <time>2022-01-09T08:32:28Z</time>
      </trkpt>
      <trkpt lat="42.82611" lon="0.24948">
        <ele>1819.4</ele>
        <time>2022-01-09T08:32:29Z</time>
      </trkpt>
      <trkpt lat="42.8261" lon="0.24953">
        <ele>1815.8</ele>
        <time>2022-01-09T08:32:30Z</time>
      </trkpt>
      <trkpt lat="42.8261" lon="0.24972">
        <ele>1814</ele>
        <time>2022-01-09T08:32:31Z</time>
      </trkpt>
      <trkpt lat="42.82612" lon="0.2498">
        <ele>1810.2</ele>
        <time>2022-01-09T08:32:32Z</time>
      </trkpt>
      <trkpt lat="42.82614" lon="0.24995">
        <ele>1808.2</ele>
        <time>2022-01-09T08:32:33Z</time>
      </trkpt>
      <trkpt lat="42.82617" lon="0.25003">
        <ele>1804.4</ele>
        <time>2022-01-09T08:32:34Z</time>
      </trkpt>
      <trkpt lat="42.8262" lon="0.25012">
        <ele>1800.2</ele>
        <time>2022-01-09T08:32:35Z</time>
      </trkpt>
      <trkpt lat="42.82625" lon="0.25028">
        <ele>1799.2</ele>
        <time>2022-01-09T08:32:36Z</time>
      </trkpt>
      <trkpt lat="42.82631" lon="0.25042">
        <ele>1797.6</ele>
        <time>2022-01-09T08:32:37Z</time>
      </trkpt>
      <trkpt lat="42.82638" lon="0.25055">
        <ele>1795.4</ele>
        <time>2022-01-09T08:32:38Z</time>
      </trkpt>
      <trkpt lat="42.8264" lon="0.25071">
        <ele>1791.6</ele>
        <time>2022-01-09T08:32:39Z</time>
      </trkpt>
      <trkpt lat="42.82643" lon="0.25087">
        <ele>1788.2</ele>
        <time>2022-01-09T08:32:40Z</time>
      </trkpt>
      <trkpt lat="42.82647" lon="0.25101">
        <ele>1783.4</ele>
        <time>2022-01-09T08:32:41Z</time>
      </trkpt>
      <trkpt lat="42.82651" lon="0.25116">
        <ele>1779.6</ele>
        <time>2022-01-09T08:32:42Z</time>
      </trkpt>
      <trkpt lat="42.82654" lon="0.25131">
        <ele>1774.8</ele>
        <time>2022-01-09T08:32:43Z</time>
      </trkpt>
      <trkpt lat="42.82654" lon="0.25145">
        <ele>1770.8</ele>
        <time>2022-01-09T08:32:44Z</time>
      </trkpt>
      <trkpt lat="42.82657" lon="0.25157">
        <ele>1766.8</ele>
        <time>2022-01-09T08:32:45Z</time>
      </trkpt>
      <trkpt lat="42.82657" lon="0.25163">
        <ele>1762.6</ele>
        <time>2022-01-09T08:32:46Z</time>
      </trkpt>
      <trkpt lat="42.82657" lon="0.25169">
        <ele>1758.8</ele>
        <time>2022-01-09T08:32:47Z</time>
      </trkpt>
      <trkpt lat="42.82658" lon="0.25186">
        <ele>1754.8</ele>
        <time>2022-01-09T08:32:48Z</time>
      </trkpt>
      <trkpt lat="42.82659" lon="0.25192">
        <ele>1750.4</ele>
        <time>2022-01-09T08:32:49Z</time>
      </trkpt>
      <trkpt lat="42.82664" lon="0.25211">
        <ele>1744.4</ele>
        <time>2022-01-09T08:32:50Z</time>
      </trkpt>
      <trkpt lat="42.82666" lon="0.25219">
        <ele>1739.6</ele>
        <time>2022-01-09T08:32:51Z</time>
      </trkpt>
      <trkpt lat="42.82672" lon="0.25235">
        <ele>1735</ele>
        <time>2022-01-09T08:32:52Z</time>
      </trkpt>
      <trkpt lat="42.82681" lon="0.25244">
        <ele>1728.8</ele>
        <time>2022-01-09T08:32:53Z</time>
      </trkpt>
      <trkpt lat="42.82686" lon="0.25256">
        <ele>1723.2</ele>
        <time>2022-01-09T08:32:54Z</time>
      </trkpt>
      <trkpt lat="42.82691" lon="0.2527">
        <ele>1716.4</ele>
        <time>2022-01-09T08:32:55Z</time>
      </trkpt>
      <trkpt lat="42.82696" lon="0.25285">
        <ele>1711.2</ele>
        <time>2022-01-09T08:32:56Z</time>
      </trkpt>
      <trkpt lat="42.82697" lon="0.25302">
        <ele>1707</ele>
        <time>2022-01-09T08:32:57Z</time>
      </trkpt>
      <trkpt lat="42.82694" lon="0.25321">
        <ele>1699.6</ele>
        <time>2022-01-09T08:32:58Z</time>
      </trkpt>
      <trkpt lat="42.8269" lon="0.25341">
        <ele>1694</ele>
        <time>2022-01-09T08:32:59Z</time>
      </trkpt>
      <trkpt lat="42.82683" lon="0.25362">
        <ele>1686.2</ele>
        <time>2022-01-09T08:33:00Z</time>
      </trkpt>
      <trkpt lat="42.82675" lon="0.25384">
        <ele>1681.8</ele>
        <time>2022-01-09T08:33:01Z</time>
      </trkpt>
      <trkpt lat="42.82668" lon="0.25405">
        <ele>1677.4</ele>
        <time>2022-01-09T08:33:02Z</time>
      </trkpt>
      <trkpt lat="42.8266" lon="0.25427">
        <ele>1673.2</ele>
        <time>2022-01-09T08:33:03Z</time>
      </trkpt>
      <trkpt lat="42.82651" lon="0.25449">
        <ele>1668.6</ele>
        <time>2022-01-09T08:33:04Z</time>
      </trkpt>
      <trkpt lat="42.82643" lon="0.25471">
        <ele>1663.6</ele>
        <time>2022-01-09T08:33:05Z</time>
      </trkpt>
      <trkpt lat="42.82634" lon="0.25493">
        <ele>1659.2</ele>
        <time>2022-01-09T08:33:06Z</time>
      </trkpt>
      <trkpt lat="42.82626" lon="0.25515">
        <ele>1655</ele>
        <time>2022-01-09T08:33:07Z</time>
      </trkpt>
      <trkpt lat="42.82617" lon="0.25536">
        <ele>1649.8</ele>
        <time>2022-01-09T08:33:08Z</time>
      </trkpt>
      <trkpt lat="42.82611" lon="0.25559">
        <ele>1645.2</ele>
        <time>2022-01-09T08:33:09Z</time>
      </trkpt>
      <trkpt lat="42.82605" lon="0.25581">
        <ele>1639.2</ele>
        <time>2022-01-09T08:33:10Z</time>
      </trkpt>
      <trkpt lat="42.82601" lon="0.25604">
        <ele>1636</ele>
        <time>2022-01-09T08:33:11Z</time>
      </trkpt>
      <trkpt lat="42.82599" lon="0.25627">
        <ele>1631</ele>
        <time>2022-01-09T08:33:12Z</time>
      </trkpt>
      <trkpt lat="42.82597" lon="0.25649">
        <ele>1626.2</ele>
        <time>2022-01-09T08:33:13Z</time>
      </trkpt>
      <trkpt lat="42.82596" lon="0.2567">
        <ele>1623.6</ele>
        <time>2022-01-09T08:33:14Z</time>
      </trkpt>
      <trkpt lat="42.82596" lon="0.2569">
        <ele>1620.2</ele>
        <time>2022-01-09T08:33:15Z</time>
      </trkpt>
      <trkpt lat="42.82595" lon="0.2571">
        <ele>1616.8</ele>
        <time>2022-01-09T08:33:16Z</time>
      </trkpt>
      <trkpt lat="42.82595" lon="0.2573">
        <ele>1613.8</ele>
        <time>2022-01-09T08:33:17Z</time>
      </trkpt>
      <trkpt lat="42.82595" lon="0.25749">
        <ele>1610.6</ele>
        <time>2022-01-09T08:33:18Z</time>
      </trkpt>
      <trkpt lat="42.82592" lon="0.25764">
        <ele>1608.2</ele>
        <time>2022-01-09T08:33:19Z</time>
      </trkpt>
      <trkpt lat="42.82585" lon="0.25778">
        <ele>1604.6</ele>
        <time>2022-01-09T08:33:20Z</time>
      </trkpt>
      <trkpt lat="42.8258" lon="0.25792">
        <ele>1601.8</ele>
        <time>2022-01-09T08:33:21Z</time>
      </trkpt>
      <trkpt lat="42.82581" lon="0.25795">
        <ele>1599.6</ele>
        <time>2022-01-09T08:33:22Z</time>
      </trkpt>
      <trkpt lat="42.82581" lon="0.25798">
        <ele>1598.6</ele>
        <time>2022-01-09T08:33:23Z</time>
      </trkpt>
      <trkpt lat="42.82582" lon="0.25801">
        <ele>1597.8</ele>
        <time>2022-01-09T08:33:24Z</time>
      </trkpt>
      <trkpt lat="42.82583" lon="0.2581">
        <ele>1596.8</ele>
        <time>2022-01-09T08:33:25Z</time>
      </trkpt>
      <trkpt lat="42.82582" lon="0.2581">
        <ele>1596</ele>
        <time>2022-01-09T08:33:26Z</time>
      </trkpt>
      <trkpt lat="42.82581" lon="0.25809">
        <ele>1595</ele>
        <time>2022-01-09T08:33:27Z</time>
      </trkpt>
      <trkpt lat="42.82581" lon="0.25809">
        <ele>1594.4</ele>
        <time>2022-01-09T08:33:28Z</time>
      </trkpt>
      <trkpt lat="42.8258" lon="0.25808">
        <ele>1593.8</ele>
        <time>2022-01-09T08:33:29Z</time>
      </trkpt>
      <trkpt lat="42.82579" lon="0.25808">
        <ele>1593.8</ele>
        <time>2022-01-09T08:33:30Z</time>
      </trkpt>
      <trkpt lat="42.82579" lon="0.25807">
        <ele>1593.4</ele>
        <time>2022-01-09T08:33:31Z</time>
      </trkpt>
      <trkpt lat="42.82578" lon="0.25807">
        <ele>1593.4</ele>
        <time>2022-01-09T08:33:32Z</time>
      </trkpt>
      <trkpt lat="42.82577" lon="0.25806">
        <ele>1593.2</ele>
        <time>2022-01-09T08:33:33Z</time>
      </trkpt>
      <trkpt lat="42.82577" lon="0.25806">
        <ele>1593</ele>
        <time>2022-01-09T08:33:34Z</time>
      </trkpt>
      <trkpt lat="42.82576" lon="0.25805">
        <ele>1592.8</ele>
        <time>2022-01-09T08:33:35Z</time>
      </trkpt>
      <trkpt lat="42.82576" lon="0.25805">
        <ele>1593</ele>
        <time>2022-01-09T08:33:36Z</time>
      </trkpt>
      <trkpt lat="42.82576" lon="0.25805">
        <ele>1592.8</ele>
        <time>2022-01-09T08:33:37Z</time>
      </trkpt>
      <trkpt lat="42.82576" lon="0.25805">
        <ele>1593</ele>
        <time>2022-01-09T08:33:38Z</time>
      </trkpt>
      <trkpt lat="42.82576" lon="0.25805">
        <ele>1593</ele>
        <time>2022-01-09T08:33:39Z</time>
      </trkpt>
      <trkpt lat="42.82576" lon="0.25805">
        <ele>1593</ele>
        <time>2022-01-09T08:33:40Z</time>
      </trkpt>
      <trkpt lat="42.82576" lon="0.25805">
        <ele>1593</ele>
        <time>2022-01-09T08:33:41Z</time>
      </trkpt>
      <trkpt lat="42.82576" lon="0.25805">
        <ele>1592.8</ele>
        <time>2022-01-09T08:33:42Z</time>
      </trkpt>
      <trkpt lat="42.82576" lon="0.25805">
        <ele>1593.4</ele>
        <time>2022-01-09T08:33:43Z</time>
      </trkpt>
      <trkpt lat="42.82576" lon="0.25805">
        <ele>1593.4</ele>
        <time>2022-01-09T08:33:44Z</time>
      </trkpt>
      <trkpt lat="42.82576" lon="0.25805">
        <ele>1592.8</ele>
        <time>2022-01-09T08:33:45Z</time>
      </trkpt>
      <trkpt lat="42.82578" lon="0.25804">
        <ele>1592.6</ele>
        <time>2022-01-09T08:33:46Z</time>
      </trkpt>
      <trkpt lat="42.82578" lon="0.25804">
        <ele>1592.6</ele>
        <time>2022-01-09T08:33:47Z</time>
      </trkpt>
      <trkpt lat="42.82578" lon="0.25804">
        <ele>1592.6</ele>
        <time>2022-01-09T08:33:48Z</time>
      </trkpt>
      <trkpt lat="42.82578" lon="0.25804">
        <ele>1592.6</ele>
        <time>2022-01-09T08:33:49Z</time>
      </trkpt>
      <trkpt lat="42.82578" lon="0.25804">
        <ele>1592.6</ele>
        <time>2022-01-09T08:33:50Z</time>
      </trkpt>
      <trkpt lat="42.82578" lon="0.25804">
        <ele>1592.6</ele>
        <time>2022-01-09T08:33:51Z</time>
      </trkpt>
      <trkpt lat="42.82578" lon="0.25804">
        <ele>1592.4</ele>
        <time>2022-01-09T08:33:52Z</time>
      </trkpt>
      <trkpt lat="42.82578" lon="0.25804">
        <ele>1592.6</ele>
        <time>2022-01-09T08:33:53Z</time>
      </trkpt>
      <trkpt lat="42.82578" lon="0.25804">
        <ele>1592.6</ele>
        <time>2022-01-09T08:33:54Z</time>
      </trkpt>
      <trkpt lat="42.82578" lon="0.25804">
        <ele>1592.4</ele>
        <time>2022-01-09T08:33:55Z</time>
      </trkpt>
      <trkpt lat="42.8258" lon="0.25801">
        <ele>1592.6</ele>
        <time>2022-01-09T08:33:56Z</time>
      </trkpt>
      <trkpt lat="42.82579" lon="0.25801">
        <ele>1592.6</ele>
        <time>2022-01-09T08:33:57Z</time>
      </trkpt>
      <trkpt lat="42.82579" lon="0.258">
        <ele>1592.6</ele>
        <time>2022-01-09T08:33:58Z</time>
      </trkpt>
      <trkpt lat="42.82578" lon="0.258">
        <ele>1592</ele>
        <time>2022-01-09T08:33:59Z</time>
      </trkpt>
      <trkpt lat="42.82578" lon="0.258">
        <ele>1592.4</ele>
        <time>2022-01-09T08:34:00Z</time>
      </trkpt>
      <trkpt lat="42.82577" lon="0.25799">
        <ele>1592.2</ele>
        <time>2022-01-09T08:34:01Z</time>
      </trkpt>
      <trkpt lat="42.82577" lon="0.25799">
        <ele>1592.4</ele>
        <time>2022-01-09T08:34:02Z</time>
      </trkpt>
      <trkpt lat="42.82577" lon="0.25798">
        <ele>1592.6</ele>
        <time>2022-01-09T08:34:03Z</time>
      </trkpt>
      <trkpt lat="42.82576" lon="0.25798">
        <ele>1592.6</ele>
        <time>2022-01-09T08:34:04Z</time>
      </trkpt>
      <trkpt lat="42.82576" lon="0.25797">
        <ele>1592.6</ele>
        <time>2022-01-09T08:34:05Z</time>
      </trkpt>
      <trkpt lat="42.82575" lon="0.25797">
        <ele>1592.6</ele>
        <time>2022-01-09T08:34:06Z</time>
      </trkpt>
      <trkpt lat="42.82575" lon="0.25796">
        <ele>1592.8</ele>
        <time>2022-01-09T08:34:07Z</time>
      </trkpt>
      <trkpt lat="42.82574" lon="0.25796">
        <ele>1593</ele>
        <time>2022-01-09T08:34:08Z</time>
      </trkpt>
      <trkpt lat="42.82574" lon="0.25795">
        <ele>1593</ele>
        <time>2022-01-09T08:34:09Z</time>
      </trkpt>
      <trkpt lat="42.82573" lon="0.25795">
        <ele>1593.2</ele>
        <time>2022-01-09T08:34:10Z</time>
      </trkpt>
      <trkpt lat="42.82573" lon="0.25795">
        <ele>1593.4</ele>
        <time>2022-01-09T08:34:11Z</time>
      </trkpt>
      <trkpt lat="42.82573" lon="0.25794">
        <ele>1593.4</ele>
        <time>2022-01-09T08:34:12Z</time>
      </trkpt>
      <trkpt lat="42.82572" lon="0.25794">
        <ele>1593.4</ele>
        <time>2022-01-09T08:34:13Z</time>
      </trkpt>
      <trkpt lat="42.82569" lon="0.25791">
        <ele>1593.4</ele>
        <time>2022-01-09T08:34:14Z</time>
      </trkpt>
      <trkpt lat="42.82567" lon="0.25788">
        <ele>1593.4</ele>
        <time>2022-01-09T08:34:15Z</time>
      </trkpt>
      <trkpt lat="42.82564" lon="0.25786">
        <ele>1593.4</ele>
        <time>2022-01-09T08:34:16Z</time>
      </trkpt>
      <trkpt lat="42.82561" lon="0.25783">
        <ele>1593.2</ele>
        <time>2022-01-09T08:34:17Z</time>
      </trkpt>
      <trkpt lat="42.82558" lon="0.25781">
        <ele>1593.2</ele>
        <time>2022-01-09T08:34:18Z</time>
      </trkpt>
      <trkpt lat="42.82555" lon="0.25778">
        <ele>1593.2</ele>
        <time>2022-01-09T08:34:19Z</time>
      </trkpt>
      <trkpt lat="42.82552" lon="0.25775">
        <ele>1593.2</ele>
        <time>2022-01-09T08:34:20Z</time>
      </trkpt>
      <trkpt lat="42.8255" lon="0.25772">
        <ele>1593.6</ele>
        <time>2022-01-09T08:34:21Z</time>
      </trkpt>
      <trkpt lat="42.82548" lon="0.25769">
        <ele>1594</ele>
        <time>2022-01-09T08:34:22Z</time>
      </trkpt>
      <trkpt lat="42.82545" lon="0.25767">
        <ele>1594.2</ele>
        <time>2022-01-09T08:34:23Z</time>
      </trkpt>
      <trkpt lat="42.82544" lon="0.25764">
        <ele>1594.2</ele>
        <time>2022-01-09T08:34:24Z</time>
      </trkpt>
      <trkpt lat="42.82542" lon="0.25761">
        <ele>1594.6</ele>
        <time>2022-01-09T08:34:25Z</time>
      </trkpt>
      <trkpt lat="42.82541" lon="0.25759">
        <ele>1594.4</ele>
        <time>2022-01-09T08:34:26Z</time>
      </trkpt>
      <trkpt lat="42.82539" lon="0.25756">
        <ele>1594.8</ele>
        <time>2022-01-09T08:34:27Z</time>
      </trkpt>
      <trkpt lat="42.8254" lon="0.25755">
        <ele>1595</ele>
        <time>2022-01-09T08:34:28Z</time>
      </trkpt>
      <trkpt lat="42.8254" lon="0.25754">
        <ele>1596</ele>
        <time>2022-01-09T08:34:29Z</time>
      </trkpt>
      <trkpt lat="42.8254" lon="0.25753">
        <ele>1596.6</ele>
        <time>2022-01-09T08:34:30Z</time>
      </trkpt>
      <trkpt lat="42.82541" lon="0.25752">
        <ele>1597.4</ele>
        <time>2022-01-09T08:34:31Z</time>
      </trkpt>
      <trkpt lat="42.82541" lon="0.25751">
        <ele>1598</ele>
        <time>2022-01-09T08:34:32Z</time>
      </trkpt>
      <trkpt lat="42.82542" lon="0.25749">
        <ele>1598.6</ele>
        <time>2022-01-09T08:34:33Z</time>
      </trkpt>
      <trkpt lat="42.82543" lon="0.25741">
        <ele>1599</ele>
        <time>2022-01-09T08:34:34Z</time>
      </trkpt>
      <trkpt lat="42.82543" lon="0.25738">
        <ele>1599.6</ele>
        <time>2022-01-09T08:34:35Z</time>
      </trkpt>
      <trkpt lat="42.82543" lon="0.25736">
        <ele>1599.6</ele>
        <time>2022-01-09T08:34:36Z</time>
      </trkpt>
      <trkpt lat="42.82542" lon="0.25733">
        <ele>1599.8</ele>
        <time>2022-01-09T08:34:37Z</time>
      </trkpt>
      <trkpt lat="42.82542" lon="0.25731">
        <ele>1600.4</ele>
        <time>2022-01-09T08:34:38Z</time>
      </trkpt>
      <trkpt lat="42.82541" lon="0.2573">
        <ele>1600.8</ele>
        <time>2022-01-09T08:34:39Z</time>
      </trkpt>
      <trkpt lat="42.8254" lon="0.25728">
        <ele>1601</ele>
        <time>2022-01-09T08:34:40Z</time>
      </trkpt>
      <trkpt lat="42.82539" lon="0.25727">
        <ele>1601.2</ele>
        <time>2022-01-09T08:34:41Z</time>
      </trkpt>
      <trkpt lat="42.82538" lon="0.25725">
        <ele>1601.6</ele>
        <time>2022-01-09T08:34:42Z</time>
      </trkpt>
      <trkpt lat="42.82537" lon="0.25724">
        <ele>1602</ele>
        <time>2022-01-09T08:34:43Z</time>
      </trkpt>
      <trkpt lat="42.82536" lon="0.25722">
        <ele>1602.2</ele>
        <time>2022-01-09T08:34:44Z</time>
      </trkpt>
      <trkpt lat="42.82535" lon="0.25721">
        <ele>1602.2</ele>
        <time>2022-01-09T08:34:45Z</time>
      </trkpt>
      <trkpt lat="42.82535" lon="0.25719">
        <ele>1602.4</ele>
        <time>2022-01-09T08:34:46Z</time>
      </trkpt>
      <trkpt lat="42.82536" lon="0.25718">
        <ele>1603.4</ele>
        <time>2022-01-09T08:34:47Z</time>
      </trkpt>
      <trkpt lat="42.82536" lon="0.25716">
        <ele>1603.6</ele>
        <time>2022-01-09T08:34:48Z</time>
      </trkpt>
      <trkpt lat="42.82536" lon="0.25714">
        <ele>1604</ele>
        <time>2022-01-09T08:34:49Z</time>
      </trkpt>
      <trkpt lat="42.82536" lon="0.25713">
        <ele>1604.2</ele>
        <time>2022-01-09T08:34:50Z</time>
      </trkpt>
      <trkpt lat="42.82536" lon="0.25711">
        <ele>1604.8</ele>
        <time>2022-01-09T08:34:51Z</time>
      </trkpt>
      <trkpt lat="42.82536" lon="0.25709">
        <ele>1605</ele>
        <time>2022-01-09T08:34:52Z</time>
      </trkpt>
      <trkpt lat="42.82536" lon="0.25708">
        <ele>1605.2</ele>
        <time>2022-01-09T08:34:53Z</time>
      </trkpt>
      <trkpt lat="42.82536" lon="0.25706">
        <ele>1605.4</ele>
        <time>2022-01-09T08:34:54Z</time>
      </trkpt>
      <trkpt lat="42.82535" lon="0.25705">
        <ele>1605.8</ele>
        <time>2022-01-09T08:34:55Z</time>
      </trkpt>
      <trkpt lat="42.82534" lon="0.25703">
        <ele>1606.4</ele>
        <time>2022-01-09T08:34:56Z</time>
      </trkpt>
      <trkpt lat="42.82534" lon="0.25702">
        <ele>1606.8</ele>
        <time>2022-01-09T08:34:57Z</time>
      </trkpt>
      <trkpt lat="42.82533" lon="0.257">
        <ele>1607</ele>
        <time>2022-01-09T08:34:58Z</time>
      </trkpt>
      <trkpt lat="42.82533" lon="0.25699">
        <ele>1607.6</ele>
        <time>2022-01-09T08:34:59Z</time>
      </trkpt>
      <trkpt lat="42.82532" lon="0.25697">
        <ele>1607.6</ele>
        <time>2022-01-09T08:35:00Z</time>
      </trkpt>
      <trkpt lat="42.82531" lon="0.25696">
        <ele>1607.8</ele>
        <time>2022-01-09T08:35:01Z</time>
      </trkpt>
      <trkpt lat="42.82531" lon="0.25694">
        <ele>1608.2</ele>
        <time>2022-01-09T08:35:02Z</time>
      </trkpt>
      <trkpt lat="42.82531" lon="0.25692">
        <ele>1608.6</ele>
        <time>2022-01-09T08:35:03Z</time>
      </trkpt>
      <trkpt lat="42.8253" lon="0.25691">
        <ele>1609</ele>
        <time>2022-01-09T08:35:04Z</time>
      </trkpt>
      <trkpt lat="42.8253" lon="0.25689">
        <ele>1609.2</ele>
        <time>2022-01-09T08:35:05Z</time>
      </trkpt>
      <trkpt lat="42.82529" lon="0.25687">
        <ele>1609.6</ele>
        <time>2022-01-09T08:35:06Z</time>
      </trkpt>
      <trkpt lat="42.82529" lon="0.25686">
        <ele>1610</ele>
        <time>2022-01-09T08:35:07Z</time>
      </trkpt>
      <trkpt lat="42.82529" lon="0.25684">
        <ele>1610.2</ele>
        <time>2022-01-09T08:35:08Z</time>
      </trkpt>
      <trkpt lat="42.82529" lon="0.25682">
        <ele>1610.6</ele>
        <time>2022-01-09T08:35:09Z</time>
      </trkpt>
      <trkpt lat="42.82529" lon="0.2568">
        <ele>1610.8</ele>
        <time>2022-01-09T08:35:10Z</time>
      </trkpt>
      <trkpt lat="42.82529" lon="0.25678">
        <ele>1611</ele>
        <time>2022-01-09T08:35:11Z</time>
      </trkpt>
      <trkpt lat="42.82529" lon="0.25677">
        <ele>1611.4</ele>
        <time>2022-01-09T08:35:12Z</time>
      </trkpt>
      <trkpt lat="42.82529" lon="0.25675">
        <ele>1611.6</ele>
        <time>2022-01-09T08:35:13Z</time>
      </trkpt>
      <trkpt lat="42.82528" lon="0.25673">
        <ele>1612</ele>
        <time>2022-01-09T08:35:14Z</time>
      </trkpt>
      <trkpt lat="42.82528" lon="0.25671">
        <ele>1612.2</ele>
        <time>2022-01-09T08:35:15Z</time>
      </trkpt>
      <trkpt lat="42.82528" lon="0.25669">
        <ele>1612.6</ele>
        <time>2022-01-09T08:35:16Z</time>
      </trkpt>
      <trkpt lat="42.82528" lon="0.25667">
        <ele>1613</ele>
        <time>2022-01-09T08:35:17Z</time>
      </trkpt>
      <trkpt lat="42.82528" lon="0.25664">
        <ele>1613.6</ele>
        <time>2022-01-09T08:35:18Z</time>
      </trkpt>
      <trkpt lat="42.82528" lon="0.25662">
        <ele>1614.2</ele>
        <time>2022-01-09T08:35:19Z</time>
      </trkpt>
      <trkpt lat="42.82528" lon="0.2566">
        <ele>1614.4</ele>
        <time>2022-01-09T08:35:20Z</time>
      </trkpt>
      <trkpt lat="42.82528" lon="0.25658">
        <ele>1614.6</ele>
        <time>2022-01-09T08:35:21Z</time>
      </trkpt>
      <trkpt lat="42.82528" lon="0.25656">
        <ele>1614.8</ele>
        <time>2022-01-09T08:35:22Z</time>
      </trkpt>
      <trkpt lat="42.82528" lon="0.25654">
        <ele>1614.8</ele>
        <time>2022-01-09T08:35:23Z</time>
      </trkpt>
      <trkpt lat="42.82529" lon="0.25651">
        <ele>1615</ele>
        <time>2022-01-09T08:35:24Z</time>
      </trkpt>
      <trkpt lat="42.82529" lon="0.25649">
        <ele>1615.2</ele>
        <time>2022-01-09T08:35:25Z</time>
      </trkpt>
      <trkpt lat="42.82529" lon="0.25647">
        <ele>1615.2</ele>
        <time>2022-01-09T08:35:26Z</time>
      </trkpt>
      <trkpt lat="42.8253" lon="0.25645">
        <ele>1615.6</ele>
        <time>2022-01-09T08:35:27Z</time>
      </trkpt>
      <trkpt lat="42.8253" lon="0.25643">
        <ele>1616</ele>
        <time>2022-01-09T08:35:28Z</time>
      </trkpt>
      <trkpt lat="42.82531" lon="0.25641">
        <ele>1616.2</ele>
        <time>2022-01-09T08:35:29Z</time>
      </trkpt>
      <trkpt lat="42.82531" lon="0.25639">
        <ele>1616.4</ele>
        <time>2022-01-09T08:35:30Z</time>
      </trkpt>
      <trkpt lat="42.82532" lon="0.25637">
        <ele>1616.8</ele>
        <time>2022-01-09T08:35:31Z</time>
      </trkpt>
      <trkpt lat="42.82532" lon="0.25636">
        <ele>1617.2</ele>
        <time>2022-01-09T08:35:32Z</time>
      </trkpt>
      <trkpt lat="42.82533" lon="0.25634">
        <ele>1617.6</ele>
        <time>2022-01-09T08:35:33Z</time>
      </trkpt>
      <trkpt lat="42.82533" lon="0.25632">
        <ele>1617.8</ele>
        <time>2022-01-09T08:35:34Z</time>
      </trkpt>
      <trkpt lat="42.82533" lon="0.2563">
        <ele>1618.2</ele>
        <time>2022-01-09T08:35:35Z</time>
      </trkpt>
      <trkpt lat="42.82532" lon="0.25628">
        <ele>1618.8</ele>
        <time>2022-01-09T08:35:36Z</time>
      </trkpt>
      <trkpt lat="42.82532" lon="0.25627">
        <ele>1618.8</ele>
        <time>2022-01-09T08:35:37Z</time>
      </trkpt>
      <trkpt lat="42.82531" lon="0.25625">
        <ele>1619</ele>
        <time>2022-01-09T08:35:38Z</time>
      </trkpt>
      <trkpt lat="42.82531" lon="0.25623">
        <ele>1619.4</ele>
        <time>2022-01-09T08:35:39Z</time>
      </trkpt>
      <trkpt lat="42.82531" lon="0.25621">
        <ele>1619.6</ele>
        <time>2022-01-09T08:35:40Z</time>
      </trkpt>
      <trkpt lat="42.8253" lon="0.2562">
        <ele>1620</ele>
        <time>2022-01-09T08:35:41Z</time>
      </trkpt>
      <trkpt lat="42.82529" lon="0.25619">
        <ele>1620.4</ele>
        <time>2022-01-09T08:35:42Z</time>
      </trkpt>
      <trkpt lat="42.82528" lon="0.25618">
        <ele>1620.8</ele>
        <time>2022-01-09T08:35:43Z</time>
      </trkpt>
      <trkpt lat="42.82528" lon="0.25617">
        <ele>1621.2</ele>
        <time>2022-01-09T08:35:44Z</time>
      </trkpt>
      <trkpt lat="42.82527" lon="0.25616">
        <ele>1621.4</ele>
        <time>2022-01-09T08:35:45Z</time>
      </trkpt>
      <trkpt lat="42.82526" lon="0.25615">
        <ele>1621.8</ele>
        <time>2022-01-09T08:35:46Z</time>
      </trkpt>
      <trkpt lat="42.82525" lon="0.25614">
        <ele>1622.2</ele>
        <time>2022-01-09T08:35:47Z</time>
      </trkpt>
      <trkpt lat="42.82524" lon="0.25614">
        <ele>1622.6</ele>
        <time>2022-01-09T08:35:48Z</time>
      </trkpt>
      <trkpt lat="42.82523" lon="0.25613">
        <ele>1622.8</ele>
        <time>2022-01-09T08:35:49Z</time>
      </trkpt>
      <trkpt lat="42.82523" lon="0.25612">
        <ele>1623</ele>
        <time>2022-01-09T08:35:50Z</time>
      </trkpt>
      <trkpt lat="42.82521" lon="0.25612">
        <ele>1623.2</ele>
        <time>2022-01-09T08:35:51Z</time>
      </trkpt>
      <trkpt lat="42.8252" lon="0.25612">
        <ele>1623.6</ele>
        <time>2022-01-09T08:35:52Z</time>
      </trkpt>
      <trkpt lat="42.82519" lon="0.25612">
        <ele>1623.8</ele>
        <time>2022-01-09T08:35:53Z</time>
      </trkpt>
      <trkpt lat="42.82517" lon="0.25612">
        <ele>1624</ele>
        <time>2022-01-09T08:35:54Z</time>
      </trkpt>
      <trkpt lat="42.82517" lon="0.25612">
        <ele>1624.6</ele>
        <time>2022-01-09T08:35:55Z</time>
      </trkpt>
      <trkpt lat="42.82514" lon="0.25611">
        <ele>1625.2</ele>
        <time>2022-01-09T08:35:56Z</time>
      </trkpt>
      <trkpt lat="42.82514" lon="0.25611">
        <ele>1625.2</ele>
        <time>2022-01-09T08:35:57Z</time>
      </trkpt>
      <trkpt lat="42.82512" lon="0.2561">
        <ele>1625.8</ele>
        <time>2022-01-09T08:35:58Z</time>
      </trkpt>
      <trkpt lat="42.8251" lon="0.2561">
        <ele>1626</ele>
        <time>2022-01-09T08:35:59Z</time>
      </trkpt>
      <trkpt lat="42.82509" lon="0.2561">
        <ele>1626.4</ele>
        <time>2022-01-09T08:36:00Z</time>
      </trkpt>
      <trkpt lat="42.82508" lon="0.2561">
        <ele>1626.6</ele>
        <time>2022-01-09T08:36:01Z</time>
      </trkpt>
      <trkpt lat="42.82507" lon="0.2561">
        <ele>1627</ele>
        <time>2022-01-09T08:36:02Z</time>
      </trkpt>
      <trkpt lat="42.82507" lon="0.2561">
        <ele>1627.2</ele>
        <time>2022-01-09T08:36:03Z</time>
      </trkpt>
      <trkpt lat="42.82507" lon="0.2561">
        <ele>1627.8</ele>
        <time>2022-01-09T08:36:04Z</time>
      </trkpt>
      <trkpt lat="42.82504" lon="0.25608">
        <ele>1628.2</ele>
        <time>2022-01-09T08:36:05Z</time>
      </trkpt>
      <trkpt lat="42.82504" lon="0.25608">
        <ele>1628.8</ele>
        <time>2022-01-09T08:36:06Z</time>
      </trkpt>
      <trkpt lat="42.82503" lon="0.25605">
        <ele>1629.2</ele>
        <time>2022-01-09T08:36:07Z</time>
      </trkpt>
      <trkpt lat="42.82503" lon="0.25604">
        <ele>1629.4</ele>
        <time>2022-01-09T08:36:08Z</time>
      </trkpt>
      <trkpt lat="42.82503" lon="0.25602">
        <ele>1629.8</ele>
        <time>2022-01-09T08:36:09Z</time>
      </trkpt>
      <trkpt lat="42.82503" lon="0.256">
        <ele>1630.2</ele>
        <time>2022-01-09T08:36:10Z</time>
      </trkpt>
      <trkpt lat="42.82503" lon="0.25599">
        <ele>1630.4</ele>
        <time>2022-01-09T08:36:11Z</time>
      </trkpt>
      <trkpt lat="42.82504" lon="0.25597">
        <ele>1630.8</ele>
        <time>2022-01-09T08:36:12Z</time>
      </trkpt>
      <trkpt lat="42.82504" lon="0.25596">
        <ele>1630.8</ele>
        <time>2022-01-09T08:36:13Z</time>
      </trkpt>
      <trkpt lat="42.82504" lon="0.25594">
        <ele>1631.4</ele>
        <time>2022-01-09T08:36:14Z</time>
      </trkpt>
      <trkpt lat="42.82504" lon="0.25592">
        <ele>1631.8</ele>
        <time>2022-01-09T08:36:15Z</time>
      </trkpt>
      <trkpt lat="42.82505" lon="0.25591">
        <ele>1632</ele>
        <time>2022-01-09T08:36:16Z</time>
      </trkpt>
      <trkpt lat="42.82505" lon="0.25589">
        <ele>1632.2</ele>
        <time>2022-01-09T08:36:17Z</time>
      </trkpt>
      <trkpt lat="42.82506" lon="0.25588">
        <ele>1632.6</ele>
        <time>2022-01-09T08:36:18Z</time>
      </trkpt>
      <trkpt lat="42.82507" lon="0.25586">
        <ele>1632.6</ele>
        <time>2022-01-09T08:36:19Z</time>
      </trkpt>
      <trkpt lat="42.82508" lon="0.25585">
        <ele>1633.2</ele>
        <time>2022-01-09T08:36:20Z</time>
      </trkpt>
      <trkpt lat="42.82509" lon="0.25583">
        <ele>1633.4</ele>
        <time>2022-01-09T08:36:21Z</time>
      </trkpt>
      <trkpt lat="42.82509" lon="0.25582">
        <ele>1633.4</ele>
        <time>2022-01-09T08:36:22Z</time>
      </trkpt>
      <trkpt lat="42.8251" lon="0.2558">
        <ele>1633.8</ele>
        <time>2022-01-09T08:36:23Z</time>
      </trkpt>
      <trkpt lat="42.8251" lon="0.25578">
        <ele>1634</ele>
        <time>2022-01-09T08:36:24Z</time>
      </trkpt>
      <trkpt lat="42.82511" lon="0.25577">
        <ele>1634.2</ele>
        <time>2022-01-09T08:36:25Z</time>
      </trkpt>
      <trkpt lat="42.82511" lon="0.25575">
        <ele>1634.4</ele>
        <time>2022-01-09T08:36:26Z</time>
      </trkpt>
      <trkpt lat="42.82511" lon="0.25573">
        <ele>1634.8</ele>
        <time>2022-01-09T08:36:27Z</time>
      </trkpt>
      <trkpt lat="42.82512" lon="0.25571">
        <ele>1635.2</ele>
        <time>2022-01-09T08:36:28Z</time>
      </trkpt>
      <trkpt lat="42.82512" lon="0.2557">
        <ele>1635.6</ele>
        <time>2022-01-09T08:36:29Z</time>
      </trkpt>
      <trkpt lat="42.82511" lon="0.25569">
        <ele>1635.8</ele>
        <time>2022-01-09T08:36:30Z</time>
      </trkpt>
      <trkpt lat="42.8251" lon="0.25569">
        <ele>1636.2</ele>
        <time>2022-01-09T08:36:31Z</time>
      </trkpt>
      <trkpt lat="42.8251" lon="0.25568">
        <ele>1636.6</ele>
        <time>2022-01-09T08:36:32Z</time>
      </trkpt>
      <trkpt lat="42.82509" lon="0.25567">
        <ele>1636.8</ele>
        <time>2022-01-09T08:36:33Z</time>
      </trkpt>
      <trkpt lat="42.82508" lon="0.25567">
        <ele>1637.2</ele>
        <time>2022-01-09T08:36:34Z</time>
      </trkpt>
      <trkpt lat="42.82507" lon="0.25566">
        <ele>1637.6</ele>
        <time>2022-01-09T08:36:35Z</time>
      </trkpt>
      <trkpt lat="42.82506" lon="0.25566">
        <ele>1638</ele>
        <time>2022-01-09T08:36:36Z</time>
      </trkpt>
      <trkpt lat="42.82505" lon="0.25565">
        <ele>1638.2</ele>
        <time>2022-01-09T08:36:37Z</time>
      </trkpt>
      <trkpt lat="42.82504" lon="0.25564">
        <ele>1638.6</ele>
        <time>2022-01-09T08:36:38Z</time>
      </trkpt>
      <trkpt lat="42.82503" lon="0.25565">
        <ele>1638.8</ele>
        <time>2022-01-09T08:36:39Z</time>
      </trkpt>
      <trkpt lat="42.82502" lon="0.25566">
        <ele>1639.2</ele>
        <time>2022-01-09T08:36:40Z</time>
      </trkpt>
      <trkpt lat="42.82502" lon="0.25567">
        <ele>1639.4</ele>
        <time>2022-01-09T08:36:41Z</time>
      </trkpt>
      <trkpt lat="42.82501" lon="0.25568">
        <ele>1639.6</ele>
        <time>2022-01-09T08:36:42Z</time>
      </trkpt>
      <trkpt lat="42.825" lon="0.25569">
        <ele>1640.2</ele>
        <time>2022-01-09T08:36:43Z</time>
      </trkpt>
      <trkpt lat="42.825" lon="0.25569">
        <ele>1640.4</ele>
        <time>2022-01-09T08:36:44Z</time>
      </trkpt>
      <trkpt lat="42.82498" lon="0.25569">
        <ele>1641</ele>
        <time>2022-01-09T08:36:45Z</time>
      </trkpt>
      <trkpt lat="42.82498" lon="0.25569">
        <ele>1641.4</ele>
        <time>2022-01-09T08:36:46Z</time>
      </trkpt>
      <trkpt lat="42.82496" lon="0.25568">
        <ele>1641.8</ele>
        <time>2022-01-09T08:36:47Z</time>
      </trkpt>
      <trkpt lat="42.82496" lon="0.25568">
        <ele>1642</ele>
        <time>2022-01-09T08:36:48Z</time>
      </trkpt>
      <trkpt lat="42.82495" lon="0.25565">
        <ele>1642.4</ele>
        <time>2022-01-09T08:36:49Z</time>
      </trkpt>
      <trkpt lat="42.82495" lon="0.25565">
        <ele>1642.8</ele>
        <time>2022-01-09T08:36:50Z</time>
      </trkpt>
      <trkpt lat="42.82495" lon="0.25562">
        <ele>1643</ele>
        <time>2022-01-09T08:36:51Z</time>
      </trkpt>
      <trkpt lat="42.82495" lon="0.25562">
        <ele>1643.2</ele>
        <time>2022-01-09T08:36:52Z</time>
      </trkpt>
      <trkpt lat="42.82495" lon="0.25562">
        <ele>1643.6</ele>
        <time>2022-01-09T08:36:53Z</time>
      </trkpt>
      <trkpt lat="42.82495" lon="0.25558">
        <ele>1644</ele>
        <time>2022-01-09T08:36:54Z</time>
      </trkpt>
      <trkpt lat="42.82496" lon="0.25556">
        <ele>1644.4</ele>
        <time>2022-01-09T08:36:55Z</time>
      </trkpt>
      <trkpt lat="42.82496" lon="0.25556">
        <ele>1644.8</ele>
        <time>2022-01-09T08:36:56Z</time>
      </trkpt>
      <trkpt lat="42.82498" lon="0.25552">
        <ele>1645</ele>
        <time>2022-01-09T08:36:57Z</time>
      </trkpt>
      <trkpt lat="42.82499" lon="0.2555">
        <ele>1645.2</ele>
        <time>2022-01-09T08:36:58Z</time>
      </trkpt>
      <trkpt lat="42.82499" lon="0.25549">
        <ele>1645.6</ele>
        <time>2022-01-09T08:36:59Z</time>
      </trkpt>
      <trkpt lat="42.825" lon="0.25547">
        <ele>1646</ele>
        <time>2022-01-09T08:37:00Z</time>
      </trkpt>
      <trkpt lat="42.825" lon="0.25545">
        <ele>1646.6</ele>
        <time>2022-01-09T08:37:01Z</time>
      </trkpt>
      <trkpt lat="42.82501" lon="0.25544">
        <ele>1647.4</ele>
        <time>2022-01-09T08:37:02Z</time>
      </trkpt>
      <trkpt lat="42.82501" lon="0.25542">
        <ele>1648</ele>
        <time>2022-01-09T08:37:03Z</time>
      </trkpt>
      <trkpt lat="42.82502" lon="0.2554">
        <ele>1648.2</ele>
        <time>2022-01-09T08:37:04Z</time>
      </trkpt>
      <trkpt lat="42.82502" lon="0.25539">
        <ele>1648.8</ele>
        <time>2022-01-09T08:37:05Z</time>
      </trkpt>
      <trkpt lat="42.82502" lon="0.25538">
        <ele>1649</ele>
        <time>2022-01-09T08:37:06Z</time>
      </trkpt>
      <trkpt lat="42.82502" lon="0.25536">
        <ele>1649.6</ele>
        <time>2022-01-09T08:37:07Z</time>
      </trkpt>
      <trkpt lat="42.82503" lon="0.25535">
        <ele>1650</ele>
        <time>2022-01-09T08:37:08Z</time>
      </trkpt>
      <trkpt lat="42.82503" lon="0.25533">
        <ele>1650.2</ele>
        <time>2022-01-09T08:37:09Z</time>
      </trkpt>
      <trkpt lat="42.82503" lon="0.25532">
        <ele>1650.6</ele>
        <time>2022-01-09T08:37:10Z</time>
      </trkpt>
      <trkpt lat="42.82503" lon="0.2553">
        <ele>1650.8</ele>
        <time>2022-01-09T08:37:11Z</time>
      </trkpt>
      <trkpt lat="42.82503" lon="0.25529">
        <ele>1651.2</ele>
        <time>2022-01-09T08:37:12Z</time>
      </trkpt>
      <trkpt lat="42.82503" lon="0.25527">
        <ele>1651.6</ele>
        <time>2022-01-09T08:37:13Z</time>
      </trkpt>
      <trkpt lat="42.82503" lon="0.25526">
        <ele>1652</ele>
        <time>2022-01-09T08:37:14Z</time>
      </trkpt>
      <trkpt lat="42.82503" lon="0.25524">
        <ele>1652.4</ele>
        <time>2022-01-09T08:37:15Z</time>
      </trkpt>
      <trkpt lat="42.82504" lon="0.25523">
        <ele>1652.8</ele>
        <time>2022-01-09T08:37:16Z</time>
      </trkpt>
      <trkpt lat="42.82504" lon="0.25522">
        <ele>1653.2</ele>
        <time>2022-01-09T08:37:17Z</time>
      </trkpt>
      <trkpt lat="42.82504" lon="0.2552">
        <ele>1653.8</ele>
        <time>2022-01-09T08:37:18Z</time>
      </trkpt>
      <trkpt lat="42.82504" lon="0.25519">
        <ele>1654.2</ele>
        <time>2022-01-09T08:37:19Z</time>
      </trkpt>
      <trkpt lat="42.82504" lon="0.25517">
        <ele>1654.6</ele>
        <time>2022-01-09T08:37:20Z</time>
      </trkpt>
      <trkpt lat="42.82504" lon="0.25516">
        <ele>1655</ele>
        <time>2022-01-09T08:37:21Z</time>
      </trkpt>
      <trkpt lat="42.82504" lon="0.25514">
        <ele>1655.6</ele>
        <time>2022-01-09T08:37:22Z</time>
      </trkpt>
      <trkpt lat="42.82504" lon="0.25513">
        <ele>1656</ele>
        <time>2022-01-09T08:37:23Z</time>
      </trkpt>
      <trkpt lat="42.82503" lon="0.25512">
        <ele>1656.2</ele>
        <time>2022-01-09T08:37:24Z</time>
      </trkpt>
      <trkpt lat="42.82503" lon="0.2551">
        <ele>1656.4</ele>
        <time>2022-01-09T08:37:25Z</time>
      </trkpt>
      <trkpt lat="42.82503" lon="0.25509">
        <ele>1656.8</ele>
        <time>2022-01-09T08:37:26Z</time>
      </trkpt>
      <trkpt lat="42.82503" lon="0.25507">
        <ele>1657.2</ele>
        <time>2022-01-09T08:37:27Z</time>
      </trkpt>
      <trkpt lat="42.82502" lon="0.25506">
        <ele>1657.4</ele>
        <time>2022-01-09T08:37:28Z</time>
      </trkpt>
      <trkpt lat="42.82502" lon="0.25505">
        <ele>1658</ele>
        <time>2022-01-09T08:37:29Z</time>
      </trkpt>
      <trkpt lat="42.82502" lon="0.25503">
        <ele>1658.4</ele>
        <time>2022-01-09T08:37:30Z</time>
      </trkpt>
      <trkpt lat="42.82502" lon="0.25502">
        <ele>1658.8</ele>
        <time>2022-01-09T08:37:31Z</time>
      </trkpt>
      <trkpt lat="42.82502" lon="0.255">
        <ele>1659.6</ele>
        <time>2022-01-09T08:37:32Z</time>
      </trkpt>
      <trkpt lat="42.82501" lon="0.25499">
        <ele>1660</ele>
        <time>2022-01-09T08:37:33Z</time>
      </trkpt>
      <trkpt lat="42.82501" lon="0.25498">
        <ele>1660.4</ele>
        <time>2022-01-09T08:37:34Z</time>
      </trkpt>
      <trkpt lat="42.82501" lon="0.25497">
        <ele>1661</ele>
        <time>2022-01-09T08:37:35Z</time>
      </trkpt>
      <trkpt lat="42.82501" lon="0.25495">
        <ele>1661.4</ele>
        <time>2022-01-09T08:37:36Z</time>
      </trkpt>
      <trkpt lat="42.82501" lon="0.25494">
        <ele>1661.6</ele>
        <time>2022-01-09T08:37:37Z</time>
      </trkpt>
      <trkpt lat="42.82501" lon="0.25493">
        <ele>1662</ele>
        <time>2022-01-09T08:37:38Z</time>
      </trkpt>
      <trkpt lat="42.825" lon="0.25492">
        <ele>1662</ele>
        <time>2022-01-09T08:37:39Z</time>
      </trkpt>
      <trkpt lat="42.825" lon="0.2549">
        <ele>1662.4</ele>
        <time>2022-01-09T08:37:40Z</time>
      </trkpt>
      <trkpt lat="42.825" lon="0.25489">
        <ele>1662.6</ele>
        <time>2022-01-09T08:37:41Z</time>
      </trkpt>
      <trkpt lat="42.82499" lon="0.25489">
        <ele>1663.2</ele>
        <time>2022-01-09T08:37:42Z</time>
      </trkpt>
      <trkpt lat="42.82498" lon="0.25489">
        <ele>1663.2</ele>
        <time>2022-01-09T08:37:43Z</time>
      </trkpt>
      <trkpt lat="42.82497" lon="0.25488">
        <ele>1663.8</ele>
        <time>2022-01-09T08:37:44Z</time>
      </trkpt>
      <trkpt lat="42.82496" lon="0.25488">
        <ele>1664.2</ele>
        <time>2022-01-09T08:37:45Z</time>
      </trkpt>
      <trkpt lat="42.82495" lon="0.25488">
        <ele>1664.6</ele>
        <time>2022-01-09T08:37:46Z</time>
      </trkpt>
      <trkpt lat="42.82494" lon="0.25488">
        <ele>1664.8</ele>
        <time>2022-01-09T08:37:47Z</time>
      </trkpt>
      <trkpt lat="42.82493" lon="0.25487">
        <ele>1665.2</ele>
        <time>2022-01-09T08:37:48Z</time>
      </trkpt>
      <trkpt lat="42.82492" lon="0.25487">
        <ele>1665.6</ele>
        <time>2022-01-09T08:37:49Z</time>
      </trkpt>
      <trkpt lat="42.82491" lon="0.25487">
        <ele>1665.8</ele>
        <time>2022-01-09T08:37:50Z</time>
      </trkpt>
      <trkpt lat="42.8249" lon="0.25487">
        <ele>1666.2</ele>
        <time>2022-01-09T08:37:51Z</time>
      </trkpt>
      <trkpt lat="42.82489" lon="0.25486">
        <ele>1666.6</ele>
        <time>2022-01-09T08:37:52Z</time>
      </trkpt>
      <trkpt lat="42.82488" lon="0.25486">
        <ele>1666.8</ele>
        <time>2022-01-09T08:37:53Z</time>
      </trkpt>
      <trkpt lat="42.82486" lon="0.25486">
        <ele>1667.4</ele>
        <time>2022-01-09T08:37:54Z</time>
      </trkpt>
      <trkpt lat="42.82485" lon="0.25485">
        <ele>1667.8</ele>
        <time>2022-01-09T08:37:55Z</time>
      </trkpt>
      <trkpt lat="42.82484" lon="0.25485">
        <ele>1668.2</ele>
        <time>2022-01-09T08:37:56Z</time>
      </trkpt>
      <trkpt lat="42.82482" lon="0.25485">
        <ele>1668.8</ele>
        <time>2022-01-09T08:37:57Z</time>
      </trkpt>
      <trkpt lat="42.82481" lon="0.25484">
        <ele>1669</ele>
        <time>2022-01-09T08:37:58Z</time>
      </trkpt>
      <trkpt lat="42.82479" lon="0.25485">
        <ele>1669.6</ele>
        <time>2022-01-09T08:37:59Z</time>
      </trkpt>
      <trkpt lat="42.82478" lon="0.25485">
        <ele>1669.8</ele>
        <time>2022-01-09T08:38:00Z</time>
      </trkpt>
      <trkpt lat="42.82477" lon="0.25485">
        <ele>1670.4</ele>
        <time>2022-01-09T08:38:01Z</time>
      </trkpt>
      <trkpt lat="42.82475" lon="0.25486">
        <ele>1670.8</ele>
        <time>2022-01-09T08:38:02Z</time>
      </trkpt>
      <trkpt lat="42.82474" lon="0.25486">
        <ele>1671</ele>
        <time>2022-01-09T08:38:03Z</time>
      </trkpt>
      <trkpt lat="42.82473" lon="0.25486">
        <ele>1671.4</ele>
        <time>2022-01-09T08:38:04Z</time>
      </trkpt>
      <trkpt lat="42.82471" lon="0.25487">
        <ele>1671.6</ele>
        <time>2022-01-09T08:38:05Z</time>
      </trkpt>
      <trkpt lat="42.82471" lon="0.25486">
        <ele>1672.2</ele>
        <time>2022-01-09T08:38:06Z</time>
      </trkpt>
      <trkpt lat="42.82471" lon="0.25485">
        <ele>1672.4</ele>
        <time>2022-01-09T08:38:07Z</time>
      </trkpt>
      <trkpt lat="42.82471" lon="0.25484">
        <ele>1672.8</ele>
        <time>2022-01-09T08:38:08Z</time>
      </trkpt>
      <trkpt lat="42.82472" lon="0.25483">
        <ele>1673.2</ele>
        <time>2022-01-09T08:38:09Z</time>
      </trkpt>
      <trkpt lat="42.82472" lon="0.25483">
        <ele>1674</ele>
        <time>2022-01-09T08:38:10Z</time>
      </trkpt>
      <trkpt lat="42.82472" lon="0.25482">
        <ele>1674.4</ele>
        <time>2022-01-09T08:38:11Z</time>
      </trkpt>
      <trkpt lat="42.82472" lon="0.25481">
        <ele>1674.8</ele>
        <time>2022-01-09T08:38:12Z</time>
      </trkpt>
      <trkpt lat="42.82472" lon="0.2548">
        <ele>1675.4</ele>
        <time>2022-01-09T08:38:13Z</time>
      </trkpt>
      <trkpt lat="42.82472" lon="0.25479">
        <ele>1675.4</ele>
        <time>2022-01-09T08:38:14Z</time>
      </trkpt>
      <trkpt lat="42.82472" lon="0.25478">
        <ele>1675.8</ele>
        <time>2022-01-09T08:38:15Z</time>
      </trkpt>
      <trkpt lat="42.82472" lon="0.25477">
        <ele>1676.2</ele>
        <time>2022-01-09T08:38:16Z</time>
      </trkpt>
      <trkpt lat="42.82472" lon="0.25477">
        <ele>1676.2</ele>
        <time>2022-01-09T08:38:17Z</time>
      </trkpt>
      <trkpt lat="42.82473" lon="0.25476">
        <ele>1676.6</ele>
        <time>2022-01-09T08:38:18Z</time>
      </trkpt>
      <trkpt lat="42.82473" lon="0.25475">
        <ele>1677</ele>
        <time>2022-01-09T08:38:19Z</time>
      </trkpt>
      <trkpt lat="42.82473" lon="0.25474">
        <ele>1677.2</ele>
        <time>2022-01-09T08:38:20Z</time>
      </trkpt>
      <trkpt lat="42.82473" lon="0.25473">
        <ele>1677.4</ele>
        <time>2022-01-09T08:38:21Z</time>
      </trkpt>
      <trkpt lat="42.82472" lon="0.25473">
        <ele>1677.8</ele>
        <time>2022-01-09T08:38:22Z</time>
      </trkpt>
      <trkpt lat="42.82472" lon="0.25472">
        <ele>1678.2</ele>
        <time>2022-01-09T08:38:23Z</time>
      </trkpt>
      <trkpt lat="42.82471" lon="0.25472">
        <ele>1678.2</ele>
        <time>2022-01-09T08:38:24Z</time>
      </trkpt>
      <trkpt lat="42.82471" lon="0.25472">
        <ele>1678.4</ele>
        <time>2022-01-09T08:38:25Z</time>
      </trkpt>
      <trkpt lat="42.8247" lon="0.25471">
        <ele>1679.2</ele>
        <time>2022-01-09T08:38:26Z</time>
      </trkpt>
      <trkpt lat="42.8247" lon="0.25471">
        <ele>1679.2</ele>
        <time>2022-01-09T08:38:27Z</time>
      </trkpt>
      <trkpt lat="42.82469" lon="0.25471">
        <ele>1679.8</ele>
        <time>2022-01-09T08:38:28Z</time>
      </trkpt>
      <trkpt lat="42.82469" lon="0.2547">
        <ele>1680</ele>
        <time>2022-01-09T08:38:29Z</time>
      </trkpt>
      <trkpt lat="42.82468" lon="0.2547">
        <ele>1680.2</ele>
        <time>2022-01-09T08:38:30Z</time>
      </trkpt>
      <trkpt lat="42.82462" lon="0.25466">
        <ele>1680.6</ele>
        <time>2022-01-09T08:38:31Z</time>
      </trkpt>
      <trkpt lat="42.8246" lon="0.25467">
        <ele>1681.2</ele>
        <time>2022-01-09T08:38:32Z</time>
      </trkpt>
      <trkpt lat="42.82458" lon="0.25467">
        <ele>1681.6</ele>
        <time>2022-01-09T08:38:33Z</time>
      </trkpt>
      <trkpt lat="42.82457" lon="0.25467">
        <ele>1682</ele>
        <time>2022-01-09T08:38:34Z</time>
      </trkpt>
      <trkpt lat="42.82455" lon="0.25467">
        <ele>1682.4</ele>
        <time>2022-01-09T08:38:35Z</time>
      </trkpt>
      <trkpt lat="42.82454" lon="0.25468">
        <ele>1682.8</ele>
        <time>2022-01-09T08:38:36Z</time>
      </trkpt>
      <trkpt lat="42.82452" lon="0.25468">
        <ele>1682.8</ele>
        <time>2022-01-09T08:38:37Z</time>
      </trkpt>
      <trkpt lat="42.8245" lon="0.25469">
        <ele>1683.4</ele>
        <time>2022-01-09T08:38:38Z</time>
      </trkpt>
      <trkpt lat="42.82449" lon="0.2547">
        <ele>1683.6</ele>
        <time>2022-01-09T08:38:39Z</time>
      </trkpt>
      <trkpt lat="42.82447" lon="0.25471">
        <ele>1684</ele>
        <time>2022-01-09T08:38:40Z</time>
      </trkpt>
      <trkpt lat="42.82446" lon="0.25471">
        <ele>1684.4</ele>
        <time>2022-01-09T08:38:41Z</time>
      </trkpt>
      <trkpt lat="42.82444" lon="0.25472">
        <ele>1684.6</ele>
        <time>2022-01-09T08:38:42Z</time>
      </trkpt>
      <trkpt lat="42.82443" lon="0.25473">
        <ele>1685</ele>
        <time>2022-01-09T08:38:43Z</time>
      </trkpt>
      <trkpt lat="42.82442" lon="0.25474">
        <ele>1685</ele>
        <time>2022-01-09T08:38:44Z</time>
      </trkpt>
      <trkpt lat="42.82442" lon="0.25475">
        <ele>1685.6</ele>
        <time>2022-01-09T08:38:45Z</time>
      </trkpt>
      <trkpt lat="42.82441" lon="0.25476">
        <ele>1686</ele>
        <time>2022-01-09T08:38:46Z</time>
      </trkpt>
      <trkpt lat="42.8244" lon="0.25477">
        <ele>1686</ele>
        <time>2022-01-09T08:38:47Z</time>
      </trkpt>
      <trkpt lat="42.8244" lon="0.25478">
        <ele>1686.4</ele>
        <time>2022-01-09T08:38:48Z</time>
      </trkpt>
      <trkpt lat="42.82439" lon="0.25479">
        <ele>1686.8</ele>
        <time>2022-01-09T08:38:49Z</time>
      </trkpt>
      <trkpt lat="42.82438" lon="0.2548">
        <ele>1687.2</ele>
        <time>2022-01-09T08:38:50Z</time>
      </trkpt>
      <trkpt lat="42.82437" lon="0.25481">
        <ele>1687.6</ele>
        <time>2022-01-09T08:38:51Z</time>
      </trkpt>
      <trkpt lat="42.82437" lon="0.25482">
        <ele>1687.8</ele>
        <time>2022-01-09T08:38:52Z</time>
      </trkpt>
      <trkpt lat="42.82436" lon="0.25483">
        <ele>1688.4</ele>
        <time>2022-01-09T08:38:53Z</time>
      </trkpt>
      <trkpt lat="42.82436" lon="0.25484">
        <ele>1688.6</ele>
        <time>2022-01-09T08:38:54Z</time>
      </trkpt>
      <trkpt lat="42.82436" lon="0.25485">
        <ele>1689</ele>
        <time>2022-01-09T08:38:55Z</time>
      </trkpt>
      <trkpt lat="42.82435" lon="0.25486">
        <ele>1689.4</ele>
        <time>2022-01-09T08:38:56Z</time>
      </trkpt>
      <trkpt lat="42.82435" lon="0.25488">
        <ele>1689.8</ele>
        <time>2022-01-09T08:38:57Z</time>
      </trkpt>
      <trkpt lat="42.82434" lon="0.25489">
        <ele>1690.2</ele>
        <time>2022-01-09T08:38:58Z</time>
      </trkpt>
      <trkpt lat="42.82434" lon="0.2549">
        <ele>1690.4</ele>
        <time>2022-01-09T08:38:59Z</time>
      </trkpt>
      <trkpt lat="42.82433" lon="0.25491">
        <ele>1691</ele>
        <time>2022-01-09T08:39:00Z</time>
      </trkpt>
      <trkpt lat="42.82433" lon="0.25492">
        <ele>1691.2</ele>
        <time>2022-01-09T08:39:01Z</time>
      </trkpt>
      <trkpt lat="42.82433" lon="0.25494">
        <ele>1691.2</ele>
        <time>2022-01-09T08:39:02Z</time>
      </trkpt>
      <trkpt lat="42.82434" lon="0.25497">
        <ele>1691.4</ele>
        <time>2022-01-09T08:39:03Z</time>
      </trkpt>
      <trkpt lat="42.82435" lon="0.25499">
        <ele>1691.8</ele>
        <time>2022-01-09T08:39:04Z</time>
      </trkpt>
      <trkpt lat="42.82436" lon="0.25501">
        <ele>1692.2</ele>
        <time>2022-01-09T08:39:05Z</time>
      </trkpt>
      <trkpt lat="42.82436" lon="0.25504">
        <ele>1692.6</ele>
        <time>2022-01-09T08:39:06Z</time>
      </trkpt>
      <trkpt lat="42.82436" lon="0.25505">
        <ele>1692.8</ele>
        <time>2022-01-09T08:39:07Z</time>
      </trkpt>
      <trkpt lat="42.82436" lon="0.25506">
        <ele>1693.2</ele>
        <time>2022-01-09T08:39:08Z</time>
      </trkpt>
      <trkpt lat="42.82436" lon="0.25507">
        <ele>1693.4</ele>
        <time>2022-01-09T08:39:09Z</time>
      </trkpt>
      <trkpt lat="42.82436" lon="0.25508">
        <ele>1693.8</ele>
        <time>2022-01-09T08:39:10Z</time>
      </trkpt>
      <trkpt lat="42.82436" lon="0.25509">
        <ele>1694.4</ele>
        <time>2022-01-09T08:39:11Z</time>
      </trkpt>
      <trkpt lat="42.82435" lon="0.25511">
        <ele>1694.6</ele>
        <time>2022-01-09T08:39:12Z</time>
      </trkpt>
      <trkpt lat="42.82435" lon="0.25512">
        <ele>1694.8</ele>
        <time>2022-01-09T08:39:13Z</time>
      </trkpt>
      <trkpt lat="42.82435" lon="0.25513">
        <ele>1695.2</ele>
        <time>2022-01-09T08:39:14Z</time>
      </trkpt>
      <trkpt lat="42.82435" lon="0.25514">
        <ele>1695.6</ele>
        <time>2022-01-09T08:39:15Z</time>
      </trkpt>
      <trkpt lat="42.82435" lon="0.25515">
        <ele>1695.8</ele>
        <time>2022-01-09T08:39:16Z</time>
      </trkpt>
      <trkpt lat="42.82435" lon="0.25516">
        <ele>1696.4</ele>
        <time>2022-01-09T08:39:17Z</time>
      </trkpt>
      <trkpt lat="42.82434" lon="0.25517">
        <ele>1696.6</ele>
        <time>2022-01-09T08:39:18Z</time>
      </trkpt>
      <trkpt lat="42.82433" lon="0.25518">
        <ele>1696.8</ele>
        <time>2022-01-09T08:39:19Z</time>
      </trkpt>
      <trkpt lat="42.82433" lon="0.25519">
        <ele>1697.2</ele>
        <time>2022-01-09T08:39:20Z</time>
      </trkpt>
      <trkpt lat="42.82432" lon="0.2552">
        <ele>1697.6</ele>
        <time>2022-01-09T08:39:21Z</time>
      </trkpt>
      <trkpt lat="42.82432" lon="0.2552">
        <ele>1698</ele>
        <time>2022-01-09T08:39:22Z</time>
      </trkpt>
      <trkpt lat="42.82431" lon="0.25521">
        <ele>1698.4</ele>
        <time>2022-01-09T08:39:23Z</time>
      </trkpt>
      <trkpt lat="42.82431" lon="0.25522">
        <ele>1698.8</ele>
        <time>2022-01-09T08:39:24Z</time>
      </trkpt>
      <trkpt lat="42.8243" lon="0.25523">
        <ele>1699.2</ele>
        <time>2022-01-09T08:39:25Z</time>
      </trkpt>
      <trkpt lat="42.8243" lon="0.25523">
        <ele>1699.8</ele>
        <time>2022-01-09T08:39:26Z</time>
      </trkpt>
      <trkpt lat="42.82429" lon="0.25525">
        <ele>1700</ele>
        <time>2022-01-09T08:39:27Z</time>
      </trkpt>
      <trkpt lat="42.82428" lon="0.25525">
        <ele>1700.2</ele>
        <time>2022-01-09T08:39:28Z</time>
      </trkpt>
      <trkpt lat="42.82428" lon="0.25526">
        <ele>1700.6</ele>
        <time>2022-01-09T08:39:29Z</time>
      </trkpt>
      <trkpt lat="42.82427" lon="0.25527">
        <ele>1700.8</ele>
        <time>2022-01-09T08:39:30Z</time>
      </trkpt>
      <trkpt lat="42.82427" lon="0.25528">
        <ele>1701.4</ele>
        <time>2022-01-09T08:39:31Z</time>
      </trkpt>
      <trkpt lat="42.82426" lon="0.25529">
        <ele>1701.8</ele>
        <time>2022-01-09T08:39:32Z</time>
      </trkpt>
      <trkpt lat="42.82426" lon="0.25529">
        <ele>1702</ele>
        <time>2022-01-09T08:39:33Z</time>
      </trkpt>
      <trkpt lat="42.82426" lon="0.25529">
        <ele>1702.2</ele>
        <time>2022-01-09T08:39:34Z</time>
      </trkpt>
      <trkpt lat="42.82426" lon="0.25529">
        <ele>1702.6</ele>
        <time>2022-01-09T08:39:35Z</time>
      </trkpt>
      <trkpt lat="42.82426" lon="0.25529">
        <ele>1702.8</ele>
        <time>2022-01-09T08:39:36Z</time>
      </trkpt>
      <trkpt lat="42.82424" lon="0.25531">
        <ele>1703.2</ele>
        <time>2022-01-09T08:39:37Z</time>
      </trkpt>
      <trkpt lat="42.82424" lon="0.25531">
        <ele>1703.4</ele>
        <time>2022-01-09T08:39:38Z</time>
      </trkpt>
      <trkpt lat="42.82424" lon="0.25531">
        <ele>1703.8</ele>
        <time>2022-01-09T08:39:39Z</time>
      </trkpt>
      <trkpt lat="42.82422" lon="0.25533">
        <ele>1704.2</ele>
        <time>2022-01-09T08:39:40Z</time>
      </trkpt>
      <trkpt lat="42.82422" lon="0.25533">
        <ele>1704.8</ele>
        <time>2022-01-09T08:39:41Z</time>
      </trkpt>
      <trkpt lat="42.82422" lon="0.25533">
        <ele>1705.2</ele>
        <time>2022-01-09T08:39:42Z</time>
      </trkpt>
      <trkpt lat="42.82419" lon="0.25535">
        <ele>1705.6</ele>
        <time>2022-01-09T08:39:43Z</time>
      </trkpt>
      <trkpt lat="42.82419" lon="0.25535">
        <ele>1705.8</ele>
        <time>2022-01-09T08:39:44Z</time>
      </trkpt>
      <trkpt lat="42.82416" lon="0.25537">
        <ele>1706.2</ele>
        <time>2022-01-09T08:39:45Z</time>
      </trkpt>
      <trkpt lat="42.82416" lon="0.25537">
        <ele>1707</ele>
        <time>2022-01-09T08:39:46Z</time>
      </trkpt>
      <trkpt lat="42.82415" lon="0.25539">
        <ele>1707.4</ele>
        <time>2022-01-09T08:39:47Z</time>
      </trkpt>
      <trkpt lat="42.82414" lon="0.2554">
        <ele>1707.8</ele>
        <time>2022-01-09T08:39:48Z</time>
      </trkpt>
      <trkpt lat="42.82412" lon="0.25541">
        <ele>1708</ele>
        <time>2022-01-09T08:39:49Z</time>
      </trkpt>
      <trkpt lat="42.82411" lon="0.25542">
        <ele>1708.2</ele>
        <time>2022-01-09T08:39:50Z</time>
      </trkpt>
      <trkpt lat="42.8241" lon="0.25543">
        <ele>1708.8</ele>
        <time>2022-01-09T08:39:51Z</time>
      </trkpt>
      <trkpt lat="42.82409" lon="0.25544">
        <ele>1709.2</ele>
        <time>2022-01-09T08:39:52Z</time>
      </trkpt>
      <trkpt lat="42.82408" lon="0.25545">
        <ele>1709.6</ele>
        <time>2022-01-09T08:39:53Z</time>
      </trkpt>
      <trkpt lat="42.82407" lon="0.25546">
        <ele>1709.8</ele>
        <time>2022-01-09T08:39:54Z</time>
      </trkpt>
      <trkpt lat="42.82407" lon="0.25547">
        <ele>1710.2</ele>
        <time>2022-01-09T08:39:55Z</time>
      </trkpt>
      <trkpt lat="42.82406" lon="0.25548">
        <ele>1710.8</ele>
        <time>2022-01-09T08:39:56Z</time>
      </trkpt>
      <trkpt lat="42.82405" lon="0.2555">
        <ele>1711.6</ele>
        <time>2022-01-09T08:39:57Z</time>
      </trkpt>
      <trkpt lat="42.82404" lon="0.25551">
        <ele>1712</ele>
        <time>2022-01-09T08:39:58Z</time>
      </trkpt>
      <trkpt lat="42.82403" lon="0.25552">
        <ele>1712.2</ele>
        <time>2022-01-09T08:39:59Z</time>
      </trkpt>
      <trkpt lat="42.82402" lon="0.25553">
        <ele>1712.4</ele>
        <time>2022-01-09T08:40:00Z</time>
      </trkpt>
      <trkpt lat="42.82401" lon="0.25553">
        <ele>1712.8</ele>
        <time>2022-01-09T08:40:01Z</time>
      </trkpt>
      <trkpt lat="42.82401" lon="0.25552">
        <ele>1713.2</ele>
        <time>2022-01-09T08:40:02Z</time>
      </trkpt>
      <trkpt lat="42.824" lon="0.25551">
        <ele>1713.4</ele>
        <time>2022-01-09T08:40:03Z</time>
      </trkpt>
      <trkpt lat="42.82399" lon="0.25551">
        <ele>1713.8</ele>
        <time>2022-01-09T08:40:04Z</time>
      </trkpt>
      <trkpt lat="42.82399" lon="0.2555">
        <ele>1714.4</ele>
        <time>2022-01-09T08:40:05Z</time>
      </trkpt>
      <trkpt lat="42.82398" lon="0.25549">
        <ele>1714.8</ele>
        <time>2022-01-09T08:40:06Z</time>
      </trkpt>
      <trkpt lat="42.82397" lon="0.25549">
        <ele>1715.2</ele>
        <time>2022-01-09T08:40:07Z</time>
      </trkpt>
      <trkpt lat="42.82397" lon="0.25548">
        <ele>1715.4</ele>
        <time>2022-01-09T08:40:08Z</time>
      </trkpt>
      <trkpt lat="42.82396" lon="0.25547">
        <ele>1715.8</ele>
        <time>2022-01-09T08:40:09Z</time>
      </trkpt>
      <trkpt lat="42.82395" lon="0.25547">
        <ele>1716</ele>
        <time>2022-01-09T08:40:10Z</time>
      </trkpt>
      <trkpt lat="42.82395" lon="0.25546">
        <ele>1716.8</ele>
        <time>2022-01-09T08:40:11Z</time>
      </trkpt>
      <trkpt lat="42.82394" lon="0.25545">
        <ele>1717.2</ele>
        <time>2022-01-09T08:40:12Z</time>
      </trkpt>
      <trkpt lat="42.82394" lon="0.25544">
        <ele>1717.4</ele>
        <time>2022-01-09T08:40:13Z</time>
      </trkpt>
      <trkpt lat="42.82394" lon="0.25542">
        <ele>1717.6</ele>
        <time>2022-01-09T08:40:14Z</time>
      </trkpt>
      <trkpt lat="42.82394" lon="0.2554">
        <ele>1717.8</ele>
        <time>2022-01-09T08:40:15Z</time>
      </trkpt>
      <trkpt lat="42.82394" lon="0.25538">
        <ele>1718.2</ele>
        <time>2022-01-09T08:40:16Z</time>
      </trkpt>
      <trkpt lat="42.82394" lon="0.25536">
        <ele>1718.6</ele>
        <time>2022-01-09T08:40:17Z</time>
      </trkpt>
      <trkpt lat="42.82394" lon="0.25534">
        <ele>1718.6</ele>
        <time>2022-01-09T08:40:18Z</time>
      </trkpt>
      <trkpt lat="42.82394" lon="0.25532">
        <ele>1719.2</ele>
        <time>2022-01-09T08:40:19Z</time>
      </trkpt>
      <trkpt lat="42.82394" lon="0.25531">
        <ele>1719.6</ele>
        <time>2022-01-09T08:40:20Z</time>
      </trkpt>
      <trkpt lat="42.82394" lon="0.2553">
        <ele>1719.8</ele>
        <time>2022-01-09T08:40:21Z</time>
      </trkpt>
      <trkpt lat="42.82394" lon="0.25528">
        <ele>1720.4</ele>
        <time>2022-01-09T08:40:22Z</time>
      </trkpt>
      <trkpt lat="42.82393" lon="0.25527">
        <ele>1720.8</ele>
        <time>2022-01-09T08:40:23Z</time>
      </trkpt>
      <trkpt lat="42.82393" lon="0.25526">
        <ele>1720.8</ele>
        <time>2022-01-09T08:40:24Z</time>
      </trkpt>
      <trkpt lat="42.82393" lon="0.25524">
        <ele>1721.2</ele>
        <time>2022-01-09T08:40:25Z</time>
      </trkpt>
      <trkpt lat="42.82392" lon="0.25523">
        <ele>1721.4</ele>
        <time>2022-01-09T08:40:26Z</time>
      </trkpt>
      <trkpt lat="42.82392" lon="0.25522">
        <ele>1721.8</ele>
        <time>2022-01-09T08:40:27Z</time>
      </trkpt>
      <trkpt lat="42.82392" lon="0.2552">
        <ele>1722.2</ele>
        <time>2022-01-09T08:40:28Z</time>
      </trkpt>
      <trkpt lat="42.82391" lon="0.2552">
        <ele>1722.6</ele>
        <time>2022-01-09T08:40:29Z</time>
      </trkpt>
      <trkpt lat="42.82391" lon="0.2552">
        <ele>1722.8</ele>
        <time>2022-01-09T08:40:30Z</time>
      </trkpt>
      <trkpt lat="42.8239" lon="0.25519">
        <ele>1723.2</ele>
        <time>2022-01-09T08:40:31Z</time>
      </trkpt>
      <trkpt lat="42.8239" lon="0.25519">
        <ele>1723.4</ele>
        <time>2022-01-09T08:40:32Z</time>
      </trkpt>
      <trkpt lat="42.82389" lon="0.25519">
        <ele>1723.8</ele>
        <time>2022-01-09T08:40:33Z</time>
      </trkpt>
      <trkpt lat="42.82389" lon="0.25518">
        <ele>1724</ele>
        <time>2022-01-09T08:40:34Z</time>
      </trkpt>
      <trkpt lat="42.82388" lon="0.25518">
        <ele>1724.4</ele>
        <time>2022-01-09T08:40:35Z</time>
      </trkpt>
      <trkpt lat="42.82388" lon="0.25518">
        <ele>1724.6</ele>
        <time>2022-01-09T08:40:36Z</time>
      </trkpt>
      <trkpt lat="42.82387" lon="0.25517">
        <ele>1724.8</ele>
        <time>2022-01-09T08:40:37Z</time>
      </trkpt>
      <trkpt lat="42.82387" lon="0.25517">
        <ele>1725</ele>
        <time>2022-01-09T08:40:38Z</time>
      </trkpt>
      <trkpt lat="42.82386" lon="0.25517">
        <ele>1725.2</ele>
        <time>2022-01-09T08:40:39Z</time>
      </trkpt>
      <trkpt lat="42.82386" lon="0.25516">
        <ele>1725.6</ele>
        <time>2022-01-09T08:40:40Z</time>
      </trkpt>
      <trkpt lat="42.82385" lon="0.25516">
        <ele>1726</ele>
        <time>2022-01-09T08:40:41Z</time>
      </trkpt>
      <trkpt lat="42.82385" lon="0.25516">
        <ele>1726.4</ele>
        <time>2022-01-09T08:40:42Z</time>
      </trkpt>
      <trkpt lat="42.82384" lon="0.25515">
        <ele>1726.8</ele>
        <time>2022-01-09T08:40:43Z</time>
      </trkpt>
      <trkpt lat="42.82384" lon="0.25515">
        <ele>1727.2</ele>
        <time>2022-01-09T08:40:44Z</time>
      </trkpt>
      <trkpt lat="42.82382" lon="0.25517">
        <ele>1727.4</ele>
        <time>2022-01-09T08:40:45Z</time>
      </trkpt>
      <trkpt lat="42.82382" lon="0.25517">
        <ele>1727.4</ele>
        <time>2022-01-09T08:40:46Z</time>
      </trkpt>
      <trkpt lat="42.82381" lon="0.2552">
        <ele>1728</ele>
        <time>2022-01-09T08:40:47Z</time>
      </trkpt>
      <trkpt lat="42.82381" lon="0.2552">
        <ele>1728.2</ele>
        <time>2022-01-09T08:40:48Z</time>
      </trkpt>
      <trkpt lat="42.82379" lon="0.25522">
        <ele>1728.6</ele>
        <time>2022-01-09T08:40:49Z</time>
      </trkpt>
      <trkpt lat="42.82379" lon="0.25522">
        <ele>1729</ele>
        <time>2022-01-09T08:40:50Z</time>
      </trkpt>
      <trkpt lat="42.82377" lon="0.25523">
        <ele>1729.2</ele>
        <time>2022-01-09T08:40:51Z</time>
      </trkpt>
      <trkpt lat="42.82377" lon="0.25523">
        <ele>1729.4</ele>
        <time>2022-01-09T08:40:52Z</time>
      </trkpt>
      <trkpt lat="42.82377" lon="0.25523">
        <ele>1729.6</ele>
        <time>2022-01-09T08:40:53Z</time>
      </trkpt>
      <trkpt lat="42.82376" lon="0.25526">
        <ele>1730</ele>
        <time>2022-01-09T08:40:54Z</time>
      </trkpt>
      <trkpt lat="42.82376" lon="0.25526">
        <ele>1730.4</ele>
        <time>2022-01-09T08:40:55Z</time>
      </trkpt>
      <trkpt lat="42.82374" lon="0.25528">
        <ele>1730.8</ele>
        <time>2022-01-09T08:40:56Z</time>
      </trkpt>
      <trkpt lat="42.82374" lon="0.25528">
        <ele>1731.2</ele>
        <time>2022-01-09T08:40:57Z</time>
      </trkpt>
      <trkpt lat="42.82372" lon="0.2553">
        <ele>1731.4</ele>
        <time>2022-01-09T08:40:58Z</time>
      </trkpt>
      <trkpt lat="42.82372" lon="0.2553">
        <ele>1731.8</ele>
        <time>2022-01-09T08:40:59Z</time>
      </trkpt>
      <trkpt lat="42.82372" lon="0.2553">
        <ele>1732.2</ele>
        <time>2022-01-09T08:41:00Z</time>
      </trkpt>
      <trkpt lat="42.8237" lon="0.25531">
        <ele>1732.6</ele>
        <time>2022-01-09T08:41:01Z</time>
      </trkpt>
      <trkpt lat="42.82369" lon="0.25532">
        <ele>1733</ele>
        <time>2022-01-09T08:41:02Z</time>
      </trkpt>
      <trkpt lat="42.82368" lon="0.25533">
        <ele>1733.4</ele>
        <time>2022-01-09T08:41:03Z</time>
      </trkpt>
      <trkpt lat="42.82367" lon="0.25533">
        <ele>1733.6</ele>
        <time>2022-01-09T08:41:04Z</time>
      </trkpt>
      <trkpt lat="42.82366" lon="0.25534">
        <ele>1734.2</ele>
        <time>2022-01-09T08:41:05Z</time>
      </trkpt>
      <trkpt lat="42.82365" lon="0.25535">
        <ele>1734.4</ele>
        <time>2022-01-09T08:41:06Z</time>
      </trkpt>
      <trkpt lat="42.82364" lon="0.25536">
        <ele>1734.8</ele>
        <time>2022-01-09T08:41:07Z</time>
      </trkpt>
      <trkpt lat="42.82363" lon="0.25537">
        <ele>1735</ele>
        <time>2022-01-09T08:41:08Z</time>
      </trkpt>
      <trkpt lat="42.82363" lon="0.25537">
        <ele>1735.4</ele>
        <time>2022-01-09T08:41:09Z</time>
      </trkpt>
      <trkpt lat="42.82361" lon="0.25539">
        <ele>1735.6</ele>
        <time>2022-01-09T08:41:10Z</time>
      </trkpt>
      <trkpt lat="42.82361" lon="0.25539">
        <ele>1736</ele>
        <time>2022-01-09T08:41:11Z</time>
      </trkpt>
      <trkpt lat="42.82359" lon="0.2554">
        <ele>1736.2</ele>
        <time>2022-01-09T08:41:12Z</time>
      </trkpt>
      <trkpt lat="42.82359" lon="0.2554">
        <ele>1736.6</ele>
        <time>2022-01-09T08:41:13Z</time>
      </trkpt>
      <trkpt lat="42.82358" lon="0.25543">
        <ele>1736.8</ele>
        <time>2022-01-09T08:41:14Z</time>
      </trkpt>
      <trkpt lat="42.82358" lon="0.25543">
        <ele>1737</ele>
        <time>2022-01-09T08:41:15Z</time>
      </trkpt>
      <trkpt lat="42.82356" lon="0.25544">
        <ele>1737.4</ele>
        <time>2022-01-09T08:41:16Z</time>
      </trkpt>
      <trkpt lat="42.82356" lon="0.25544">
        <ele>1737.8</ele>
        <time>2022-01-09T08:41:17Z</time>
      </trkpt>
      <trkpt lat="42.82356" lon="0.25544">
        <ele>1738.2</ele>
        <time>2022-01-09T08:41:18Z</time>
      </trkpt>
      <trkpt lat="42.82356" lon="0.25544">
        <ele>1739.2</ele>
        <time>2022-01-09T08:41:19Z</time>
      </trkpt>
      <trkpt lat="42.82354" lon="0.25541">
        <ele>1739.8</ele>
        <time>2022-01-09T08:41:20Z</time>
      </trkpt>
      <trkpt lat="42.82354" lon="0.25539">
        <ele>1740.2</ele>
        <time>2022-01-09T08:41:21Z</time>
      </trkpt>
      <trkpt lat="42.82354" lon="0.25537">
        <ele>1740.6</ele>
        <time>2022-01-09T08:41:22Z</time>
      </trkpt>
      <trkpt lat="42.82353" lon="0.25534">
        <ele>1741.2</ele>
        <time>2022-01-09T08:41:23Z</time>
      </trkpt>
      <trkpt lat="42.82354" lon="0.25532">
        <ele>1741.4</ele>
        <time>2022-01-09T08:41:24Z</time>
      </trkpt>
      <trkpt lat="42.82354" lon="0.2553">
        <ele>1741.6</ele>
        <time>2022-01-09T08:41:25Z</time>
      </trkpt>
      <trkpt lat="42.82354" lon="0.25528">
        <ele>1742</ele>
        <time>2022-01-09T08:41:26Z</time>
      </trkpt>
      <trkpt lat="42.82354" lon="0.25527">
        <ele>1742.4</ele>
        <time>2022-01-09T08:41:27Z</time>
      </trkpt>
      <trkpt lat="42.82354" lon="0.25525">
        <ele>1742.4</ele>
        <time>2022-01-09T08:41:28Z</time>
      </trkpt>
      <trkpt lat="42.82354" lon="0.25523">
        <ele>1742.8</ele>
        <time>2022-01-09T08:41:29Z</time>
      </trkpt>
      <trkpt lat="42.82354" lon="0.25521">
        <ele>1743</ele>
        <time>2022-01-09T08:41:30Z</time>
      </trkpt>
      <trkpt lat="42.82354" lon="0.25519">
        <ele>1743.4</ele>
        <time>2022-01-09T08:41:31Z</time>
      </trkpt>
      <trkpt lat="42.82354" lon="0.25518">
        <ele>1743.6</ele>
        <time>2022-01-09T08:41:32Z</time>
      </trkpt>
      <trkpt lat="42.82353" lon="0.25517">
        <ele>1744</ele>
        <time>2022-01-09T08:41:33Z</time>
      </trkpt>
      <trkpt lat="42.82353" lon="0.25515">
        <ele>1744</ele>
        <time>2022-01-09T08:41:34Z</time>
      </trkpt>
      <trkpt lat="42.82353" lon="0.25514">
        <ele>1744.2</ele>
        <time>2022-01-09T08:41:35Z</time>
      </trkpt>
      <trkpt lat="42.82352" lon="0.25513">
        <ele>1744.6</ele>
        <time>2022-01-09T08:41:36Z</time>
      </trkpt>
      <trkpt lat="42.82352" lon="0.25512">
        <ele>1745</ele>
        <time>2022-01-09T08:41:37Z</time>
      </trkpt>
      <trkpt lat="42.82352" lon="0.2551">
        <ele>1745.4</ele>
        <time>2022-01-09T08:41:38Z</time>
      </trkpt>
      <trkpt lat="42.82351" lon="0.25509">
        <ele>1745.6</ele>
        <time>2022-01-09T08:41:39Z</time>
      </trkpt>
      <trkpt lat="42.82351" lon="0.25508">
        <ele>1746</ele>
        <time>2022-01-09T08:41:40Z</time>
      </trkpt>
      <trkpt lat="42.8235" lon="0.25508">
        <ele>1746.2</ele>
        <time>2022-01-09T08:41:41Z</time>
      </trkpt>
      <trkpt lat="42.82349" lon="0.25509">
        <ele>1746.4</ele>
        <time>2022-01-09T08:41:42Z</time>
      </trkpt>
      <trkpt lat="42.82348" lon="0.25509">
        <ele>1746.4</ele>
        <time>2022-01-09T08:41:43Z</time>
      </trkpt>
      <trkpt lat="42.82348" lon="0.2551">
        <ele>1747</ele>
        <time>2022-01-09T08:41:44Z</time>
      </trkpt>
      <trkpt lat="42.82347" lon="0.2551">
        <ele>1747</ele>
        <time>2022-01-09T08:41:45Z</time>
      </trkpt>
      <trkpt lat="42.82346" lon="0.25511">
        <ele>1747</ele>
        <time>2022-01-09T08:41:46Z</time>
      </trkpt>
      <trkpt lat="42.82346" lon="0.25511">
        <ele>1747.2</ele>
        <time>2022-01-09T08:41:47Z</time>
      </trkpt>
      <trkpt lat="42.82344" lon="0.25513">
        <ele>1747.4</ele>
        <time>2022-01-09T08:41:48Z</time>
      </trkpt>
      <trkpt lat="42.82344" lon="0.25513">
        <ele>1747.6</ele>
        <time>2022-01-09T08:41:49Z</time>
      </trkpt>
      <trkpt lat="42.82342" lon="0.25516">
        <ele>1747.8</ele>
        <time>2022-01-09T08:41:50Z</time>
      </trkpt>
      <trkpt lat="42.82342" lon="0.25516">
        <ele>1748.2</ele>
        <time>2022-01-09T08:41:51Z</time>
      </trkpt>
      <trkpt lat="42.8234" lon="0.25518">
        <ele>1748.4</ele>
        <time>2022-01-09T08:41:52Z</time>
      </trkpt>
      <trkpt lat="42.8234" lon="0.25518">
        <ele>1748.8</ele>
        <time>2022-01-09T08:41:53Z</time>
      </trkpt>
      <trkpt lat="42.82337" lon="0.25519">
        <ele>1748.8</ele>
        <time>2022-01-09T08:41:54Z</time>
      </trkpt>
      <trkpt lat="42.82337" lon="0.25519">
        <ele>1749.2</ele>
        <time>2022-01-09T08:41:55Z</time>
      </trkpt>
      <trkpt lat="42.82336" lon="0.2552">
        <ele>1749.4</ele>
        <time>2022-01-09T08:41:56Z</time>
      </trkpt>
      <trkpt lat="42.82336" lon="0.2552">
        <ele>1750</ele>
        <time>2022-01-09T08:41:57Z</time>
      </trkpt>
      <trkpt lat="42.82334" lon="0.25521">
        <ele>1750.2</ele>
        <time>2022-01-09T08:41:58Z</time>
      </trkpt>
      <trkpt lat="42.82334" lon="0.25521">
        <ele>1750.4</ele>
        <time>2022-01-09T08:41:59Z</time>
      </trkpt>
      <trkpt lat="42.82334" lon="0.25521">
        <ele>1750.6</ele>
        <time>2022-01-09T08:42:00Z</time>
      </trkpt>
      <trkpt lat="42.82331" lon="0.25522">
        <ele>1750.8</ele>
        <time>2022-01-09T08:42:01Z</time>
      </trkpt>
      <trkpt lat="42.82331" lon="0.25521">
        <ele>1751.4</ele>
        <time>2022-01-09T08:42:02Z</time>
      </trkpt>
      <trkpt lat="42.82331" lon="0.25519">
        <ele>1752</ele>
        <time>2022-01-09T08:42:03Z</time>
      </trkpt>
      <trkpt lat="42.82331" lon="0.25518">
        <ele>1752.4</ele>
        <time>2022-01-09T08:42:04Z</time>
      </trkpt>
      <trkpt lat="42.82331" lon="0.25516">
        <ele>1752.6</ele>
        <time>2022-01-09T08:42:05Z</time>
      </trkpt>
      <trkpt lat="42.82331" lon="0.25515">
        <ele>1753.4</ele>
        <time>2022-01-09T08:42:06Z</time>
      </trkpt>
      <trkpt lat="42.82331" lon="0.25513">
        <ele>1753.6</ele>
        <time>2022-01-09T08:42:07Z</time>
      </trkpt>
      <trkpt lat="42.82331" lon="0.25512">
        <ele>1753.8</ele>
        <time>2022-01-09T08:42:08Z</time>
      </trkpt>
      <trkpt lat="42.82331" lon="0.2551">
        <ele>1754.4</ele>
        <time>2022-01-09T08:42:09Z</time>
      </trkpt>
      <trkpt lat="42.82331" lon="0.25509">
        <ele>1754.6</ele>
        <time>2022-01-09T08:42:10Z</time>
      </trkpt>
      <trkpt lat="42.82332" lon="0.25507">
        <ele>1755.2</ele>
        <time>2022-01-09T08:42:11Z</time>
      </trkpt>
      <trkpt lat="42.82332" lon="0.25505">
        <ele>1755.4</ele>
        <time>2022-01-09T08:42:12Z</time>
      </trkpt>
      <trkpt lat="42.82332" lon="0.25503">
        <ele>1755.6</ele>
        <time>2022-01-09T08:42:13Z</time>
      </trkpt>
      <trkpt lat="42.82332" lon="0.255">
        <ele>1755.8</ele>
        <time>2022-01-09T08:42:14Z</time>
      </trkpt>
      <trkpt lat="42.82332" lon="0.25498">
        <ele>1756.2</ele>
        <time>2022-01-09T08:42:15Z</time>
      </trkpt>
      <trkpt lat="42.82332" lon="0.25496">
        <ele>1756.8</ele>
        <time>2022-01-09T08:42:16Z</time>
      </trkpt>
      <trkpt lat="42.82332" lon="0.25495">
        <ele>1757.2</ele>
        <time>2022-01-09T08:42:17Z</time>
      </trkpt>
      <trkpt lat="42.82332" lon="0.25493">
        <ele>1757.4</ele>
        <time>2022-01-09T08:42:18Z</time>
      </trkpt>
      <trkpt lat="42.82332" lon="0.25492">
        <ele>1757.8</ele>
        <time>2022-01-09T08:42:19Z</time>
      </trkpt>
      <trkpt lat="42.82332" lon="0.2549">
        <ele>1758</ele>
        <time>2022-01-09T08:42:20Z</time>
      </trkpt>
      <trkpt lat="42.82332" lon="0.25489">
        <ele>1758.6</ele>
        <time>2022-01-09T08:42:21Z</time>
      </trkpt>
      <trkpt lat="42.82332" lon="0.25487">
        <ele>1758.8</ele>
        <time>2022-01-09T08:42:22Z</time>
      </trkpt>
      <trkpt lat="42.82332" lon="0.25486">
        <ele>1759</ele>
        <time>2022-01-09T08:42:23Z</time>
      </trkpt>
      <trkpt lat="42.82332" lon="0.25484">
        <ele>1759.2</ele>
        <time>2022-01-09T08:42:24Z</time>
      </trkpt>
      <trkpt lat="42.82332" lon="0.25482">
        <ele>1760</ele>
        <time>2022-01-09T08:42:25Z</time>
      </trkpt>
      <trkpt lat="42.82332" lon="0.2548">
        <ele>1760.2</ele>
        <time>2022-01-09T08:42:26Z</time>
      </trkpt>
      <trkpt lat="42.82332" lon="0.25478">
        <ele>1760.6</ele>
        <time>2022-01-09T08:42:27Z</time>
      </trkpt>
      <trkpt lat="42.82332" lon="0.25476">
        <ele>1761.2</ele>
        <time>2022-01-09T08:42:28Z</time>
      </trkpt>
      <trkpt lat="42.82332" lon="0.25474">
        <ele>1761.4</ele>
        <time>2022-01-09T08:42:29Z</time>
      </trkpt>
      <trkpt lat="42.82333" lon="0.25472">
        <ele>1761.8</ele>
        <time>2022-01-09T08:42:30Z</time>
      </trkpt>
      <trkpt lat="42.82333" lon="0.2547">
        <ele>1762.2</ele>
        <time>2022-01-09T08:42:31Z</time>
      </trkpt>
      <trkpt lat="42.82333" lon="0.25468">
        <ele>1762.4</ele>
        <time>2022-01-09T08:42:32Z</time>
      </trkpt>
      <trkpt lat="42.82334" lon="0.25466">
        <ele>1762.8</ele>
        <time>2022-01-09T08:42:33Z</time>
      </trkpt>
      <trkpt lat="42.82334" lon="0.25463">
        <ele>1763</ele>
        <time>2022-01-09T08:42:34Z</time>
      </trkpt>
      <trkpt lat="42.82334" lon="0.25461">
        <ele>1763</ele>
        <time>2022-01-09T08:42:35Z</time>
      </trkpt>
      <trkpt lat="42.82335" lon="0.25459">
        <ele>1763.2</ele>
        <time>2022-01-09T08:42:36Z</time>
      </trkpt>
      <trkpt lat="42.82335" lon="0.25456">
        <ele>1763.4</ele>
        <time>2022-01-09T08:42:37Z</time>
      </trkpt>
      <trkpt lat="42.82335" lon="0.25455">
        <ele>1763.6</ele>
        <time>2022-01-09T08:42:38Z</time>
      </trkpt>
      <trkpt lat="42.82336" lon="0.25454">
        <ele>1763.6</ele>
        <time>2022-01-09T08:42:39Z</time>
      </trkpt>
      <trkpt lat="42.82336" lon="0.25452">
        <ele>1763.8</ele>
        <time>2022-01-09T08:42:40Z</time>
      </trkpt>
      <trkpt lat="42.82337" lon="0.25451">
        <ele>1764</ele>
        <time>2022-01-09T08:42:41Z</time>
      </trkpt>
      <trkpt lat="42.82337" lon="0.2545">
        <ele>1764.2</ele>
        <time>2022-01-09T08:42:42Z</time>
      </trkpt>
      <trkpt lat="42.8234" lon="0.25441">
        <ele>1764.4</ele>
        <time>2022-01-09T08:42:43Z</time>
      </trkpt>
      <trkpt lat="42.82342" lon="0.25439">
        <ele>1764.6</ele>
        <time>2022-01-09T08:42:44Z</time>
      </trkpt>
      <trkpt lat="42.82343" lon="0.25437">
        <ele>1764.6</ele>
        <time>2022-01-09T08:42:45Z</time>
      </trkpt>
      <trkpt lat="42.82344" lon="0.25435">
        <ele>1764.6</ele>
        <time>2022-01-09T08:42:46Z</time>
      </trkpt>
      <trkpt lat="42.82345" lon="0.25433">
        <ele>1765</ele>
        <time>2022-01-09T08:42:47Z</time>
      </trkpt>
      <trkpt lat="42.82346" lon="0.25431">
        <ele>1765.6</ele>
        <time>2022-01-09T08:42:48Z</time>
      </trkpt>
      <trkpt lat="42.82347" lon="0.2543">
        <ele>1766</ele>
        <time>2022-01-09T08:42:49Z</time>
      </trkpt>
      <trkpt lat="42.82347" lon="0.25428">
        <ele>1766.2</ele>
        <time>2022-01-09T08:42:50Z</time>
      </trkpt>
      <trkpt lat="42.82348" lon="0.25427">
        <ele>1766.4</ele>
        <time>2022-01-09T08:42:51Z</time>
      </trkpt>
      <trkpt lat="42.82348" lon="0.25425">
        <ele>1766.8</ele>
        <time>2022-01-09T08:42:52Z</time>
      </trkpt>
      <trkpt lat="42.82349" lon="0.25424">
        <ele>1767.2</ele>
        <time>2022-01-09T08:42:53Z</time>
      </trkpt>
      <trkpt lat="42.8235" lon="0.25422">
        <ele>1767.4</ele>
        <time>2022-01-09T08:42:54Z</time>
      </trkpt>
      <trkpt lat="42.8235" lon="0.25421">
        <ele>1767.6</ele>
        <time>2022-01-09T08:42:55Z</time>
      </trkpt>
      <trkpt lat="42.82351" lon="0.25419">
        <ele>1767.8</ele>
        <time>2022-01-09T08:42:56Z</time>
      </trkpt>
      <trkpt lat="42.82352" lon="0.25416">
        <ele>1767.8</ele>
        <time>2022-01-09T08:42:57Z</time>
      </trkpt>
      <trkpt lat="42.82352" lon="0.25414">
        <ele>1768</ele>
        <time>2022-01-09T08:42:58Z</time>
      </trkpt>
      <trkpt lat="42.82353" lon="0.25412">
        <ele>1768.2</ele>
        <time>2022-01-09T08:42:59Z</time>
      </trkpt>
      <trkpt lat="42.82353" lon="0.2541">
        <ele>1768.4</ele>
        <time>2022-01-09T08:43:00Z</time>
      </trkpt>
      <trkpt lat="42.82354" lon="0.25408">
        <ele>1768.8</ele>
        <time>2022-01-09T08:43:01Z</time>
      </trkpt>
      <trkpt lat="42.82355" lon="0.25406">
        <ele>1768.8</ele>
        <time>2022-01-09T08:43:02Z</time>
      </trkpt>
      <trkpt lat="42.82356" lon="0.25404">
        <ele>1769.2</ele>
        <time>2022-01-09T08:43:03Z</time>
      </trkpt>
      <trkpt lat="42.82357" lon="0.25403">
        <ele>1769.4</ele>
        <time>2022-01-09T08:43:04Z</time>
      </trkpt>
      <trkpt lat="42.82358" lon="0.25401">
        <ele>1770</ele>
        <time>2022-01-09T08:43:05Z</time>
      </trkpt>
      <trkpt lat="42.82358" lon="0.25399">
        <ele>1770.6</ele>
        <time>2022-01-09T08:43:06Z</time>
      </trkpt>
      <trkpt lat="42.82359" lon="0.25397">
        <ele>1770.8</ele>
        <time>2022-01-09T08:43:07Z</time>
      </trkpt>
      <trkpt lat="42.8236" lon="0.25395">
        <ele>1770.8</ele>
        <time>2022-01-09T08:43:08Z</time>
      </trkpt>
      <trkpt lat="42.82361" lon="0.25394">
        <ele>1771.4</ele>
        <time>2022-01-09T08:43:09Z</time>
      </trkpt>
      <trkpt lat="42.82362" lon="0.25392">
        <ele>1771.8</ele>
        <time>2022-01-09T08:43:10Z</time>
      </trkpt>
      <trkpt lat="42.82364" lon="0.2539">
        <ele>1772</ele>
        <time>2022-01-09T08:43:11Z</time>
      </trkpt>
      <trkpt lat="42.82365" lon="0.25389">
        <ele>1772</ele>
        <time>2022-01-09T08:43:12Z</time>
      </trkpt>
      <trkpt lat="42.82366" lon="0.25387">
        <ele>1772.2</ele>
        <time>2022-01-09T08:43:13Z</time>
      </trkpt>
      <trkpt lat="42.82366" lon="0.25387">
        <ele>1772.4</ele>
        <time>2022-01-09T08:43:14Z</time>
      </trkpt>
      <trkpt lat="42.82366" lon="0.25387">
        <ele>1772.6</ele>
        <time>2022-01-09T08:43:15Z</time>
      </trkpt>
      <trkpt lat="42.82367" lon="0.25383">
        <ele>1772.8</ele>
        <time>2022-01-09T08:43:16Z</time>
      </trkpt>
      <trkpt lat="42.82367" lon="0.25383">
        <ele>1772.8</ele>
        <time>2022-01-09T08:43:17Z</time>
      </trkpt>
      <trkpt lat="42.82369" lon="0.2538">
        <ele>1773.6</ele>
        <time>2022-01-09T08:43:18Z</time>
      </trkpt>
      <trkpt lat="42.82369" lon="0.2538">
        <ele>1773.8</ele>
        <time>2022-01-09T08:43:19Z</time>
      </trkpt>
      <trkpt lat="42.8237" lon="0.25377">
        <ele>1774.2</ele>
        <time>2022-01-09T08:43:20Z</time>
      </trkpt>
      <trkpt lat="42.82371" lon="0.25376">
        <ele>1774.6</ele>
        <time>2022-01-09T08:43:21Z</time>
      </trkpt>
      <trkpt lat="42.82371" lon="0.25375">
        <ele>1774.8</ele>
        <time>2022-01-09T08:43:22Z</time>
      </trkpt>
      <trkpt lat="42.82372" lon="0.25375">
        <ele>1774.8</ele>
        <time>2022-01-09T08:43:23Z</time>
      </trkpt>
      <trkpt lat="42.82372" lon="0.25374">
        <ele>1775</ele>
        <time>2022-01-09T08:43:24Z</time>
      </trkpt>
      <trkpt lat="42.82373" lon="0.25373">
        <ele>1775.6</ele>
        <time>2022-01-09T08:43:25Z</time>
      </trkpt>
      <trkpt lat="42.82373" lon="0.25372">
        <ele>1775.8</ele>
        <time>2022-01-09T08:43:26Z</time>
      </trkpt>
      <trkpt lat="42.82373" lon="0.25371">
        <ele>1776</ele>
        <time>2022-01-09T08:43:27Z</time>
      </trkpt>
      <trkpt lat="42.82378" lon="0.25363">
        <ele>1776.4</ele>
        <time>2022-01-09T08:43:28Z</time>
      </trkpt>
      <trkpt lat="42.82379" lon="0.25362">
        <ele>1776.6</ele>
        <time>2022-01-09T08:43:29Z</time>
      </trkpt>
      <trkpt lat="42.82381" lon="0.2536">
        <ele>1777</ele>
        <time>2022-01-09T08:43:30Z</time>
      </trkpt>
      <trkpt lat="42.82382" lon="0.25359">
        <ele>1777</ele>
        <time>2022-01-09T08:43:31Z</time>
      </trkpt>
      <trkpt lat="42.82383" lon="0.25357">
        <ele>1777.4</ele>
        <time>2022-01-09T08:43:32Z</time>
      </trkpt>
      <trkpt lat="42.82384" lon="0.25355">
        <ele>1777.6</ele>
        <time>2022-01-09T08:43:33Z</time>
      </trkpt>
      <trkpt lat="42.82386" lon="0.25354">
        <ele>1777.8</ele>
        <time>2022-01-09T08:43:34Z</time>
      </trkpt>
      <trkpt lat="42.82387" lon="0.25352">
        <ele>1778.4</ele>
        <time>2022-01-09T08:43:35Z</time>
      </trkpt>
      <trkpt lat="42.82388" lon="0.25351">
        <ele>1778.8</ele>
        <time>2022-01-09T08:43:36Z</time>
      </trkpt>
      <trkpt lat="42.82389" lon="0.25349">
        <ele>1778.8</ele>
        <time>2022-01-09T08:43:37Z</time>
      </trkpt>
      <trkpt lat="42.8239" lon="0.25348">
        <ele>1779.2</ele>
        <time>2022-01-09T08:43:38Z</time>
      </trkpt>
      <trkpt lat="42.82391" lon="0.25346">
        <ele>1779.2</ele>
        <time>2022-01-09T08:43:39Z</time>
      </trkpt>
      <trkpt lat="42.82392" lon="0.25344">
        <ele>1779.6</ele>
        <time>2022-01-09T08:43:40Z</time>
      </trkpt>
      <trkpt lat="42.82393" lon="0.25343">
        <ele>1779.6</ele>
        <time>2022-01-09T08:43:41Z</time>
      </trkpt>
      <trkpt lat="42.82394" lon="0.25341">
        <ele>1780</ele>
        <time>2022-01-09T08:43:42Z</time>
      </trkpt>
      <trkpt lat="42.82395" lon="0.25339">
        <ele>1780.2</ele>
        <time>2022-01-09T08:43:43Z</time>
      </trkpt>
      <trkpt lat="42.82397" lon="0.25338">
        <ele>1780.4</ele>
        <time>2022-01-09T08:43:44Z</time>
      </trkpt>
      <trkpt lat="42.82398" lon="0.25336">
        <ele>1780.8</ele>
        <time>2022-01-09T08:43:45Z</time>
      </trkpt>
      <trkpt lat="42.82398" lon="0.25334">
        <ele>1781.2</ele>
        <time>2022-01-09T08:43:46Z</time>
      </trkpt>
      <trkpt lat="42.82399" lon="0.25333">
        <ele>1781.2</ele>
        <time>2022-01-09T08:43:47Z</time>
      </trkpt>
      <trkpt lat="42.824" lon="0.25331">
        <ele>1781.8</ele>
        <time>2022-01-09T08:43:48Z</time>
      </trkpt>
      <trkpt lat="42.82401" lon="0.2533">
        <ele>1782</ele>
        <time>2022-01-09T08:43:49Z</time>
      </trkpt>
      <trkpt lat="42.82402" lon="0.25328">
        <ele>1782.2</ele>
        <time>2022-01-09T08:43:50Z</time>
      </trkpt>
      <trkpt lat="42.82403" lon="0.25327">
        <ele>1782.4</ele>
        <time>2022-01-09T08:43:51Z</time>
      </trkpt>
      <trkpt lat="42.82405" lon="0.25325">
        <ele>1783</ele>
        <time>2022-01-09T08:43:52Z</time>
      </trkpt>
      <trkpt lat="42.82406" lon="0.25324">
        <ele>1783.2</ele>
        <time>2022-01-09T08:43:53Z</time>
      </trkpt>
      <trkpt lat="42.82407" lon="0.25322">
        <ele>1783.8</ele>
        <time>2022-01-09T08:43:54Z</time>
      </trkpt>
      <trkpt lat="42.82408" lon="0.2532">
        <ele>1784.4</ele>
        <time>2022-01-09T08:43:55Z</time>
      </trkpt>
      <trkpt lat="42.82409" lon="0.25319">
        <ele>1784.6</ele>
        <time>2022-01-09T08:43:56Z</time>
      </trkpt>
      <trkpt lat="42.8241" lon="0.25318">
        <ele>1784.4</ele>
        <time>2022-01-09T08:43:57Z</time>
      </trkpt>
      <trkpt lat="42.82411" lon="0.25316">
        <ele>1785</ele>
        <time>2022-01-09T08:43:58Z</time>
      </trkpt>
      <trkpt lat="42.82412" lon="0.25315">
        <ele>1785.2</ele>
        <time>2022-01-09T08:43:59Z</time>
      </trkpt>
      <trkpt lat="42.82413" lon="0.25314">
        <ele>1785.6</ele>
        <time>2022-01-09T08:44:00Z</time>
      </trkpt>
      <trkpt lat="42.82414" lon="0.25313">
        <ele>1786</ele>
        <time>2022-01-09T08:44:01Z</time>
      </trkpt>
      <trkpt lat="42.82415" lon="0.25311">
        <ele>1786.2</ele>
        <time>2022-01-09T08:44:02Z</time>
      </trkpt>
      <trkpt lat="42.82416" lon="0.2531">
        <ele>1786.4</ele>
        <time>2022-01-09T08:44:03Z</time>
      </trkpt>
      <trkpt lat="42.82418" lon="0.25309">
        <ele>1786.8</ele>
        <time>2022-01-09T08:44:04Z</time>
      </trkpt>
      <trkpt lat="42.82419" lon="0.25307">
        <ele>1787.2</ele>
        <time>2022-01-09T08:44:05Z</time>
      </trkpt>
      <trkpt lat="42.8242" lon="0.25306">
        <ele>1787.4</ele>
        <time>2022-01-09T08:44:06Z</time>
      </trkpt>
      <trkpt lat="42.82422" lon="0.25305">
        <ele>1788</ele>
        <time>2022-01-09T08:44:07Z</time>
      </trkpt>
      <trkpt lat="42.82423" lon="0.25304">
        <ele>1788.4</ele>
        <time>2022-01-09T08:44:08Z</time>
      </trkpt>
      <trkpt lat="42.82424" lon="0.25302">
        <ele>1788.2</ele>
        <time>2022-01-09T08:44:09Z</time>
      </trkpt>
      <trkpt lat="42.82425" lon="0.25301">
        <ele>1788.8</ele>
        <time>2022-01-09T08:44:10Z</time>
      </trkpt>
      <trkpt lat="42.82426" lon="0.253">
        <ele>1789</ele>
        <time>2022-01-09T08:44:11Z</time>
      </trkpt>
      <trkpt lat="42.82428" lon="0.25299">
        <ele>1789.2</ele>
        <time>2022-01-09T08:44:12Z</time>
      </trkpt>
      <trkpt lat="42.82428" lon="0.25299">
        <ele>1789.4</ele>
        <time>2022-01-09T08:44:13Z</time>
      </trkpt>
      <trkpt lat="42.8243" lon="0.25296">
        <ele>1789.4</ele>
        <time>2022-01-09T08:44:14Z</time>
      </trkpt>
      <trkpt lat="42.8243" lon="0.25296">
        <ele>1789.6</ele>
        <time>2022-01-09T08:44:15Z</time>
      </trkpt>
      <trkpt lat="42.82432" lon="0.25293">
        <ele>1789.8</ele>
        <time>2022-01-09T08:44:16Z</time>
      </trkpt>
      <trkpt lat="42.82432" lon="0.25293">
        <ele>1790.2</ele>
        <time>2022-01-09T08:44:17Z</time>
      </trkpt>
      <trkpt lat="42.82434" lon="0.2529">
        <ele>1790.4</ele>
        <time>2022-01-09T08:44:18Z</time>
      </trkpt>
      <trkpt lat="42.82434" lon="0.2529">
        <ele>1790.8</ele>
        <time>2022-01-09T08:44:19Z</time>
      </trkpt>
      <trkpt lat="42.82436" lon="0.25287">
        <ele>1790.8</ele>
        <time>2022-01-09T08:44:20Z</time>
      </trkpt>
      <trkpt lat="42.82436" lon="0.25287">
        <ele>1791.4</ele>
        <time>2022-01-09T08:44:21Z</time>
      </trkpt>
      <trkpt lat="42.82438" lon="0.25284">
        <ele>1792</ele>
        <time>2022-01-09T08:44:22Z</time>
      </trkpt>
      <trkpt lat="42.82438" lon="0.25284">
        <ele>1792.2</ele>
        <time>2022-01-09T08:44:23Z</time>
      </trkpt>
      <trkpt lat="42.82441" lon="0.25281">
        <ele>1792.6</ele>
        <time>2022-01-09T08:44:24Z</time>
      </trkpt>
      <trkpt lat="42.82441" lon="0.25281">
        <ele>1792.8</ele>
        <time>2022-01-09T08:44:25Z</time>
      </trkpt>
      <trkpt lat="42.82444" lon="0.25279">
        <ele>1793.4</ele>
        <time>2022-01-09T08:44:26Z</time>
      </trkpt>
      <trkpt lat="42.82444" lon="0.25279">
        <ele>1793.6</ele>
        <time>2022-01-09T08:44:27Z</time>
      </trkpt>
      <trkpt lat="42.82446" lon="0.25275">
        <ele>1794</ele>
        <time>2022-01-09T08:44:28Z</time>
      </trkpt>
      <trkpt lat="42.82447" lon="0.25274">
        <ele>1794.2</ele>
        <time>2022-01-09T08:44:29Z</time>
      </trkpt>
      <trkpt lat="42.82449" lon="0.25273">
        <ele>1794.4</ele>
        <time>2022-01-09T08:44:30Z</time>
      </trkpt>
      <trkpt lat="42.8245" lon="0.25272">
        <ele>1795</ele>
        <time>2022-01-09T08:44:31Z</time>
      </trkpt>
      <trkpt lat="42.82451" lon="0.25271">
        <ele>1795.8</ele>
        <time>2022-01-09T08:44:32Z</time>
      </trkpt>
      <trkpt lat="42.82452" lon="0.25269">
        <ele>1796.2</ele>
        <time>2022-01-09T08:44:33Z</time>
      </trkpt>
      <trkpt lat="42.82453" lon="0.25268">
        <ele>1796.4</ele>
        <time>2022-01-09T08:44:34Z</time>
      </trkpt>
      <trkpt lat="42.82454" lon="0.25267">
        <ele>1796.8</ele>
        <time>2022-01-09T08:44:35Z</time>
      </trkpt>
      <trkpt lat="42.82456" lon="0.25265">
        <ele>1797</ele>
        <time>2022-01-09T08:44:36Z</time>
      </trkpt>
      <trkpt lat="42.82457" lon="0.25264">
        <ele>1797.2</ele>
        <time>2022-01-09T08:44:37Z</time>
      </trkpt>
      <trkpt lat="42.82458" lon="0.25262">
        <ele>1797.4</ele>
        <time>2022-01-09T08:44:38Z</time>
      </trkpt>
      <trkpt lat="42.8246" lon="0.2526">
        <ele>1797.6</ele>
        <time>2022-01-09T08:44:39Z</time>
      </trkpt>
      <trkpt lat="42.82461" lon="0.25259">
        <ele>1798</ele>
        <time>2022-01-09T08:44:40Z</time>
      </trkpt>
      <trkpt lat="42.82462" lon="0.25257">
        <ele>1798.2</ele>
        <time>2022-01-09T08:44:41Z</time>
      </trkpt>
      <trkpt lat="42.82463" lon="0.25256">
        <ele>1798.6</ele>
        <time>2022-01-09T08:44:42Z</time>
      </trkpt>
      <trkpt lat="42.82464" lon="0.25255">
        <ele>1798.8</ele>
        <time>2022-01-09T08:44:43Z</time>
      </trkpt>
      <trkpt lat="42.82465" lon="0.25253">
        <ele>1799.4</ele>
        <time>2022-01-09T08:44:44Z</time>
      </trkpt>
      <trkpt lat="42.82466" lon="0.25252">
        <ele>1800</ele>
        <time>2022-01-09T08:44:45Z</time>
      </trkpt>
      <trkpt lat="42.82466" lon="0.25252">
        <ele>1800.2</ele>
        <time>2022-01-09T08:44:46Z</time>
      </trkpt>
      <trkpt lat="42.82469" lon="0.2525">
        <ele>1800.6</ele>
        <time>2022-01-09T08:44:47Z</time>
      </trkpt>
      <trkpt lat="42.8247" lon="0.25248">
        <ele>1800.8</ele>
        <time>2022-01-09T08:44:48Z</time>
      </trkpt>
      <trkpt lat="42.8247" lon="0.25246">
        <ele>1801</ele>
        <time>2022-01-09T08:44:49Z</time>
      </trkpt>
      <trkpt lat="42.82471" lon="0.25245">
        <ele>1801.4</ele>
        <time>2022-01-09T08:44:50Z</time>
      </trkpt>
      <trkpt lat="42.82472" lon="0.25243">
        <ele>1801.4</ele>
        <time>2022-01-09T08:44:51Z</time>
      </trkpt>
      <trkpt lat="42.82473" lon="0.25241">
        <ele>1801.8</ele>
        <time>2022-01-09T08:44:52Z</time>
      </trkpt>
      <trkpt lat="42.82474" lon="0.2524">
        <ele>1802</ele>
        <time>2022-01-09T08:44:53Z</time>
      </trkpt>
      <trkpt lat="42.82475" lon="0.25238">
        <ele>1802.2</ele>
        <time>2022-01-09T08:44:54Z</time>
      </trkpt>
      <trkpt lat="42.82476" lon="0.25237">
        <ele>1802.6</ele>
        <time>2022-01-09T08:44:55Z</time>
      </trkpt>
      <trkpt lat="42.82477" lon="0.25235">
        <ele>1803</ele>
        <time>2022-01-09T08:44:56Z</time>
      </trkpt>
      <trkpt lat="42.82478" lon="0.25234">
        <ele>1803.2</ele>
        <time>2022-01-09T08:44:57Z</time>
      </trkpt>
      <trkpt lat="42.82479" lon="0.25233">
        <ele>1803.4</ele>
        <time>2022-01-09T08:44:58Z</time>
      </trkpt>
      <trkpt lat="42.8248" lon="0.25231">
        <ele>1803.6</ele>
        <time>2022-01-09T08:44:59Z</time>
      </trkpt>
      <trkpt lat="42.82481" lon="0.2523">
        <ele>1803.8</ele>
        <time>2022-01-09T08:45:00Z</time>
      </trkpt>
      <trkpt lat="42.82482" lon="0.25228">
        <ele>1803.8</ele>
        <time>2022-01-09T08:45:01Z</time>
      </trkpt>
      <trkpt lat="42.82483" lon="0.25227">
        <ele>1804.2</ele>
        <time>2022-01-09T08:45:02Z</time>
      </trkpt>
      <trkpt lat="42.82484" lon="0.25225">
        <ele>1804.6</ele>
        <time>2022-01-09T08:45:03Z</time>
      </trkpt>
      <trkpt lat="42.82485" lon="0.25223">
        <ele>1804.6</ele>
        <time>2022-01-09T08:45:04Z</time>
      </trkpt>
      <trkpt lat="42.82486" lon="0.25222">
        <ele>1805</ele>
        <time>2022-01-09T08:45:05Z</time>
      </trkpt>
      <trkpt lat="42.82487" lon="0.2522">
        <ele>1805.2</ele>
        <time>2022-01-09T08:45:06Z</time>
      </trkpt>
      <trkpt lat="42.82487" lon="0.25218">
        <ele>1805.6</ele>
        <time>2022-01-09T08:45:07Z</time>
      </trkpt>
      <trkpt lat="42.82488" lon="0.25216">
        <ele>1805.8</ele>
        <time>2022-01-09T08:45:08Z</time>
      </trkpt>
      <trkpt lat="42.82489" lon="0.25215">
        <ele>1806</ele>
        <time>2022-01-09T08:45:09Z</time>
      </trkpt>
      <trkpt lat="42.82489" lon="0.25213">
        <ele>1806.2</ele>
        <time>2022-01-09T08:45:10Z</time>
      </trkpt>
      <trkpt lat="42.8249" lon="0.25211">
        <ele>1806.4</ele>
        <time>2022-01-09T08:45:11Z</time>
      </trkpt>
      <trkpt lat="42.8249" lon="0.25209">
        <ele>1806.4</ele>
        <time>2022-01-09T08:45:12Z</time>
      </trkpt>
      <trkpt lat="42.82491" lon="0.25207">
        <ele>1806.6</ele>
        <time>2022-01-09T08:45:13Z</time>
      </trkpt>
      <trkpt lat="42.82491" lon="0.25206">
        <ele>1806.8</ele>
        <time>2022-01-09T08:45:14Z</time>
      </trkpt>
      <trkpt lat="42.82492" lon="0.25205">
        <ele>1807.2</ele>
        <time>2022-01-09T08:45:15Z</time>
      </trkpt>
      <trkpt lat="42.82492" lon="0.25204">
        <ele>1807.6</ele>
        <time>2022-01-09T08:45:16Z</time>
      </trkpt>
      <trkpt lat="42.82493" lon="0.25203">
        <ele>1807.8</ele>
        <time>2022-01-09T08:45:17Z</time>
      </trkpt>
      <trkpt lat="42.82493" lon="0.25202">
        <ele>1808.2</ele>
        <time>2022-01-09T08:45:18Z</time>
      </trkpt>
      <trkpt lat="42.82494" lon="0.25201">
        <ele>1808.4</ele>
        <time>2022-01-09T08:45:19Z</time>
      </trkpt>
      <trkpt lat="42.82498" lon="0.25193">
        <ele>1808.6</ele>
        <time>2022-01-09T08:45:20Z</time>
      </trkpt>
      <trkpt lat="42.82499" lon="0.25191">
        <ele>1808.8</ele>
        <time>2022-01-09T08:45:21Z</time>
      </trkpt>
      <trkpt lat="42.825" lon="0.25189">
        <ele>1809.6</ele>
        <time>2022-01-09T08:45:22Z</time>
      </trkpt>
      <trkpt lat="42.82501" lon="0.25187">
        <ele>1809.6</ele>
        <time>2022-01-09T08:45:23Z</time>
      </trkpt>
      <trkpt lat="42.82502" lon="0.25186">
        <ele>1810.2</ele>
        <time>2022-01-09T08:45:24Z</time>
      </trkpt>
      <trkpt lat="42.82503" lon="0.25184">
        <ele>1810.4</ele>
        <time>2022-01-09T08:45:25Z</time>
      </trkpt>
      <trkpt lat="42.82503" lon="0.25183">
        <ele>1810.8</ele>
        <time>2022-01-09T08:45:26Z</time>
      </trkpt>
      <trkpt lat="42.82503" lon="0.25182">
        <ele>1811</ele>
        <time>2022-01-09T08:45:27Z</time>
      </trkpt>
      <trkpt lat="42.82503" lon="0.25181">
        <ele>1811.2</ele>
        <time>2022-01-09T08:45:28Z</time>
      </trkpt>
      <trkpt lat="42.82503" lon="0.2518">
        <ele>1811.6</ele>
        <time>2022-01-09T08:45:29Z</time>
      </trkpt>
      <trkpt lat="42.82503" lon="0.25179">
        <ele>1812</ele>
        <time>2022-01-09T08:45:30Z</time>
      </trkpt>
      <trkpt lat="42.82503" lon="0.25179">
        <ele>1812.2</ele>
        <time>2022-01-09T08:45:31Z</time>
      </trkpt>
      <trkpt lat="42.82503" lon="0.25178">
        <ele>1812.4</ele>
        <time>2022-01-09T08:45:32Z</time>
      </trkpt>
      <trkpt lat="42.82504" lon="0.25177">
        <ele>1812.6</ele>
        <time>2022-01-09T08:45:33Z</time>
      </trkpt>
      <trkpt lat="42.82504" lon="0.25169">
        <ele>1812.6</ele>
        <time>2022-01-09T08:45:34Z</time>
      </trkpt>
      <trkpt lat="42.82505" lon="0.25168">
        <ele>1813.2</ele>
        <time>2022-01-09T08:45:35Z</time>
      </trkpt>
      <trkpt lat="42.82505" lon="0.25167">
        <ele>1813.6</ele>
        <time>2022-01-09T08:45:36Z</time>
      </trkpt>
      <trkpt lat="42.82505" lon="0.25166">
        <ele>1813.8</ele>
        <time>2022-01-09T08:45:37Z</time>
      </trkpt>
      <trkpt lat="42.82506" lon="0.25165">
        <ele>1814</ele>
        <time>2022-01-09T08:45:38Z</time>
      </trkpt>
      <trkpt lat="42.82506" lon="0.25164">
        <ele>1814</ele>
        <time>2022-01-09T08:45:39Z</time>
      </trkpt>
      <trkpt lat="42.82506" lon="0.25163">
        <ele>1814.2</ele>
        <time>2022-01-09T08:45:40Z</time>
      </trkpt>
      <trkpt lat="42.8251" lon="0.25154">
        <ele>1814.2</ele>
        <time>2022-01-09T08:45:41Z</time>
      </trkpt>
      <trkpt lat="42.82511" lon="0.25151">
        <ele>1814.4</ele>
        <time>2022-01-09T08:45:42Z</time>
      </trkpt>
      <trkpt lat="42.82513" lon="0.25148">
        <ele>1814.2</ele>
        <time>2022-01-09T08:45:43Z</time>
      </trkpt>
      <trkpt lat="42.82514" lon="0.25145">
        <ele>1814</ele>
        <time>2022-01-09T08:45:44Z</time>
      </trkpt>
      <trkpt lat="42.82514" lon="0.25143">
        <ele>1814.2</ele>
        <time>2022-01-09T08:45:45Z</time>
      </trkpt>
      <trkpt lat="42.82515" lon="0.25142">
        <ele>1814</ele>
        <time>2022-01-09T08:45:46Z</time>
      </trkpt>
      <trkpt lat="42.82515" lon="0.2514">
        <ele>1814.4</ele>
        <time>2022-01-09T08:45:47Z</time>
      </trkpt>
      <trkpt lat="42.82515" lon="0.25138">
        <ele>1814.6</ele>
        <time>2022-01-09T08:45:48Z</time>
      </trkpt>
      <trkpt lat="42.82518" lon="0.25128">
        <ele>1814.8</ele>
        <time>2022-01-09T08:45:49Z</time>
      </trkpt>
      <trkpt lat="42.8252" lon="0.25124">
        <ele>1814.8</ele>
        <time>2022-01-09T08:45:50Z</time>
      </trkpt>
      <trkpt lat="42.82522" lon="0.25121">
        <ele>1814.8</ele>
        <time>2022-01-09T08:45:51Z</time>
      </trkpt>
      <trkpt lat="42.82522" lon="0.25118">
        <ele>1815</ele>
        <time>2022-01-09T08:45:52Z</time>
      </trkpt>
      <trkpt lat="42.82522" lon="0.25115">
        <ele>1815.2</ele>
        <time>2022-01-09T08:45:53Z</time>
      </trkpt>
      <trkpt lat="42.82522" lon="0.25111">
        <ele>1815.2</ele>
        <time>2022-01-09T08:45:54Z</time>
      </trkpt>
      <trkpt lat="42.82522" lon="0.25108">
        <ele>1815.6</ele>
        <time>2022-01-09T08:45:55Z</time>
      </trkpt>
      <trkpt lat="42.82522" lon="0.25106">
        <ele>1815.8</ele>
        <time>2022-01-09T08:45:56Z</time>
      </trkpt>
      <trkpt lat="42.82523" lon="0.25103">
        <ele>1816</ele>
        <time>2022-01-09T08:45:57Z</time>
      </trkpt>
      <trkpt lat="42.82524" lon="0.251">
        <ele>1816</ele>
        <time>2022-01-09T08:45:58Z</time>
      </trkpt>
      <trkpt lat="42.82524" lon="0.25098">
        <ele>1816</ele>
        <time>2022-01-09T08:45:59Z</time>
      </trkpt>
      <trkpt lat="42.82525" lon="0.25095">
        <ele>1815.8</ele>
        <time>2022-01-09T08:46:00Z</time>
      </trkpt>
      <trkpt lat="42.82526" lon="0.25092">
        <ele>1815.8</ele>
        <time>2022-01-09T08:46:01Z</time>
      </trkpt>
      <trkpt lat="42.82527" lon="0.25089">
        <ele>1816</ele>
        <time>2022-01-09T08:46:02Z</time>
      </trkpt>
      <trkpt lat="42.82528" lon="0.25086">
        <ele>1816.4</ele>
        <time>2022-01-09T08:46:03Z</time>
      </trkpt>
      <trkpt lat="42.82528" lon="0.25083">
        <ele>1816.4</ele>
        <time>2022-01-09T08:46:04Z</time>
      </trkpt>
      <trkpt lat="42.82528" lon="0.2508">
        <ele>1816.4</ele>
        <time>2022-01-09T08:46:05Z</time>
      </trkpt>
      <trkpt lat="42.82528" lon="0.25077">
        <ele>1816.4</ele>
        <time>2022-01-09T08:46:06Z</time>
      </trkpt>
      <trkpt lat="42.82528" lon="0.25075">
        <ele>1816.4</ele>
        <time>2022-01-09T08:46:07Z</time>
      </trkpt>
      <trkpt lat="42.82528" lon="0.25072">
        <ele>1816.6</ele>
        <time>2022-01-09T08:46:08Z</time>
      </trkpt>
      <trkpt lat="42.82528" lon="0.25069">
        <ele>1816.8</ele>
        <time>2022-01-09T08:46:09Z</time>
      </trkpt>
      <trkpt lat="42.82529" lon="0.25066">
        <ele>1817</ele>
        <time>2022-01-09T08:46:10Z</time>
      </trkpt>
      <trkpt lat="42.82529" lon="0.25064">
        <ele>1817.2</ele>
        <time>2022-01-09T08:46:11Z</time>
      </trkpt>
      <trkpt lat="42.82529" lon="0.25061">
        <ele>1817.4</ele>
        <time>2022-01-09T08:46:12Z</time>
      </trkpt>
      <trkpt lat="42.8253" lon="0.25058">
        <ele>1817.6</ele>
        <time>2022-01-09T08:46:13Z</time>
      </trkpt>
      <trkpt lat="42.8253" lon="0.25056">
        <ele>1817.8</ele>
        <time>2022-01-09T08:46:14Z</time>
      </trkpt>
      <trkpt lat="42.8253" lon="0.25054">
        <ele>1817.6</ele>
        <time>2022-01-09T08:46:15Z</time>
      </trkpt>
      <trkpt lat="42.82531" lon="0.25053">
        <ele>1817.8</ele>
        <time>2022-01-09T08:46:16Z</time>
      </trkpt>
      <trkpt lat="42.82531" lon="0.25052">
        <ele>1818.2</ele>
        <time>2022-01-09T08:46:17Z</time>
      </trkpt>
      <trkpt lat="42.82531" lon="0.2505">
        <ele>1818</ele>
        <time>2022-01-09T08:46:18Z</time>
      </trkpt>
      <trkpt lat="42.82531" lon="0.25049">
        <ele>1818</ele>
        <time>2022-01-09T08:46:19Z</time>
      </trkpt>
      <trkpt lat="42.82533" lon="0.25041">
        <ele>1818.2</ele>
        <time>2022-01-09T08:46:20Z</time>
      </trkpt>
      <trkpt lat="42.82533" lon="0.25039">
        <ele>1818.4</ele>
        <time>2022-01-09T08:46:21Z</time>
      </trkpt>
      <trkpt lat="42.82533" lon="0.25038">
        <ele>1819</ele>
        <time>2022-01-09T08:46:22Z</time>
      </trkpt>
      <trkpt lat="42.82533" lon="0.25036">
        <ele>1819.6</ele>
        <time>2022-01-09T08:46:23Z</time>
      </trkpt>
      <trkpt lat="42.82534" lon="0.25035">
        <ele>1820</ele>
        <time>2022-01-09T08:46:24Z</time>
      </trkpt>
      <trkpt lat="42.82535" lon="0.25025">
        <ele>1820</ele>
        <time>2022-01-09T08:46:25Z</time>
      </trkpt>
      <trkpt lat="42.82536" lon="0.25022">
        <ele>1820.4</ele>
        <time>2022-01-09T08:46:26Z</time>
      </trkpt>
      <trkpt lat="42.82537" lon="0.2502">
        <ele>1820.8</ele>
        <time>2022-01-09T08:46:27Z</time>
      </trkpt>
      <trkpt lat="42.82538" lon="0.25017">
        <ele>1820.8</ele>
        <time>2022-01-09T08:46:28Z</time>
      </trkpt>
      <trkpt lat="42.82539" lon="0.25014">
        <ele>1821</ele>
        <time>2022-01-09T08:46:29Z</time>
      </trkpt>
      <trkpt lat="42.82539" lon="0.25012">
        <ele>1821.2</ele>
        <time>2022-01-09T08:46:30Z</time>
      </trkpt>
      <trkpt lat="42.82539" lon="0.2501">
        <ele>1821.2</ele>
        <time>2022-01-09T08:46:31Z</time>
      </trkpt>
      <trkpt lat="42.82539" lon="0.25008">
        <ele>1821.4</ele>
        <time>2022-01-09T08:46:32Z</time>
      </trkpt>
      <trkpt lat="42.82539" lon="0.25005">
        <ele>1821.4</ele>
        <time>2022-01-09T08:46:33Z</time>
      </trkpt>
      <trkpt lat="42.82539" lon="0.25003">
        <ele>1821.6</ele>
        <time>2022-01-09T08:46:34Z</time>
      </trkpt>
      <trkpt lat="42.82539" lon="0.25001">
        <ele>1822.4</ele>
        <time>2022-01-09T08:46:35Z</time>
      </trkpt>
      <trkpt lat="42.8254" lon="0.24998">
        <ele>1822.6</ele>
        <time>2022-01-09T08:46:36Z</time>
      </trkpt>
      <trkpt lat="42.8254" lon="0.24994">
        <ele>1822.4</ele>
        <time>2022-01-09T08:46:37Z</time>
      </trkpt>
      <trkpt lat="42.82541" lon="0.24991">
        <ele>1822.8</ele>
        <time>2022-01-09T08:46:38Z</time>
      </trkpt>
      <trkpt lat="42.82541" lon="0.24988">
        <ele>1823.4</ele>
        <time>2022-01-09T08:46:39Z</time>
      </trkpt>
      <trkpt lat="42.82541" lon="0.24986">
        <ele>1823.4</ele>
        <time>2022-01-09T08:46:40Z</time>
      </trkpt>
      <trkpt lat="42.82542" lon="0.24983">
        <ele>1823.6</ele>
        <time>2022-01-09T08:46:41Z</time>
      </trkpt>
      <trkpt lat="42.82542" lon="0.24981">
        <ele>1823.8</ele>
        <time>2022-01-09T08:46:42Z</time>
      </trkpt>
      <trkpt lat="42.82542" lon="0.24978">
        <ele>1824</ele>
        <time>2022-01-09T08:46:43Z</time>
      </trkpt>
      <trkpt lat="42.82542" lon="0.24975">
        <ele>1824</ele>
        <time>2022-01-09T08:46:44Z</time>
      </trkpt>
      <trkpt lat="42.82543" lon="0.24973">
        <ele>1824.2</ele>
        <time>2022-01-09T08:46:45Z</time>
      </trkpt>
      <trkpt lat="42.82543" lon="0.2497">
        <ele>1824.6</ele>
        <time>2022-01-09T08:46:46Z</time>
      </trkpt>
      <trkpt lat="42.82544" lon="0.24968">
        <ele>1824.6</ele>
        <time>2022-01-09T08:46:47Z</time>
      </trkpt>
      <trkpt lat="42.82544" lon="0.24966">
        <ele>1824.8</ele>
        <time>2022-01-09T08:46:48Z</time>
      </trkpt>
      <trkpt lat="42.82544" lon="0.24963">
        <ele>1825.2</ele>
        <time>2022-01-09T08:46:49Z</time>
      </trkpt>
      <trkpt lat="42.82545" lon="0.24961">
        <ele>1825.2</ele>
        <time>2022-01-09T08:46:50Z</time>
      </trkpt>
      <trkpt lat="42.82545" lon="0.24959">
        <ele>1826</ele>
        <time>2022-01-09T08:46:51Z</time>
      </trkpt>
      <trkpt lat="42.82546" lon="0.24956">
        <ele>1826.4</ele>
        <time>2022-01-09T08:46:52Z</time>
      </trkpt>
      <trkpt lat="42.82546" lon="0.24954">
        <ele>1826.6</ele>
        <time>2022-01-09T08:46:53Z</time>
      </trkpt>
      <trkpt lat="42.82547" lon="0.24952">
        <ele>1826.6</ele>
        <time>2022-01-09T08:46:54Z</time>
      </trkpt>
      <trkpt lat="42.82547" lon="0.2495">
        <ele>1826.8</ele>
        <time>2022-01-09T08:46:55Z</time>
      </trkpt>
      <trkpt lat="42.82547" lon="0.24949">
        <ele>1827</ele>
        <time>2022-01-09T08:46:56Z</time>
      </trkpt>
      <trkpt lat="42.82548" lon="0.24948">
        <ele>1827.2</ele>
        <time>2022-01-09T08:46:57Z</time>
      </trkpt>
      <trkpt lat="42.82548" lon="0.24947">
        <ele>1827.6</ele>
        <time>2022-01-09T08:46:58Z</time>
      </trkpt>
      <trkpt lat="42.82548" lon="0.24946">
        <ele>1828</ele>
        <time>2022-01-09T08:46:59Z</time>
      </trkpt>
      <trkpt lat="42.82548" lon="0.24945">
        <ele>1828.4</ele>
        <time>2022-01-09T08:47:00Z</time>
      </trkpt>
      <trkpt lat="42.82548" lon="0.24944">
        <ele>1828.8</ele>
        <time>2022-01-09T08:47:01Z</time>
      </trkpt>
      <trkpt lat="42.82548" lon="0.24943">
        <ele>1829.2</ele>
        <time>2022-01-09T08:47:02Z</time>
      </trkpt>
      <trkpt lat="42.8255" lon="0.24933">
        <ele>1829.4</ele>
        <time>2022-01-09T08:47:03Z</time>
      </trkpt>
      <trkpt lat="42.8255" lon="0.24931">
        <ele>1829.6</ele>
        <time>2022-01-09T08:47:04Z</time>
      </trkpt>
      <trkpt lat="42.82551" lon="0.24929">
        <ele>1829.8</ele>
        <time>2022-01-09T08:47:05Z</time>
      </trkpt>
      <trkpt lat="42.82551" lon="0.24927">
        <ele>1830</ele>
        <time>2022-01-09T08:47:06Z</time>
      </trkpt>
      <trkpt lat="42.82551" lon="0.24924">
        <ele>1830.2</ele>
        <time>2022-01-09T08:47:07Z</time>
      </trkpt>
      <trkpt lat="42.82552" lon="0.24922">
        <ele>1830.6</ele>
        <time>2022-01-09T08:47:08Z</time>
      </trkpt>
      <trkpt lat="42.82553" lon="0.2492">
        <ele>1831</ele>
        <time>2022-01-09T08:47:09Z</time>
      </trkpt>
      <trkpt lat="42.82554" lon="0.24918">
        <ele>1831.2</ele>
        <time>2022-01-09T08:47:10Z</time>
      </trkpt>
      <trkpt lat="42.82555" lon="0.24916">
        <ele>1831.2</ele>
        <time>2022-01-09T08:47:11Z</time>
      </trkpt>
      <trkpt lat="42.82556" lon="0.24914">
        <ele>1831.6</ele>
        <time>2022-01-09T08:47:12Z</time>
      </trkpt>
      <trkpt lat="42.82556" lon="0.24911">
        <ele>1831.4</ele>
        <time>2022-01-09T08:47:13Z</time>
      </trkpt>
      <trkpt lat="42.82558" lon="0.2491">
        <ele>1831.8</ele>
        <time>2022-01-09T08:47:14Z</time>
      </trkpt>
      <trkpt lat="42.82559" lon="0.24908">
        <ele>1832.2</ele>
        <time>2022-01-09T08:47:15Z</time>
      </trkpt>
      <trkpt lat="42.8256" lon="0.24906">
        <ele>1832.2</ele>
        <time>2022-01-09T08:47:16Z</time>
      </trkpt>
      <trkpt lat="42.82562" lon="0.24904">
        <ele>1832.2</ele>
        <time>2022-01-09T08:47:17Z</time>
      </trkpt>
      <trkpt lat="42.82563" lon="0.24902">
        <ele>1832.4</ele>
        <time>2022-01-09T08:47:18Z</time>
      </trkpt>
      <trkpt lat="42.82564" lon="0.24901">
        <ele>1832.4</ele>
        <time>2022-01-09T08:47:19Z</time>
      </trkpt>
      <trkpt lat="42.82564" lon="0.24901">
        <ele>1832.6</ele>
        <time>2022-01-09T08:47:20Z</time>
      </trkpt>
      <trkpt lat="42.82565" lon="0.249">
        <ele>1832.8</ele>
        <time>2022-01-09T08:47:21Z</time>
      </trkpt>
      <trkpt lat="42.82566" lon="0.24899">
        <ele>1832.8</ele>
        <time>2022-01-09T08:47:22Z</time>
      </trkpt>
      <trkpt lat="42.82567" lon="0.24898">
        <ele>1833</ele>
        <time>2022-01-09T08:47:23Z</time>
      </trkpt>
      <trkpt lat="42.82567" lon="0.24898">
        <ele>1833.2</ele>
        <time>2022-01-09T08:47:24Z</time>
      </trkpt>
      <trkpt lat="42.82573" lon="0.24891">
        <ele>1833.4</ele>
        <time>2022-01-09T08:47:25Z</time>
      </trkpt>
      <trkpt lat="42.82575" lon="0.2489">
        <ele>1833.4</ele>
        <time>2022-01-09T08:47:26Z</time>
      </trkpt>
      <trkpt lat="42.82577" lon="0.24888">
        <ele>1833.6</ele>
        <time>2022-01-09T08:47:27Z</time>
      </trkpt>
      <trkpt lat="42.82578" lon="0.24887">
        <ele>1833.8</ele>
        <time>2022-01-09T08:47:28Z</time>
      </trkpt>
      <trkpt lat="42.8258" lon="0.24885">
        <ele>1833.8</ele>
        <time>2022-01-09T08:47:29Z</time>
      </trkpt>
      <trkpt lat="42.82581" lon="0.24885">
        <ele>1834</ele>
        <time>2022-01-09T08:47:30Z</time>
      </trkpt>
      <trkpt lat="42.82582" lon="0.24884">
        <ele>1834.4</ele>
        <time>2022-01-09T08:47:31Z</time>
      </trkpt>
      <trkpt lat="42.82583" lon="0.24884">
        <ele>1834.6</ele>
        <time>2022-01-09T08:47:32Z</time>
      </trkpt>
      <trkpt lat="42.82584" lon="0.24883">
        <ele>1835</ele>
        <time>2022-01-09T08:47:33Z</time>
      </trkpt>
      <trkpt lat="42.82585" lon="0.24883">
        <ele>1835</ele>
        <time>2022-01-09T08:47:34Z</time>
      </trkpt>
      <trkpt lat="42.8259" lon="0.2488">
        <ele>1834.8</ele>
        <time>2022-01-09T08:47:35Z</time>
      </trkpt>
      <trkpt lat="42.8259" lon="0.2488">
        <ele>1834.8</ele>
        <time>2022-01-09T08:47:36Z</time>
      </trkpt>
      <trkpt lat="42.82591" lon="0.2488">
        <ele>1834.4</ele>
        <time>2022-01-09T08:47:37Z</time>
      </trkpt>
      <trkpt lat="42.82591" lon="0.2488">
        <ele>1834.2</ele>
        <time>2022-01-09T08:47:38Z</time>
      </trkpt>
      <trkpt lat="42.82592" lon="0.2488">
        <ele>1834.2</ele>
        <time>2022-01-09T08:47:39Z</time>
      </trkpt>
      <trkpt lat="42.82592" lon="0.24879">
        <ele>1834.2</ele>
        <time>2022-01-09T08:47:40Z</time>
      </trkpt>
      <trkpt lat="42.82592" lon="0.24879">
        <ele>1834.2</ele>
        <time>2022-01-09T08:47:41Z</time>
      </trkpt>
      <trkpt lat="42.82593" lon="0.24879">
        <ele>1834.2</ele>
        <time>2022-01-09T08:47:42Z</time>
      </trkpt>
      <trkpt lat="42.82593" lon="0.24879">
        <ele>1835.4</ele>
        <time>2022-01-09T08:47:43Z</time>
      </trkpt>
      <trkpt lat="42.82594" lon="0.24879">
        <ele>1835.2</ele>
        <time>2022-01-09T08:47:44Z</time>
      </trkpt>
      <trkpt lat="42.82594" lon="0.24879">
        <ele>1834.8</ele>
        <time>2022-01-09T08:47:45Z</time>
      </trkpt>
      <trkpt lat="42.82595" lon="0.24879">
        <ele>1834.6</ele>
        <time>2022-01-09T08:47:46Z</time>
      </trkpt>
      <trkpt lat="42.82595" lon="0.24879">
        <ele>1834.6</ele>
        <time>2022-01-09T08:47:47Z</time>
      </trkpt>
      <trkpt lat="42.82595" lon="0.24879">
        <ele>1834.4</ele>
        <time>2022-01-09T08:47:48Z</time>
      </trkpt>
      <trkpt lat="42.82596" lon="0.24879">
        <ele>1834.4</ele>
        <time>2022-01-09T08:47:49Z</time>
      </trkpt>
      <trkpt lat="42.82596" lon="0.24879">
        <ele>1834.2</ele>
        <time>2022-01-09T08:47:50Z</time>
      </trkpt>
      <trkpt lat="42.82597" lon="0.24879">
        <ele>1834.2</ele>
        <time>2022-01-09T08:47:51Z</time>
      </trkpt>
      <trkpt lat="42.82597" lon="0.24879">
        <ele>1834</ele>
        <time>2022-01-09T08:47:52Z</time>
      </trkpt>
      <trkpt lat="42.82598" lon="0.24879">
        <ele>1834.2</ele>
        <time>2022-01-09T08:47:53Z</time>
      </trkpt>
      <trkpt lat="42.82598" lon="0.24879">
        <ele>1834.4</ele>
        <time>2022-01-09T08:47:54Z</time>
      </trkpt>
      <trkpt lat="42.82599" lon="0.24879">
        <ele>1834.4</ele>
        <time>2022-01-09T08:47:55Z</time>
      </trkpt>
      <trkpt lat="42.82599" lon="0.2488">
        <ele>1834.4</ele>
        <time>2022-01-09T08:47:56Z</time>
      </trkpt>
      <trkpt lat="42.82599" lon="0.24881">
        <ele>1834.4</ele>
        <time>2022-01-09T08:47:57Z</time>
      </trkpt>
      <trkpt lat="42.82599" lon="0.24883">
        <ele>1834.4</ele>
        <time>2022-01-09T08:47:58Z</time>
      </trkpt>
      <trkpt lat="42.826" lon="0.24884">
        <ele>1834.4</ele>
        <time>2022-01-09T08:47:59Z</time>
      </trkpt>
      <trkpt lat="42.826" lon="0.24885">
        <ele>1834.2</ele>
        <time>2022-01-09T08:48:00Z</time>
      </trkpt>
      <trkpt lat="42.826" lon="0.24887">
        <ele>1833</ele>
        <time>2022-01-09T08:48:01Z</time>
      </trkpt>
      <trkpt lat="42.826" lon="0.24888">
        <ele>1832.2</ele>
        <time>2022-01-09T08:48:02Z</time>
      </trkpt>
      <trkpt lat="42.82602" lon="0.24901">
        <ele>1830.4</ele>
        <time>2022-01-09T08:48:03Z</time>
      </trkpt>
      <trkpt lat="42.82601" lon="0.24905">
        <ele>1828</ele>
        <time>2022-01-09T08:48:04Z</time>
      </trkpt>
      <trkpt lat="42.826" lon="0.24919">
        <ele>1825.4</ele>
        <time>2022-01-09T08:48:05Z</time>
      </trkpt>
      <trkpt lat="42.82599" lon="0.24924">
        <ele>1822.2</ele>
        <time>2022-01-09T08:48:06Z</time>
      </trkpt>
      <trkpt lat="42.82598" lon="0.24941">
        <ele>1820.6</ele>
        <time>2022-01-09T08:48:07Z</time>
      </trkpt>
      <trkpt lat="42.82599" lon="0.24946">
        <ele>1818.6</ele>
        <time>2022-01-09T08:48:08Z</time>
      </trkpt>
      <trkpt lat="42.82601" lon="0.24967">
        <ele>1815</ele>
        <time>2022-01-09T08:48:09Z</time>
      </trkpt>
      <trkpt lat="42.82602" lon="0.24976">
        <ele>1812.2</ele>
        <time>2022-01-09T08:48:10Z</time>
      </trkpt>
      <trkpt lat="42.82605" lon="0.24995">
        <ele>1810</ele>
        <time>2022-01-09T08:48:11Z</time>
      </trkpt>
      <trkpt lat="42.8261" lon="0.25005">
        <ele>1806.4</ele>
        <time>2022-01-09T08:48:12Z</time>
      </trkpt>
      <trkpt lat="42.82611" lon="0.2501">
        <ele>1802.8</ele>
        <time>2022-01-09T08:48:13Z</time>
      </trkpt>
      <trkpt lat="42.82611" lon="0.25015">
        <ele>1799.4</ele>
        <time>2022-01-09T08:48:14Z</time>
      </trkpt>
      <trkpt lat="42.82616" lon="0.25033">
        <ele>1797.6</ele>
        <time>2022-01-09T08:48:15Z</time>
      </trkpt>
      <trkpt lat="42.82618" lon="0.25042">
        <ele>1796.2</ele>
        <time>2022-01-09T08:48:16Z</time>
      </trkpt>
      <trkpt lat="42.82624" lon="0.2506">
        <ele>1795.6</ele>
        <time>2022-01-09T08:48:17Z</time>
      </trkpt>
      <trkpt lat="42.8263" lon="0.25075">
        <ele>1792.6</ele>
        <time>2022-01-09T08:48:18Z</time>
      </trkpt>
      <trkpt lat="42.82635" lon="0.25094">
        <ele>1789.2</ele>
        <time>2022-01-09T08:48:19Z</time>
      </trkpt>
      <trkpt lat="42.8264" lon="0.25112">
        <ele>1784</ele>
        <time>2022-01-09T08:48:20Z</time>
      </trkpt>
      <trkpt lat="42.82642" lon="0.25129">
        <ele>1778</ele>
        <time>2022-01-09T08:48:21Z</time>
      </trkpt>
      <trkpt lat="42.82643" lon="0.25144">
        <ele>1774</ele>
        <time>2022-01-09T08:48:22Z</time>
      </trkpt>
      <trkpt lat="42.82646" lon="0.25157">
        <ele>1769.6</ele>
        <time>2022-01-09T08:48:23Z</time>
      </trkpt>
      <trkpt lat="42.82647" lon="0.25163">
        <ele>1764.8</ele>
        <time>2022-01-09T08:48:24Z</time>
      </trkpt>
      <trkpt lat="42.82647" lon="0.25169">
        <ele>1760.4</ele>
        <time>2022-01-09T08:48:25Z</time>
      </trkpt>
      <trkpt lat="42.8265" lon="0.25186">
        <ele>1757.8</ele>
        <time>2022-01-09T08:48:26Z</time>
      </trkpt>
      <trkpt lat="42.82651" lon="0.25191">
        <ele>1754.2</ele>
        <time>2022-01-09T08:48:27Z</time>
      </trkpt>
      <trkpt lat="42.82658" lon="0.25211">
        <ele>1748.4</ele>
        <time>2022-01-09T08:48:28Z</time>
      </trkpt>
      <trkpt lat="42.82661" lon="0.25221">
        <ele>1745.6</ele>
        <time>2022-01-09T08:48:29Z</time>
      </trkpt>
      <trkpt lat="42.82668" lon="0.25239">
        <ele>1738.6</ele>
        <time>2022-01-09T08:48:30Z</time>
      </trkpt>
      <trkpt lat="42.82676" lon="0.25254">
        <ele>1733.8</ele>
        <time>2022-01-09T08:48:31Z</time>
      </trkpt>
      <trkpt lat="42.82681" lon="0.25271">
        <ele>1725.2</ele>
        <time>2022-01-09T08:48:32Z</time>
      </trkpt>
      <trkpt lat="42.82681" lon="0.25289">
        <ele>1717.2</ele>
        <time>2022-01-09T08:48:33Z</time>
      </trkpt>
      <trkpt lat="42.8268" lon="0.25308">
        <ele>1711</ele>
        <time>2022-01-09T08:48:34Z</time>
      </trkpt>
      <trkpt lat="42.82678" lon="0.2533">
        <ele>1701.6</ele>
        <time>2022-01-09T08:48:35Z</time>
      </trkpt>
      <trkpt lat="42.82674" lon="0.25353">
        <ele>1691.2</ele>
        <time>2022-01-09T08:48:36Z</time>
      </trkpt>
      <trkpt lat="42.82669" lon="0.25376">
        <ele>1686.2</ele>
        <time>2022-01-09T08:48:37Z</time>
      </trkpt>
      <trkpt lat="42.82663" lon="0.25399">
        <ele>1681.8</ele>
        <time>2022-01-09T08:48:38Z</time>
      </trkpt>
      <trkpt lat="42.82658" lon="0.25422">
        <ele>1676.8</ele>
        <time>2022-01-09T08:48:39Z</time>
      </trkpt>
      <trkpt lat="42.8265" lon="0.25445">
        <ele>1671.4</ele>
        <time>2022-01-09T08:48:40Z</time>
      </trkpt>
      <trkpt lat="42.82641" lon="0.25468">
        <ele>1666</ele>
        <time>2022-01-09T08:48:41Z</time>
      </trkpt>
      <trkpt lat="42.82632" lon="0.25492">
        <ele>1660.4</ele>
        <time>2022-01-09T08:48:42Z</time>
      </trkpt>
      <trkpt lat="42.82624" lon="0.25515">
        <ele>1655.8</ele>
        <time>2022-01-09T08:48:43Z</time>
      </trkpt>
      <trkpt lat="42.82617" lon="0.25538">
        <ele>1650.8</ele>
        <time>2022-01-09T08:48:44Z</time>
      </trkpt>
      <trkpt lat="42.82611" lon="0.25562">
        <ele>1646</ele>
        <time>2022-01-09T08:48:45Z</time>
      </trkpt>
      <trkpt lat="42.82605" lon="0.25586">
        <ele>1640.4</ele>
        <time>2022-01-09T08:48:46Z</time>
      </trkpt>
      <trkpt lat="42.82601" lon="0.25609">
        <ele>1635.8</ele>
        <time>2022-01-09T08:48:47Z</time>
      </trkpt>
      <trkpt lat="42.826" lon="0.25632">
        <ele>1632</ele>
        <time>2022-01-09T08:48:48Z</time>
      </trkpt>
      <trkpt lat="42.82599" lon="0.25654">
        <ele>1624.4</ele>
        <time>2022-01-09T08:48:49Z</time>
      </trkpt>
      <trkpt lat="42.82599" lon="0.25675">
        <ele>1620.2</ele>
        <time>2022-01-09T08:48:50Z</time>
      </trkpt>
      <trkpt lat="42.82598" lon="0.25696">
        <ele>1617.6</ele>
        <time>2022-01-09T08:48:51Z</time>
      </trkpt>
      <trkpt lat="42.82597" lon="0.25717">
        <ele>1615.2</ele>
        <time>2022-01-09T08:48:52Z</time>
      </trkpt>
      <trkpt lat="42.82597" lon="0.25737">
        <ele>1612.8</ele>
        <time>2022-01-09T08:48:53Z</time>
      </trkpt>
      <trkpt lat="42.82596" lon="0.25756">
        <ele>1610</ele>
        <time>2022-01-09T08:48:54Z</time>
      </trkpt>
      <trkpt lat="42.82593" lon="0.25773">
        <ele>1606.8</ele>
        <time>2022-01-09T08:48:55Z</time>
      </trkpt>
      <trkpt lat="42.82587" lon="0.25786">
        <ele>1603.6</ele>
        <time>2022-01-09T08:48:56Z</time>
      </trkpt>
      <trkpt lat="42.8259" lon="0.2579">
        <ele>1601.2</ele>
        <time>2022-01-09T08:48:57Z</time>
      </trkpt>
      <trkpt lat="42.82592" lon="0.25795">
        <ele>1599.2</ele>
        <time>2022-01-09T08:48:58Z</time>
      </trkpt>
      <trkpt lat="42.82594" lon="0.25803">
        <ele>1598</ele>
        <time>2022-01-09T08:48:59Z</time>
      </trkpt>
      <trkpt lat="42.82593" lon="0.25803">
        <ele>1596.4</ele>
        <time>2022-01-09T08:49:00Z</time>
      </trkpt>
      <trkpt lat="42.82591" lon="0.25803">
        <ele>1595.4</ele>
        <time>2022-01-09T08:49:01Z</time>
      </trkpt>
      <trkpt lat="42.8259" lon="0.25803">
        <ele>1594.4</ele>
        <time>2022-01-09T08:49:02Z</time>
      </trkpt>
      <trkpt lat="42.82588" lon="0.25803">
        <ele>1594</ele>
        <time>2022-01-09T08:49:03Z</time>
      </trkpt>
      <trkpt lat="42.82586" lon="0.25803">
        <ele>1593.4</ele>
        <time>2022-01-09T08:49:04Z</time>
      </trkpt>
      <trkpt lat="42.82586" lon="0.25803">
        <ele>1592.8</ele>
        <time>2022-01-09T08:49:05Z</time>
      </trkpt>
      <trkpt lat="42.82585" lon="0.25803">
        <ele>1592.6</ele>
        <time>2022-01-09T08:49:06Z</time>
      </trkpt>
      <trkpt lat="42.82585" lon="0.25803">
        <ele>1592.8</ele>
        <time>2022-01-09T08:49:07Z</time>
      </trkpt>
      <trkpt lat="42.82584" lon="0.25803">
        <ele>1592.4</ele>
        <time>2022-01-09T08:49:08Z</time>
      </trkpt>
      <trkpt lat="42.82584" lon="0.25803">
        <ele>1592.2</ele>
        <time>2022-01-09T08:49:09Z</time>
      </trkpt>
      <trkpt lat="42.82583" lon="0.25803">
        <ele>1592.2</ele>
        <time>2022-01-09T08:49:10Z</time>
      </trkpt>
      <trkpt lat="42.82583" lon="0.25803">
        <ele>1592.4</ele>
        <time>2022-01-09T08:49:11Z</time>
      </trkpt>
      <trkpt lat="42.82582" lon="0.25803">
        <ele>1592</ele>
        <time>2022-01-09T08:49:12Z</time>
      </trkpt>
      <trkpt lat="42.82582" lon="0.25803">
        <ele>1592</ele>
        <time>2022-01-09T08:49:13Z</time>
      </trkpt>
      <trkpt lat="42.82581" lon="0.25803">
        <ele>1592</ele>
        <time>2022-01-09T08:49:14Z</time>
      </trkpt>
      <trkpt lat="42.82581" lon="0.25803">
        <ele>1592</ele>
        <time>2022-01-09T08:49:15Z</time>
      </trkpt>
      <trkpt lat="42.82581" lon="0.25803">
        <ele>1592</ele>
        <time>2022-01-09T08:49:16Z</time>
      </trkpt>
      <trkpt lat="42.82581" lon="0.25803">
        <ele>1591.8</ele>
        <time>2022-01-09T08:49:17Z</time>
      </trkpt>
      <trkpt lat="42.82581" lon="0.25803">
        <ele>1591.8</ele>
        <time>2022-01-09T08:49:18Z</time>
      </trkpt>
      <trkpt lat="42.82581" lon="0.25803">
        <ele>1591.8</ele>
        <time>2022-01-09T08:49:19Z</time>
      </trkpt>
      <trkpt lat="42.82581" lon="0.25803">
        <ele>1591.6</ele>
        <time>2022-01-09T08:49:20Z</time>
      </trkpt>
      <trkpt lat="42.82581" lon="0.25803">
        <ele>1591.6</ele>
        <time>2022-01-09T08:49:21Z</time>
      </trkpt>
      <trkpt lat="42.82581" lon="0.25803">
        <ele>1591.6</ele>
        <time>2022-01-09T08:49:22Z</time>
      </trkpt>
      <trkpt lat="42.82582" lon="0.258">
        <ele>1591.4</ele>
        <time>2022-01-09T08:49:23Z</time>
      </trkpt>
      <trkpt lat="42.82582" lon="0.258">
        <ele>1591.4</ele>
        <time>2022-01-09T08:49:24Z</time>
      </trkpt>
      <trkpt lat="42.82582" lon="0.258">
        <ele>1591.4</ele>
        <time>2022-01-09T08:49:25Z</time>
      </trkpt>
      <trkpt lat="42.82582" lon="0.258">
        <ele>1591.4</ele>
        <time>2022-01-09T08:49:26Z</time>
      </trkpt>
      <trkpt lat="42.82582" lon="0.258">
        <ele>1592</ele>
        <time>2022-01-09T08:49:27Z</time>
      </trkpt>
      <trkpt lat="42.82582" lon="0.258">
        <ele>1591.8</ele>
        <time>2022-01-09T08:49:28Z</time>
      </trkpt>
      <trkpt lat="42.82582" lon="0.258">
        <ele>1591.8</ele>
        <time>2022-01-09T08:49:29Z</time>
      </trkpt>
      <trkpt lat="42.82582" lon="0.258">
        <ele>1591.8</ele>
        <time>2022-01-09T08:49:30Z</time>
      </trkpt>
      <trkpt lat="42.82582" lon="0.258">
        <ele>1591.8</ele>
        <time>2022-01-09T08:49:31Z</time>
      </trkpt>
      <trkpt lat="42.82582" lon="0.258">
        <ele>1591.6</ele>
        <time>2022-01-09T08:49:32Z</time>
      </trkpt>
      <trkpt lat="42.82582" lon="0.258">
        <ele>1591.6</ele>
        <time>2022-01-09T08:49:33Z</time>
      </trkpt>
      <trkpt lat="42.82581" lon="0.25802">
        <ele>1591.6</ele>
        <time>2022-01-09T08:49:34Z</time>
      </trkpt>
      <trkpt lat="42.82581" lon="0.25802">
        <ele>1591.8</ele>
        <time>2022-01-09T08:49:35Z</time>
      </trkpt>
      <trkpt lat="42.82581" lon="0.25802">
        <ele>1591.6</ele>
        <time>2022-01-09T08:49:36Z</time>
      </trkpt>
      <trkpt lat="42.82581" lon="0.25802">
        <ele>1591.6</ele>
        <time>2022-01-09T08:49:37Z</time>
      </trkpt>
      <trkpt lat="42.82578" lon="0.25801">
        <ele>1591.8</ele>
        <time>2022-01-09T08:49:38Z</time>
      </trkpt>
      <trkpt lat="42.82576" lon="0.25799">
        <ele>1591.8</ele>
        <time>2022-01-09T08:49:39Z</time>
      </trkpt>
      <trkpt lat="42.82574" lon="0.25797">
        <ele>1591.8</ele>
        <time>2022-01-09T08:49:40Z</time>
      </trkpt>
      <trkpt lat="42.82571" lon="0.25795">
        <ele>1591.6</ele>
        <time>2022-01-09T08:49:41Z</time>
      </trkpt>
      <trkpt lat="42.82569" lon="0.25793">
        <ele>1591.8</ele>
        <time>2022-01-09T08:49:42Z</time>
      </trkpt>
      <trkpt lat="42.82566" lon="0.25791">
        <ele>1592</ele>
        <time>2022-01-09T08:49:43Z</time>
      </trkpt>
      <trkpt lat="42.82563" lon="0.25789">
        <ele>1592</ele>
        <time>2022-01-09T08:49:44Z</time>
      </trkpt>
      <trkpt lat="42.8256" lon="0.25787">
        <ele>1591.8</ele>
        <time>2022-01-09T08:49:45Z</time>
      </trkpt>
      <trkpt lat="42.82558" lon="0.25785">
        <ele>1591.8</ele>
        <time>2022-01-09T08:49:46Z</time>
      </trkpt>
      <trkpt lat="42.82556" lon="0.25783">
        <ele>1592</ele>
        <time>2022-01-09T08:49:47Z</time>
      </trkpt>
      <trkpt lat="42.82553" lon="0.25779">
        <ele>1592.2</ele>
        <time>2022-01-09T08:49:48Z</time>
      </trkpt>
      <trkpt lat="42.82551" lon="0.25776">
        <ele>1592.2</ele>
        <time>2022-01-09T08:49:49Z</time>
      </trkpt>
      <trkpt lat="42.82549" lon="0.25773">
        <ele>1592.4</ele>
        <time>2022-01-09T08:49:50Z</time>
      </trkpt>
      <trkpt lat="42.82546" lon="0.2577">
        <ele>1592.4</ele>
        <time>2022-01-09T08:49:51Z</time>
      </trkpt>
      <trkpt lat="42.82545" lon="0.25767">
        <ele>1592.2</ele>
        <time>2022-01-09T08:49:52Z</time>
      </trkpt>
      <trkpt lat="42.82543" lon="0.25765">
        <ele>1592.4</ele>
        <time>2022-01-09T08:49:53Z</time>
      </trkpt>
      <trkpt lat="42.82542" lon="0.25762">
        <ele>1592.6</ele>
        <time>2022-01-09T08:49:54Z</time>
      </trkpt>
      <trkpt lat="42.82541" lon="0.2576">
        <ele>1593.2</ele>
        <time>2022-01-09T08:49:55Z</time>
      </trkpt>
      <trkpt lat="42.82541" lon="0.25758">
        <ele>1593.2</ele>
        <time>2022-01-09T08:49:56Z</time>
      </trkpt>
      <trkpt lat="42.8254" lon="0.25756">
        <ele>1593.4</ele>
        <time>2022-01-09T08:49:57Z</time>
      </trkpt>
      <trkpt lat="42.8254" lon="0.25754">
        <ele>1593.8</ele>
        <time>2022-01-09T08:49:58Z</time>
      </trkpt>
      <trkpt lat="42.8254" lon="0.25752">
        <ele>1594.2</ele>
        <time>2022-01-09T08:49:59Z</time>
      </trkpt>
      <trkpt lat="42.82539" lon="0.2575">
        <ele>1594.8</ele>
        <time>2022-01-09T08:50:00Z</time>
      </trkpt>
      <trkpt lat="42.8254" lon="0.25748">
        <ele>1595.4</ele>
        <time>2022-01-09T08:50:01Z</time>
      </trkpt>
      <trkpt lat="42.8254" lon="0.25747">
        <ele>1595.4</ele>
        <time>2022-01-09T08:50:02Z</time>
      </trkpt>
      <trkpt lat="42.8254" lon="0.25745">
        <ele>1595.8</ele>
        <time>2022-01-09T08:50:03Z</time>
      </trkpt>
      <trkpt lat="42.82541" lon="0.25744">
        <ele>1596.2</ele>
        <time>2022-01-09T08:50:04Z</time>
      </trkpt>
      <trkpt lat="42.82541" lon="0.25742">
        <ele>1596.6</ele>
        <time>2022-01-09T08:50:05Z</time>
      </trkpt>
      <trkpt lat="42.82542" lon="0.2574">
        <ele>1597.2</ele>
        <time>2022-01-09T08:50:06Z</time>
      </trkpt>
      <trkpt lat="42.82542" lon="0.25739">
        <ele>1597.4</ele>
        <time>2022-01-09T08:50:07Z</time>
      </trkpt>
      <trkpt lat="42.82542" lon="0.25737">
        <ele>1597.8</ele>
        <time>2022-01-09T08:50:08Z</time>
      </trkpt>
      <trkpt lat="42.82542" lon="0.25736">
        <ele>1598.6</ele>
        <time>2022-01-09T08:50:09Z</time>
      </trkpt>
      <trkpt lat="42.82542" lon="0.25735">
        <ele>1598.6</ele>
        <time>2022-01-09T08:50:10Z</time>
      </trkpt>
      <trkpt lat="42.82542" lon="0.25735">
        <ele>1598.8</ele>
        <time>2022-01-09T08:50:11Z</time>
      </trkpt>
      <trkpt lat="42.82542" lon="0.25734">
        <ele>1599.2</ele>
        <time>2022-01-09T08:50:12Z</time>
      </trkpt>
      <trkpt lat="42.82542" lon="0.25733">
        <ele>1599.4</ele>
        <time>2022-01-09T08:50:13Z</time>
      </trkpt>
      <trkpt lat="42.82542" lon="0.25732">
        <ele>1600</ele>
        <time>2022-01-09T08:50:14Z</time>
      </trkpt>
      <trkpt lat="42.82542" lon="0.25731">
        <ele>1600.2</ele>
        <time>2022-01-09T08:50:15Z</time>
      </trkpt>
      <trkpt lat="42.82542" lon="0.2573">
        <ele>1600.6</ele>
        <time>2022-01-09T08:50:16Z</time>
      </trkpt>
      <trkpt lat="42.8254" lon="0.25722">
        <ele>1601</ele>
        <time>2022-01-09T08:50:17Z</time>
      </trkpt>
      <trkpt lat="42.8254" lon="0.2572">
        <ele>1601.2</ele>
        <time>2022-01-09T08:50:18Z</time>
      </trkpt>
      <trkpt lat="42.82539" lon="0.25719">
        <ele>1601.4</ele>
        <time>2022-01-09T08:50:19Z</time>
      </trkpt>
      <trkpt lat="42.82539" lon="0.25717">
        <ele>1601.6</ele>
        <time>2022-01-09T08:50:20Z</time>
      </trkpt>
      <trkpt lat="42.82538" lon="0.25716">
        <ele>1601.8</ele>
        <time>2022-01-09T08:50:21Z</time>
      </trkpt>
      <trkpt lat="42.82537" lon="0.25714">
        <ele>1602</ele>
        <time>2022-01-09T08:50:22Z</time>
      </trkpt>
      <trkpt lat="42.82537" lon="0.25712">
        <ele>1602.6</ele>
        <time>2022-01-09T08:50:23Z</time>
      </trkpt>
      <trkpt lat="42.82537" lon="0.25712">
        <ele>1602.8</ele>
        <time>2022-01-09T08:50:24Z</time>
      </trkpt>
      <trkpt lat="42.82537" lon="0.25712">
        <ele>1603.4</ele>
        <time>2022-01-09T08:50:25Z</time>
      </trkpt>
      <trkpt lat="42.82537" lon="0.25712">
        <ele>1603.6</ele>
        <time>2022-01-09T08:50:26Z</time>
      </trkpt>
      <trkpt lat="42.82536" lon="0.25707">
        <ele>1603.8</ele>
        <time>2022-01-09T08:50:27Z</time>
      </trkpt>
      <trkpt lat="42.82536" lon="0.25707">
        <ele>1604.2</ele>
        <time>2022-01-09T08:50:28Z</time>
      </trkpt>
      <trkpt lat="42.82534" lon="0.25704">
        <ele>1604.8</ele>
        <time>2022-01-09T08:50:29Z</time>
      </trkpt>
      <trkpt lat="42.82534" lon="0.25704">
        <ele>1605.2</ele>
        <time>2022-01-09T08:50:30Z</time>
      </trkpt>
      <trkpt lat="42.82534" lon="0.25701">
        <ele>1605.6</ele>
        <time>2022-01-09T08:50:31Z</time>
      </trkpt>
      <trkpt lat="42.82534" lon="0.25701">
        <ele>1605.8</ele>
        <time>2022-01-09T08:50:32Z</time>
      </trkpt>
      <trkpt lat="42.82533" lon="0.25698">
        <ele>1606</ele>
        <time>2022-01-09T08:50:33Z</time>
      </trkpt>
      <trkpt lat="42.82532" lon="0.25696">
        <ele>1606.4</ele>
        <time>2022-01-09T08:50:34Z</time>
      </trkpt>
      <trkpt lat="42.82532" lon="0.25694">
        <ele>1606.6</ele>
        <time>2022-01-09T08:50:35Z</time>
      </trkpt>
      <trkpt lat="42.82531" lon="0.25692">
        <ele>1607</ele>
        <time>2022-01-09T08:50:36Z</time>
      </trkpt>
      <trkpt lat="42.82531" lon="0.25691">
        <ele>1607</ele>
        <time>2022-01-09T08:50:37Z</time>
      </trkpt>
      <trkpt lat="42.82531" lon="0.25689">
        <ele>1607.4</ele>
        <time>2022-01-09T08:50:38Z</time>
      </trkpt>
      <trkpt lat="42.8253" lon="0.25687">
        <ele>1607.8</ele>
        <time>2022-01-09T08:50:39Z</time>
      </trkpt>
      <trkpt lat="42.8253" lon="0.25685">
        <ele>1608</ele>
        <time>2022-01-09T08:50:40Z</time>
      </trkpt>
      <trkpt lat="42.8253" lon="0.25684">
        <ele>1608.2</ele>
        <time>2022-01-09T08:50:41Z</time>
      </trkpt>
      <trkpt lat="42.8253" lon="0.25683">
        <ele>1608.6</ele>
        <time>2022-01-09T08:50:42Z</time>
      </trkpt>
      <trkpt lat="42.8253" lon="0.25682">
        <ele>1609</ele>
        <time>2022-01-09T08:50:43Z</time>
      </trkpt>
      <trkpt lat="42.82529" lon="0.25681">
        <ele>1608.8</ele>
        <time>2022-01-09T08:50:44Z</time>
      </trkpt>
      <trkpt lat="42.82529" lon="0.2568">
        <ele>1609.4</ele>
        <time>2022-01-09T08:50:45Z</time>
      </trkpt>
      <trkpt lat="42.82529" lon="0.25679">
        <ele>1609.6</ele>
        <time>2022-01-09T08:50:46Z</time>
      </trkpt>
      <trkpt lat="42.82529" lon="0.25678">
        <ele>1610</ele>
        <time>2022-01-09T08:50:47Z</time>
      </trkpt>
      <trkpt lat="42.82529" lon="0.2567">
        <ele>1610.2</ele>
        <time>2022-01-09T08:50:48Z</time>
      </trkpt>
      <trkpt lat="42.82529" lon="0.25668">
        <ele>1610.8</ele>
        <time>2022-01-09T08:50:49Z</time>
      </trkpt>
      <trkpt lat="42.82529" lon="0.25666">
        <ele>1610.8</ele>
        <time>2022-01-09T08:50:50Z</time>
      </trkpt>
      <trkpt lat="42.82528" lon="0.25664">
        <ele>1611.2</ele>
        <time>2022-01-09T08:50:51Z</time>
      </trkpt>
      <trkpt lat="42.82528" lon="0.25662">
        <ele>1611.2</ele>
        <time>2022-01-09T08:50:52Z</time>
      </trkpt>
      <trkpt lat="42.82528" lon="0.2566">
        <ele>1611.4</ele>
        <time>2022-01-09T08:50:53Z</time>
      </trkpt>
      <trkpt lat="42.82528" lon="0.25658">
        <ele>1612</ele>
        <time>2022-01-09T08:50:54Z</time>
      </trkpt>
      <trkpt lat="42.82528" lon="0.25658">
        <ele>1612.2</ele>
        <time>2022-01-09T08:50:55Z</time>
      </trkpt>
      <trkpt lat="42.82528" lon="0.25653">
        <ele>1612.4</ele>
        <time>2022-01-09T08:50:56Z</time>
      </trkpt>
      <trkpt lat="42.82528" lon="0.25653">
        <ele>1613.2</ele>
        <time>2022-01-09T08:50:57Z</time>
      </trkpt>
      <trkpt lat="42.8253" lon="0.25649">
        <ele>1613.4</ele>
        <time>2022-01-09T08:50:58Z</time>
      </trkpt>
      <trkpt lat="42.8253" lon="0.25647">
        <ele>1613.8</ele>
        <time>2022-01-09T08:50:59Z</time>
      </trkpt>
      <trkpt lat="42.82531" lon="0.25645">
        <ele>1614.2</ele>
        <time>2022-01-09T08:51:00Z</time>
      </trkpt>
      <trkpt lat="42.82531" lon="0.25643">
        <ele>1614.4</ele>
        <time>2022-01-09T08:51:01Z</time>
      </trkpt>
      <trkpt lat="42.82532" lon="0.25641">
        <ele>1614.6</ele>
        <time>2022-01-09T08:51:02Z</time>
      </trkpt>
      <trkpt lat="42.82532" lon="0.25638">
        <ele>1614.8</ele>
        <time>2022-01-09T08:51:03Z</time>
      </trkpt>
      <trkpt lat="42.82533" lon="0.25636">
        <ele>1615</ele>
        <time>2022-01-09T08:51:04Z</time>
      </trkpt>
      <trkpt lat="42.82532" lon="0.25634">
        <ele>1615.2</ele>
        <time>2022-01-09T08:51:05Z</time>
      </trkpt>
      <trkpt lat="42.82531" lon="0.25632">
        <ele>1615.4</ele>
        <time>2022-01-09T08:51:06Z</time>
      </trkpt>
      <trkpt lat="42.8253" lon="0.25631">
        <ele>1615.8</ele>
        <time>2022-01-09T08:51:07Z</time>
      </trkpt>
      <trkpt lat="42.82529" lon="0.25629">
        <ele>1616.4</ele>
        <time>2022-01-09T08:51:08Z</time>
      </trkpt>
      <trkpt lat="42.82528" lon="0.25627">
        <ele>1616.8</ele>
        <time>2022-01-09T08:51:09Z</time>
      </trkpt>
      <trkpt lat="42.82527" lon="0.25625">
        <ele>1617</ele>
        <time>2022-01-09T08:51:10Z</time>
      </trkpt>
      <trkpt lat="42.82527" lon="0.25624">
        <ele>1617.2</ele>
        <time>2022-01-09T08:51:11Z</time>
      </trkpt>
      <trkpt lat="42.82526" lon="0.25623">
        <ele>1617.4</ele>
        <time>2022-01-09T08:51:12Z</time>
      </trkpt>
      <trkpt lat="42.82526" lon="0.25622">
        <ele>1617.6</ele>
        <time>2022-01-09T08:51:13Z</time>
      </trkpt>
      <trkpt lat="42.82525" lon="0.25621">
        <ele>1617.6</ele>
        <time>2022-01-09T08:51:14Z</time>
      </trkpt>
      <trkpt lat="42.82524" lon="0.25621">
        <ele>1618.2</ele>
        <time>2022-01-09T08:51:15Z</time>
      </trkpt>
      <trkpt lat="42.82524" lon="0.2562">
        <ele>1618.4</ele>
        <time>2022-01-09T08:51:16Z</time>
      </trkpt>
      <trkpt lat="42.82523" lon="0.25619">
        <ele>1619</ele>
        <time>2022-01-09T08:51:17Z</time>
      </trkpt>
      <trkpt lat="42.82523" lon="0.25618">
        <ele>1619.4</ele>
        <time>2022-01-09T08:51:18Z</time>
      </trkpt>
      <trkpt lat="42.82522" lon="0.25617">
        <ele>1619.6</ele>
        <time>2022-01-09T08:51:19Z</time>
      </trkpt>
      <trkpt lat="42.82521" lon="0.25616">
        <ele>1619.8</ele>
        <time>2022-01-09T08:51:20Z</time>
      </trkpt>
      <trkpt lat="42.82521" lon="0.25615">
        <ele>1620</ele>
        <time>2022-01-09T08:51:21Z</time>
      </trkpt>
      <trkpt lat="42.82521" lon="0.25615">
        <ele>1620.4</ele>
        <time>2022-01-09T08:51:22Z</time>
      </trkpt>
      <trkpt lat="42.82521" lon="0.25615">
        <ele>1621</ele>
        <time>2022-01-09T08:51:23Z</time>
      </trkpt>
      <trkpt lat="42.82517" lon="0.25615">
        <ele>1621.2</ele>
        <time>2022-01-09T08:51:24Z</time>
      </trkpt>
      <trkpt lat="42.82517" lon="0.25615">
        <ele>1621.6</ele>
        <time>2022-01-09T08:51:25Z</time>
      </trkpt>
      <trkpt lat="42.82515" lon="0.25615">
        <ele>1622</ele>
        <time>2022-01-09T08:51:26Z</time>
      </trkpt>
      <trkpt lat="42.82515" lon="0.25615">
        <ele>1622.2</ele>
        <time>2022-01-09T08:51:27Z</time>
      </trkpt>
      <trkpt lat="42.82512" lon="0.25615">
        <ele>1622.6</ele>
        <time>2022-01-09T08:51:28Z</time>
      </trkpt>
      <trkpt lat="42.82512" lon="0.25615">
        <ele>1623</ele>
        <time>2022-01-09T08:51:29Z</time>
      </trkpt>
      <trkpt lat="42.8251" lon="0.25615">
        <ele>1623.2</ele>
        <time>2022-01-09T08:51:30Z</time>
      </trkpt>
      <trkpt lat="42.8251" lon="0.25615">
        <ele>1623.6</ele>
        <time>2022-01-09T08:51:31Z</time>
      </trkpt>
      <trkpt lat="42.8251" lon="0.25615">
        <ele>1624</ele>
        <time>2022-01-09T08:51:32Z</time>
      </trkpt>
      <trkpt lat="42.82507" lon="0.25614">
        <ele>1624</ele>
        <time>2022-01-09T08:51:33Z</time>
      </trkpt>
      <trkpt lat="42.82507" lon="0.25614">
        <ele>1624.6</ele>
        <time>2022-01-09T08:51:34Z</time>
      </trkpt>
      <trkpt lat="42.82507" lon="0.25614">
        <ele>1625.2</ele>
        <time>2022-01-09T08:51:35Z</time>
      </trkpt>
      <trkpt lat="42.82506" lon="0.25612">
        <ele>1625.8</ele>
        <time>2022-01-09T08:51:36Z</time>
      </trkpt>
      <trkpt lat="42.82506" lon="0.25611">
        <ele>1626.2</ele>
        <time>2022-01-09T08:51:37Z</time>
      </trkpt>
      <trkpt lat="42.82506" lon="0.25609">
        <ele>1626.8</ele>
        <time>2022-01-09T08:51:38Z</time>
      </trkpt>
      <trkpt lat="42.82506" lon="0.25607">
        <ele>1627</ele>
        <time>2022-01-09T08:51:39Z</time>
      </trkpt>
      <trkpt lat="42.82506" lon="0.25606">
        <ele>1627.4</ele>
        <time>2022-01-09T08:51:40Z</time>
      </trkpt>
      <trkpt lat="42.82506" lon="0.25604">
        <ele>1627.6</ele>
        <time>2022-01-09T08:51:41Z</time>
      </trkpt>
      <trkpt lat="42.82506" lon="0.25602">
        <ele>1628.2</ele>
        <time>2022-01-09T08:51:42Z</time>
      </trkpt>
      <trkpt lat="42.82506" lon="0.25601">
        <ele>1628.4</ele>
        <time>2022-01-09T08:51:43Z</time>
      </trkpt>
      <trkpt lat="42.82506" lon="0.25599">
        <ele>1628.6</ele>
        <time>2022-01-09T08:51:44Z</time>
      </trkpt>
      <trkpt lat="42.82506" lon="0.25597">
        <ele>1629</ele>
        <time>2022-01-09T08:51:45Z</time>
      </trkpt>
      <trkpt lat="42.82507" lon="0.25595">
        <ele>1629</ele>
        <time>2022-01-09T08:51:46Z</time>
      </trkpt>
      <trkpt lat="42.82507" lon="0.25593">
        <ele>1629.6</ele>
        <time>2022-01-09T08:51:47Z</time>
      </trkpt>
      <trkpt lat="42.82507" lon="0.25591">
        <ele>1629.8</ele>
        <time>2022-01-09T08:51:48Z</time>
      </trkpt>
      <trkpt lat="42.82507" lon="0.25589">
        <ele>1630</ele>
        <time>2022-01-09T08:51:49Z</time>
      </trkpt>
      <trkpt lat="42.82507" lon="0.25587">
        <ele>1630.4</ele>
        <time>2022-01-09T08:51:50Z</time>
      </trkpt>
      <trkpt lat="42.82507" lon="0.25585">
        <ele>1630.6</ele>
        <time>2022-01-09T08:51:51Z</time>
      </trkpt>
      <trkpt lat="42.82507" lon="0.25584">
        <ele>1631.4</ele>
        <time>2022-01-09T08:51:52Z</time>
      </trkpt>
      <trkpt lat="42.82508" lon="0.25582">
        <ele>1631.6</ele>
        <time>2022-01-09T08:51:53Z</time>
      </trkpt>
      <trkpt lat="42.82508" lon="0.2558">
        <ele>1632</ele>
        <time>2022-01-09T08:51:54Z</time>
      </trkpt>
      <trkpt lat="42.82509" lon="0.25579">
        <ele>1632.4</ele>
        <time>2022-01-09T08:51:55Z</time>
      </trkpt>
      <trkpt lat="42.82509" lon="0.25577">
        <ele>1632.6</ele>
        <time>2022-01-09T08:51:56Z</time>
      </trkpt>
      <trkpt lat="42.82509" lon="0.25575">
        <ele>1633</ele>
        <time>2022-01-09T08:51:57Z</time>
      </trkpt>
      <trkpt lat="42.8251" lon="0.25574">
        <ele>1633.4</ele>
        <time>2022-01-09T08:51:58Z</time>
      </trkpt>
      <trkpt lat="42.8251" lon="0.25572">
        <ele>1633.6</ele>
        <time>2022-01-09T08:51:59Z</time>
      </trkpt>
      <trkpt lat="42.82509" lon="0.25572">
        <ele>1634</ele>
        <time>2022-01-09T08:52:00Z</time>
      </trkpt>
      <trkpt lat="42.82509" lon="0.25571">
        <ele>1634</ele>
        <time>2022-01-09T08:52:01Z</time>
      </trkpt>
      <trkpt lat="42.82508" lon="0.25571">
        <ele>1634.4</ele>
        <time>2022-01-09T08:52:02Z</time>
      </trkpt>
      <trkpt lat="42.82507" lon="0.2557">
        <ele>1634.6</ele>
        <time>2022-01-09T08:52:03Z</time>
      </trkpt>
      <trkpt lat="42.82507" lon="0.2557">
        <ele>1635.2</ele>
        <time>2022-01-09T08:52:04Z</time>
      </trkpt>
      <trkpt lat="42.82506" lon="0.25569">
        <ele>1635.6</ele>
        <time>2022-01-09T08:52:05Z</time>
      </trkpt>
      <trkpt lat="42.82506" lon="0.25569">
        <ele>1635.8</ele>
        <time>2022-01-09T08:52:06Z</time>
      </trkpt>
      <trkpt lat="42.82505" lon="0.25568">
        <ele>1636</ele>
        <time>2022-01-09T08:52:07Z</time>
      </trkpt>
      <trkpt lat="42.82504" lon="0.25568">
        <ele>1636.4</ele>
        <time>2022-01-09T08:52:08Z</time>
      </trkpt>
      <trkpt lat="42.82504" lon="0.25567">
        <ele>1636.6</ele>
        <time>2022-01-09T08:52:09Z</time>
      </trkpt>
      <trkpt lat="42.82503" lon="0.25567">
        <ele>1637</ele>
        <time>2022-01-09T08:52:10Z</time>
      </trkpt>
      <trkpt lat="42.82502" lon="0.25566">
        <ele>1637.4</ele>
        <time>2022-01-09T08:52:11Z</time>
      </trkpt>
      <trkpt lat="42.82502" lon="0.25566">
        <ele>1637.6</ele>
        <time>2022-01-09T08:52:12Z</time>
      </trkpt>
      <trkpt lat="42.82501" lon="0.25565">
        <ele>1637.8</ele>
        <time>2022-01-09T08:52:13Z</time>
      </trkpt>
      <trkpt lat="42.825" lon="0.25564">
        <ele>1638.2</ele>
        <time>2022-01-09T08:52:14Z</time>
      </trkpt>
      <trkpt lat="42.825" lon="0.25564">
        <ele>1638.6</ele>
        <time>2022-01-09T08:52:15Z</time>
      </trkpt>
      <trkpt lat="42.82499" lon="0.25563">
        <ele>1638.8</ele>
        <time>2022-01-09T08:52:16Z</time>
      </trkpt>
      <trkpt lat="42.82499" lon="0.25563">
        <ele>1639</ele>
        <time>2022-01-09T08:52:17Z</time>
      </trkpt>
      <trkpt lat="42.82498" lon="0.25562">
        <ele>1639.4</ele>
        <time>2022-01-09T08:52:18Z</time>
      </trkpt>
      <trkpt lat="42.82498" lon="0.25562">
        <ele>1639.8</ele>
        <time>2022-01-09T08:52:19Z</time>
      </trkpt>
      <trkpt lat="42.82497" lon="0.25561">
        <ele>1640</ele>
        <time>2022-01-09T08:52:20Z</time>
      </trkpt>
      <trkpt lat="42.82496" lon="0.2556">
        <ele>1640.6</ele>
        <time>2022-01-09T08:52:21Z</time>
      </trkpt>
      <trkpt lat="42.82496" lon="0.2556">
        <ele>1640.6</ele>
        <time>2022-01-09T08:52:22Z</time>
      </trkpt>
      <trkpt lat="42.82495" lon="0.25559">
        <ele>1641</ele>
        <time>2022-01-09T08:52:23Z</time>
      </trkpt>
      <trkpt lat="42.82495" lon="0.25559">
        <ele>1641.6</ele>
        <time>2022-01-09T08:52:24Z</time>
      </trkpt>
      <trkpt lat="42.82494" lon="0.25558">
        <ele>1642</ele>
        <time>2022-01-09T08:52:25Z</time>
      </trkpt>
      <trkpt lat="42.82494" lon="0.25557">
        <ele>1642.2</ele>
        <time>2022-01-09T08:52:26Z</time>
      </trkpt>
      <trkpt lat="42.82495" lon="0.25555">
        <ele>1643</ele>
        <time>2022-01-09T08:52:27Z</time>
      </trkpt>
      <trkpt lat="42.82495" lon="0.25553">
        <ele>1643.2</ele>
        <time>2022-01-09T08:52:28Z</time>
      </trkpt>
      <trkpt lat="42.82496" lon="0.25552">
        <ele>1643.4</ele>
        <time>2022-01-09T08:52:29Z</time>
      </trkpt>
      <trkpt lat="42.82496" lon="0.2555">
        <ele>1643.6</ele>
        <time>2022-01-09T08:52:30Z</time>
      </trkpt>
      <trkpt lat="42.82497" lon="0.25548">
        <ele>1644.2</ele>
        <time>2022-01-09T08:52:31Z</time>
      </trkpt>
      <trkpt lat="42.82497" lon="0.25547">
        <ele>1644.6</ele>
        <time>2022-01-09T08:52:32Z</time>
      </trkpt>
      <trkpt lat="42.82497" lon="0.25545">
        <ele>1644.8</ele>
        <time>2022-01-09T08:52:33Z</time>
      </trkpt>
      <trkpt lat="42.82498" lon="0.25544">
        <ele>1645.4</ele>
        <time>2022-01-09T08:52:34Z</time>
      </trkpt>
      <trkpt lat="42.82498" lon="0.25543">
        <ele>1645.8</ele>
        <time>2022-01-09T08:52:35Z</time>
      </trkpt>
      <trkpt lat="42.82498" lon="0.25542">
        <ele>1646</ele>
        <time>2022-01-09T08:52:36Z</time>
      </trkpt>
      <trkpt lat="42.82499" lon="0.25541">
        <ele>1646.2</ele>
        <time>2022-01-09T08:52:37Z</time>
      </trkpt>
      <trkpt lat="42.82499" lon="0.25539">
        <ele>1646.8</ele>
        <time>2022-01-09T08:52:38Z</time>
      </trkpt>
      <trkpt lat="42.825" lon="0.25538">
        <ele>1647.2</ele>
        <time>2022-01-09T08:52:39Z</time>
      </trkpt>
      <trkpt lat="42.825" lon="0.25537">
        <ele>1647.6</ele>
        <time>2022-01-09T08:52:40Z</time>
      </trkpt>
      <trkpt lat="42.825" lon="0.25536">
        <ele>1648</ele>
        <time>2022-01-09T08:52:41Z</time>
      </trkpt>
      <trkpt lat="42.82501" lon="0.25535">
        <ele>1648.4</ele>
        <time>2022-01-09T08:52:42Z</time>
      </trkpt>
      <trkpt lat="42.82501" lon="0.25533">
        <ele>1648.8</ele>
        <time>2022-01-09T08:52:43Z</time>
      </trkpt>
      <trkpt lat="42.82501" lon="0.25532">
        <ele>1649</ele>
        <time>2022-01-09T08:52:44Z</time>
      </trkpt>
      <trkpt lat="42.82501" lon="0.25531">
        <ele>1649.4</ele>
        <time>2022-01-09T08:52:45Z</time>
      </trkpt>
      <trkpt lat="42.82501" lon="0.2553">
        <ele>1649.6</ele>
        <time>2022-01-09T08:52:46Z</time>
      </trkpt>
      <trkpt lat="42.82502" lon="0.25529">
        <ele>1649.8</ele>
        <time>2022-01-09T08:52:47Z</time>
      </trkpt>
      <trkpt lat="42.82502" lon="0.25528">
        <ele>1650.4</ele>
        <time>2022-01-09T08:52:48Z</time>
      </trkpt>
      <trkpt lat="42.82502" lon="0.25527">
        <ele>1650.8</ele>
        <time>2022-01-09T08:52:49Z</time>
      </trkpt>
      <trkpt lat="42.82502" lon="0.25525">
        <ele>1651.2</ele>
        <time>2022-01-09T08:52:50Z</time>
      </trkpt>
      <trkpt lat="42.82502" lon="0.25524">
        <ele>1651.6</ele>
        <time>2022-01-09T08:52:51Z</time>
      </trkpt>
      <trkpt lat="42.82502" lon="0.25523">
        <ele>1652</ele>
        <time>2022-01-09T08:52:52Z</time>
      </trkpt>
      <trkpt lat="42.82503" lon="0.25522">
        <ele>1652.2</ele>
        <time>2022-01-09T08:52:53Z</time>
      </trkpt>
      <trkpt lat="42.82503" lon="0.25521">
        <ele>1652.6</ele>
        <time>2022-01-09T08:52:54Z</time>
      </trkpt>
      <trkpt lat="42.82503" lon="0.25519">
        <ele>1653</ele>
        <time>2022-01-09T08:52:55Z</time>
      </trkpt>
      <trkpt lat="42.82503" lon="0.25518">
        <ele>1653.4</ele>
        <time>2022-01-09T08:52:56Z</time>
      </trkpt>
      <trkpt lat="42.82503" lon="0.25517">
        <ele>1653.8</ele>
        <time>2022-01-09T08:52:57Z</time>
      </trkpt>
      <trkpt lat="42.82503" lon="0.25516">
        <ele>1654.2</ele>
        <time>2022-01-09T08:52:58Z</time>
      </trkpt>
      <trkpt lat="42.82503" lon="0.25514">
        <ele>1654.6</ele>
        <time>2022-01-09T08:52:59Z</time>
      </trkpt>
      <trkpt lat="42.82503" lon="0.25513">
        <ele>1654.8</ele>
        <time>2022-01-09T08:53:00Z</time>
      </trkpt>
      <trkpt lat="42.82503" lon="0.25512">
        <ele>1655.4</ele>
        <time>2022-01-09T08:53:01Z</time>
      </trkpt>
      <trkpt lat="42.82503" lon="0.2551">
        <ele>1655.6</ele>
        <time>2022-01-09T08:53:02Z</time>
      </trkpt>
      <trkpt lat="42.82503" lon="0.25509">
        <ele>1656</ele>
        <time>2022-01-09T08:53:03Z</time>
      </trkpt>
      <trkpt lat="42.82504" lon="0.25508">
        <ele>1656.2</ele>
        <time>2022-01-09T08:53:04Z</time>
      </trkpt>
      <trkpt lat="42.82504" lon="0.25506">
        <ele>1656.6</ele>
        <time>2022-01-09T08:53:05Z</time>
      </trkpt>
      <trkpt lat="42.82504" lon="0.25504">
        <ele>1657</ele>
        <time>2022-01-09T08:53:06Z</time>
      </trkpt>
      <trkpt lat="42.82504" lon="0.25503">
        <ele>1657.2</ele>
        <time>2022-01-09T08:53:07Z</time>
      </trkpt>
      <trkpt lat="42.82505" lon="0.25501">
        <ele>1658</ele>
        <time>2022-01-09T08:53:08Z</time>
      </trkpt>
      <trkpt lat="42.82505" lon="0.255">
        <ele>1658.4</ele>
        <time>2022-01-09T08:53:09Z</time>
      </trkpt>
      <trkpt lat="42.82505" lon="0.25498">
        <ele>1658.4</ele>
        <time>2022-01-09T08:53:10Z</time>
      </trkpt>
      <trkpt lat="42.82506" lon="0.25497">
        <ele>1658.8</ele>
        <time>2022-01-09T08:53:11Z</time>
      </trkpt>
      <trkpt lat="42.82505" lon="0.25495">
        <ele>1659.2</ele>
        <time>2022-01-09T08:53:12Z</time>
      </trkpt>
      <trkpt lat="42.82505" lon="0.25494">
        <ele>1659.4</ele>
        <time>2022-01-09T08:53:13Z</time>
      </trkpt>
      <trkpt lat="42.82505" lon="0.25492">
        <ele>1660</ele>
        <time>2022-01-09T08:53:14Z</time>
      </trkpt>
      <trkpt lat="42.82504" lon="0.25491">
        <ele>1660.2</ele>
        <time>2022-01-09T08:53:15Z</time>
      </trkpt>
      <trkpt lat="42.82504" lon="0.25489">
        <ele>1660.8</ele>
        <time>2022-01-09T08:53:16Z</time>
      </trkpt>
      <trkpt lat="42.82504" lon="0.25487">
        <ele>1661</ele>
        <time>2022-01-09T08:53:17Z</time>
      </trkpt>
      <trkpt lat="42.82504" lon="0.25486">
        <ele>1661.4</ele>
        <time>2022-01-09T08:53:18Z</time>
      </trkpt>
      <trkpt lat="42.82503" lon="0.25484">
        <ele>1661.8</ele>
        <time>2022-01-09T08:53:19Z</time>
      </trkpt>
      <trkpt lat="42.82502" lon="0.25484">
        <ele>1661.8</ele>
        <time>2022-01-09T08:53:20Z</time>
      </trkpt>
      <trkpt lat="42.82501" lon="0.25484">
        <ele>1662.2</ele>
        <time>2022-01-09T08:53:21Z</time>
      </trkpt>
      <trkpt lat="42.825" lon="0.25483">
        <ele>1662.6</ele>
        <time>2022-01-09T08:53:22Z</time>
      </trkpt>
      <trkpt lat="42.82498" lon="0.25483">
        <ele>1662.8</ele>
        <time>2022-01-09T08:53:23Z</time>
      </trkpt>
      <trkpt lat="42.82497" lon="0.25483">
        <ele>1663.2</ele>
        <time>2022-01-09T08:53:24Z</time>
      </trkpt>
      <trkpt lat="42.82496" lon="0.25482">
        <ele>1663.4</ele>
        <time>2022-01-09T08:53:25Z</time>
      </trkpt>
      <trkpt lat="42.82495" lon="0.25482">
        <ele>1664</ele>
        <time>2022-01-09T08:53:26Z</time>
      </trkpt>
      <trkpt lat="42.82494" lon="0.25482">
        <ele>1664.6</ele>
        <time>2022-01-09T08:53:27Z</time>
      </trkpt>
      <trkpt lat="42.82492" lon="0.25482">
        <ele>1664.6</ele>
        <time>2022-01-09T08:53:28Z</time>
      </trkpt>
      <trkpt lat="42.82491" lon="0.25482">
        <ele>1665.2</ele>
        <time>2022-01-09T08:53:29Z</time>
      </trkpt>
      <trkpt lat="42.8249" lon="0.25483">
        <ele>1665.2</ele>
        <time>2022-01-09T08:53:30Z</time>
      </trkpt>
      <trkpt lat="42.82488" lon="0.25483">
        <ele>1665.6</ele>
        <time>2022-01-09T08:53:31Z</time>
      </trkpt>
      <trkpt lat="42.82487" lon="0.25483">
        <ele>1665.8</ele>
        <time>2022-01-09T08:53:32Z</time>
      </trkpt>
      <trkpt lat="42.82486" lon="0.25484">
        <ele>1666.2</ele>
        <time>2022-01-09T08:53:33Z</time>
      </trkpt>
      <trkpt lat="42.82484" lon="0.25484">
        <ele>1666.6</ele>
        <time>2022-01-09T08:53:34Z</time>
      </trkpt>
      <trkpt lat="42.82484" lon="0.25485">
        <ele>1666.8</ele>
        <time>2022-01-09T08:53:35Z</time>
      </trkpt>
      <trkpt lat="42.82483" lon="0.25486">
        <ele>1667</ele>
        <time>2022-01-09T08:53:36Z</time>
      </trkpt>
      <trkpt lat="42.82482" lon="0.25487">
        <ele>1668</ele>
        <time>2022-01-09T08:53:37Z</time>
      </trkpt>
      <trkpt lat="42.82481" lon="0.25487">
        <ele>1668.2</ele>
        <time>2022-01-09T08:53:38Z</time>
      </trkpt>
      <trkpt lat="42.8248" lon="0.25488">
        <ele>1668.4</ele>
        <time>2022-01-09T08:53:39Z</time>
      </trkpt>
      <trkpt lat="42.82479" lon="0.25489">
        <ele>1668.4</ele>
        <time>2022-01-09T08:53:40Z</time>
      </trkpt>
      <trkpt lat="42.82478" lon="0.2549">
        <ele>1669</ele>
        <time>2022-01-09T08:53:41Z</time>
      </trkpt>
      <trkpt lat="42.82477" lon="0.25491">
        <ele>1669</ele>
        <time>2022-01-09T08:53:42Z</time>
      </trkpt>
      <trkpt lat="42.82477" lon="0.2549">
        <ele>1669.4</ele>
        <time>2022-01-09T08:53:43Z</time>
      </trkpt>
      <trkpt lat="42.82477" lon="0.25489">
        <ele>1669.8</ele>
        <time>2022-01-09T08:53:44Z</time>
      </trkpt>
      <trkpt lat="42.82477" lon="0.25488">
        <ele>1670.2</ele>
        <time>2022-01-09T08:53:45Z</time>
      </trkpt>
      <trkpt lat="42.82477" lon="0.25487">
        <ele>1670.4</ele>
        <time>2022-01-09T08:53:46Z</time>
      </trkpt>
      <trkpt lat="42.82477" lon="0.25487">
        <ele>1670.6</ele>
        <time>2022-01-09T08:53:47Z</time>
      </trkpt>
      <trkpt lat="42.82476" lon="0.25486">
        <ele>1671.2</ele>
        <time>2022-01-09T08:53:48Z</time>
      </trkpt>
      <trkpt lat="42.82476" lon="0.25485">
        <ele>1671.6</ele>
        <time>2022-01-09T08:53:49Z</time>
      </trkpt>
      <trkpt lat="42.82476" lon="0.25484">
        <ele>1671.8</ele>
        <time>2022-01-09T08:53:50Z</time>
      </trkpt>
      <trkpt lat="42.82476" lon="0.25483">
        <ele>1672.6</ele>
        <time>2022-01-09T08:53:51Z</time>
      </trkpt>
      <trkpt lat="42.82476" lon="0.25482">
        <ele>1672.8</ele>
        <time>2022-01-09T08:53:52Z</time>
      </trkpt>
      <trkpt lat="42.82476" lon="0.25481">
        <ele>1673.2</ele>
        <time>2022-01-09T08:53:53Z</time>
      </trkpt>
      <trkpt lat="42.82476" lon="0.2548">
        <ele>1673.6</ele>
        <time>2022-01-09T08:53:54Z</time>
      </trkpt>
      <trkpt lat="42.82476" lon="0.2548">
        <ele>1674</ele>
        <time>2022-01-09T08:53:55Z</time>
      </trkpt>
      <trkpt lat="42.82475" lon="0.25479">
        <ele>1674.4</ele>
        <time>2022-01-09T08:53:56Z</time>
      </trkpt>
      <trkpt lat="42.82476" lon="0.25477">
        <ele>1674.4</ele>
        <time>2022-01-09T08:53:57Z</time>
      </trkpt>
      <trkpt lat="42.82476" lon="0.25476">
        <ele>1674.6</ele>
        <time>2022-01-09T08:53:58Z</time>
      </trkpt>
      <trkpt lat="42.82476" lon="0.25474">
        <ele>1675</ele>
        <time>2022-01-09T08:53:59Z</time>
      </trkpt>
      <trkpt lat="42.82476" lon="0.25472">
        <ele>1675.4</ele>
        <time>2022-01-09T08:54:00Z</time>
      </trkpt>
      <trkpt lat="42.82476" lon="0.25471">
        <ele>1675.6</ele>
        <time>2022-01-09T08:54:01Z</time>
      </trkpt>
      <trkpt lat="42.82476" lon="0.25469">
        <ele>1675.8</ele>
        <time>2022-01-09T08:54:02Z</time>
      </trkpt>
      <trkpt lat="42.82476" lon="0.25468">
        <ele>1676.2</ele>
        <time>2022-01-09T08:54:03Z</time>
      </trkpt>
      <trkpt lat="42.82476" lon="0.25466">
        <ele>1676.6</ele>
        <time>2022-01-09T08:54:04Z</time>
      </trkpt>
      <trkpt lat="42.82474" lon="0.25466">
        <ele>1676.8</ele>
        <time>2022-01-09T08:54:05Z</time>
      </trkpt>
      <trkpt lat="42.82473" lon="0.25466">
        <ele>1677.2</ele>
        <time>2022-01-09T08:54:06Z</time>
      </trkpt>
      <trkpt lat="42.82471" lon="0.25466">
        <ele>1677.4</ele>
        <time>2022-01-09T08:54:07Z</time>
      </trkpt>
      <trkpt lat="42.82469" lon="0.25466">
        <ele>1677.8</ele>
        <time>2022-01-09T08:54:08Z</time>
      </trkpt>
      <trkpt lat="42.82468" lon="0.25466">
        <ele>1678.2</ele>
        <time>2022-01-09T08:54:09Z</time>
      </trkpt>
      <trkpt lat="42.82466" lon="0.25467">
        <ele>1678.2</ele>
        <time>2022-01-09T08:54:10Z</time>
      </trkpt>
      <trkpt lat="42.82465" lon="0.25467">
        <ele>1678.6</ele>
        <time>2022-01-09T08:54:11Z</time>
      </trkpt>
      <trkpt lat="42.82464" lon="0.25468">
        <ele>1679</ele>
        <time>2022-01-09T08:54:12Z</time>
      </trkpt>
      <trkpt lat="42.82463" lon="0.25469">
        <ele>1679.2</ele>
        <time>2022-01-09T08:54:13Z</time>
      </trkpt>
      <trkpt lat="42.82462" lon="0.2547">
        <ele>1680</ele>
        <time>2022-01-09T08:54:14Z</time>
      </trkpt>
      <trkpt lat="42.82461" lon="0.25471">
        <ele>1680</ele>
        <time>2022-01-09T08:54:15Z</time>
      </trkpt>
      <trkpt lat="42.8246" lon="0.25472">
        <ele>1680.6</ele>
        <time>2022-01-09T08:54:16Z</time>
      </trkpt>
      <trkpt lat="42.82459" lon="0.25473">
        <ele>1681</ele>
        <time>2022-01-09T08:54:17Z</time>
      </trkpt>
      <trkpt lat="42.82458" lon="0.25474">
        <ele>1681.2</ele>
        <time>2022-01-09T08:54:18Z</time>
      </trkpt>
      <trkpt lat="42.82457" lon="0.25476">
        <ele>1681.6</ele>
        <time>2022-01-09T08:54:19Z</time>
      </trkpt>
      <trkpt lat="42.82456" lon="0.25477">
        <ele>1681.8</ele>
        <time>2022-01-09T08:54:20Z</time>
      </trkpt>
      <trkpt lat="42.82455" lon="0.25478">
        <ele>1682.2</ele>
        <time>2022-01-09T08:54:21Z</time>
      </trkpt>
      <trkpt lat="42.82454" lon="0.2548">
        <ele>1682.4</ele>
        <time>2022-01-09T08:54:22Z</time>
      </trkpt>
      <trkpt lat="42.82452" lon="0.25481">
        <ele>1683</ele>
        <time>2022-01-09T08:54:23Z</time>
      </trkpt>
      <trkpt lat="42.82451" lon="0.25483">
        <ele>1683.2</ele>
        <time>2022-01-09T08:54:24Z</time>
      </trkpt>
      <trkpt lat="42.82451" lon="0.25484">
        <ele>1683.8</ele>
        <time>2022-01-09T08:54:25Z</time>
      </trkpt>
      <trkpt lat="42.82451" lon="0.25485">
        <ele>1684.2</ele>
        <time>2022-01-09T08:54:26Z</time>
      </trkpt>
      <trkpt lat="42.8245" lon="0.25486">
        <ele>1684.4</ele>
        <time>2022-01-09T08:54:27Z</time>
      </trkpt>
      <trkpt lat="42.8245" lon="0.25487">
        <ele>1684.8</ele>
        <time>2022-01-09T08:54:28Z</time>
      </trkpt>
      <trkpt lat="42.82449" lon="0.25488">
        <ele>1685.2</ele>
        <time>2022-01-09T08:54:29Z</time>
      </trkpt>
      <trkpt lat="42.82449" lon="0.25489">
        <ele>1685.4</ele>
        <time>2022-01-09T08:54:30Z</time>
      </trkpt>
      <trkpt lat="42.82448" lon="0.25489">
        <ele>1685.8</ele>
        <time>2022-01-09T08:54:31Z</time>
      </trkpt>
      <trkpt lat="42.82448" lon="0.2549">
        <ele>1686.2</ele>
        <time>2022-01-09T08:54:32Z</time>
      </trkpt>
      <trkpt lat="42.82448" lon="0.25491">
        <ele>1686.4</ele>
        <time>2022-01-09T08:54:33Z</time>
      </trkpt>
      <trkpt lat="42.82447" lon="0.25492">
        <ele>1686.8</ele>
        <time>2022-01-09T08:54:34Z</time>
      </trkpt>
      <trkpt lat="42.82447" lon="0.25493">
        <ele>1687</ele>
        <time>2022-01-09T08:54:35Z</time>
      </trkpt>
      <trkpt lat="42.82446" lon="0.25494">
        <ele>1687.6</ele>
        <time>2022-01-09T08:54:36Z</time>
      </trkpt>
      <trkpt lat="42.82446" lon="0.25495">
        <ele>1687.8</ele>
        <time>2022-01-09T08:54:37Z</time>
      </trkpt>
      <trkpt lat="42.82445" lon="0.25496">
        <ele>1688.2</ele>
        <time>2022-01-09T08:54:38Z</time>
      </trkpt>
      <trkpt lat="42.82444" lon="0.25496">
        <ele>1688.4</ele>
        <time>2022-01-09T08:54:39Z</time>
      </trkpt>
      <trkpt lat="42.82444" lon="0.25497">
        <ele>1689</ele>
        <time>2022-01-09T08:54:40Z</time>
      </trkpt>
      <trkpt lat="42.82443" lon="0.25498">
        <ele>1689.2</ele>
        <time>2022-01-09T08:54:41Z</time>
      </trkpt>
      <trkpt lat="42.82442" lon="0.25499">
        <ele>1689.6</ele>
        <time>2022-01-09T08:54:42Z</time>
      </trkpt>
      <trkpt lat="42.82442" lon="0.255">
        <ele>1689.8</ele>
        <time>2022-01-09T08:54:43Z</time>
      </trkpt>
      <trkpt lat="42.82441" lon="0.255">
        <ele>1690</ele>
        <time>2022-01-09T08:54:44Z</time>
      </trkpt>
      <trkpt lat="42.82441" lon="0.25501">
        <ele>1690.4</ele>
        <time>2022-01-09T08:54:45Z</time>
      </trkpt>
      <trkpt lat="42.8244" lon="0.25502">
        <ele>1690.6</ele>
        <time>2022-01-09T08:54:46Z</time>
      </trkpt>
      <trkpt lat="42.82439" lon="0.25503">
        <ele>1690.8</ele>
        <time>2022-01-09T08:54:47Z</time>
      </trkpt>
      <trkpt lat="42.82439" lon="0.25504">
        <ele>1691.4</ele>
        <time>2022-01-09T08:54:48Z</time>
      </trkpt>
      <trkpt lat="42.82438" lon="0.25505">
        <ele>1691.8</ele>
        <time>2022-01-09T08:54:49Z</time>
      </trkpt>
      <trkpt lat="42.82437" lon="0.25506">
        <ele>1692.2</ele>
        <time>2022-01-09T08:54:50Z</time>
      </trkpt>
      <trkpt lat="42.82437" lon="0.25507">
        <ele>1692.2</ele>
        <time>2022-01-09T08:54:51Z</time>
      </trkpt>
      <trkpt lat="42.82436" lon="0.25508">
        <ele>1692.8</ele>
        <time>2022-01-09T08:54:52Z</time>
      </trkpt>
      <trkpt lat="42.82435" lon="0.25509">
        <ele>1693</ele>
        <time>2022-01-09T08:54:53Z</time>
      </trkpt>
      <trkpt lat="42.82435" lon="0.2551">
        <ele>1693.4</ele>
        <time>2022-01-09T08:54:54Z</time>
      </trkpt>
      <trkpt lat="42.82434" lon="0.25511">
        <ele>1693.8</ele>
        <time>2022-01-09T08:54:55Z</time>
      </trkpt>
      <trkpt lat="42.82433" lon="0.25512">
        <ele>1694.2</ele>
        <time>2022-01-09T08:54:56Z</time>
      </trkpt>
      <trkpt lat="42.82433" lon="0.25513">
        <ele>1694.6</ele>
        <time>2022-01-09T08:54:57Z</time>
      </trkpt>
      <trkpt lat="42.82432" lon="0.25514">
        <ele>1695</ele>
        <time>2022-01-09T08:54:58Z</time>
      </trkpt>
      <trkpt lat="42.82431" lon="0.25515">
        <ele>1695.4</ele>
        <time>2022-01-09T08:54:59Z</time>
      </trkpt>
      <trkpt lat="42.82431" lon="0.25515">
        <ele>1695.8</ele>
        <time>2022-01-09T08:55:00Z</time>
      </trkpt>
      <trkpt lat="42.8243" lon="0.25516">
        <ele>1696.2</ele>
        <time>2022-01-09T08:55:01Z</time>
      </trkpt>
      <trkpt lat="42.82429" lon="0.25517">
        <ele>1696.8</ele>
        <time>2022-01-09T08:55:02Z</time>
      </trkpt>
      <trkpt lat="42.82429" lon="0.25518">
        <ele>1697</ele>
        <time>2022-01-09T08:55:03Z</time>
      </trkpt>
      <trkpt lat="42.82428" lon="0.25519">
        <ele>1697.2</ele>
        <time>2022-01-09T08:55:04Z</time>
      </trkpt>
      <trkpt lat="42.82427" lon="0.2552">
        <ele>1697.8</ele>
        <time>2022-01-09T08:55:05Z</time>
      </trkpt>
      <trkpt lat="42.82427" lon="0.2552">
        <ele>1697.8</ele>
        <time>2022-01-09T08:55:06Z</time>
      </trkpt>
      <trkpt lat="42.82426" lon="0.25521">
        <ele>1698.2</ele>
        <time>2022-01-09T08:55:07Z</time>
      </trkpt>
      <trkpt lat="42.82424" lon="0.25522">
        <ele>1698.6</ele>
        <time>2022-01-09T08:55:08Z</time>
      </trkpt>
      <trkpt lat="42.82423" lon="0.25523">
        <ele>1699.2</ele>
        <time>2022-01-09T08:55:09Z</time>
      </trkpt>
      <trkpt lat="42.82422" lon="0.25524">
        <ele>1699.6</ele>
        <time>2022-01-09T08:55:10Z</time>
      </trkpt>
      <trkpt lat="42.82421" lon="0.25525">
        <ele>1699.8</ele>
        <time>2022-01-09T08:55:11Z</time>
      </trkpt>
      <trkpt lat="42.8242" lon="0.25526">
        <ele>1700.2</ele>
        <time>2022-01-09T08:55:12Z</time>
      </trkpt>
      <trkpt lat="42.82419" lon="0.25526">
        <ele>1700.6</ele>
        <time>2022-01-09T08:55:13Z</time>
      </trkpt>
      <trkpt lat="42.82418" lon="0.25527">
        <ele>1701</ele>
        <time>2022-01-09T08:55:14Z</time>
      </trkpt>
      <trkpt lat="42.82417" lon="0.25527">
        <ele>1701.2</ele>
        <time>2022-01-09T08:55:15Z</time>
      </trkpt>
      <trkpt lat="42.82417" lon="0.25528">
        <ele>1701.2</ele>
        <time>2022-01-09T08:55:16Z</time>
      </trkpt>
      <trkpt lat="42.82416" lon="0.25528">
        <ele>1701.6</ele>
        <time>2022-01-09T08:55:17Z</time>
      </trkpt>
      <trkpt lat="42.82415" lon="0.25529">
        <ele>1702</ele>
        <time>2022-01-09T08:55:18Z</time>
      </trkpt>
      <trkpt lat="42.82415" lon="0.25529">
        <ele>1702.6</ele>
        <time>2022-01-09T08:55:19Z</time>
      </trkpt>
      <trkpt lat="42.82414" lon="0.25529">
        <ele>1703</ele>
        <time>2022-01-09T08:55:20Z</time>
      </trkpt>
      <trkpt lat="42.82414" lon="0.2553">
        <ele>1703.2</ele>
        <time>2022-01-09T08:55:21Z</time>
      </trkpt>
      <trkpt lat="42.82413" lon="0.2553">
        <ele>1703.8</ele>
        <time>2022-01-09T08:55:22Z</time>
      </trkpt>
      <trkpt lat="42.82412" lon="0.25531">
        <ele>1704.2</ele>
        <time>2022-01-09T08:55:23Z</time>
      </trkpt>
      <trkpt lat="42.82412" lon="0.25531">
        <ele>1704.8</ele>
        <time>2022-01-09T08:55:24Z</time>
      </trkpt>
      <trkpt lat="42.82411" lon="0.25531">
        <ele>1705</ele>
        <time>2022-01-09T08:55:25Z</time>
      </trkpt>
      <trkpt lat="42.82411" lon="0.25532">
        <ele>1705.6</ele>
        <time>2022-01-09T08:55:26Z</time>
      </trkpt>
      <trkpt lat="42.8241" lon="0.25532">
        <ele>1706</ele>
        <time>2022-01-09T08:55:27Z</time>
      </trkpt>
      <trkpt lat="42.82409" lon="0.25533">
        <ele>1706</ele>
        <time>2022-01-09T08:55:28Z</time>
      </trkpt>
      <trkpt lat="42.82408" lon="0.25534">
        <ele>1706.4</ele>
        <time>2022-01-09T08:55:29Z</time>
      </trkpt>
      <trkpt lat="42.82407" lon="0.25535">
        <ele>1706.8</ele>
        <time>2022-01-09T08:55:30Z</time>
      </trkpt>
      <trkpt lat="42.82406" lon="0.25536">
        <ele>1707.2</ele>
        <time>2022-01-09T08:55:31Z</time>
      </trkpt>
      <trkpt lat="42.82405" lon="0.25537">
        <ele>1707.6</ele>
        <time>2022-01-09T08:55:32Z</time>
      </trkpt>
      <trkpt lat="42.82404" lon="0.25537">
        <ele>1707.8</ele>
        <time>2022-01-09T08:55:33Z</time>
      </trkpt>
      <trkpt lat="42.82403" lon="0.25538">
        <ele>1708.4</ele>
        <time>2022-01-09T08:55:34Z</time>
      </trkpt>
      <trkpt lat="42.82402" lon="0.25539">
        <ele>1708.8</ele>
        <time>2022-01-09T08:55:35Z</time>
      </trkpt>
      <trkpt lat="42.82401" lon="0.2554">
        <ele>1709</ele>
        <time>2022-01-09T08:55:36Z</time>
      </trkpt>
      <trkpt lat="42.824" lon="0.25542">
        <ele>1709</ele>
        <time>2022-01-09T08:55:37Z</time>
      </trkpt>
      <trkpt lat="42.82399" lon="0.25543">
        <ele>1709.6</ele>
        <time>2022-01-09T08:55:38Z</time>
      </trkpt>
      <trkpt lat="42.82398" lon="0.25544">
        <ele>1710</ele>
        <time>2022-01-09T08:55:39Z</time>
      </trkpt>
      <trkpt lat="42.82397" lon="0.25545">
        <ele>1710.4</ele>
        <time>2022-01-09T08:55:40Z</time>
      </trkpt>
      <trkpt lat="42.82396" lon="0.25546">
        <ele>1710.6</ele>
        <time>2022-01-09T08:55:41Z</time>
      </trkpt>
      <trkpt lat="42.82395" lon="0.25547">
        <ele>1711.2</ele>
        <time>2022-01-09T08:55:42Z</time>
      </trkpt>
      <trkpt lat="42.82394" lon="0.25547">
        <ele>1711.4</ele>
        <time>2022-01-09T08:55:43Z</time>
      </trkpt>
      <trkpt lat="42.82394" lon="0.25546">
        <ele>1711.8</ele>
        <time>2022-01-09T08:55:44Z</time>
      </trkpt>
      <trkpt lat="42.82394" lon="0.25545">
        <ele>1712</ele>
        <time>2022-01-09T08:55:45Z</time>
      </trkpt>
      <trkpt lat="42.82393" lon="0.25545">
        <ele>1712.2</ele>
        <time>2022-01-09T08:55:46Z</time>
      </trkpt>
      <trkpt lat="42.82393" lon="0.25544">
        <ele>1712.6</ele>
        <time>2022-01-09T08:55:47Z</time>
      </trkpt>
      <trkpt lat="42.82393" lon="0.25544">
        <ele>1713</ele>
        <time>2022-01-09T08:55:48Z</time>
      </trkpt>
      <trkpt lat="42.82392" lon="0.25543">
        <ele>1713.6</ele>
        <time>2022-01-09T08:55:49Z</time>
      </trkpt>
      <trkpt lat="42.82392" lon="0.25542">
        <ele>1713.8</ele>
        <time>2022-01-09T08:55:50Z</time>
      </trkpt>
      <trkpt lat="42.82392" lon="0.25542">
        <ele>1714.2</ele>
        <time>2022-01-09T08:55:51Z</time>
      </trkpt>
      <trkpt lat="42.82391" lon="0.25541">
        <ele>1714.6</ele>
        <time>2022-01-09T08:55:52Z</time>
      </trkpt>
      <trkpt lat="42.82391" lon="0.2554">
        <ele>1715</ele>
        <time>2022-01-09T08:55:53Z</time>
      </trkpt>
      <trkpt lat="42.82391" lon="0.2554">
        <ele>1715.6</ele>
        <time>2022-01-09T08:55:54Z</time>
      </trkpt>
      <trkpt lat="42.8239" lon="0.25539">
        <ele>1715.8</ele>
        <time>2022-01-09T08:55:55Z</time>
      </trkpt>
      <trkpt lat="42.8239" lon="0.25538">
        <ele>1716.4</ele>
        <time>2022-01-09T08:55:56Z</time>
      </trkpt>
      <trkpt lat="42.8239" lon="0.25538">
        <ele>1717</ele>
        <time>2022-01-09T08:55:57Z</time>
      </trkpt>
      <trkpt lat="42.82389" lon="0.25537">
        <ele>1717.2</ele>
        <time>2022-01-09T08:55:58Z</time>
      </trkpt>
      <trkpt lat="42.82389" lon="0.25536">
        <ele>1717.2</ele>
        <time>2022-01-09T08:55:59Z</time>
      </trkpt>
      <trkpt lat="42.8239" lon="0.25534">
        <ele>1717.6</ele>
        <time>2022-01-09T08:56:00Z</time>
      </trkpt>
      <trkpt lat="42.8239" lon="0.25533">
        <ele>1717.8</ele>
        <time>2022-01-09T08:56:01Z</time>
      </trkpt>
      <trkpt lat="42.8239" lon="0.25531">
        <ele>1718.4</ele>
        <time>2022-01-09T08:56:02Z</time>
      </trkpt>
      <trkpt lat="42.8239" lon="0.2553">
        <ele>1718.6</ele>
        <time>2022-01-09T08:56:03Z</time>
      </trkpt>
      <trkpt lat="42.8239" lon="0.25528">
        <ele>1719</ele>
        <time>2022-01-09T08:56:04Z</time>
      </trkpt>
      <trkpt lat="42.8239" lon="0.25527">
        <ele>1719.2</ele>
        <time>2022-01-09T08:56:05Z</time>
      </trkpt>
      <trkpt lat="42.8239" lon="0.25525">
        <ele>1719.4</ele>
        <time>2022-01-09T08:56:06Z</time>
      </trkpt>
      <trkpt lat="42.8239" lon="0.25524">
        <ele>1719.8</ele>
        <time>2022-01-09T08:56:07Z</time>
      </trkpt>
      <trkpt lat="42.8239" lon="0.25523">
        <ele>1720.2</ele>
        <time>2022-01-09T08:56:08Z</time>
      </trkpt>
      <trkpt lat="42.8239" lon="0.25521">
        <ele>1720.8</ele>
        <time>2022-01-09T08:56:09Z</time>
      </trkpt>
      <trkpt lat="42.8239" lon="0.2552">
        <ele>1721</ele>
        <time>2022-01-09T08:56:10Z</time>
      </trkpt>
      <trkpt lat="42.8239" lon="0.25518">
        <ele>1721.6</ele>
        <time>2022-01-09T08:56:11Z</time>
      </trkpt>
      <trkpt lat="42.8239" lon="0.25517">
        <ele>1721.8</ele>
        <time>2022-01-09T08:56:12Z</time>
      </trkpt>
      <trkpt lat="42.8239" lon="0.25515">
        <ele>1722.2</ele>
        <time>2022-01-09T08:56:13Z</time>
      </trkpt>
      <trkpt lat="42.8239" lon="0.25514">
        <ele>1722.4</ele>
        <time>2022-01-09T08:56:14Z</time>
      </trkpt>
      <trkpt lat="42.8239" lon="0.25513">
        <ele>1722.8</ele>
        <time>2022-01-09T08:56:15Z</time>
      </trkpt>
      <trkpt lat="42.8239" lon="0.25511">
        <ele>1723.2</ele>
        <time>2022-01-09T08:56:16Z</time>
      </trkpt>
      <trkpt lat="42.82389" lon="0.25512">
        <ele>1723.4</ele>
        <time>2022-01-09T08:56:17Z</time>
      </trkpt>
      <trkpt lat="42.82388" lon="0.25512">
        <ele>1723.6</ele>
        <time>2022-01-09T08:56:18Z</time>
      </trkpt>
      <trkpt lat="42.82386" lon="0.25512">
        <ele>1723.8</ele>
        <time>2022-01-09T08:56:19Z</time>
      </trkpt>
      <trkpt lat="42.82385" lon="0.25513">
        <ele>1724.2</ele>
        <time>2022-01-09T08:56:20Z</time>
      </trkpt>
      <trkpt lat="42.82384" lon="0.25513">
        <ele>1724.6</ele>
        <time>2022-01-09T08:56:21Z</time>
      </trkpt>
      <trkpt lat="42.82383" lon="0.25514">
        <ele>1724.6</ele>
        <time>2022-01-09T08:56:22Z</time>
      </trkpt>
      <trkpt lat="42.82381" lon="0.25514">
        <ele>1725</ele>
        <time>2022-01-09T08:56:23Z</time>
      </trkpt>
      <trkpt lat="42.8238" lon="0.25515">
        <ele>1725.4</ele>
        <time>2022-01-09T08:56:24Z</time>
      </trkpt>
      <trkpt lat="42.82379" lon="0.25515">
        <ele>1725.6</ele>
        <time>2022-01-09T08:56:25Z</time>
      </trkpt>
      <trkpt lat="42.82379" lon="0.25515">
        <ele>1726.2</ele>
        <time>2022-01-09T08:56:26Z</time>
      </trkpt>
      <trkpt lat="42.82378" lon="0.25516">
        <ele>1726.4</ele>
        <time>2022-01-09T08:56:27Z</time>
      </trkpt>
      <trkpt lat="42.82377" lon="0.25516">
        <ele>1726.6</ele>
        <time>2022-01-09T08:56:28Z</time>
      </trkpt>
      <trkpt lat="42.82377" lon="0.25517">
        <ele>1727</ele>
        <time>2022-01-09T08:56:29Z</time>
      </trkpt>
      <trkpt lat="42.82376" lon="0.25517">
        <ele>1727.2</ele>
        <time>2022-01-09T08:56:30Z</time>
      </trkpt>
      <trkpt lat="42.82375" lon="0.25518">
        <ele>1727.6</ele>
        <time>2022-01-09T08:56:31Z</time>
      </trkpt>
      <trkpt lat="42.8237" lon="0.25522">
        <ele>1728.2</ele>
        <time>2022-01-09T08:56:32Z</time>
      </trkpt>
      <trkpt lat="42.8237" lon="0.25522">
        <ele>1728.6</ele>
        <time>2022-01-09T08:56:33Z</time>
      </trkpt>
      <trkpt lat="42.82369" lon="0.25523">
        <ele>1729</ele>
        <time>2022-01-09T08:56:34Z</time>
      </trkpt>
      <trkpt lat="42.82369" lon="0.25524">
        <ele>1729.2</ele>
        <time>2022-01-09T08:56:35Z</time>
      </trkpt>
      <trkpt lat="42.82368" lon="0.25524">
        <ele>1729.8</ele>
        <time>2022-01-09T08:56:36Z</time>
      </trkpt>
      <trkpt lat="42.82368" lon="0.25525">
        <ele>1730.2</ele>
        <time>2022-01-09T08:56:37Z</time>
      </trkpt>
      <trkpt lat="42.82367" lon="0.25526">
        <ele>1730.6</ele>
        <time>2022-01-09T08:56:38Z</time>
      </trkpt>
      <trkpt lat="42.82367" lon="0.25526">
        <ele>1730.8</ele>
        <time>2022-01-09T08:56:39Z</time>
      </trkpt>
      <trkpt lat="42.82366" lon="0.25527">
        <ele>1731.2</ele>
        <time>2022-01-09T08:56:40Z</time>
      </trkpt>
      <trkpt lat="42.82366" lon="0.25528">
        <ele>1731.6</ele>
        <time>2022-01-09T08:56:41Z</time>
      </trkpt>
      <trkpt lat="42.82365" lon="0.25528">
        <ele>1732.2</ele>
        <time>2022-01-09T08:56:42Z</time>
      </trkpt>
      <trkpt lat="42.82365" lon="0.25529">
        <ele>1732.6</ele>
        <time>2022-01-09T08:56:43Z</time>
      </trkpt>
      <trkpt lat="42.82364" lon="0.2553">
        <ele>1732.6</ele>
        <time>2022-01-09T08:56:44Z</time>
      </trkpt>
      <trkpt lat="42.82364" lon="0.25531">
        <ele>1732.8</ele>
        <time>2022-01-09T08:56:45Z</time>
      </trkpt>
      <trkpt lat="42.82363" lon="0.25532">
        <ele>1733.2</ele>
        <time>2022-01-09T08:56:46Z</time>
      </trkpt>
      <trkpt lat="42.82362" lon="0.25533">
        <ele>1733.4</ele>
        <time>2022-01-09T08:56:47Z</time>
      </trkpt>
      <trkpt lat="42.82361" lon="0.25534">
        <ele>1734</ele>
        <time>2022-01-09T08:56:48Z</time>
      </trkpt>
      <trkpt lat="42.8236" lon="0.25535">
        <ele>1734.2</ele>
        <time>2022-01-09T08:56:49Z</time>
      </trkpt>
      <trkpt lat="42.82359" lon="0.25536">
        <ele>1734.4</ele>
        <time>2022-01-09T08:56:50Z</time>
      </trkpt>
      <trkpt lat="42.82358" lon="0.25537">
        <ele>1735</ele>
        <time>2022-01-09T08:56:51Z</time>
      </trkpt>
      <trkpt lat="42.82357" lon="0.25538">
        <ele>1735.4</ele>
        <time>2022-01-09T08:56:52Z</time>
      </trkpt>
      <trkpt lat="42.82356" lon="0.25537">
        <ele>1735.6</ele>
        <time>2022-01-09T08:56:53Z</time>
      </trkpt>
      <trkpt lat="42.82356" lon="0.25536">
        <ele>1735.8</ele>
        <time>2022-01-09T08:56:54Z</time>
      </trkpt>
      <trkpt lat="42.82355" lon="0.25536">
        <ele>1736</ele>
        <time>2022-01-09T08:56:55Z</time>
      </trkpt>
      <trkpt lat="42.82355" lon="0.25535">
        <ele>1736.4</ele>
        <time>2022-01-09T08:56:56Z</time>
      </trkpt>
      <trkpt lat="42.82355" lon="0.25534">
        <ele>1737.4</ele>
        <time>2022-01-09T08:56:57Z</time>
      </trkpt>
      <trkpt lat="42.82354" lon="0.25533">
        <ele>1737.4</ele>
        <time>2022-01-09T08:56:58Z</time>
      </trkpt>
      <trkpt lat="42.82354" lon="0.25532">
        <ele>1738</ele>
        <time>2022-01-09T08:56:59Z</time>
      </trkpt>
      <trkpt lat="42.82353" lon="0.25532">
        <ele>1738.4</ele>
        <time>2022-01-09T08:57:00Z</time>
      </trkpt>
      <trkpt lat="42.82353" lon="0.25531">
        <ele>1738.6</ele>
        <time>2022-01-09T08:57:01Z</time>
      </trkpt>
      <trkpt lat="42.82353" lon="0.2553">
        <ele>1739.2</ele>
        <time>2022-01-09T08:57:02Z</time>
      </trkpt>
      <trkpt lat="42.82352" lon="0.25529">
        <ele>1739.6</ele>
        <time>2022-01-09T08:57:03Z</time>
      </trkpt>
      <trkpt lat="42.82352" lon="0.25528">
        <ele>1740</ele>
        <time>2022-01-09T08:57:04Z</time>
      </trkpt>
      <trkpt lat="42.82351" lon="0.25527">
        <ele>1740.4</ele>
        <time>2022-01-09T08:57:05Z</time>
      </trkpt>
      <trkpt lat="42.82351" lon="0.25526">
        <ele>1740.6</ele>
        <time>2022-01-09T08:57:06Z</time>
      </trkpt>
      <trkpt lat="42.82352" lon="0.25524">
        <ele>1741</ele>
        <time>2022-01-09T08:57:07Z</time>
      </trkpt>
      <trkpt lat="42.82352" lon="0.25523">
        <ele>1741.2</ele>
        <time>2022-01-09T08:57:08Z</time>
      </trkpt>
      <trkpt lat="42.82352" lon="0.25521">
        <ele>1741.4</ele>
        <time>2022-01-09T08:57:09Z</time>
      </trkpt>
      <trkpt lat="42.82352" lon="0.2552">
        <ele>1741.8</ele>
        <time>2022-01-09T08:57:10Z</time>
      </trkpt>
      <trkpt lat="42.82352" lon="0.25518">
        <ele>1742.2</ele>
        <time>2022-01-09T08:57:11Z</time>
      </trkpt>
      <trkpt lat="42.82352" lon="0.25516">
        <ele>1742.4</ele>
        <time>2022-01-09T08:57:12Z</time>
      </trkpt>
      <trkpt lat="42.82352" lon="0.25515">
        <ele>1742.6</ele>
        <time>2022-01-09T08:57:13Z</time>
      </trkpt>
      <trkpt lat="42.82351" lon="0.25514">
        <ele>1742.8</ele>
        <time>2022-01-09T08:57:14Z</time>
      </trkpt>
      <trkpt lat="42.8235" lon="0.25513">
        <ele>1743</ele>
        <time>2022-01-09T08:57:15Z</time>
      </trkpt>
      <trkpt lat="42.82349" lon="0.25512">
        <ele>1743.4</ele>
        <time>2022-01-09T08:57:16Z</time>
      </trkpt>
      <trkpt lat="42.82348" lon="0.25512">
        <ele>1743.6</ele>
        <time>2022-01-09T08:57:17Z</time>
      </trkpt>
      <trkpt lat="42.82347" lon="0.25511">
        <ele>1744</ele>
        <time>2022-01-09T08:57:18Z</time>
      </trkpt>
      <trkpt lat="42.82346" lon="0.2551">
        <ele>1744.4</ele>
        <time>2022-01-09T08:57:19Z</time>
      </trkpt>
      <trkpt lat="42.82345" lon="0.25509">
        <ele>1744.4</ele>
        <time>2022-01-09T08:57:20Z</time>
      </trkpt>
      <trkpt lat="42.82344" lon="0.25509">
        <ele>1745</ele>
        <time>2022-01-09T08:57:21Z</time>
      </trkpt>
      <trkpt lat="42.82343" lon="0.2551">
        <ele>1745.4</ele>
        <time>2022-01-09T08:57:22Z</time>
      </trkpt>
      <trkpt lat="42.82342" lon="0.25511">
        <ele>1745.8</ele>
        <time>2022-01-09T08:57:23Z</time>
      </trkpt>
      <trkpt lat="42.82341" lon="0.25512">
        <ele>1746</ele>
        <time>2022-01-09T08:57:24Z</time>
      </trkpt>
      <trkpt lat="42.82341" lon="0.25513">
        <ele>1746.2</ele>
        <time>2022-01-09T08:57:25Z</time>
      </trkpt>
      <trkpt lat="42.8234" lon="0.25514">
        <ele>1746.4</ele>
        <time>2022-01-09T08:57:26Z</time>
      </trkpt>
      <trkpt lat="42.82339" lon="0.25515">
        <ele>1746.8</ele>
        <time>2022-01-09T08:57:27Z</time>
      </trkpt>
      <trkpt lat="42.82338" lon="0.25516">
        <ele>1747.2</ele>
        <time>2022-01-09T08:57:28Z</time>
      </trkpt>
      <trkpt lat="42.82338" lon="0.25517">
        <ele>1747.4</ele>
        <time>2022-01-09T08:57:29Z</time>
      </trkpt>
      <trkpt lat="42.82337" lon="0.25518">
        <ele>1747.6</ele>
        <time>2022-01-09T08:57:30Z</time>
      </trkpt>
      <trkpt lat="42.82336" lon="0.25517">
        <ele>1748.2</ele>
        <time>2022-01-09T08:57:31Z</time>
      </trkpt>
      <trkpt lat="42.82336" lon="0.25516">
        <ele>1748.6</ele>
        <time>2022-01-09T08:57:32Z</time>
      </trkpt>
      <trkpt lat="42.82336" lon="0.25515">
        <ele>1748.8</ele>
        <time>2022-01-09T08:57:33Z</time>
      </trkpt>
      <trkpt lat="42.82335" lon="0.25515">
        <ele>1748.8</ele>
        <time>2022-01-09T08:57:34Z</time>
      </trkpt>
      <trkpt lat="42.82335" lon="0.25514">
        <ele>1749.4</ele>
        <time>2022-01-09T08:57:35Z</time>
      </trkpt>
      <trkpt lat="42.82334" lon="0.25513">
        <ele>1749.8</ele>
        <time>2022-01-09T08:57:36Z</time>
      </trkpt>
      <trkpt lat="42.82334" lon="0.25513">
        <ele>1750</ele>
        <time>2022-01-09T08:57:37Z</time>
      </trkpt>
      <trkpt lat="42.82333" lon="0.25512">
        <ele>1750.4</ele>
        <time>2022-01-09T08:57:38Z</time>
      </trkpt>
      <trkpt lat="42.82333" lon="0.25511">
        <ele>1750.6</ele>
        <time>2022-01-09T08:57:39Z</time>
      </trkpt>
      <trkpt lat="42.82333" lon="0.2551">
        <ele>1751</ele>
        <time>2022-01-09T08:57:40Z</time>
      </trkpt>
      <trkpt lat="42.82332" lon="0.2551">
        <ele>1751.2</ele>
        <time>2022-01-09T08:57:41Z</time>
      </trkpt>
      <trkpt lat="42.82332" lon="0.25509">
        <ele>1751.8</ele>
        <time>2022-01-09T08:57:42Z</time>
      </trkpt>
      <trkpt lat="42.82331" lon="0.25508">
        <ele>1752</ele>
        <time>2022-01-09T08:57:43Z</time>
      </trkpt>
      <trkpt lat="42.82331" lon="0.25507">
        <ele>1752.4</ele>
        <time>2022-01-09T08:57:44Z</time>
      </trkpt>
      <trkpt lat="42.82331" lon="0.25505">
        <ele>1753</ele>
        <time>2022-01-09T08:57:45Z</time>
      </trkpt>
      <trkpt lat="42.82331" lon="0.25504">
        <ele>1753.2</ele>
        <time>2022-01-09T08:57:46Z</time>
      </trkpt>
      <trkpt lat="42.82331" lon="0.25502">
        <ele>1753.6</ele>
        <time>2022-01-09T08:57:47Z</time>
      </trkpt>
      <trkpt lat="42.82331" lon="0.25501">
        <ele>1753.8</ele>
        <time>2022-01-09T08:57:48Z</time>
      </trkpt>
      <trkpt lat="42.82332" lon="0.25499">
        <ele>1754.2</ele>
        <time>2022-01-09T08:57:49Z</time>
      </trkpt>
      <trkpt lat="42.82332" lon="0.25498">
        <ele>1754.6</ele>
        <time>2022-01-09T08:57:50Z</time>
      </trkpt>
      <trkpt lat="42.82332" lon="0.25496">
        <ele>1755.2</ele>
        <time>2022-01-09T08:57:51Z</time>
      </trkpt>
      <trkpt lat="42.82332" lon="0.25495">
        <ele>1755.6</ele>
        <time>2022-01-09T08:57:52Z</time>
      </trkpt>
      <trkpt lat="42.82332" lon="0.25493">
        <ele>1756</ele>
        <time>2022-01-09T08:57:53Z</time>
      </trkpt>
      <trkpt lat="42.82332" lon="0.25491">
        <ele>1756.4</ele>
        <time>2022-01-09T08:57:54Z</time>
      </trkpt>
      <trkpt lat="42.82332" lon="0.2549">
        <ele>1756.4</ele>
        <time>2022-01-09T08:57:55Z</time>
      </trkpt>
      <trkpt lat="42.82333" lon="0.25488">
        <ele>1756.8</ele>
        <time>2022-01-09T08:57:56Z</time>
      </trkpt>
      <trkpt lat="42.82333" lon="0.25486">
        <ele>1757.2</ele>
        <time>2022-01-09T08:57:57Z</time>
      </trkpt>
      <trkpt lat="42.82333" lon="0.25485">
        <ele>1757.4</ele>
        <time>2022-01-09T08:57:58Z</time>
      </trkpt>
      <trkpt lat="42.82333" lon="0.25483">
        <ele>1757.6</ele>
        <time>2022-01-09T08:57:59Z</time>
      </trkpt>
      <trkpt lat="42.82334" lon="0.25481">
        <ele>1758.2</ele>
        <time>2022-01-09T08:58:00Z</time>
      </trkpt>
      <trkpt lat="42.82333" lon="0.2548">
        <ele>1758.6</ele>
        <time>2022-01-09T08:58:01Z</time>
      </trkpt>
      <trkpt lat="42.82333" lon="0.25478">
        <ele>1758.8</ele>
        <time>2022-01-09T08:58:02Z</time>
      </trkpt>
      <trkpt lat="42.82333" lon="0.25476">
        <ele>1759</ele>
        <time>2022-01-09T08:58:03Z</time>
      </trkpt>
      <trkpt lat="42.82333" lon="0.25475">
        <ele>1759</ele>
        <time>2022-01-09T08:58:04Z</time>
      </trkpt>
      <trkpt lat="42.82333" lon="0.25473">
        <ele>1759.6</ele>
        <time>2022-01-09T08:58:05Z</time>
      </trkpt>
      <trkpt lat="42.82333" lon="0.25471">
        <ele>1759.8</ele>
        <time>2022-01-09T08:58:06Z</time>
      </trkpt>
      <trkpt lat="42.82333" lon="0.2547">
        <ele>1760</ele>
        <time>2022-01-09T08:58:07Z</time>
      </trkpt>
      <trkpt lat="42.82333" lon="0.25468">
        <ele>1760.2</ele>
        <time>2022-01-09T08:58:08Z</time>
      </trkpt>
      <trkpt lat="42.82333" lon="0.25467">
        <ele>1760.6</ele>
        <time>2022-01-09T08:58:09Z</time>
      </trkpt>
      <trkpt lat="42.82333" lon="0.25466">
        <ele>1761.2</ele>
        <time>2022-01-09T08:58:10Z</time>
      </trkpt>
      <trkpt lat="42.82333" lon="0.25465">
        <ele>1761</ele>
        <time>2022-01-09T08:58:11Z</time>
      </trkpt>
      <trkpt lat="42.82334" lon="0.25463">
        <ele>1761.4</ele>
        <time>2022-01-09T08:58:12Z</time>
      </trkpt>
      <trkpt lat="42.82334" lon="0.25462">
        <ele>1761.4</ele>
        <time>2022-01-09T08:58:13Z</time>
      </trkpt>
      <trkpt lat="42.82334" lon="0.25461">
        <ele>1761.6</ele>
        <time>2022-01-09T08:58:14Z</time>
      </trkpt>
      <trkpt lat="42.82336" lon="0.25452">
        <ele>1761.8</ele>
        <time>2022-01-09T08:58:15Z</time>
      </trkpt>
      <trkpt lat="42.82336" lon="0.25451">
        <ele>1762</ele>
        <time>2022-01-09T08:58:16Z</time>
      </trkpt>
      <trkpt lat="42.82337" lon="0.2545">
        <ele>1762.6</ele>
        <time>2022-01-09T08:58:17Z</time>
      </trkpt>
      <trkpt lat="42.82337" lon="0.25449">
        <ele>1762.8</ele>
        <time>2022-01-09T08:58:18Z</time>
      </trkpt>
      <trkpt lat="42.82338" lon="0.25447">
        <ele>1763</ele>
        <time>2022-01-09T08:58:19Z</time>
      </trkpt>
      <trkpt lat="42.82342" lon="0.25439">
        <ele>1763.4</ele>
        <time>2022-01-09T08:58:20Z</time>
      </trkpt>
      <trkpt lat="42.82343" lon="0.25437">
        <ele>1763.6</ele>
        <time>2022-01-09T08:58:21Z</time>
      </trkpt>
      <trkpt lat="42.82344" lon="0.25434">
        <ele>1763.8</ele>
        <time>2022-01-09T08:58:22Z</time>
      </trkpt>
      <trkpt lat="42.82345" lon="0.25432">
        <ele>1763.8</ele>
        <time>2022-01-09T08:58:23Z</time>
      </trkpt>
      <trkpt lat="42.82346" lon="0.2543">
        <ele>1764</ele>
        <time>2022-01-09T08:58:24Z</time>
      </trkpt>
      <trkpt lat="42.82347" lon="0.25428">
        <ele>1764</ele>
        <time>2022-01-09T08:58:25Z</time>
      </trkpt>
      <trkpt lat="42.82349" lon="0.25426">
        <ele>1764.2</ele>
        <time>2022-01-09T08:58:26Z</time>
      </trkpt>
      <trkpt lat="42.82351" lon="0.25423">
        <ele>1764.4</ele>
        <time>2022-01-09T08:58:27Z</time>
      </trkpt>
      <trkpt lat="42.82352" lon="0.25421">
        <ele>1764.8</ele>
        <time>2022-01-09T08:58:28Z</time>
      </trkpt>
      <trkpt lat="42.82352" lon="0.2542">
        <ele>1765.2</ele>
        <time>2022-01-09T08:58:29Z</time>
      </trkpt>
      <trkpt lat="42.82353" lon="0.25419">
        <ele>1765.2</ele>
        <time>2022-01-09T08:58:30Z</time>
      </trkpt>
      <trkpt lat="42.82353" lon="0.25419">
        <ele>1765.6</ele>
        <time>2022-01-09T08:58:31Z</time>
      </trkpt>
      <trkpt lat="42.82353" lon="0.25418">
        <ele>1765.8</ele>
        <time>2022-01-09T08:58:32Z</time>
      </trkpt>
      <trkpt lat="42.82354" lon="0.25417">
        <ele>1766</ele>
        <time>2022-01-09T08:58:33Z</time>
      </trkpt>
      <trkpt lat="42.82354" lon="0.25416">
        <ele>1766.4</ele>
        <time>2022-01-09T08:58:34Z</time>
      </trkpt>
      <trkpt lat="42.82354" lon="0.25415">
        <ele>1766.6</ele>
        <time>2022-01-09T08:58:35Z</time>
      </trkpt>
      <trkpt lat="42.82354" lon="0.25414">
        <ele>1766.6</ele>
        <time>2022-01-09T08:58:36Z</time>
      </trkpt>
      <trkpt lat="42.82358" lon="0.25406">
        <ele>1767</ele>
        <time>2022-01-09T08:58:37Z</time>
      </trkpt>
      <trkpt lat="42.82358" lon="0.25405">
        <ele>1767.4</ele>
        <time>2022-01-09T08:58:38Z</time>
      </trkpt>
      <trkpt lat="42.82359" lon="0.25404">
        <ele>1767.4</ele>
        <time>2022-01-09T08:58:39Z</time>
      </trkpt>
      <trkpt lat="42.8236" lon="0.25403">
        <ele>1768</ele>
        <time>2022-01-09T08:58:40Z</time>
      </trkpt>
      <trkpt lat="42.8236" lon="0.25402">
        <ele>1768.6</ele>
        <time>2022-01-09T08:58:41Z</time>
      </trkpt>
      <trkpt lat="42.82365" lon="0.25395">
        <ele>1769.2</ele>
        <time>2022-01-09T08:58:42Z</time>
      </trkpt>
      <trkpt lat="42.82367" lon="0.25393">
        <ele>1769.8</ele>
        <time>2022-01-09T08:58:43Z</time>
      </trkpt>
      <trkpt lat="42.82368" lon="0.2539">
        <ele>1769.8</ele>
        <time>2022-01-09T08:58:44Z</time>
      </trkpt>
      <trkpt lat="42.82369" lon="0.25388">
        <ele>1770.2</ele>
        <time>2022-01-09T08:58:45Z</time>
      </trkpt>
      <trkpt lat="42.82371" lon="0.25386">
        <ele>1770.4</ele>
        <time>2022-01-09T08:58:46Z</time>
      </trkpt>
      <trkpt lat="42.82372" lon="0.25384">
        <ele>1770.8</ele>
        <time>2022-01-09T08:58:47Z</time>
      </trkpt>
      <trkpt lat="42.82372" lon="0.25382">
        <ele>1771</ele>
        <time>2022-01-09T08:58:48Z</time>
      </trkpt>
      <trkpt lat="42.82373" lon="0.25381">
        <ele>1771.4</ele>
        <time>2022-01-09T08:58:49Z</time>
      </trkpt>
      <trkpt lat="42.82374" lon="0.25379">
        <ele>1771.8</ele>
        <time>2022-01-09T08:58:50Z</time>
      </trkpt>
      <trkpt lat="42.82375" lon="0.25377">
        <ele>1772.2</ele>
        <time>2022-01-09T08:58:51Z</time>
      </trkpt>
      <trkpt lat="42.82376" lon="0.25375">
        <ele>1772.4</ele>
        <time>2022-01-09T08:58:52Z</time>
      </trkpt>
      <trkpt lat="42.82376" lon="0.25374">
        <ele>1772.6</ele>
        <time>2022-01-09T08:58:53Z</time>
      </trkpt>
      <trkpt lat="42.82377" lon="0.25372">
        <ele>1772.8</ele>
        <time>2022-01-09T08:58:54Z</time>
      </trkpt>
      <trkpt lat="42.82377" lon="0.25371">
        <ele>1773.2</ele>
        <time>2022-01-09T08:58:55Z</time>
      </trkpt>
      <trkpt lat="42.82378" lon="0.25369">
        <ele>1773.2</ele>
        <time>2022-01-09T08:58:56Z</time>
      </trkpt>
      <trkpt lat="42.82379" lon="0.25368">
        <ele>1773.6</ele>
        <time>2022-01-09T08:58:57Z</time>
      </trkpt>
      <trkpt lat="42.82379" lon="0.25366">
        <ele>1773.8</ele>
        <time>2022-01-09T08:58:58Z</time>
      </trkpt>
      <trkpt lat="42.8238" lon="0.25365">
        <ele>1774</ele>
        <time>2022-01-09T08:58:59Z</time>
      </trkpt>
      <trkpt lat="42.8238" lon="0.25364">
        <ele>1774.2</ele>
        <time>2022-01-09T08:59:00Z</time>
      </trkpt>
      <trkpt lat="42.82381" lon="0.25362">
        <ele>1774.6</ele>
        <time>2022-01-09T08:59:01Z</time>
      </trkpt>
      <trkpt lat="42.82382" lon="0.2536">
        <ele>1774.8</ele>
        <time>2022-01-09T08:59:02Z</time>
      </trkpt>
      <trkpt lat="42.82383" lon="0.25359">
        <ele>1775</ele>
        <time>2022-01-09T08:59:03Z</time>
      </trkpt>
      <trkpt lat="42.82384" lon="0.25357">
        <ele>1775.2</ele>
        <time>2022-01-09T08:59:04Z</time>
      </trkpt>
      <trkpt lat="42.82385" lon="0.25355">
        <ele>1775.8</ele>
        <time>2022-01-09T08:59:05Z</time>
      </trkpt>
      <trkpt lat="42.82386" lon="0.25354">
        <ele>1776</ele>
        <time>2022-01-09T08:59:06Z</time>
      </trkpt>
      <trkpt lat="42.82386" lon="0.25353">
        <ele>1776.6</ele>
        <time>2022-01-09T08:59:07Z</time>
      </trkpt>
      <trkpt lat="42.82386" lon="0.25352">
        <ele>1776.8</ele>
        <time>2022-01-09T08:59:08Z</time>
      </trkpt>
      <trkpt lat="42.82387" lon="0.25352">
        <ele>1777</ele>
        <time>2022-01-09T08:59:09Z</time>
      </trkpt>
      <trkpt lat="42.82387" lon="0.25351">
        <ele>1777.2</ele>
        <time>2022-01-09T08:59:10Z</time>
      </trkpt>
      <trkpt lat="42.82388" lon="0.25351">
        <ele>1777.4</ele>
        <time>2022-01-09T08:59:11Z</time>
      </trkpt>
      <trkpt lat="42.82388" lon="0.2535">
        <ele>1777.6</ele>
        <time>2022-01-09T08:59:12Z</time>
      </trkpt>
      <trkpt lat="42.82389" lon="0.25349">
        <ele>1777.8</ele>
        <time>2022-01-09T08:59:13Z</time>
      </trkpt>
      <trkpt lat="42.82389" lon="0.25349">
        <ele>1778</ele>
        <time>2022-01-09T08:59:14Z</time>
      </trkpt>
      <trkpt lat="42.82393" lon="0.25343">
        <ele>1778.6</ele>
        <time>2022-01-09T08:59:15Z</time>
      </trkpt>
      <trkpt lat="42.82394" lon="0.25342">
        <ele>1779</ele>
        <time>2022-01-09T08:59:16Z</time>
      </trkpt>
      <trkpt lat="42.82394" lon="0.25341">
        <ele>1779.2</ele>
        <time>2022-01-09T08:59:17Z</time>
      </trkpt>
      <trkpt lat="42.82395" lon="0.25341">
        <ele>1779.4</ele>
        <time>2022-01-09T08:59:18Z</time>
      </trkpt>
      <trkpt lat="42.82395" lon="0.2534">
        <ele>1780</ele>
        <time>2022-01-09T08:59:19Z</time>
      </trkpt>
      <trkpt lat="42.82396" lon="0.25339">
        <ele>1780.6</ele>
        <time>2022-01-09T08:59:20Z</time>
      </trkpt>
      <trkpt lat="42.82397" lon="0.25339">
        <ele>1780.4</ele>
        <time>2022-01-09T08:59:21Z</time>
      </trkpt>
      <trkpt lat="42.82402" lon="0.25332">
        <ele>1780.8</ele>
        <time>2022-01-09T08:59:22Z</time>
      </trkpt>
      <trkpt lat="42.82403" lon="0.25331">
        <ele>1780.8</ele>
        <time>2022-01-09T08:59:23Z</time>
      </trkpt>
      <trkpt lat="42.82404" lon="0.25329">
        <ele>1781.2</ele>
        <time>2022-01-09T08:59:24Z</time>
      </trkpt>
      <trkpt lat="42.82405" lon="0.25328">
        <ele>1781.6</ele>
        <time>2022-01-09T08:59:25Z</time>
      </trkpt>
      <trkpt lat="42.82406" lon="0.25326">
        <ele>1781.8</ele>
        <time>2022-01-09T08:59:26Z</time>
      </trkpt>
      <trkpt lat="42.82407" lon="0.25325">
        <ele>1782</ele>
        <time>2022-01-09T08:59:27Z</time>
      </trkpt>
      <trkpt lat="42.82408" lon="0.25323">
        <ele>1782.4</ele>
        <time>2022-01-09T08:59:28Z</time>
      </trkpt>
      <trkpt lat="42.82409" lon="0.25322">
        <ele>1782.8</ele>
        <time>2022-01-09T08:59:29Z</time>
      </trkpt>
      <trkpt lat="42.8241" lon="0.25321">
        <ele>1783</ele>
        <time>2022-01-09T08:59:30Z</time>
      </trkpt>
      <trkpt lat="42.82411" lon="0.25319">
        <ele>1783.2</ele>
        <time>2022-01-09T08:59:31Z</time>
      </trkpt>
      <trkpt lat="42.82412" lon="0.25318">
        <ele>1783.6</ele>
        <time>2022-01-09T08:59:32Z</time>
      </trkpt>
      <trkpt lat="42.82413" lon="0.25317">
        <ele>1784</ele>
        <time>2022-01-09T08:59:33Z</time>
      </trkpt>
      <trkpt lat="42.82414" lon="0.25315">
        <ele>1784.2</ele>
        <time>2022-01-09T08:59:34Z</time>
      </trkpt>
      <trkpt lat="42.82416" lon="0.25314">
        <ele>1784.4</ele>
        <time>2022-01-09T08:59:35Z</time>
      </trkpt>
      <trkpt lat="42.82417" lon="0.25312">
        <ele>1784.8</ele>
        <time>2022-01-09T08:59:36Z</time>
      </trkpt>
      <trkpt lat="42.82418" lon="0.25311">
        <ele>1785</ele>
        <time>2022-01-09T08:59:37Z</time>
      </trkpt>
      <trkpt lat="42.82419" lon="0.2531">
        <ele>1785.4</ele>
        <time>2022-01-09T08:59:38Z</time>
      </trkpt>
      <trkpt lat="42.82421" lon="0.25308">
        <ele>1785.6</ele>
        <time>2022-01-09T08:59:39Z</time>
      </trkpt>
      <trkpt lat="42.82422" lon="0.25307">
        <ele>1785.8</ele>
        <time>2022-01-09T08:59:40Z</time>
      </trkpt>
      <trkpt lat="42.82423" lon="0.25305">
        <ele>1786.2</ele>
        <time>2022-01-09T08:59:41Z</time>
      </trkpt>
      <trkpt lat="42.82424" lon="0.25304">
        <ele>1786.2</ele>
        <time>2022-01-09T08:59:42Z</time>
      </trkpt>
      <trkpt lat="42.82425" lon="0.25303">
        <ele>1786.4</ele>
        <time>2022-01-09T08:59:43Z</time>
      </trkpt>
      <trkpt lat="42.82427" lon="0.25301">
        <ele>1786.6</ele>
        <time>2022-01-09T08:59:44Z</time>
      </trkpt>
      <trkpt lat="42.82428" lon="0.253">
        <ele>1786.8</ele>
        <time>2022-01-09T08:59:45Z</time>
      </trkpt>
      <trkpt lat="42.82428" lon="0.253">
        <ele>1787.2</ele>
        <time>2022-01-09T08:59:46Z</time>
      </trkpt>
      <trkpt lat="42.8243" lon="0.25297">
        <ele>1787.8</ele>
        <time>2022-01-09T08:59:47Z</time>
      </trkpt>
      <trkpt lat="42.8243" lon="0.25297">
        <ele>1788.2</ele>
        <time>2022-01-09T08:59:48Z</time>
      </trkpt>
      <trkpt lat="42.82433" lon="0.25294">
        <ele>1788.4</ele>
        <time>2022-01-09T08:59:49Z</time>
      </trkpt>
      <trkpt lat="42.82433" lon="0.25294">
        <ele>1788.6</ele>
        <time>2022-01-09T08:59:50Z</time>
      </trkpt>
      <trkpt lat="42.82436" lon="0.25292">
        <ele>1789.2</ele>
        <time>2022-01-09T08:59:51Z</time>
      </trkpt>
      <trkpt lat="42.82436" lon="0.25292">
        <ele>1789.8</ele>
        <time>2022-01-09T08:59:52Z</time>
      </trkpt>
      <trkpt lat="42.82439" lon="0.25289">
        <ele>1789.8</ele>
        <time>2022-01-09T08:59:53Z</time>
      </trkpt>
      <trkpt lat="42.82439" lon="0.25289">
        <ele>1790</ele>
        <time>2022-01-09T08:59:54Z</time>
      </trkpt>
      <trkpt lat="42.82441" lon="0.25286">
        <ele>1790</ele>
        <time>2022-01-09T08:59:55Z</time>
      </trkpt>
      <trkpt lat="42.82441" lon="0.25286">
        <ele>1790.4</ele>
        <time>2022-01-09T08:59:56Z</time>
      </trkpt>
      <trkpt lat="42.82444" lon="0.25283">
        <ele>1791</ele>
        <time>2022-01-09T08:59:57Z</time>
      </trkpt>
      <trkpt lat="42.82445" lon="0.25282">
        <ele>1791.2</ele>
        <time>2022-01-09T08:59:58Z</time>
      </trkpt>
      <trkpt lat="42.82446" lon="0.25281">
        <ele>1791.2</ele>
        <time>2022-01-09T08:59:59Z</time>
      </trkpt>
      <trkpt lat="42.82447" lon="0.2528">
        <ele>1791.6</ele>
        <time>2022-01-09T09:00:00Z</time>
      </trkpt>
      <trkpt lat="42.82448" lon="0.25278">
        <ele>1791.8</ele>
        <time>2022-01-09T09:00:01Z</time>
      </trkpt>
      <trkpt lat="42.82449" lon="0.25277">
        <ele>1792.2</ele>
        <time>2022-01-09T09:00:02Z</time>
      </trkpt>
      <trkpt lat="42.8245" lon="0.25276">
        <ele>1792.4</ele>
        <time>2022-01-09T09:00:03Z</time>
      </trkpt>
      <trkpt lat="42.82451" lon="0.25275">
        <ele>1792.4</ele>
        <time>2022-01-09T09:00:04Z</time>
      </trkpt>
      <trkpt lat="42.82452" lon="0.25273">
        <ele>1792.8</ele>
        <time>2022-01-09T09:00:05Z</time>
      </trkpt>
      <trkpt lat="42.82454" lon="0.25271">
        <ele>1793.2</ele>
        <time>2022-01-09T09:00:06Z</time>
      </trkpt>
      <trkpt lat="42.82455" lon="0.2527">
        <ele>1793.2</ele>
        <time>2022-01-09T09:00:07Z</time>
      </trkpt>
      <trkpt lat="42.82457" lon="0.25268">
        <ele>1793.8</ele>
        <time>2022-01-09T09:00:08Z</time>
      </trkpt>
      <trkpt lat="42.82458" lon="0.25266">
        <ele>1794</ele>
        <time>2022-01-09T09:00:09Z</time>
      </trkpt>
      <trkpt lat="42.82459" lon="0.25265">
        <ele>1794.4</ele>
        <time>2022-01-09T09:00:10Z</time>
      </trkpt>
      <trkpt lat="42.82461" lon="0.25264">
        <ele>1795</ele>
        <time>2022-01-09T09:00:11Z</time>
      </trkpt>
      <trkpt lat="42.82462" lon="0.25262">
        <ele>1795.4</ele>
        <time>2022-01-09T09:00:12Z</time>
      </trkpt>
      <trkpt lat="42.82463" lon="0.25261">
        <ele>1795.6</ele>
        <time>2022-01-09T09:00:13Z</time>
      </trkpt>
      <trkpt lat="42.82465" lon="0.2526">
        <ele>1796</ele>
        <time>2022-01-09T09:00:14Z</time>
      </trkpt>
      <trkpt lat="42.82466" lon="0.25259">
        <ele>1796.4</ele>
        <time>2022-01-09T09:00:15Z</time>
      </trkpt>
      <trkpt lat="42.82466" lon="0.25258">
        <ele>1796.6</ele>
        <time>2022-01-09T09:00:16Z</time>
      </trkpt>
      <trkpt lat="42.82467" lon="0.25257">
        <ele>1796.8</ele>
        <time>2022-01-09T09:00:17Z</time>
      </trkpt>
      <trkpt lat="42.82467" lon="0.25256">
        <ele>1797.2</ele>
        <time>2022-01-09T09:00:18Z</time>
      </trkpt>
      <trkpt lat="42.82468" lon="0.25255">
        <ele>1797.8</ele>
        <time>2022-01-09T09:00:19Z</time>
      </trkpt>
      <trkpt lat="42.82468" lon="0.25254">
        <ele>1798.2</ele>
        <time>2022-01-09T09:00:20Z</time>
      </trkpt>
      <trkpt lat="42.82468" lon="0.25254">
        <ele>1798.4</ele>
        <time>2022-01-09T09:00:21Z</time>
      </trkpt>
      <trkpt lat="42.82469" lon="0.25253">
        <ele>1798.6</ele>
        <time>2022-01-09T09:00:22Z</time>
      </trkpt>
      <trkpt lat="42.82473" lon="0.25245">
        <ele>1799</ele>
        <time>2022-01-09T09:00:23Z</time>
      </trkpt>
      <trkpt lat="42.82474" lon="0.25244">
        <ele>1799.2</ele>
        <time>2022-01-09T09:00:24Z</time>
      </trkpt>
      <trkpt lat="42.82475" lon="0.25242">
        <ele>1799.4</ele>
        <time>2022-01-09T09:00:25Z</time>
      </trkpt>
      <trkpt lat="42.82476" lon="0.2524">
        <ele>1799.6</ele>
        <time>2022-01-09T09:00:26Z</time>
      </trkpt>
      <trkpt lat="42.82477" lon="0.25239">
        <ele>1800</ele>
        <time>2022-01-09T09:00:27Z</time>
      </trkpt>
      <trkpt lat="42.82478" lon="0.25237">
        <ele>1800.4</ele>
        <time>2022-01-09T09:00:28Z</time>
      </trkpt>
      <trkpt lat="42.82479" lon="0.25235">
        <ele>1800.6</ele>
        <time>2022-01-09T09:00:29Z</time>
      </trkpt>
      <trkpt lat="42.8248" lon="0.25234">
        <ele>1801</ele>
        <time>2022-01-09T09:00:30Z</time>
      </trkpt>
      <trkpt lat="42.82481" lon="0.25233">
        <ele>1801.2</ele>
        <time>2022-01-09T09:00:31Z</time>
      </trkpt>
      <trkpt lat="42.82482" lon="0.25231">
        <ele>1801.4</ele>
        <time>2022-01-09T09:00:32Z</time>
      </trkpt>
      <trkpt lat="42.82483" lon="0.2523">
        <ele>1801.6</ele>
        <time>2022-01-09T09:00:33Z</time>
      </trkpt>
      <trkpt lat="42.82483" lon="0.25228">
        <ele>1801.8</ele>
        <time>2022-01-09T09:00:34Z</time>
      </trkpt>
      <trkpt lat="42.82484" lon="0.25227">
        <ele>1802.2</ele>
        <time>2022-01-09T09:00:35Z</time>
      </trkpt>
      <trkpt lat="42.82485" lon="0.25226">
        <ele>1802</ele>
        <time>2022-01-09T09:00:36Z</time>
      </trkpt>
      <trkpt lat="42.82486" lon="0.25224">
        <ele>1802.6</ele>
        <time>2022-01-09T09:00:37Z</time>
      </trkpt>
      <trkpt lat="42.82486" lon="0.25223">
        <ele>1802.6</ele>
        <time>2022-01-09T09:00:38Z</time>
      </trkpt>
      <trkpt lat="42.82487" lon="0.25222">
        <ele>1803</ele>
        <time>2022-01-09T09:00:39Z</time>
      </trkpt>
      <trkpt lat="42.82487" lon="0.2522">
        <ele>1803.2</ele>
        <time>2022-01-09T09:00:40Z</time>
      </trkpt>
      <trkpt lat="42.82488" lon="0.25219">
        <ele>1803.6</ele>
        <time>2022-01-09T09:00:41Z</time>
      </trkpt>
      <trkpt lat="42.82488" lon="0.25219">
        <ele>1803.8</ele>
        <time>2022-01-09T09:00:42Z</time>
      </trkpt>
      <trkpt lat="42.8249" lon="0.25215">
        <ele>1803.8</ele>
        <time>2022-01-09T09:00:43Z</time>
      </trkpt>
      <trkpt lat="42.82491" lon="0.25213">
        <ele>1804.2</ele>
        <time>2022-01-09T09:00:44Z</time>
      </trkpt>
      <trkpt lat="42.82492" lon="0.25211">
        <ele>1804.2</ele>
        <time>2022-01-09T09:00:45Z</time>
      </trkpt>
      <trkpt lat="42.82492" lon="0.25209">
        <ele>1804.8</ele>
        <time>2022-01-09T09:00:46Z</time>
      </trkpt>
      <trkpt lat="42.82493" lon="0.25207">
        <ele>1804.8</ele>
        <time>2022-01-09T09:00:47Z</time>
      </trkpt>
      <trkpt lat="42.82494" lon="0.25206">
        <ele>1805</ele>
        <time>2022-01-09T09:00:48Z</time>
      </trkpt>
      <trkpt lat="42.82495" lon="0.25204">
        <ele>1805.2</ele>
        <time>2022-01-09T09:00:49Z</time>
      </trkpt>
      <trkpt lat="42.82495" lon="0.25202">
        <ele>1805.8</ele>
        <time>2022-01-09T09:00:50Z</time>
      </trkpt>
      <trkpt lat="42.82496" lon="0.25201">
        <ele>1805.8</ele>
        <time>2022-01-09T09:00:51Z</time>
      </trkpt>
      <trkpt lat="42.82496" lon="0.25199">
        <ele>1806</ele>
        <time>2022-01-09T09:00:52Z</time>
      </trkpt>
      <trkpt lat="42.82497" lon="0.25198">
        <ele>1806.4</ele>
        <time>2022-01-09T09:00:53Z</time>
      </trkpt>
      <trkpt lat="42.82497" lon="0.25197">
        <ele>1806.6</ele>
        <time>2022-01-09T09:00:54Z</time>
      </trkpt>
      <trkpt lat="42.82497" lon="0.25196">
        <ele>1807.2</ele>
        <time>2022-01-09T09:00:55Z</time>
      </trkpt>
      <trkpt lat="42.82498" lon="0.25195">
        <ele>1807.4</ele>
        <time>2022-01-09T09:00:56Z</time>
      </trkpt>
      <trkpt lat="42.82501" lon="0.25187">
        <ele>1808</ele>
        <time>2022-01-09T09:00:57Z</time>
      </trkpt>
      <trkpt lat="42.82502" lon="0.25185">
        <ele>1808.4</ele>
        <time>2022-01-09T09:00:58Z</time>
      </trkpt>
      <trkpt lat="42.82502" lon="0.25184">
        <ele>1808.6</ele>
        <time>2022-01-09T09:00:59Z</time>
      </trkpt>
      <trkpt lat="42.82503" lon="0.25182">
        <ele>1809</ele>
        <time>2022-01-09T09:01:00Z</time>
      </trkpt>
      <trkpt lat="42.82503" lon="0.2518">
        <ele>1809.2</ele>
        <time>2022-01-09T09:01:01Z</time>
      </trkpt>
      <trkpt lat="42.82504" lon="0.25179">
        <ele>1809.4</ele>
        <time>2022-01-09T09:01:02Z</time>
      </trkpt>
      <trkpt lat="42.82504" lon="0.25177">
        <ele>1810</ele>
        <time>2022-01-09T09:01:03Z</time>
      </trkpt>
      <trkpt lat="42.82505" lon="0.25175">
        <ele>1810</ele>
        <time>2022-01-09T09:01:04Z</time>
      </trkpt>
      <trkpt lat="42.82505" lon="0.25173">
        <ele>1810.6</ele>
        <time>2022-01-09T09:01:05Z</time>
      </trkpt>
      <trkpt lat="42.82506" lon="0.25172">
        <ele>1810.6</ele>
        <time>2022-01-09T09:01:06Z</time>
      </trkpt>
      <trkpt lat="42.82506" lon="0.2517">
        <ele>1811</ele>
        <time>2022-01-09T09:01:07Z</time>
      </trkpt>
      <trkpt lat="42.82506" lon="0.25168">
        <ele>1811.2</ele>
        <time>2022-01-09T09:01:08Z</time>
      </trkpt>
      <trkpt lat="42.82507" lon="0.25166">
        <ele>1811.4</ele>
        <time>2022-01-09T09:01:09Z</time>
      </trkpt>
      <trkpt lat="42.82507" lon="0.25166">
        <ele>1811.6</ele>
        <time>2022-01-09T09:01:10Z</time>
      </trkpt>
      <trkpt lat="42.82508" lon="0.25162">
        <ele>1811.8</ele>
        <time>2022-01-09T09:01:11Z</time>
      </trkpt>
      <trkpt lat="42.82509" lon="0.2516">
        <ele>1812.4</ele>
        <time>2022-01-09T09:01:12Z</time>
      </trkpt>
      <trkpt lat="42.82509" lon="0.2516">
        <ele>1812.6</ele>
        <time>2022-01-09T09:01:13Z</time>
      </trkpt>
      <trkpt lat="42.82511" lon="0.25157">
        <ele>1813</ele>
        <time>2022-01-09T09:01:14Z</time>
      </trkpt>
      <trkpt lat="42.82512" lon="0.25154">
        <ele>1813.4</ele>
        <time>2022-01-09T09:01:15Z</time>
      </trkpt>
      <trkpt lat="42.82513" lon="0.25151">
        <ele>1813.2</ele>
        <time>2022-01-09T09:01:16Z</time>
      </trkpt>
      <trkpt lat="42.82513" lon="0.25148">
        <ele>1813.4</ele>
        <time>2022-01-09T09:01:17Z</time>
      </trkpt>
      <trkpt lat="42.82514" lon="0.25145">
        <ele>1813.2</ele>
        <time>2022-01-09T09:01:18Z</time>
      </trkpt>
      <trkpt lat="42.82515" lon="0.25142">
        <ele>1813.4</ele>
        <time>2022-01-09T09:01:19Z</time>
      </trkpt>
      <trkpt lat="42.82516" lon="0.25139">
        <ele>1813.6</ele>
        <time>2022-01-09T09:01:20Z</time>
      </trkpt>
      <trkpt lat="42.82517" lon="0.25136">
        <ele>1813.8</ele>
        <time>2022-01-09T09:01:21Z</time>
      </trkpt>
      <trkpt lat="42.82518" lon="0.25132">
        <ele>1813.6</ele>
        <time>2022-01-09T09:01:22Z</time>
      </trkpt>
      <trkpt lat="42.82518" lon="0.25131">
        <ele>1813.8</ele>
        <time>2022-01-09T09:01:23Z</time>
      </trkpt>
      <trkpt lat="42.82518" lon="0.25129">
        <ele>1813.4</ele>
        <time>2022-01-09T09:01:24Z</time>
      </trkpt>
      <trkpt lat="42.82519" lon="0.25127">
        <ele>1813.4</ele>
        <time>2022-01-09T09:01:25Z</time>
      </trkpt>
      <trkpt lat="42.82519" lon="0.25125">
        <ele>1813.8</ele>
        <time>2022-01-09T09:01:26Z</time>
      </trkpt>
      <trkpt lat="42.82521" lon="0.25117">
        <ele>1814.4</ele>
        <time>2022-01-09T09:01:27Z</time>
      </trkpt>
      <trkpt lat="42.82522" lon="0.25115">
        <ele>1814.6</ele>
        <time>2022-01-09T09:01:28Z</time>
      </trkpt>
      <trkpt lat="42.82522" lon="0.25114">
        <ele>1814.4</ele>
        <time>2022-01-09T09:01:29Z</time>
      </trkpt>
      <trkpt lat="42.82523" lon="0.25113">
        <ele>1814.6</ele>
        <time>2022-01-09T09:01:30Z</time>
      </trkpt>
      <trkpt lat="42.82523" lon="0.25112">
        <ele>1814.6</ele>
        <time>2022-01-09T09:01:31Z</time>
      </trkpt>
      <trkpt lat="42.82525" lon="0.25103">
        <ele>1814.8</ele>
        <time>2022-01-09T09:01:32Z</time>
      </trkpt>
      <trkpt lat="42.82526" lon="0.25102">
        <ele>1814.6</ele>
        <time>2022-01-09T09:01:33Z</time>
      </trkpt>
      <trkpt lat="42.82526" lon="0.251">
        <ele>1815.2</ele>
        <time>2022-01-09T09:01:34Z</time>
      </trkpt>
      <trkpt lat="42.82526" lon="0.25098">
        <ele>1815.4</ele>
        <time>2022-01-09T09:01:35Z</time>
      </trkpt>
      <trkpt lat="42.82527" lon="0.25088">
        <ele>1815.8</ele>
        <time>2022-01-09T09:01:36Z</time>
      </trkpt>
      <trkpt lat="42.82528" lon="0.25085">
        <ele>1816</ele>
        <time>2022-01-09T09:01:37Z</time>
      </trkpt>
      <trkpt lat="42.82529" lon="0.25083">
        <ele>1816.2</ele>
        <time>2022-01-09T09:01:38Z</time>
      </trkpt>
      <trkpt lat="42.8253" lon="0.2508">
        <ele>1816</ele>
        <time>2022-01-09T09:01:39Z</time>
      </trkpt>
      <trkpt lat="42.82531" lon="0.25077">
        <ele>1816.4</ele>
        <time>2022-01-09T09:01:40Z</time>
      </trkpt>
      <trkpt lat="42.82531" lon="0.25074">
        <ele>1816.6</ele>
        <time>2022-01-09T09:01:41Z</time>
      </trkpt>
      <trkpt lat="42.82532" lon="0.25072">
        <ele>1816.6</ele>
        <time>2022-01-09T09:01:42Z</time>
      </trkpt>
      <trkpt lat="42.82533" lon="0.25069">
        <ele>1816.8</ele>
        <time>2022-01-09T09:01:43Z</time>
      </trkpt>
      <trkpt lat="42.82533" lon="0.25066">
        <ele>1816.8</ele>
        <time>2022-01-09T09:01:44Z</time>
      </trkpt>
      <trkpt lat="42.82534" lon="0.25065">
        <ele>1817</ele>
        <time>2022-01-09T09:01:45Z</time>
      </trkpt>
      <trkpt lat="42.82534" lon="0.25063">
        <ele>1817.4</ele>
        <time>2022-01-09T09:01:46Z</time>
      </trkpt>
      <trkpt lat="42.82534" lon="0.25062">
        <ele>1817.6</ele>
        <time>2022-01-09T09:01:47Z</time>
      </trkpt>
      <trkpt lat="42.82534" lon="0.2506">
        <ele>1817.6</ele>
        <time>2022-01-09T09:01:48Z</time>
      </trkpt>
      <trkpt lat="42.82534" lon="0.25059">
        <ele>1817.6</ele>
        <time>2022-01-09T09:01:49Z</time>
      </trkpt>
      <trkpt lat="42.82536" lon="0.25049">
        <ele>1817.6</ele>
        <time>2022-01-09T09:01:50Z</time>
      </trkpt>
      <trkpt lat="42.82536" lon="0.25046">
        <ele>1817.6</ele>
        <time>2022-01-09T09:01:51Z</time>
      </trkpt>
      <trkpt lat="42.82537" lon="0.25043">
        <ele>1817.8</ele>
        <time>2022-01-09T09:01:52Z</time>
      </trkpt>
      <trkpt lat="42.82537" lon="0.25039">
        <ele>1818.2</ele>
        <time>2022-01-09T09:01:53Z</time>
      </trkpt>
      <trkpt lat="42.82537" lon="0.25037">
        <ele>1818.2</ele>
        <time>2022-01-09T09:01:54Z</time>
      </trkpt>
      <trkpt lat="42.82538" lon="0.25034">
        <ele>1818.4</ele>
        <time>2022-01-09T09:01:55Z</time>
      </trkpt>
      <trkpt lat="42.82538" lon="0.25032">
        <ele>1818.8</ele>
        <time>2022-01-09T09:01:56Z</time>
      </trkpt>
      <trkpt lat="42.82539" lon="0.25029">
        <ele>1818.8</ele>
        <time>2022-01-09T09:01:57Z</time>
      </trkpt>
      <trkpt lat="42.82539" lon="0.25027">
        <ele>1819</ele>
        <time>2022-01-09T09:01:58Z</time>
      </trkpt>
      <trkpt lat="42.8254" lon="0.25024">
        <ele>1819.2</ele>
        <time>2022-01-09T09:01:59Z</time>
      </trkpt>
      <trkpt lat="42.8254" lon="0.25022">
        <ele>1819.8</ele>
        <time>2022-01-09T09:02:00Z</time>
      </trkpt>
      <trkpt lat="42.8254" lon="0.25019">
        <ele>1819.8</ele>
        <time>2022-01-09T09:02:01Z</time>
      </trkpt>
      <trkpt lat="42.82541" lon="0.25017">
        <ele>1820</ele>
        <time>2022-01-09T09:02:02Z</time>
      </trkpt>
      <trkpt lat="42.82541" lon="0.25014">
        <ele>1820.4</ele>
        <time>2022-01-09T09:02:03Z</time>
      </trkpt>
      <trkpt lat="42.82541" lon="0.25012">
        <ele>1820.4</ele>
        <time>2022-01-09T09:02:04Z</time>
      </trkpt>
      <trkpt lat="42.82542" lon="0.25009">
        <ele>1820.8</ele>
        <time>2022-01-09T09:02:05Z</time>
      </trkpt>
      <trkpt lat="42.82542" lon="0.25006">
        <ele>1821.2</ele>
        <time>2022-01-09T09:02:06Z</time>
      </trkpt>
      <trkpt lat="42.82542" lon="0.25003">
        <ele>1821</ele>
        <time>2022-01-09T09:02:07Z</time>
      </trkpt>
      <trkpt lat="42.82542" lon="0.25001">
        <ele>1821</ele>
        <time>2022-01-09T09:02:08Z</time>
      </trkpt>
      <trkpt lat="42.82542" lon="0.24998">
        <ele>1821.2</ele>
        <time>2022-01-09T09:02:09Z</time>
      </trkpt>
      <trkpt lat="42.82542" lon="0.24996">
        <ele>1821.6</ele>
        <time>2022-01-09T09:02:10Z</time>
      </trkpt>
      <trkpt lat="42.82542" lon="0.24994">
        <ele>1821.8</ele>
        <time>2022-01-09T09:02:11Z</time>
      </trkpt>
      <trkpt lat="42.82542" lon="0.24991">
        <ele>1822</ele>
        <time>2022-01-09T09:02:12Z</time>
      </trkpt>
      <trkpt lat="42.82542" lon="0.24989">
        <ele>1822.2</ele>
        <time>2022-01-09T09:02:13Z</time>
      </trkpt>
      <trkpt lat="42.82542" lon="0.24987">
        <ele>1823</ele>
        <time>2022-01-09T09:02:14Z</time>
      </trkpt>
      <trkpt lat="42.82543" lon="0.24984">
        <ele>1823.6</ele>
        <time>2022-01-09T09:02:15Z</time>
      </trkpt>
      <trkpt lat="42.82544" lon="0.24982">
        <ele>1824</ele>
        <time>2022-01-09T09:02:16Z</time>
      </trkpt>
      <trkpt lat="42.82544" lon="0.24979">
        <ele>1824</ele>
        <time>2022-01-09T09:02:17Z</time>
      </trkpt>
      <trkpt lat="42.82545" lon="0.24977">
        <ele>1824.4</ele>
        <time>2022-01-09T09:02:18Z</time>
      </trkpt>
      <trkpt lat="42.82545" lon="0.24974">
        <ele>1824.4</ele>
        <time>2022-01-09T09:02:19Z</time>
      </trkpt>
      <trkpt lat="42.82545" lon="0.24972">
        <ele>1824.4</ele>
        <time>2022-01-09T09:02:20Z</time>
      </trkpt>
      <trkpt lat="42.82545" lon="0.24969">
        <ele>1824.4</ele>
        <time>2022-01-09T09:02:21Z</time>
      </trkpt>
      <trkpt lat="42.82546" lon="0.24966">
        <ele>1824.4</ele>
        <time>2022-01-09T09:02:22Z</time>
      </trkpt>
      <trkpt lat="42.82546" lon="0.24963">
        <ele>1824.8</ele>
        <time>2022-01-09T09:02:23Z</time>
      </trkpt>
      <trkpt lat="42.82546" lon="0.24961">
        <ele>1825</ele>
        <time>2022-01-09T09:02:24Z</time>
      </trkpt>
      <trkpt lat="42.82546" lon="0.2496">
        <ele>1825.4</ele>
        <time>2022-01-09T09:02:25Z</time>
      </trkpt>
      <trkpt lat="42.82546" lon="0.24959">
        <ele>1825.8</ele>
        <time>2022-01-09T09:02:26Z</time>
      </trkpt>
      <trkpt lat="42.82546" lon="0.24958">
        <ele>1826.4</ele>
        <time>2022-01-09T09:02:27Z</time>
      </trkpt>
      <trkpt lat="42.82546" lon="0.24956">
        <ele>1826.4</ele>
        <time>2022-01-09T09:02:28Z</time>
      </trkpt>
      <trkpt lat="42.82546" lon="0.24955">
        <ele>1826.6</ele>
        <time>2022-01-09T09:02:29Z</time>
      </trkpt>
      <trkpt lat="42.82546" lon="0.24954">
        <ele>1827</ele>
        <time>2022-01-09T09:02:30Z</time>
      </trkpt>
      <trkpt lat="42.82546" lon="0.24953">
        <ele>1827.2</ele>
        <time>2022-01-09T09:02:31Z</time>
      </trkpt>
      <trkpt lat="42.82547" lon="0.24945">
        <ele>1827.6</ele>
        <time>2022-01-09T09:02:32Z</time>
      </trkpt>
      <trkpt lat="42.82547" lon="0.24944">
        <ele>1827.6</ele>
        <time>2022-01-09T09:02:33Z</time>
      </trkpt>
      <trkpt lat="42.82547" lon="0.24943">
        <ele>1827.6</ele>
        <time>2022-01-09T09:02:34Z</time>
      </trkpt>
      <trkpt lat="42.82548" lon="0.24942">
        <ele>1828</ele>
        <time>2022-01-09T09:02:35Z</time>
      </trkpt>
      <trkpt lat="42.82548" lon="0.24941">
        <ele>1828.6</ele>
        <time>2022-01-09T09:02:36Z</time>
      </trkpt>
      <trkpt lat="42.82548" lon="0.2494">
        <ele>1828.8</ele>
        <time>2022-01-09T09:02:37Z</time>
      </trkpt>
      <trkpt lat="42.82548" lon="0.24939">
        <ele>1829.2</ele>
        <time>2022-01-09T09:02:38Z</time>
      </trkpt>
      <trkpt lat="42.8255" lon="0.2493">
        <ele>1829.6</ele>
        <time>2022-01-09T09:02:39Z</time>
      </trkpt>
      <trkpt lat="42.82551" lon="0.24928">
        <ele>1829.8</ele>
        <time>2022-01-09T09:02:40Z</time>
      </trkpt>
      <trkpt lat="42.82551" lon="0.24926">
        <ele>1830.6</ele>
        <time>2022-01-09T09:02:41Z</time>
      </trkpt>
      <trkpt lat="42.82552" lon="0.24924">
        <ele>1830.8</ele>
        <time>2022-01-09T09:02:42Z</time>
      </trkpt>
      <trkpt lat="42.82553" lon="0.24922">
        <ele>1831</ele>
        <time>2022-01-09T09:02:43Z</time>
      </trkpt>
      <trkpt lat="42.82553" lon="0.24919">
        <ele>1831.4</ele>
        <time>2022-01-09T09:02:44Z</time>
      </trkpt>
      <trkpt lat="42.82554" lon="0.24917">
        <ele>1831.4</ele>
        <time>2022-01-09T09:02:45Z</time>
      </trkpt>
      <trkpt lat="42.82555" lon="0.24914">
        <ele>1831.4</ele>
        <time>2022-01-09T09:02:46Z</time>
      </trkpt>
      <trkpt lat="42.82556" lon="0.24911">
        <ele>1831.2</ele>
        <time>2022-01-09T09:02:47Z</time>
      </trkpt>
      <trkpt lat="42.82557" lon="0.24908">
        <ele>1831.2</ele>
        <time>2022-01-09T09:02:48Z</time>
      </trkpt>
      <trkpt lat="42.82559" lon="0.24906">
        <ele>1831.4</ele>
        <time>2022-01-09T09:02:49Z</time>
      </trkpt>
      <trkpt lat="42.82561" lon="0.24904">
        <ele>1831.4</ele>
        <time>2022-01-09T09:02:50Z</time>
      </trkpt>
      <trkpt lat="42.82562" lon="0.24902">
        <ele>1831.6</ele>
        <time>2022-01-09T09:02:51Z</time>
      </trkpt>
      <trkpt lat="42.82564" lon="0.249">
        <ele>1831.8</ele>
        <time>2022-01-09T09:02:52Z</time>
      </trkpt>
      <trkpt lat="42.82565" lon="0.24899">
        <ele>1832</ele>
        <time>2022-01-09T09:02:53Z</time>
      </trkpt>
      <trkpt lat="42.82566" lon="0.24898">
        <ele>1832</ele>
        <time>2022-01-09T09:02:54Z</time>
      </trkpt>
      <trkpt lat="42.82567" lon="0.24897">
        <ele>1832.2</ele>
        <time>2022-01-09T09:02:55Z</time>
      </trkpt>
      <trkpt lat="42.82568" lon="0.24897">
        <ele>1832.4</ele>
        <time>2022-01-09T09:02:56Z</time>
      </trkpt>
      <trkpt lat="42.82568" lon="0.24896">
        <ele>1832.4</ele>
        <time>2022-01-09T09:02:57Z</time>
      </trkpt>
      <trkpt lat="42.82574" lon="0.24891">
        <ele>1832.6</ele>
        <time>2022-01-09T09:02:58Z</time>
      </trkpt>
      <trkpt lat="42.82576" lon="0.2489">
        <ele>1832.6</ele>
        <time>2022-01-09T09:02:59Z</time>
      </trkpt>
      <trkpt lat="42.82578" lon="0.24889">
        <ele>1832.8</ele>
        <time>2022-01-09T09:03:00Z</time>
      </trkpt>
      <trkpt lat="42.82579" lon="0.24888">
        <ele>1832.8</ele>
        <time>2022-01-09T09:03:01Z</time>
      </trkpt>
      <trkpt lat="42.82581" lon="0.24887">
        <ele>1833</ele>
        <time>2022-01-09T09:03:02Z</time>
      </trkpt>
      <trkpt lat="42.82582" lon="0.24886">
        <ele>1833.2</ele>
        <time>2022-01-09T09:03:03Z</time>
      </trkpt>
      <trkpt lat="42.82583" lon="0.24885">
        <ele>1833.4</ele>
        <time>2022-01-09T09:03:04Z</time>
      </trkpt>
      <trkpt lat="42.82584" lon="0.24884">
        <ele>1833.4</ele>
        <time>2022-01-09T09:03:05Z</time>
      </trkpt>
      <trkpt lat="42.82585" lon="0.24884">
        <ele>1833.2</ele>
        <time>2022-01-09T09:03:06Z</time>
      </trkpt>
      <trkpt lat="42.82586" lon="0.24883">
        <ele>1833.2</ele>
        <time>2022-01-09T09:03:07Z</time>
      </trkpt>
      <trkpt lat="42.82592" lon="0.24879">
        <ele>1833.4</ele>
        <time>2022-01-09T09:03:08Z</time>
      </trkpt>
      <trkpt lat="42.82593" lon="0.24879">
        <ele>1833.2</ele>
        <time>2022-01-09T09:03:09Z</time>
      </trkpt>
      <trkpt lat="42.82594" lon="0.24879">
        <ele>1833.2</ele>
        <time>2022-01-09T09:03:10Z</time>
      </trkpt>
      <trkpt lat="42.82595" lon="0.2488">
        <ele>1833.2</ele>
        <time>2022-01-09T09:03:11Z</time>
      </trkpt>
      <trkpt lat="42.82597" lon="0.2488">
        <ele>1833</ele>
        <time>2022-01-09T09:03:12Z</time>
      </trkpt>
      <trkpt lat="42.82598" lon="0.2488">
        <ele>1832.8</ele>
        <time>2022-01-09T09:03:13Z</time>
      </trkpt>
      <trkpt lat="42.82598" lon="0.2488">
        <ele>1832.6</ele>
        <time>2022-01-09T09:03:14Z</time>
      </trkpt>
      <trkpt lat="42.82598" lon="0.2488">
        <ele>1832.8</ele>
        <time>2022-01-09T09:03:15Z</time>
      </trkpt>
      <trkpt lat="42.82598" lon="0.2488">
        <ele>1832.8</ele>
        <time>2022-01-09T09:03:16Z</time>
      </trkpt>
      <trkpt lat="42.82598" lon="0.2488">
        <ele>1832.8</ele>
        <time>2022-01-09T09:03:17Z</time>
      </trkpt>
      <trkpt lat="42.82598" lon="0.2488">
        <ele>1832.6</ele>
        <time>2022-01-09T09:03:18Z</time>
      </trkpt>
      <trkpt lat="42.82598" lon="0.2488">
        <ele>1832.4</ele>
        <time>2022-01-09T09:03:19Z</time>
      </trkpt>
      <trkpt lat="42.82598" lon="0.2488">
        <ele>1832.6</ele>
        <time>2022-01-09T09:03:20Z</time>
      </trkpt>
      <trkpt lat="42.82595" lon="0.2488">
        <ele>1832.4</ele>
        <time>2022-01-09T09:03:21Z</time>
      </trkpt>
      <trkpt lat="42.82595" lon="0.2488">
        <ele>1832.8</ele>
        <time>2022-01-09T09:03:22Z</time>
      </trkpt>
      <trkpt lat="42.82595" lon="0.2488">
        <ele>1832.4</ele>
        <time>2022-01-09T09:03:23Z</time>
      </trkpt>
      <trkpt lat="42.82595" lon="0.2488">
        <ele>1832.6</ele>
        <time>2022-01-09T09:03:24Z</time>
      </trkpt>
      <trkpt lat="42.82595" lon="0.2488">
        <ele>1832.4</ele>
        <time>2022-01-09T09:03:25Z</time>
      </trkpt>
      <trkpt lat="42.82595" lon="0.2488">
        <ele>1832.6</ele>
        <time>2022-01-09T09:03:26Z</time>
      </trkpt>
      <trkpt lat="42.82595" lon="0.2488">
        <ele>1832.6</ele>
        <time>2022-01-09T09:03:27Z</time>
      </trkpt>
      <trkpt lat="42.82595" lon="0.2488">
        <ele>1832.8</ele>
        <time>2022-01-09T09:03:28Z</time>
      </trkpt>
      <trkpt lat="42.82595" lon="0.2488">
        <ele>1832.8</ele>
        <time>2022-01-09T09:03:29Z</time>
      </trkpt>
      <trkpt lat="42.82595" lon="0.2488">
        <ele>1832.6</ele>
        <time>2022-01-09T09:03:30Z</time>
      </trkpt>
      <trkpt lat="42.82597" lon="0.24881">
        <ele>1832.4</ele>
        <time>2022-01-09T09:03:31Z</time>
      </trkpt>
      <trkpt lat="42.82597" lon="0.24881">
        <ele>1832.4</ele>
        <time>2022-01-09T09:03:32Z</time>
      </trkpt>
      <trkpt lat="42.82598" lon="0.24885">
        <ele>1831.4</ele>
        <time>2022-01-09T09:03:33Z</time>
      </trkpt>
      <trkpt lat="42.82599" lon="0.24892">
        <ele>1829.8</ele>
        <time>2022-01-09T09:03:34Z</time>
      </trkpt>
      <trkpt lat="42.82601" lon="0.249">
        <ele>1829.6</ele>
        <time>2022-01-09T09:03:35Z</time>
      </trkpt>
      <trkpt lat="42.82602" lon="0.24909">
        <ele>1828.2</ele>
        <time>2022-01-09T09:03:36Z</time>
      </trkpt>
      <trkpt lat="42.82602" lon="0.24917">
        <ele>1826.2</ele>
        <time>2022-01-09T09:03:37Z</time>
      </trkpt>
      <trkpt lat="42.82603" lon="0.24926">
        <ele>1824.8</ele>
        <time>2022-01-09T09:03:38Z</time>
      </trkpt>
      <trkpt lat="42.82604" lon="0.24942">
        <ele>1822.8</ele>
        <time>2022-01-09T09:03:39Z</time>
      </trkpt>
      <trkpt lat="42.82601" lon="0.24953">
        <ele>1820.2</ele>
        <time>2022-01-09T09:03:40Z</time>
      </trkpt>
      <trkpt lat="42.82601" lon="0.24962">
        <ele>1817.6</ele>
        <time>2022-01-09T09:03:41Z</time>
      </trkpt>
      <trkpt lat="42.82601" lon="0.24971">
        <ele>1815</ele>
        <time>2022-01-09T09:03:42Z</time>
      </trkpt>
      <trkpt lat="42.826" lon="0.24989">
        <ele>1812</ele>
        <time>2022-01-09T09:03:43Z</time>
      </trkpt>
      <trkpt lat="42.82605" lon="0.25003">
        <ele>1808.4</ele>
        <time>2022-01-09T09:03:44Z</time>
      </trkpt>
      <trkpt lat="42.82606" lon="0.25015">
        <ele>1805.6</ele>
        <time>2022-01-09T09:03:45Z</time>
      </trkpt>
      <trkpt lat="42.82608" lon="0.25031">
        <ele>1802.8</ele>
        <time>2022-01-09T09:03:46Z</time>
      </trkpt>
      <trkpt lat="42.82612" lon="0.25046">
        <ele>1798.6</ele>
        <time>2022-01-09T09:03:47Z</time>
      </trkpt>
      <trkpt lat="42.82619" lon="0.25059">
        <ele>1796.4</ele>
        <time>2022-01-09T09:03:48Z</time>
      </trkpt>
      <trkpt lat="42.82627" lon="0.25071">
        <ele>1792</ele>
        <time>2022-01-09T09:03:49Z</time>
      </trkpt>
      <trkpt lat="42.82635" lon="0.25085">
        <ele>1789.2</ele>
        <time>2022-01-09T09:03:50Z</time>
      </trkpt>
      <trkpt lat="42.82643" lon="0.25099">
        <ele>1783.8</ele>
        <time>2022-01-09T09:03:51Z</time>
      </trkpt>
      <trkpt lat="42.82651" lon="0.25113">
        <ele>1780.2</ele>
        <time>2022-01-09T09:03:52Z</time>
      </trkpt>
      <trkpt lat="42.82659" lon="0.25128">
        <ele>1775</ele>
        <time>2022-01-09T09:03:53Z</time>
      </trkpt>
      <trkpt lat="42.82664" lon="0.25144">
        <ele>1770.2</ele>
        <time>2022-01-09T09:03:54Z</time>
      </trkpt>
      <trkpt lat="42.82666" lon="0.2516">
        <ele>1764.2</ele>
        <time>2022-01-09T09:03:55Z</time>
      </trkpt>
      <trkpt lat="42.82666" lon="0.25176">
        <ele>1758.8</ele>
        <time>2022-01-09T09:03:56Z</time>
      </trkpt>
      <trkpt lat="42.82666" lon="0.25189">
        <ele>1754.6</ele>
        <time>2022-01-09T09:03:57Z</time>
      </trkpt>
      <trkpt lat="42.82664" lon="0.25197">
        <ele>1750.6</ele>
        <time>2022-01-09T09:03:58Z</time>
      </trkpt>
      <trkpt lat="42.82663" lon="0.25206">
        <ele>1745.8</ele>
        <time>2022-01-09T09:03:59Z</time>
      </trkpt>
      <trkpt lat="42.8266" lon="0.25223">
        <ele>1741</ele>
        <time>2022-01-09T09:04:00Z</time>
      </trkpt>
      <trkpt lat="42.82661" lon="0.25235">
        <ele>1735.8</ele>
        <time>2022-01-09T09:04:01Z</time>
      </trkpt>
      <trkpt lat="42.82667" lon="0.25247">
        <ele>1731</ele>
        <time>2022-01-09T09:04:02Z</time>
      </trkpt>
      <trkpt lat="42.82673" lon="0.25258">
        <ele>1725.4</ele>
        <time>2022-01-09T09:04:03Z</time>
      </trkpt>
      <trkpt lat="42.82678" lon="0.25272">
        <ele>1719.4</ele>
        <time>2022-01-09T09:04:04Z</time>
      </trkpt>
      <trkpt lat="42.8268" lon="0.25287">
        <ele>1712.2</ele>
        <time>2022-01-09T09:04:05Z</time>
      </trkpt>
      <trkpt lat="42.8268" lon="0.25306">
        <ele>1704.2</ele>
        <time>2022-01-09T09:04:06Z</time>
      </trkpt>
      <trkpt lat="42.82679" lon="0.25328">
        <ele>1700.2</ele>
        <time>2022-01-09T09:04:07Z</time>
      </trkpt>
      <trkpt lat="42.82676" lon="0.2535">
        <ele>1695.8</ele>
        <time>2022-01-09T09:04:08Z</time>
      </trkpt>
      <trkpt lat="42.82671" lon="0.25374">
        <ele>1687.2</ele>
        <time>2022-01-09T09:04:09Z</time>
      </trkpt>
      <trkpt lat="42.82663" lon="0.25398">
        <ele>1680.4</ele>
        <time>2022-01-09T09:04:10Z</time>
      </trkpt>
      <trkpt lat="42.82655" lon="0.25422">
        <ele>1675.8</ele>
        <time>2022-01-09T09:04:11Z</time>
      </trkpt>
      <trkpt lat="42.82646" lon="0.25445">
        <ele>1670.8</ele>
        <time>2022-01-09T09:04:12Z</time>
      </trkpt>
      <trkpt lat="42.82637" lon="0.25468">
        <ele>1665.8</ele>
        <time>2022-01-09T09:04:13Z</time>
      </trkpt>
      <trkpt lat="42.82628" lon="0.25491">
        <ele>1660.6</ele>
        <time>2022-01-09T09:04:14Z</time>
      </trkpt>
      <trkpt lat="42.82619" lon="0.25515">
        <ele>1654.2</ele>
        <time>2022-01-09T09:04:15Z</time>
      </trkpt>
      <trkpt lat="42.8261" lon="0.25539">
        <ele>1646</ele>
        <time>2022-01-09T09:04:16Z</time>
      </trkpt>
      <trkpt lat="42.82604" lon="0.25563">
        <ele>1639.2</ele>
        <time>2022-01-09T09:04:17Z</time>
      </trkpt>
      <trkpt lat="42.82598" lon="0.25588">
        <ele>1634.4</ele>
        <time>2022-01-09T09:04:18Z</time>
      </trkpt>
      <trkpt lat="42.82596" lon="0.25612">
        <ele>1630.8</ele>
        <time>2022-01-09T09:04:19Z</time>
      </trkpt>
      <trkpt lat="42.82595" lon="0.25635">
        <ele>1627.2</ele>
        <time>2022-01-09T09:04:20Z</time>
      </trkpt>
      <trkpt lat="42.82594" lon="0.25658">
        <ele>1624.8</ele>
        <time>2022-01-09T09:04:21Z</time>
      </trkpt>
      <trkpt lat="42.82594" lon="0.2568">
        <ele>1621.4</ele>
        <time>2022-01-09T09:04:22Z</time>
      </trkpt>
      <trkpt lat="42.82594" lon="0.25702">
        <ele>1617.8</ele>
        <time>2022-01-09T09:04:23Z</time>
      </trkpt>
      <trkpt lat="42.82594" lon="0.25723">
        <ele>1614.4</ele>
        <time>2022-01-09T09:04:24Z</time>
      </trkpt>
      <trkpt lat="42.82594" lon="0.25744">
        <ele>1610</ele>
        <time>2022-01-09T09:04:25Z</time>
      </trkpt>
      <trkpt lat="42.82592" lon="0.25763">
        <ele>1605.6</ele>
        <time>2022-01-09T09:04:26Z</time>
      </trkpt>
      <trkpt lat="42.82588" lon="0.2578">
        <ele>1602</ele>
        <time>2022-01-09T09:04:27Z</time>
      </trkpt>
      <trkpt lat="42.82582" lon="0.25795">
        <ele>1599.6</ele>
        <time>2022-01-09T09:04:28Z</time>
      </trkpt>
      <trkpt lat="42.82582" lon="0.25797">
        <ele>1597.6</ele>
        <time>2022-01-09T09:04:29Z</time>
      </trkpt>
      <trkpt lat="42.82581" lon="0.25799">
        <ele>1595.8</ele>
        <time>2022-01-09T09:04:30Z</time>
      </trkpt>
      <trkpt lat="42.82581" lon="0.258">
        <ele>1594</ele>
        <time>2022-01-09T09:04:31Z</time>
      </trkpt>
      <trkpt lat="42.82581" lon="0.25802">
        <ele>1593.2</ele>
        <time>2022-01-09T09:04:32Z</time>
      </trkpt>
      <trkpt lat="42.82581" lon="0.25804">
        <ele>1592.2</ele>
        <time>2022-01-09T09:04:33Z</time>
      </trkpt>
      <trkpt lat="42.82579" lon="0.25813">
        <ele>1591.6</ele>
        <time>2022-01-09T09:04:34Z</time>
      </trkpt>
      <trkpt lat="42.82579" lon="0.25813">
        <ele>1591</ele>
        <time>2022-01-09T09:04:35Z</time>
      </trkpt>
      <trkpt lat="42.82579" lon="0.25812">
        <ele>1590.8</ele>
        <time>2022-01-09T09:04:36Z</time>
      </trkpt>
      <trkpt lat="42.8258" lon="0.25812">
        <ele>1590.8</ele>
        <time>2022-01-09T09:04:37Z</time>
      </trkpt>
      <trkpt lat="42.8258" lon="0.25811">
        <ele>1590.6</ele>
        <time>2022-01-09T09:04:38Z</time>
      </trkpt>
      <trkpt lat="42.8258" lon="0.25811">
        <ele>1590.4</ele>
        <time>2022-01-09T09:04:39Z</time>
      </trkpt>
      <trkpt lat="42.8258" lon="0.2581">
        <ele>1590</ele>
        <time>2022-01-09T09:04:40Z</time>
      </trkpt>
      <trkpt lat="42.8258" lon="0.2581">
        <ele>1590.2</ele>
        <time>2022-01-09T09:04:41Z</time>
      </trkpt>
      <trkpt lat="42.8258" lon="0.25809">
        <ele>1590.2</ele>
        <time>2022-01-09T09:04:42Z</time>
      </trkpt>
      <trkpt lat="42.8258" lon="0.25809">
        <ele>1590</ele>
        <time>2022-01-09T09:04:43Z</time>
      </trkpt>
      <trkpt lat="42.8258" lon="0.25808">
        <ele>1590</ele>
        <time>2022-01-09T09:04:44Z</time>
      </trkpt>
      <trkpt lat="42.8258" lon="0.25808">
        <ele>1590</ele>
        <time>2022-01-09T09:04:45Z</time>
      </trkpt>
      <trkpt lat="42.8258" lon="0.25807">
        <ele>1590</ele>
        <time>2022-01-09T09:04:46Z</time>
      </trkpt>
      <trkpt lat="42.8258" lon="0.25806">
        <ele>1589.8</ele>
        <time>2022-01-09T09:04:47Z</time>
      </trkpt>
      <trkpt lat="42.8258" lon="0.25806">
        <ele>1589.8</ele>
        <time>2022-01-09T09:04:48Z</time>
      </trkpt>
      <trkpt lat="42.8258" lon="0.25805">
        <ele>1589.4</ele>
        <time>2022-01-09T09:04:49Z</time>
      </trkpt>
      <trkpt lat="42.8258" lon="0.25805">
        <ele>1589.6</ele>
        <time>2022-01-09T09:04:50Z</time>
      </trkpt>
      <trkpt lat="42.82581" lon="0.25804">
        <ele>1589.6</ele>
        <time>2022-01-09T09:04:51Z</time>
      </trkpt>
      <trkpt lat="42.82581" lon="0.25804">
        <ele>1589.6</ele>
        <time>2022-01-09T09:04:52Z</time>
      </trkpt>
      <trkpt lat="42.82581" lon="0.25803">
        <ele>1589.8</ele>
        <time>2022-01-09T09:04:53Z</time>
      </trkpt>
      <trkpt lat="42.82581" lon="0.25803">
        <ele>1589.6</ele>
        <time>2022-01-09T09:04:54Z</time>
      </trkpt>
      <trkpt lat="42.82581" lon="0.25802">
        <ele>1589.6</ele>
        <time>2022-01-09T09:04:55Z</time>
      </trkpt>
      <trkpt lat="42.82581" lon="0.25802">
        <ele>1589.6</ele>
        <time>2022-01-09T09:04:56Z</time>
      </trkpt>
      <trkpt lat="42.82581" lon="0.25801">
        <ele>1589.8</ele>
        <time>2022-01-09T09:04:57Z</time>
      </trkpt>
      <trkpt lat="42.82581" lon="0.25801">
        <ele>1589.8</ele>
        <time>2022-01-09T09:04:58Z</time>
      </trkpt>
      <trkpt lat="42.8258" lon="0.258">
        <ele>1589.8</ele>
        <time>2022-01-09T09:04:59Z</time>
      </trkpt>
      <trkpt lat="42.82579" lon="0.25799">
        <ele>1589.6</ele>
        <time>2022-01-09T09:05:00Z</time>
      </trkpt>
      <trkpt lat="42.82578" lon="0.25799">
        <ele>1589.8</ele>
        <time>2022-01-09T09:05:01Z</time>
      </trkpt>
      <trkpt lat="42.82578" lon="0.25798">
        <ele>1589.8</ele>
        <time>2022-01-09T09:05:02Z</time>
      </trkpt>
      <trkpt lat="42.82577" lon="0.25798">
        <ele>1589.8</ele>
        <time>2022-01-09T09:05:03Z</time>
      </trkpt>
      <trkpt lat="42.82576" lon="0.25797">
        <ele>1589.8</ele>
        <time>2022-01-09T09:05:04Z</time>
      </trkpt>
      <trkpt lat="42.82575" lon="0.25797">
        <ele>1589.8</ele>
        <time>2022-01-09T09:05:05Z</time>
      </trkpt>
      <trkpt lat="42.82574" lon="0.25796">
        <ele>1589.8</ele>
        <time>2022-01-09T09:05:06Z</time>
      </trkpt>
      <trkpt lat="42.82573" lon="0.25796">
        <ele>1589.8</ele>
        <time>2022-01-09T09:05:07Z</time>
      </trkpt>
      <trkpt lat="42.82572" lon="0.25795">
        <ele>1589.8</ele>
        <time>2022-01-09T09:05:08Z</time>
      </trkpt>
      <trkpt lat="42.82571" lon="0.25794">
        <ele>1589.8</ele>
        <time>2022-01-09T09:05:09Z</time>
      </trkpt>
      <trkpt lat="42.8257" lon="0.25793">
        <ele>1590</ele>
        <time>2022-01-09T09:05:10Z</time>
      </trkpt>
      <trkpt lat="42.82569" lon="0.25792">
        <ele>1590</ele>
        <time>2022-01-09T09:05:11Z</time>
      </trkpt>
      <trkpt lat="42.82568" lon="0.25791">
        <ele>1590.2</ele>
        <time>2022-01-09T09:05:12Z</time>
      </trkpt>
      <trkpt lat="42.82562" lon="0.25785">
        <ele>1590.2</ele>
        <time>2022-01-09T09:05:13Z</time>
      </trkpt>
      <trkpt lat="42.82561" lon="0.25784">
        <ele>1590.2</ele>
        <time>2022-01-09T09:05:14Z</time>
      </trkpt>
      <trkpt lat="42.82559" lon="0.25783">
        <ele>1590</ele>
        <time>2022-01-09T09:05:15Z</time>
      </trkpt>
      <trkpt lat="42.82558" lon="0.25782">
        <ele>1590</ele>
        <time>2022-01-09T09:05:16Z</time>
      </trkpt>
      <trkpt lat="42.82553" lon="0.25775">
        <ele>1590</ele>
        <time>2022-01-09T09:05:17Z</time>
      </trkpt>
      <trkpt lat="42.82552" lon="0.25774">
        <ele>1590</ele>
        <time>2022-01-09T09:05:18Z</time>
      </trkpt>
      <trkpt lat="42.82551" lon="0.25772">
        <ele>1590</ele>
        <time>2022-01-09T09:05:19Z</time>
      </trkpt>
      <trkpt lat="42.8255" lon="0.25771">
        <ele>1590</ele>
        <time>2022-01-09T09:05:20Z</time>
      </trkpt>
      <trkpt lat="42.82546" lon="0.25764">
        <ele>1590</ele>
        <time>2022-01-09T09:05:21Z</time>
      </trkpt>
      <trkpt lat="42.82546" lon="0.25763">
        <ele>1590.2</ele>
        <time>2022-01-09T09:05:22Z</time>
      </trkpt>
      <trkpt lat="42.82545" lon="0.25762">
        <ele>1590.4</ele>
        <time>2022-01-09T09:05:23Z</time>
      </trkpt>
      <trkpt lat="42.82544" lon="0.25761">
        <ele>1590.6</ele>
        <time>2022-01-09T09:05:24Z</time>
      </trkpt>
      <trkpt lat="42.82544" lon="0.2576">
        <ele>1590.8</ele>
        <time>2022-01-09T09:05:25Z</time>
      </trkpt>
      <trkpt lat="42.8254" lon="0.25753">
        <ele>1591.2</ele>
        <time>2022-01-09T09:05:26Z</time>
      </trkpt>
      <trkpt lat="42.8254" lon="0.25752">
        <ele>1591.8</ele>
        <time>2022-01-09T09:05:27Z</time>
      </trkpt>
      <trkpt lat="42.82539" lon="0.2575">
        <ele>1592</ele>
        <time>2022-01-09T09:05:28Z</time>
      </trkpt>
      <trkpt lat="42.82539" lon="0.25749">
        <ele>1592.6</ele>
        <time>2022-01-09T09:05:29Z</time>
      </trkpt>
      <trkpt lat="42.82538" lon="0.25747">
        <ele>1593.2</ele>
        <time>2022-01-09T09:05:30Z</time>
      </trkpt>
      <trkpt lat="42.82538" lon="0.25746">
        <ele>1593.6</ele>
        <time>2022-01-09T09:05:31Z</time>
      </trkpt>
      <trkpt lat="42.82538" lon="0.25744">
        <ele>1594</ele>
        <time>2022-01-09T09:05:32Z</time>
      </trkpt>
      <trkpt lat="42.82537" lon="0.25743">
        <ele>1594.6</ele>
        <time>2022-01-09T09:05:33Z</time>
      </trkpt>
      <trkpt lat="42.82538" lon="0.25741">
        <ele>1595</ele>
        <time>2022-01-09T09:05:34Z</time>
      </trkpt>
      <trkpt lat="42.82538" lon="0.25739">
        <ele>1595.4</ele>
        <time>2022-01-09T09:05:35Z</time>
      </trkpt>
      <trkpt lat="42.82538" lon="0.25738">
        <ele>1596.4</ele>
        <time>2022-01-09T09:05:36Z</time>
      </trkpt>
      <trkpt lat="42.82538" lon="0.25736">
        <ele>1596.6</ele>
        <time>2022-01-09T09:05:37Z</time>
      </trkpt>
      <trkpt lat="42.82539" lon="0.25735">
        <ele>1596.8</ele>
        <time>2022-01-09T09:05:38Z</time>
      </trkpt>
      <trkpt lat="42.82539" lon="0.25733">
        <ele>1597.2</ele>
        <time>2022-01-09T09:05:39Z</time>
      </trkpt>
      <trkpt lat="42.82539" lon="0.25732">
        <ele>1597.6</ele>
        <time>2022-01-09T09:05:40Z</time>
      </trkpt>
      <trkpt lat="42.82539" lon="0.2573">
        <ele>1597.8</ele>
        <time>2022-01-09T09:05:41Z</time>
      </trkpt>
      <trkpt lat="42.82539" lon="0.25728">
        <ele>1598.4</ele>
        <time>2022-01-09T09:05:42Z</time>
      </trkpt>
      <trkpt lat="42.82538" lon="0.25726">
        <ele>1598.8</ele>
        <time>2022-01-09T09:05:43Z</time>
      </trkpt>
      <trkpt lat="42.82538" lon="0.25725">
        <ele>1599.2</ele>
        <time>2022-01-09T09:05:44Z</time>
      </trkpt>
      <trkpt lat="42.82537" lon="0.25723">
        <ele>1599.6</ele>
        <time>2022-01-09T09:05:45Z</time>
      </trkpt>
      <trkpt lat="42.82537" lon="0.25721">
        <ele>1599.8</ele>
        <time>2022-01-09T09:05:46Z</time>
      </trkpt>
      <trkpt lat="42.82536" lon="0.25719">
        <ele>1600</ele>
        <time>2022-01-09T09:05:47Z</time>
      </trkpt>
      <trkpt lat="42.82536" lon="0.25717">
        <ele>1600.6</ele>
        <time>2022-01-09T09:05:48Z</time>
      </trkpt>
      <trkpt lat="42.82536" lon="0.25716">
        <ele>1600.8</ele>
        <time>2022-01-09T09:05:49Z</time>
      </trkpt>
      <trkpt lat="42.82536" lon="0.25714">
        <ele>1601</ele>
        <time>2022-01-09T09:05:50Z</time>
      </trkpt>
      <trkpt lat="42.82536" lon="0.25713">
        <ele>1601.2</ele>
        <time>2022-01-09T09:05:51Z</time>
      </trkpt>
      <trkpt lat="42.82535" lon="0.25711">
        <ele>1601.6</ele>
        <time>2022-01-09T09:05:52Z</time>
      </trkpt>
      <trkpt lat="42.82535" lon="0.2571">
        <ele>1601.8</ele>
        <time>2022-01-09T09:05:53Z</time>
      </trkpt>
      <trkpt lat="42.82535" lon="0.25709">
        <ele>1602.4</ele>
        <time>2022-01-09T09:05:54Z</time>
      </trkpt>
      <trkpt lat="42.82535" lon="0.25707">
        <ele>1602.8</ele>
        <time>2022-01-09T09:05:55Z</time>
      </trkpt>
      <trkpt lat="42.82535" lon="0.25706">
        <ele>1603</ele>
        <time>2022-01-09T09:05:56Z</time>
      </trkpt>
      <trkpt lat="42.82535" lon="0.25704">
        <ele>1603.6</ele>
        <time>2022-01-09T09:05:57Z</time>
      </trkpt>
      <trkpt lat="42.82534" lon="0.25703">
        <ele>1603.8</ele>
        <time>2022-01-09T09:05:58Z</time>
      </trkpt>
      <trkpt lat="42.82534" lon="0.25701">
        <ele>1604.2</ele>
        <time>2022-01-09T09:05:59Z</time>
      </trkpt>
      <trkpt lat="42.82533" lon="0.257">
        <ele>1604.2</ele>
        <time>2022-01-09T09:06:00Z</time>
      </trkpt>
      <trkpt lat="42.82533" lon="0.25698">
        <ele>1604.4</ele>
        <time>2022-01-09T09:06:01Z</time>
      </trkpt>
      <trkpt lat="42.82532" lon="0.25697">
        <ele>1604.8</ele>
        <time>2022-01-09T09:06:02Z</time>
      </trkpt>
      <trkpt lat="42.82532" lon="0.25695">
        <ele>1605.4</ele>
        <time>2022-01-09T09:06:03Z</time>
      </trkpt>
      <trkpt lat="42.82531" lon="0.25694">
        <ele>1605.6</ele>
        <time>2022-01-09T09:06:04Z</time>
      </trkpt>
      <trkpt lat="42.82531" lon="0.25692">
        <ele>1606.2</ele>
        <time>2022-01-09T09:06:05Z</time>
      </trkpt>
      <trkpt lat="42.82531" lon="0.2569">
        <ele>1606.4</ele>
        <time>2022-01-09T09:06:06Z</time>
      </trkpt>
      <trkpt lat="42.8253" lon="0.25689">
        <ele>1606.4</ele>
        <time>2022-01-09T09:06:07Z</time>
      </trkpt>
      <trkpt lat="42.8253" lon="0.25687">
        <ele>1606.6</ele>
        <time>2022-01-09T09:06:08Z</time>
      </trkpt>
      <trkpt lat="42.8253" lon="0.25686">
        <ele>1606.8</ele>
        <time>2022-01-09T09:06:09Z</time>
      </trkpt>
      <trkpt lat="42.82529" lon="0.25684">
        <ele>1607.2</ele>
        <time>2022-01-09T09:06:10Z</time>
      </trkpt>
      <trkpt lat="42.82529" lon="0.25683">
        <ele>1607.4</ele>
        <time>2022-01-09T09:06:11Z</time>
      </trkpt>
      <trkpt lat="42.82529" lon="0.25681">
        <ele>1608</ele>
        <time>2022-01-09T09:06:12Z</time>
      </trkpt>
      <trkpt lat="42.82528" lon="0.2568">
        <ele>1608.2</ele>
        <time>2022-01-09T09:06:13Z</time>
      </trkpt>
      <trkpt lat="42.82528" lon="0.25678">
        <ele>1608.4</ele>
        <time>2022-01-09T09:06:14Z</time>
      </trkpt>
      <trkpt lat="42.82528" lon="0.25676">
        <ele>1609.2</ele>
        <time>2022-01-09T09:06:15Z</time>
      </trkpt>
      <trkpt lat="42.82528" lon="0.25674">
        <ele>1609.4</ele>
        <time>2022-01-09T09:06:16Z</time>
      </trkpt>
      <trkpt lat="42.82528" lon="0.25672">
        <ele>1609.6</ele>
        <time>2022-01-09T09:06:17Z</time>
      </trkpt>
      <trkpt lat="42.82527" lon="0.25671">
        <ele>1609.8</ele>
        <time>2022-01-09T09:06:18Z</time>
      </trkpt>
      <trkpt lat="42.82527" lon="0.25669">
        <ele>1610</ele>
        <time>2022-01-09T09:06:19Z</time>
      </trkpt>
      <trkpt lat="42.82527" lon="0.25667">
        <ele>1610.2</ele>
        <time>2022-01-09T09:06:20Z</time>
      </trkpt>
      <trkpt lat="42.82527" lon="0.25665">
        <ele>1610.4</ele>
        <time>2022-01-09T09:06:21Z</time>
      </trkpt>
      <trkpt lat="42.82527" lon="0.25663">
        <ele>1610.6</ele>
        <time>2022-01-09T09:06:22Z</time>
      </trkpt>
      <trkpt lat="42.82527" lon="0.25661">
        <ele>1611.4</ele>
        <time>2022-01-09T09:06:23Z</time>
      </trkpt>
      <trkpt lat="42.82528" lon="0.25659">
        <ele>1611.6</ele>
        <time>2022-01-09T09:06:24Z</time>
      </trkpt>
      <trkpt lat="42.82528" lon="0.25657">
        <ele>1611.8</ele>
        <time>2022-01-09T09:06:25Z</time>
      </trkpt>
      <trkpt lat="42.82528" lon="0.25655">
        <ele>1612</ele>
        <time>2022-01-09T09:06:26Z</time>
      </trkpt>
      <trkpt lat="42.82528" lon="0.25653">
        <ele>1612.4</ele>
        <time>2022-01-09T09:06:27Z</time>
      </trkpt>
      <trkpt lat="42.82529" lon="0.25651">
        <ele>1612.4</ele>
        <time>2022-01-09T09:06:28Z</time>
      </trkpt>
      <trkpt lat="42.82529" lon="0.25648">
        <ele>1612.8</ele>
        <time>2022-01-09T09:06:29Z</time>
      </trkpt>
      <trkpt lat="42.8253" lon="0.25646">
        <ele>1613</ele>
        <time>2022-01-09T09:06:30Z</time>
      </trkpt>
      <trkpt lat="42.8253" lon="0.25644">
        <ele>1613.4</ele>
        <time>2022-01-09T09:06:31Z</time>
      </trkpt>
      <trkpt lat="42.82531" lon="0.25642">
        <ele>1613.4</ele>
        <time>2022-01-09T09:06:32Z</time>
      </trkpt>
      <trkpt lat="42.82531" lon="0.2564">
        <ele>1613.6</ele>
        <time>2022-01-09T09:06:33Z</time>
      </trkpt>
      <trkpt lat="42.82532" lon="0.25638">
        <ele>1613.8</ele>
        <time>2022-01-09T09:06:34Z</time>
      </trkpt>
      <trkpt lat="42.82532" lon="0.25636">
        <ele>1614.2</ele>
        <time>2022-01-09T09:06:35Z</time>
      </trkpt>
      <trkpt lat="42.82532" lon="0.25634">
        <ele>1614.2</ele>
        <time>2022-01-09T09:06:36Z</time>
      </trkpt>
      <trkpt lat="42.82533" lon="0.25632">
        <ele>1614.8</ele>
        <time>2022-01-09T09:06:37Z</time>
      </trkpt>
      <trkpt lat="42.82533" lon="0.2563">
        <ele>1615.2</ele>
        <time>2022-01-09T09:06:38Z</time>
      </trkpt>
      <trkpt lat="42.82532" lon="0.25629">
        <ele>1615.4</ele>
        <time>2022-01-09T09:06:39Z</time>
      </trkpt>
      <trkpt lat="42.82532" lon="0.25627">
        <ele>1615.6</ele>
        <time>2022-01-09T09:06:40Z</time>
      </trkpt>
      <trkpt lat="42.82531" lon="0.25626">
        <ele>1615.8</ele>
        <time>2022-01-09T09:06:41Z</time>
      </trkpt>
      <trkpt lat="42.8253" lon="0.25624">
        <ele>1616.2</ele>
        <time>2022-01-09T09:06:42Z</time>
      </trkpt>
      <trkpt lat="42.8253" lon="0.25623">
        <ele>1616.8</ele>
        <time>2022-01-09T09:06:43Z</time>
      </trkpt>
      <trkpt lat="42.82529" lon="0.25621">
        <ele>1616.8</ele>
        <time>2022-01-09T09:06:44Z</time>
      </trkpt>
      <trkpt lat="42.82529" lon="0.25619">
        <ele>1617</ele>
        <time>2022-01-09T09:06:45Z</time>
      </trkpt>
      <trkpt lat="42.82527" lon="0.25619">
        <ele>1617.2</ele>
        <time>2022-01-09T09:06:46Z</time>
      </trkpt>
      <trkpt lat="42.82526" lon="0.25618">
        <ele>1617.6</ele>
        <time>2022-01-09T09:06:47Z</time>
      </trkpt>
      <trkpt lat="42.82525" lon="0.25617">
        <ele>1617.6</ele>
        <time>2022-01-09T09:06:48Z</time>
      </trkpt>
      <trkpt lat="42.82524" lon="0.25617">
        <ele>1618.2</ele>
        <time>2022-01-09T09:06:49Z</time>
      </trkpt>
      <trkpt lat="42.82523" lon="0.25616">
        <ele>1618.6</ele>
        <time>2022-01-09T09:06:50Z</time>
      </trkpt>
      <trkpt lat="42.82521" lon="0.25615">
        <ele>1619</ele>
        <time>2022-01-09T09:06:51Z</time>
      </trkpt>
      <trkpt lat="42.8252" lon="0.25615">
        <ele>1619.2</ele>
        <time>2022-01-09T09:06:52Z</time>
      </trkpt>
      <trkpt lat="42.82519" lon="0.25614">
        <ele>1619.4</ele>
        <time>2022-01-09T09:06:53Z</time>
      </trkpt>
      <trkpt lat="42.82518" lon="0.25614">
        <ele>1619.8</ele>
        <time>2022-01-09T09:06:54Z</time>
      </trkpt>
      <trkpt lat="42.82516" lon="0.25614">
        <ele>1620.2</ele>
        <time>2022-01-09T09:06:55Z</time>
      </trkpt>
      <trkpt lat="42.82515" lon="0.25614">
        <ele>1620.4</ele>
        <time>2022-01-09T09:06:56Z</time>
      </trkpt>
      <trkpt lat="42.82514" lon="0.25613">
        <ele>1620.8</ele>
        <time>2022-01-09T09:06:57Z</time>
      </trkpt>
      <trkpt lat="42.82513" lon="0.25613">
        <ele>1621</ele>
        <time>2022-01-09T09:06:58Z</time>
      </trkpt>
      <trkpt lat="42.82511" lon="0.25613">
        <ele>1621.4</ele>
        <time>2022-01-09T09:06:59Z</time>
      </trkpt>
      <trkpt lat="42.8251" lon="0.25613">
        <ele>1621.8</ele>
        <time>2022-01-09T09:07:00Z</time>
      </trkpt>
      <trkpt lat="42.82509" lon="0.25613">
        <ele>1622</ele>
        <time>2022-01-09T09:07:01Z</time>
      </trkpt>
      <trkpt lat="42.82508" lon="0.25612">
        <ele>1622.4</ele>
        <time>2022-01-09T09:07:02Z</time>
      </trkpt>
      <trkpt lat="42.82507" lon="0.25612">
        <ele>1622.6</ele>
        <time>2022-01-09T09:07:03Z</time>
      </trkpt>
      <trkpt lat="42.82506" lon="0.25612">
        <ele>1623.2</ele>
        <time>2022-01-09T09:07:04Z</time>
      </trkpt>
      <trkpt lat="42.82505" lon="0.25612">
        <ele>1623.4</ele>
        <time>2022-01-09T09:07:05Z</time>
      </trkpt>
      <trkpt lat="42.82505" lon="0.25611">
        <ele>1624</ele>
        <time>2022-01-09T09:07:06Z</time>
      </trkpt>
      <trkpt lat="42.82504" lon="0.2561">
        <ele>1624.4</ele>
        <time>2022-01-09T09:07:07Z</time>
      </trkpt>
      <trkpt lat="42.82504" lon="0.25608">
        <ele>1624.8</ele>
        <time>2022-01-09T09:07:08Z</time>
      </trkpt>
      <trkpt lat="42.82504" lon="0.25607">
        <ele>1625.4</ele>
        <time>2022-01-09T09:07:09Z</time>
      </trkpt>
      <trkpt lat="42.82504" lon="0.25606">
        <ele>1625.6</ele>
        <time>2022-01-09T09:07:10Z</time>
      </trkpt>
      <trkpt lat="42.82504" lon="0.25604">
        <ele>1625.8</ele>
        <time>2022-01-09T09:07:11Z</time>
      </trkpt>
      <trkpt lat="42.82503" lon="0.25603">
        <ele>1626.4</ele>
        <time>2022-01-09T09:07:12Z</time>
      </trkpt>
      <trkpt lat="42.82503" lon="0.25602">
        <ele>1626.8</ele>
        <time>2022-01-09T09:07:13Z</time>
      </trkpt>
      <trkpt lat="42.82503" lon="0.25601">
        <ele>1627</ele>
        <time>2022-01-09T09:07:14Z</time>
      </trkpt>
      <trkpt lat="42.82503" lon="0.25599">
        <ele>1627.4</ele>
        <time>2022-01-09T09:07:15Z</time>
      </trkpt>
      <trkpt lat="42.82503" lon="0.25597">
        <ele>1627.8</ele>
        <time>2022-01-09T09:07:16Z</time>
      </trkpt>
      <trkpt lat="42.82504" lon="0.25595">
        <ele>1628.2</ele>
        <time>2022-01-09T09:07:17Z</time>
      </trkpt>
      <trkpt lat="42.82505" lon="0.25593">
        <ele>1628.4</ele>
        <time>2022-01-09T09:07:18Z</time>
      </trkpt>
      <trkpt lat="42.82505" lon="0.25592">
        <ele>1628.6</ele>
        <time>2022-01-09T09:07:19Z</time>
      </trkpt>
      <trkpt lat="42.82506" lon="0.2559">
        <ele>1629</ele>
        <time>2022-01-09T09:07:20Z</time>
      </trkpt>
      <trkpt lat="42.82506" lon="0.25588">
        <ele>1629.2</ele>
        <time>2022-01-09T09:07:21Z</time>
      </trkpt>
      <trkpt lat="42.82506" lon="0.25586">
        <ele>1629.8</ele>
        <time>2022-01-09T09:07:22Z</time>
      </trkpt>
      <trkpt lat="42.82506" lon="0.25584">
        <ele>1630.4</ele>
        <time>2022-01-09T09:07:23Z</time>
      </trkpt>
      <trkpt lat="42.82506" lon="0.25582">
        <ele>1630.4</ele>
        <time>2022-01-09T09:07:24Z</time>
      </trkpt>
      <trkpt lat="42.82506" lon="0.25581">
        <ele>1631</ele>
        <time>2022-01-09T09:07:25Z</time>
      </trkpt>
      <trkpt lat="42.82506" lon="0.25579">
        <ele>1631</ele>
        <time>2022-01-09T09:07:26Z</time>
      </trkpt>
      <trkpt lat="42.82507" lon="0.25577">
        <ele>1631.4</ele>
        <time>2022-01-09T09:07:27Z</time>
      </trkpt>
      <trkpt lat="42.82507" lon="0.25575">
        <ele>1631.6</ele>
        <time>2022-01-09T09:07:28Z</time>
      </trkpt>
      <trkpt lat="42.82507" lon="0.25574">
        <ele>1632</ele>
        <time>2022-01-09T09:07:29Z</time>
      </trkpt>
      <trkpt lat="42.82508" lon="0.25572">
        <ele>1632.4</ele>
        <time>2022-01-09T09:07:30Z</time>
      </trkpt>
      <trkpt lat="42.82508" lon="0.2557">
        <ele>1632.8</ele>
        <time>2022-01-09T09:07:31Z</time>
      </trkpt>
      <trkpt lat="42.82509" lon="0.25568">
        <ele>1633</ele>
        <time>2022-01-09T09:07:32Z</time>
      </trkpt>
      <trkpt lat="42.8251" lon="0.25567">
        <ele>1633.4</ele>
        <time>2022-01-09T09:07:33Z</time>
      </trkpt>
      <trkpt lat="42.8251" lon="0.25565">
        <ele>1633.6</ele>
        <time>2022-01-09T09:07:34Z</time>
      </trkpt>
      <trkpt lat="42.82511" lon="0.25563">
        <ele>1634.2</ele>
        <time>2022-01-09T09:07:35Z</time>
      </trkpt>
      <trkpt lat="42.8251" lon="0.25563">
        <ele>1634.6</ele>
        <time>2022-01-09T09:07:36Z</time>
      </trkpt>
      <trkpt lat="42.82509" lon="0.25563">
        <ele>1634.6</ele>
        <time>2022-01-09T09:07:37Z</time>
      </trkpt>
      <trkpt lat="42.82508" lon="0.25563">
        <ele>1635</ele>
        <time>2022-01-09T09:07:38Z</time>
      </trkpt>
      <trkpt lat="42.82507" lon="0.25563">
        <ele>1635.4</ele>
        <time>2022-01-09T09:07:39Z</time>
      </trkpt>
      <trkpt lat="42.82506" lon="0.25563">
        <ele>1635.8</ele>
        <time>2022-01-09T09:07:40Z</time>
      </trkpt>
      <trkpt lat="42.82505" lon="0.25563">
        <ele>1635.8</ele>
        <time>2022-01-09T09:07:41Z</time>
      </trkpt>
      <trkpt lat="42.82504" lon="0.25563">
        <ele>1636.2</ele>
        <time>2022-01-09T09:07:42Z</time>
      </trkpt>
      <trkpt lat="42.82503" lon="0.25563">
        <ele>1636.4</ele>
        <time>2022-01-09T09:07:43Z</time>
      </trkpt>
      <trkpt lat="42.82502" lon="0.25563">
        <ele>1636.8</ele>
        <time>2022-01-09T09:07:44Z</time>
      </trkpt>
      <trkpt lat="42.82501" lon="0.25563">
        <ele>1637</ele>
        <time>2022-01-09T09:07:45Z</time>
      </trkpt>
      <trkpt lat="42.82501" lon="0.25563">
        <ele>1637.4</ele>
        <time>2022-01-09T09:07:46Z</time>
      </trkpt>
      <trkpt lat="42.82501" lon="0.25562">
        <ele>1637.8</ele>
        <time>2022-01-09T09:07:47Z</time>
      </trkpt>
      <trkpt lat="42.825" lon="0.25561">
        <ele>1637.8</ele>
        <time>2022-01-09T09:07:48Z</time>
      </trkpt>
      <trkpt lat="42.825" lon="0.25561">
        <ele>1638.4</ele>
        <time>2022-01-09T09:07:49Z</time>
      </trkpt>
      <trkpt lat="42.825" lon="0.2556">
        <ele>1638.8</ele>
        <time>2022-01-09T09:07:50Z</time>
      </trkpt>
      <trkpt lat="42.82499" lon="0.25559">
        <ele>1639</ele>
        <time>2022-01-09T09:07:51Z</time>
      </trkpt>
      <trkpt lat="42.82499" lon="0.25559">
        <ele>1639.4</ele>
        <time>2022-01-09T09:07:52Z</time>
      </trkpt>
      <trkpt lat="42.82499" lon="0.25558">
        <ele>1640</ele>
        <time>2022-01-09T09:07:53Z</time>
      </trkpt>
      <trkpt lat="42.82498" lon="0.25558">
        <ele>1640.2</ele>
        <time>2022-01-09T09:07:54Z</time>
      </trkpt>
      <trkpt lat="42.82498" lon="0.25557">
        <ele>1640.6</ele>
        <time>2022-01-09T09:07:55Z</time>
      </trkpt>
      <trkpt lat="42.82498" lon="0.25556">
        <ele>1641</ele>
        <time>2022-01-09T09:07:56Z</time>
      </trkpt>
      <trkpt lat="42.82497" lon="0.25556">
        <ele>1641.4</ele>
        <time>2022-01-09T09:07:57Z</time>
      </trkpt>
      <trkpt lat="42.82497" lon="0.25555">
        <ele>1641.8</ele>
        <time>2022-01-09T09:07:58Z</time>
      </trkpt>
      <trkpt lat="42.82497" lon="0.25554">
        <ele>1642</ele>
        <time>2022-01-09T09:07:59Z</time>
      </trkpt>
      <trkpt lat="42.82496" lon="0.25554">
        <ele>1642.6</ele>
        <time>2022-01-09T09:08:00Z</time>
      </trkpt>
      <trkpt lat="42.82496" lon="0.25553">
        <ele>1642.8</ele>
        <time>2022-01-09T09:08:01Z</time>
      </trkpt>
      <trkpt lat="42.82497" lon="0.25551">
        <ele>1643</ele>
        <time>2022-01-09T09:08:02Z</time>
      </trkpt>
      <trkpt lat="42.82497" lon="0.2555">
        <ele>1643.4</ele>
        <time>2022-01-09T09:08:03Z</time>
      </trkpt>
      <trkpt lat="42.82498" lon="0.25548">
        <ele>1643.8</ele>
        <time>2022-01-09T09:08:04Z</time>
      </trkpt>
      <trkpt lat="42.82499" lon="0.25547">
        <ele>1644.2</ele>
        <time>2022-01-09T09:08:05Z</time>
      </trkpt>
      <trkpt lat="42.82499" lon="0.25545">
        <ele>1644.8</ele>
        <time>2022-01-09T09:08:06Z</time>
      </trkpt>
      <trkpt lat="42.825" lon="0.25544">
        <ele>1645.2</ele>
        <time>2022-01-09T09:08:07Z</time>
      </trkpt>
      <trkpt lat="42.825" lon="0.25542">
        <ele>1645.6</ele>
        <time>2022-01-09T09:08:08Z</time>
      </trkpt>
      <trkpt lat="42.82501" lon="0.25541">
        <ele>1646</ele>
        <time>2022-01-09T09:08:09Z</time>
      </trkpt>
      <trkpt lat="42.82501" lon="0.25541">
        <ele>1646</ele>
        <time>2022-01-09T09:08:10Z</time>
      </trkpt>
      <trkpt lat="42.82501" lon="0.2554">
        <ele>1646.6</ele>
        <time>2022-01-09T09:08:11Z</time>
      </trkpt>
      <trkpt lat="42.82502" lon="0.25539">
        <ele>1647.2</ele>
        <time>2022-01-09T09:08:12Z</time>
      </trkpt>
      <trkpt lat="42.82502" lon="0.25538">
        <ele>1647.6</ele>
        <time>2022-01-09T09:08:13Z</time>
      </trkpt>
      <trkpt lat="42.82502" lon="0.25538">
        <ele>1647.8</ele>
        <time>2022-01-09T09:08:14Z</time>
      </trkpt>
      <trkpt lat="42.82503" lon="0.25537">
        <ele>1648.4</ele>
        <time>2022-01-09T09:08:15Z</time>
      </trkpt>
      <trkpt lat="42.82503" lon="0.25536">
        <ele>1648.8</ele>
        <time>2022-01-09T09:08:16Z</time>
      </trkpt>
      <trkpt lat="42.82506" lon="0.25529">
        <ele>1649</ele>
        <time>2022-01-09T09:08:17Z</time>
      </trkpt>
      <trkpt lat="42.82506" lon="0.25528">
        <ele>1649.2</ele>
        <time>2022-01-09T09:08:18Z</time>
      </trkpt>
      <trkpt lat="42.82507" lon="0.25526">
        <ele>1649.6</ele>
        <time>2022-01-09T09:08:19Z</time>
      </trkpt>
      <trkpt lat="42.82507" lon="0.25525">
        <ele>1650</ele>
        <time>2022-01-09T09:08:20Z</time>
      </trkpt>
      <trkpt lat="42.82507" lon="0.25524">
        <ele>1650.4</ele>
        <time>2022-01-09T09:08:21Z</time>
      </trkpt>
      <trkpt lat="42.82507" lon="0.25522">
        <ele>1651</ele>
        <time>2022-01-09T09:08:22Z</time>
      </trkpt>
      <trkpt lat="42.82508" lon="0.25521">
        <ele>1651.4</ele>
        <time>2022-01-09T09:08:23Z</time>
      </trkpt>
      <trkpt lat="42.82508" lon="0.2552">
        <ele>1651.8</ele>
        <time>2022-01-09T09:08:24Z</time>
      </trkpt>
      <trkpt lat="42.82508" lon="0.25518">
        <ele>1652.2</ele>
        <time>2022-01-09T09:08:25Z</time>
      </trkpt>
      <trkpt lat="42.82508" lon="0.25517">
        <ele>1652.4</ele>
        <time>2022-01-09T09:08:26Z</time>
      </trkpt>
      <trkpt lat="42.82508" lon="0.25515">
        <ele>1652.8</ele>
        <time>2022-01-09T09:08:27Z</time>
      </trkpt>
      <trkpt lat="42.82509" lon="0.25513">
        <ele>1653.4</ele>
        <time>2022-01-09T09:08:28Z</time>
      </trkpt>
      <trkpt lat="42.82509" lon="0.25512">
        <ele>1653.8</ele>
        <time>2022-01-09T09:08:29Z</time>
      </trkpt>
      <trkpt lat="42.82509" lon="0.2551">
        <ele>1653.8</ele>
        <time>2022-01-09T09:08:30Z</time>
      </trkpt>
      <trkpt lat="42.82509" lon="0.25509">
        <ele>1654.2</ele>
        <time>2022-01-09T09:08:31Z</time>
      </trkpt>
      <trkpt lat="42.82509" lon="0.25507">
        <ele>1654.6</ele>
        <time>2022-01-09T09:08:32Z</time>
      </trkpt>
      <trkpt lat="42.82509" lon="0.25506">
        <ele>1655</ele>
        <time>2022-01-09T09:08:33Z</time>
      </trkpt>
      <trkpt lat="42.82509" lon="0.25504">
        <ele>1655.2</ele>
        <time>2022-01-09T09:08:34Z</time>
      </trkpt>
      <trkpt lat="42.8251" lon="0.25503">
        <ele>1655.8</ele>
        <time>2022-01-09T09:08:35Z</time>
      </trkpt>
      <trkpt lat="42.8251" lon="0.25502">
        <ele>1656</ele>
        <time>2022-01-09T09:08:36Z</time>
      </trkpt>
      <trkpt lat="42.8251" lon="0.25501">
        <ele>1656.4</ele>
        <time>2022-01-09T09:08:37Z</time>
      </trkpt>
      <trkpt lat="42.82511" lon="0.255">
        <ele>1656.8</ele>
        <time>2022-01-09T09:08:38Z</time>
      </trkpt>
      <trkpt lat="42.82511" lon="0.25499">
        <ele>1657.4</ele>
        <time>2022-01-09T09:08:39Z</time>
      </trkpt>
      <trkpt lat="42.82511" lon="0.25497">
        <ele>1657.6</ele>
        <time>2022-01-09T09:08:40Z</time>
      </trkpt>
      <trkpt lat="42.82511" lon="0.25496">
        <ele>1658</ele>
        <time>2022-01-09T09:08:41Z</time>
      </trkpt>
      <trkpt lat="42.82512" lon="0.25495">
        <ele>1658.4</ele>
        <time>2022-01-09T09:08:42Z</time>
      </trkpt>
      <trkpt lat="42.82512" lon="0.25494">
        <ele>1658.4</ele>
        <time>2022-01-09T09:08:43Z</time>
      </trkpt>
      <trkpt lat="42.82512" lon="0.25493">
        <ele>1658.8</ele>
        <time>2022-01-09T09:08:44Z</time>
      </trkpt>
      <trkpt lat="42.82512" lon="0.25493">
        <ele>1659</ele>
        <time>2022-01-09T09:08:45Z</time>
      </trkpt>
      <trkpt lat="42.82512" lon="0.25492">
        <ele>1659.6</ele>
        <time>2022-01-09T09:08:46Z</time>
      </trkpt>
      <trkpt lat="42.82511" lon="0.25492">
        <ele>1660</ele>
        <time>2022-01-09T09:08:47Z</time>
      </trkpt>
      <trkpt lat="42.82511" lon="0.25492">
        <ele>1660</ele>
        <time>2022-01-09T09:08:48Z</time>
      </trkpt>
      <trkpt lat="42.8251" lon="0.25492">
        <ele>1660.8</ele>
        <time>2022-01-09T09:08:49Z</time>
      </trkpt>
      <trkpt lat="42.8251" lon="0.25491">
        <ele>1661</ele>
        <time>2022-01-09T09:08:50Z</time>
      </trkpt>
      <trkpt lat="42.82509" lon="0.25491">
        <ele>1661.4</ele>
        <time>2022-01-09T09:08:51Z</time>
      </trkpt>
      <trkpt lat="42.82509" lon="0.25491">
        <ele>1661.6</ele>
        <time>2022-01-09T09:08:52Z</time>
      </trkpt>
      <trkpt lat="42.82508" lon="0.25491">
        <ele>1661.8</ele>
        <time>2022-01-09T09:08:53Z</time>
      </trkpt>
      <trkpt lat="42.82508" lon="0.2549">
        <ele>1662.2</ele>
        <time>2022-01-09T09:08:54Z</time>
      </trkpt>
      <trkpt lat="42.82502" lon="0.25488">
        <ele>1662.4</ele>
        <time>2022-01-09T09:08:55Z</time>
      </trkpt>
      <trkpt lat="42.82501" lon="0.25488">
        <ele>1662.6</ele>
        <time>2022-01-09T09:08:56Z</time>
      </trkpt>
      <trkpt lat="42.825" lon="0.25489">
        <ele>1663.2</ele>
        <time>2022-01-09T09:08:57Z</time>
      </trkpt>
      <trkpt lat="42.82499" lon="0.25489">
        <ele>1663.6</ele>
        <time>2022-01-09T09:08:58Z</time>
      </trkpt>
      <trkpt lat="42.82498" lon="0.25489">
        <ele>1663.8</ele>
        <time>2022-01-09T09:08:59Z</time>
      </trkpt>
      <trkpt lat="42.82497" lon="0.25489">
        <ele>1664.2</ele>
        <time>2022-01-09T09:09:00Z</time>
      </trkpt>
      <trkpt lat="42.82496" lon="0.2549">
        <ele>1664.4</ele>
        <time>2022-01-09T09:09:01Z</time>
      </trkpt>
      <trkpt lat="42.82495" lon="0.2549">
        <ele>1664.6</ele>
        <time>2022-01-09T09:09:02Z</time>
      </trkpt>
      <trkpt lat="42.82495" lon="0.2549">
        <ele>1664.8</ele>
        <time>2022-01-09T09:09:03Z</time>
      </trkpt>
      <trkpt lat="42.82492" lon="0.25491">
        <ele>1665.2</ele>
        <time>2022-01-09T09:09:04Z</time>
      </trkpt>
      <trkpt lat="42.82492" lon="0.25491">
        <ele>1665.6</ele>
        <time>2022-01-09T09:09:05Z</time>
      </trkpt>
      <trkpt lat="42.82489" lon="0.25491">
        <ele>1665.8</ele>
        <time>2022-01-09T09:09:06Z</time>
      </trkpt>
      <trkpt lat="42.82488" lon="0.25491">
        <ele>1666.4</ele>
        <time>2022-01-09T09:09:07Z</time>
      </trkpt>
      <trkpt lat="42.82487" lon="0.25491">
        <ele>1666.6</ele>
        <time>2022-01-09T09:09:08Z</time>
      </trkpt>
      <trkpt lat="42.82485" lon="0.25491">
        <ele>1667</ele>
        <time>2022-01-09T09:09:09Z</time>
      </trkpt>
      <trkpt lat="42.82484" lon="0.25491">
        <ele>1667.4</ele>
        <time>2022-01-09T09:09:10Z</time>
      </trkpt>
      <trkpt lat="42.82483" lon="0.25491">
        <ele>1667.8</ele>
        <time>2022-01-09T09:09:11Z</time>
      </trkpt>
      <trkpt lat="42.82481" lon="0.25491">
        <ele>1668.2</ele>
        <time>2022-01-09T09:09:12Z</time>
      </trkpt>
      <trkpt lat="42.82481" lon="0.25491">
        <ele>1668.6</ele>
        <time>2022-01-09T09:09:13Z</time>
      </trkpt>
      <trkpt lat="42.82479" lon="0.25492">
        <ele>1669</ele>
        <time>2022-01-09T09:09:14Z</time>
      </trkpt>
      <trkpt lat="42.82479" lon="0.25491">
        <ele>1669.6</ele>
        <time>2022-01-09T09:09:15Z</time>
      </trkpt>
      <trkpt lat="42.82479" lon="0.2549">
        <ele>1670</ele>
        <time>2022-01-09T09:09:16Z</time>
      </trkpt>
      <trkpt lat="42.8248" lon="0.25488">
        <ele>1670.2</ele>
        <time>2022-01-09T09:09:17Z</time>
      </trkpt>
      <trkpt lat="42.8248" lon="0.25487">
        <ele>1670.6</ele>
        <time>2022-01-09T09:09:18Z</time>
      </trkpt>
      <trkpt lat="42.82481" lon="0.25486">
        <ele>1671</ele>
        <time>2022-01-09T09:09:19Z</time>
      </trkpt>
      <trkpt lat="42.82481" lon="0.25485">
        <ele>1671.2</ele>
        <time>2022-01-09T09:09:20Z</time>
      </trkpt>
      <trkpt lat="42.82481" lon="0.25484">
        <ele>1671.4</ele>
        <time>2022-01-09T09:09:21Z</time>
      </trkpt>
      <trkpt lat="42.82482" lon="0.25482">
        <ele>1671.8</ele>
        <time>2022-01-09T09:09:22Z</time>
      </trkpt>
      <trkpt lat="42.82482" lon="0.25481">
        <ele>1672.6</ele>
        <time>2022-01-09T09:09:23Z</time>
      </trkpt>
      <trkpt lat="42.82483" lon="0.2548">
        <ele>1672.8</ele>
        <time>2022-01-09T09:09:24Z</time>
      </trkpt>
      <trkpt lat="42.82484" lon="0.25479">
        <ele>1673.4</ele>
        <time>2022-01-09T09:09:25Z</time>
      </trkpt>
      <trkpt lat="42.82484" lon="0.25477">
        <ele>1673.4</ele>
        <time>2022-01-09T09:09:26Z</time>
      </trkpt>
      <trkpt lat="42.82485" lon="0.25476">
        <ele>1673.8</ele>
        <time>2022-01-09T09:09:27Z</time>
      </trkpt>
      <trkpt lat="42.82486" lon="0.25474">
        <ele>1674</ele>
        <time>2022-01-09T09:09:28Z</time>
      </trkpt>
      <trkpt lat="42.82487" lon="0.25473">
        <ele>1674.6</ele>
        <time>2022-01-09T09:09:29Z</time>
      </trkpt>
      <trkpt lat="42.82488" lon="0.25471">
        <ele>1674.8</ele>
        <time>2022-01-09T09:09:30Z</time>
      </trkpt>
      <trkpt lat="42.82489" lon="0.2547">
        <ele>1674.8</ele>
        <time>2022-01-09T09:09:31Z</time>
      </trkpt>
      <trkpt lat="42.82488" lon="0.2547">
        <ele>1675.2</ele>
        <time>2022-01-09T09:09:32Z</time>
      </trkpt>
      <trkpt lat="42.82487" lon="0.2547">
        <ele>1675.6</ele>
        <time>2022-01-09T09:09:33Z</time>
      </trkpt>
      <trkpt lat="42.82486" lon="0.2547">
        <ele>1675.6</ele>
        <time>2022-01-09T09:09:34Z</time>
      </trkpt>
      <trkpt lat="42.82485" lon="0.25469">
        <ele>1676.2</ele>
        <time>2022-01-09T09:09:35Z</time>
      </trkpt>
      <trkpt lat="42.82484" lon="0.25469">
        <ele>1676.4</ele>
        <time>2022-01-09T09:09:36Z</time>
      </trkpt>
      <trkpt lat="42.82483" lon="0.25469">
        <ele>1676.6</ele>
        <time>2022-01-09T09:09:37Z</time>
      </trkpt>
      <trkpt lat="42.82482" lon="0.25469">
        <ele>1677</ele>
        <time>2022-01-09T09:09:38Z</time>
      </trkpt>
      <trkpt lat="42.82481" lon="0.25469">
        <ele>1677.2</ele>
        <time>2022-01-09T09:09:39Z</time>
      </trkpt>
      <trkpt lat="42.8248" lon="0.25469">
        <ele>1677.6</ele>
        <time>2022-01-09T09:09:40Z</time>
      </trkpt>
      <trkpt lat="42.82478" lon="0.25469">
        <ele>1677.8</ele>
        <time>2022-01-09T09:09:41Z</time>
      </trkpt>
      <trkpt lat="42.82477" lon="0.25469">
        <ele>1678</ele>
        <time>2022-01-09T09:09:42Z</time>
      </trkpt>
      <trkpt lat="42.82476" lon="0.25469">
        <ele>1678.4</ele>
        <time>2022-01-09T09:09:43Z</time>
      </trkpt>
      <trkpt lat="42.82474" lon="0.25469">
        <ele>1679</ele>
        <time>2022-01-09T09:09:44Z</time>
      </trkpt>
      <trkpt lat="42.82473" lon="0.25469">
        <ele>1679.2</ele>
        <time>2022-01-09T09:09:45Z</time>
      </trkpt>
      <trkpt lat="42.82472" lon="0.25469">
        <ele>1679.4</ele>
        <time>2022-01-09T09:09:46Z</time>
      </trkpt>
      <trkpt lat="42.8247" lon="0.25469">
        <ele>1679.8</ele>
        <time>2022-01-09T09:09:47Z</time>
      </trkpt>
      <trkpt lat="42.82469" lon="0.2547">
        <ele>1680.2</ele>
        <time>2022-01-09T09:09:48Z</time>
      </trkpt>
      <trkpt lat="42.82468" lon="0.25471">
        <ele>1680.4</ele>
        <time>2022-01-09T09:09:49Z</time>
      </trkpt>
      <trkpt lat="42.82467" lon="0.25472">
        <ele>1681</ele>
        <time>2022-01-09T09:09:50Z</time>
      </trkpt>
      <trkpt lat="42.82466" lon="0.25473">
        <ele>1681.4</ele>
        <time>2022-01-09T09:09:51Z</time>
      </trkpt>
      <trkpt lat="42.82465" lon="0.25474">
        <ele>1681.6</ele>
        <time>2022-01-09T09:09:52Z</time>
      </trkpt>
      <trkpt lat="42.82464" lon="0.25475">
        <ele>1682</ele>
        <time>2022-01-09T09:09:53Z</time>
      </trkpt>
      <trkpt lat="42.82463" lon="0.25476">
        <ele>1682.4</ele>
        <time>2022-01-09T09:09:54Z</time>
      </trkpt>
      <trkpt lat="42.82462" lon="0.25477">
        <ele>1682.6</ele>
        <time>2022-01-09T09:09:55Z</time>
      </trkpt>
      <trkpt lat="42.82461" lon="0.25478">
        <ele>1683.2</ele>
        <time>2022-01-09T09:09:56Z</time>
      </trkpt>
      <trkpt lat="42.8246" lon="0.25479">
        <ele>1683.4</ele>
        <time>2022-01-09T09:09:57Z</time>
      </trkpt>
      <trkpt lat="42.82459" lon="0.2548">
        <ele>1683.8</ele>
        <time>2022-01-09T09:09:58Z</time>
      </trkpt>
      <trkpt lat="42.82458" lon="0.25481">
        <ele>1684.2</ele>
        <time>2022-01-09T09:09:59Z</time>
      </trkpt>
      <trkpt lat="42.82457" lon="0.25482">
        <ele>1684.8</ele>
        <time>2022-01-09T09:10:00Z</time>
      </trkpt>
      <trkpt lat="42.82456" lon="0.25483">
        <ele>1685</ele>
        <time>2022-01-09T09:10:01Z</time>
      </trkpt>
      <trkpt lat="42.82455" lon="0.25484">
        <ele>1685.4</ele>
        <time>2022-01-09T09:10:02Z</time>
      </trkpt>
      <trkpt lat="42.82454" lon="0.25485">
        <ele>1685.8</ele>
        <time>2022-01-09T09:10:03Z</time>
      </trkpt>
      <trkpt lat="42.82453" lon="0.25486">
        <ele>1686.2</ele>
        <time>2022-01-09T09:10:04Z</time>
      </trkpt>
      <trkpt lat="42.82453" lon="0.25487">
        <ele>1686.8</ele>
        <time>2022-01-09T09:10:05Z</time>
      </trkpt>
      <trkpt lat="42.82452" lon="0.25488">
        <ele>1686.8</ele>
        <time>2022-01-09T09:10:06Z</time>
      </trkpt>
      <trkpt lat="42.82451" lon="0.2549">
        <ele>1687.2</ele>
        <time>2022-01-09T09:10:07Z</time>
      </trkpt>
      <trkpt lat="42.8245" lon="0.25491">
        <ele>1687.6</ele>
        <time>2022-01-09T09:10:08Z</time>
      </trkpt>
      <trkpt lat="42.8245" lon="0.25492">
        <ele>1687.8</ele>
        <time>2022-01-09T09:10:09Z</time>
      </trkpt>
      <trkpt lat="42.8245" lon="0.25492">
        <ele>1688.2</ele>
        <time>2022-01-09T09:10:10Z</time>
      </trkpt>
      <trkpt lat="42.8245" lon="0.25492">
        <ele>1688.6</ele>
        <time>2022-01-09T09:10:11Z</time>
      </trkpt>
      <trkpt lat="42.82448" lon="0.25495">
        <ele>1689</ele>
        <time>2022-01-09T09:10:12Z</time>
      </trkpt>
      <trkpt lat="42.82448" lon="0.25495">
        <ele>1689.2</ele>
        <time>2022-01-09T09:10:13Z</time>
      </trkpt>
      <trkpt lat="42.82446" lon="0.25496">
        <ele>1689.6</ele>
        <time>2022-01-09T09:10:14Z</time>
      </trkpt>
      <trkpt lat="42.82446" lon="0.25496">
        <ele>1689.6</ele>
        <time>2022-01-09T09:10:15Z</time>
      </trkpt>
      <trkpt lat="42.82445" lon="0.25499">
        <ele>1690.2</ele>
        <time>2022-01-09T09:10:16Z</time>
      </trkpt>
      <trkpt lat="42.82445" lon="0.25499">
        <ele>1690.4</ele>
        <time>2022-01-09T09:10:17Z</time>
      </trkpt>
      <trkpt lat="42.82443" lon="0.25501">
        <ele>1690.8</ele>
        <time>2022-01-09T09:10:18Z</time>
      </trkpt>
      <trkpt lat="42.82443" lon="0.25501">
        <ele>1691</ele>
        <time>2022-01-09T09:10:19Z</time>
      </trkpt>
      <trkpt lat="42.82443" lon="0.25501">
        <ele>1691.4</ele>
        <time>2022-01-09T09:10:20Z</time>
      </trkpt>
      <trkpt lat="42.82441" lon="0.25503">
        <ele>1691.8</ele>
        <time>2022-01-09T09:10:21Z</time>
      </trkpt>
      <trkpt lat="42.82441" lon="0.25503">
        <ele>1691.8</ele>
        <time>2022-01-09T09:10:22Z</time>
      </trkpt>
      <trkpt lat="42.82439" lon="0.25504">
        <ele>1692.6</ele>
        <time>2022-01-09T09:10:23Z</time>
      </trkpt>
      <trkpt lat="42.82439" lon="0.25504">
        <ele>1693</ele>
        <time>2022-01-09T09:10:24Z</time>
      </trkpt>
      <trkpt lat="42.82438" lon="0.25505">
        <ele>1693.4</ele>
        <time>2022-01-09T09:10:25Z</time>
      </trkpt>
      <trkpt lat="42.82437" lon="0.25506">
        <ele>1694</ele>
        <time>2022-01-09T09:10:26Z</time>
      </trkpt>
      <trkpt lat="42.82436" lon="0.25506">
        <ele>1694.2</ele>
        <time>2022-01-09T09:10:27Z</time>
      </trkpt>
      <trkpt lat="42.82435" lon="0.25507">
        <ele>1694.4</ele>
        <time>2022-01-09T09:10:28Z</time>
      </trkpt>
      <trkpt lat="42.82434" lon="0.25508">
        <ele>1695</ele>
        <time>2022-01-09T09:10:29Z</time>
      </trkpt>
      <trkpt lat="42.82433" lon="0.25508">
        <ele>1695.2</ele>
        <time>2022-01-09T09:10:30Z</time>
      </trkpt>
      <trkpt lat="42.82432" lon="0.25509">
        <ele>1695.8</ele>
        <time>2022-01-09T09:10:31Z</time>
      </trkpt>
      <trkpt lat="42.82431" lon="0.25509">
        <ele>1696</ele>
        <time>2022-01-09T09:10:32Z</time>
      </trkpt>
      <trkpt lat="42.8243" lon="0.2551">
        <ele>1696.2</ele>
        <time>2022-01-09T09:10:33Z</time>
      </trkpt>
      <trkpt lat="42.82429" lon="0.2551">
        <ele>1696.6</ele>
        <time>2022-01-09T09:10:34Z</time>
      </trkpt>
      <trkpt lat="42.82429" lon="0.25511">
        <ele>1697</ele>
        <time>2022-01-09T09:10:35Z</time>
      </trkpt>
      <trkpt lat="42.82428" lon="0.25512">
        <ele>1697.4</ele>
        <time>2022-01-09T09:10:36Z</time>
      </trkpt>
      <trkpt lat="42.82427" lon="0.25513">
        <ele>1697.8</ele>
        <time>2022-01-09T09:10:37Z</time>
      </trkpt>
      <trkpt lat="42.82426" lon="0.25514">
        <ele>1698.4</ele>
        <time>2022-01-09T09:10:38Z</time>
      </trkpt>
      <trkpt lat="42.82426" lon="0.25514">
        <ele>1698.4</ele>
        <time>2022-01-09T09:10:39Z</time>
      </trkpt>
      <trkpt lat="42.82426" lon="0.25514">
        <ele>1699</ele>
        <time>2022-01-09T09:10:40Z</time>
      </trkpt>
      <trkpt lat="42.82426" lon="0.25514">
        <ele>1699.2</ele>
        <time>2022-01-09T09:10:41Z</time>
      </trkpt>
      <trkpt lat="42.82424" lon="0.25519">
        <ele>1699.4</ele>
        <time>2022-01-09T09:10:42Z</time>
      </trkpt>
      <trkpt lat="42.82424" lon="0.25519">
        <ele>1699.8</ele>
        <time>2022-01-09T09:10:43Z</time>
      </trkpt>
      <trkpt lat="42.82424" lon="0.25519">
        <ele>1700.2</ele>
        <time>2022-01-09T09:10:44Z</time>
      </trkpt>
      <trkpt lat="42.82422" lon="0.25522">
        <ele>1700.6</ele>
        <time>2022-01-09T09:10:45Z</time>
      </trkpt>
      <trkpt lat="42.82422" lon="0.25522">
        <ele>1700.8</ele>
        <time>2022-01-09T09:10:46Z</time>
      </trkpt>
      <trkpt lat="42.8242" lon="0.25523">
        <ele>1701.4</ele>
        <time>2022-01-09T09:10:47Z</time>
      </trkpt>
      <trkpt lat="42.8242" lon="0.25523">
        <ele>1701.6</ele>
        <time>2022-01-09T09:10:48Z</time>
      </trkpt>
      <trkpt lat="42.82418" lon="0.25524">
        <ele>1702.2</ele>
        <time>2022-01-09T09:10:49Z</time>
      </trkpt>
      <trkpt lat="42.82418" lon="0.25524">
        <ele>1702.6</ele>
        <time>2022-01-09T09:10:50Z</time>
      </trkpt>
      <trkpt lat="42.82416" lon="0.25525">
        <ele>1703</ele>
        <time>2022-01-09T09:10:51Z</time>
      </trkpt>
      <trkpt lat="42.82416" lon="0.25525">
        <ele>1703.4</ele>
        <time>2022-01-09T09:10:52Z</time>
      </trkpt>
      <trkpt lat="42.82414" lon="0.25525">
        <ele>1703.8</ele>
        <time>2022-01-09T09:10:53Z</time>
      </trkpt>
      <trkpt lat="42.82414" lon="0.25525">
        <ele>1704.4</ele>
        <time>2022-01-09T09:10:54Z</time>
      </trkpt>
      <trkpt lat="42.82412" lon="0.25526">
        <ele>1704.4</ele>
        <time>2022-01-09T09:10:55Z</time>
      </trkpt>
      <trkpt lat="42.82412" lon="0.25526">
        <ele>1704.8</ele>
        <time>2022-01-09T09:10:56Z</time>
      </trkpt>
      <trkpt lat="42.8241" lon="0.25527">
        <ele>1705.2</ele>
        <time>2022-01-09T09:10:57Z</time>
      </trkpt>
      <trkpt lat="42.8241" lon="0.25527">
        <ele>1705.6</ele>
        <time>2022-01-09T09:10:58Z</time>
      </trkpt>
      <trkpt lat="42.8241" lon="0.25527">
        <ele>1705.8</ele>
        <time>2022-01-09T09:10:59Z</time>
      </trkpt>
      <trkpt lat="42.82408" lon="0.2553">
        <ele>1706</ele>
        <time>2022-01-09T09:11:00Z</time>
      </trkpt>
      <trkpt lat="42.82408" lon="0.2553">
        <ele>1706.4</ele>
        <time>2022-01-09T09:11:01Z</time>
      </trkpt>
      <trkpt lat="42.82407" lon="0.25532">
        <ele>1706.8</ele>
        <time>2022-01-09T09:11:02Z</time>
      </trkpt>
      <trkpt lat="42.82407" lon="0.25532">
        <ele>1707.2</ele>
        <time>2022-01-09T09:11:03Z</time>
      </trkpt>
      <trkpt lat="42.82407" lon="0.25535">
        <ele>1707.6</ele>
        <time>2022-01-09T09:11:04Z</time>
      </trkpt>
      <trkpt lat="42.82407" lon="0.25535">
        <ele>1708</ele>
        <time>2022-01-09T09:11:05Z</time>
      </trkpt>
      <trkpt lat="42.82406" lon="0.25538">
        <ele>1708.2</ele>
        <time>2022-01-09T09:11:06Z</time>
      </trkpt>
      <trkpt lat="42.82406" lon="0.25538">
        <ele>1708.8</ele>
        <time>2022-01-09T09:11:07Z</time>
      </trkpt>
      <trkpt lat="42.82406" lon="0.25538">
        <ele>1709</ele>
        <time>2022-01-09T09:11:08Z</time>
      </trkpt>
      <trkpt lat="42.82405" lon="0.25542">
        <ele>1709.2</ele>
        <time>2022-01-09T09:11:09Z</time>
      </trkpt>
      <trkpt lat="42.82405" lon="0.25542">
        <ele>1709.6</ele>
        <time>2022-01-09T09:11:10Z</time>
      </trkpt>
      <trkpt lat="42.82405" lon="0.25542">
        <ele>1709.8</ele>
        <time>2022-01-09T09:11:11Z</time>
      </trkpt>
      <trkpt lat="42.82402" lon="0.25544">
        <ele>1710.2</ele>
        <time>2022-01-09T09:11:12Z</time>
      </trkpt>
      <trkpt lat="42.82402" lon="0.25544">
        <ele>1710.6</ele>
        <time>2022-01-09T09:11:13Z</time>
      </trkpt>
      <trkpt lat="42.824" lon="0.25546">
        <ele>1710.6</ele>
        <time>2022-01-09T09:11:14Z</time>
      </trkpt>
      <trkpt lat="42.824" lon="0.25546">
        <ele>1711.2</ele>
        <time>2022-01-09T09:11:15Z</time>
      </trkpt>
      <trkpt lat="42.82398" lon="0.25548">
        <ele>1711.6</ele>
        <time>2022-01-09T09:11:16Z</time>
      </trkpt>
      <trkpt lat="42.82398" lon="0.25548">
        <ele>1712</ele>
        <time>2022-01-09T09:11:17Z</time>
      </trkpt>
      <trkpt lat="42.82396" lon="0.25548">
        <ele>1712.2</ele>
        <time>2022-01-09T09:11:18Z</time>
      </trkpt>
      <trkpt lat="42.82395" lon="0.25547">
        <ele>1712.4</ele>
        <time>2022-01-09T09:11:19Z</time>
      </trkpt>
      <trkpt lat="42.82395" lon="0.25546">
        <ele>1712.6</ele>
        <time>2022-01-09T09:11:20Z</time>
      </trkpt>
      <trkpt lat="42.82395" lon="0.25545">
        <ele>1713</ele>
        <time>2022-01-09T09:11:21Z</time>
      </trkpt>
      <trkpt lat="42.82394" lon="0.25544">
        <ele>1713.4</ele>
        <time>2022-01-09T09:11:22Z</time>
      </trkpt>
      <trkpt lat="42.82394" lon="0.25542">
        <ele>1713.6</ele>
        <time>2022-01-09T09:11:23Z</time>
      </trkpt>
      <trkpt lat="42.82394" lon="0.25541">
        <ele>1713.6</ele>
        <time>2022-01-09T09:11:24Z</time>
      </trkpt>
      <trkpt lat="42.82393" lon="0.2554">
        <ele>1714</ele>
        <time>2022-01-09T09:11:25Z</time>
      </trkpt>
      <trkpt lat="42.82393" lon="0.25539">
        <ele>1714.2</ele>
        <time>2022-01-09T09:11:26Z</time>
      </trkpt>
      <trkpt lat="42.82393" lon="0.25538">
        <ele>1715</ele>
        <time>2022-01-09T09:11:27Z</time>
      </trkpt>
      <trkpt lat="42.82392" lon="0.25537">
        <ele>1715.2</ele>
        <time>2022-01-09T09:11:28Z</time>
      </trkpt>
      <trkpt lat="42.82393" lon="0.25536">
        <ele>1715.6</ele>
        <time>2022-01-09T09:11:29Z</time>
      </trkpt>
      <trkpt lat="42.82393" lon="0.25535">
        <ele>1716</ele>
        <time>2022-01-09T09:11:30Z</time>
      </trkpt>
      <trkpt lat="42.82393" lon="0.25535">
        <ele>1716</ele>
        <time>2022-01-09T09:11:31Z</time>
      </trkpt>
      <trkpt lat="42.82393" lon="0.25534">
        <ele>1716.6</ele>
        <time>2022-01-09T09:11:32Z</time>
      </trkpt>
      <trkpt lat="42.82393" lon="0.25534">
        <ele>1716.6</ele>
        <time>2022-01-09T09:11:33Z</time>
      </trkpt>
      <trkpt lat="42.82393" lon="0.25533">
        <ele>1717.2</ele>
        <time>2022-01-09T09:11:34Z</time>
      </trkpt>
      <trkpt lat="42.82393" lon="0.25532">
        <ele>1717.4</ele>
        <time>2022-01-09T09:11:35Z</time>
      </trkpt>
      <trkpt lat="42.82393" lon="0.25532">
        <ele>1717.6</ele>
        <time>2022-01-09T09:11:36Z</time>
      </trkpt>
      <trkpt lat="42.82393" lon="0.25531">
        <ele>1718</ele>
        <time>2022-01-09T09:11:37Z</time>
      </trkpt>
      <trkpt lat="42.82393" lon="0.2553">
        <ele>1718.2</ele>
        <time>2022-01-09T09:11:38Z</time>
      </trkpt>
      <trkpt lat="42.82393" lon="0.2553">
        <ele>1718.4</ele>
        <time>2022-01-09T09:11:39Z</time>
      </trkpt>
      <trkpt lat="42.82394" lon="0.25521">
        <ele>1718.6</ele>
        <time>2022-01-09T09:11:40Z</time>
      </trkpt>
      <trkpt lat="42.82394" lon="0.25519">
        <ele>1719</ele>
        <time>2022-01-09T09:11:41Z</time>
      </trkpt>
      <trkpt lat="42.82394" lon="0.25518">
        <ele>1719.2</ele>
        <time>2022-01-09T09:11:42Z</time>
      </trkpt>
      <trkpt lat="42.82394" lon="0.25516">
        <ele>1719.6</ele>
        <time>2022-01-09T09:11:43Z</time>
      </trkpt>
      <trkpt lat="42.82394" lon="0.25514">
        <ele>1719.8</ele>
        <time>2022-01-09T09:11:44Z</time>
      </trkpt>
      <trkpt lat="42.82394" lon="0.25513">
        <ele>1719.8</ele>
        <time>2022-01-09T09:11:45Z</time>
      </trkpt>
      <trkpt lat="42.82394" lon="0.25511">
        <ele>1720.4</ele>
        <time>2022-01-09T09:11:46Z</time>
      </trkpt>
      <trkpt lat="42.82394" lon="0.25509">
        <ele>1720.8</ele>
        <time>2022-01-09T09:11:47Z</time>
      </trkpt>
      <trkpt lat="42.82393" lon="0.25509">
        <ele>1720.8</ele>
        <time>2022-01-09T09:11:48Z</time>
      </trkpt>
      <trkpt lat="42.82392" lon="0.2551">
        <ele>1721</ele>
        <time>2022-01-09T09:11:49Z</time>
      </trkpt>
      <trkpt lat="42.82392" lon="0.2551">
        <ele>1721.2</ele>
        <time>2022-01-09T09:11:50Z</time>
      </trkpt>
      <trkpt lat="42.82391" lon="0.2551">
        <ele>1721.6</ele>
        <time>2022-01-09T09:11:51Z</time>
      </trkpt>
      <trkpt lat="42.8239" lon="0.2551">
        <ele>1722</ele>
        <time>2022-01-09T09:11:52Z</time>
      </trkpt>
      <trkpt lat="42.82389" lon="0.2551">
        <ele>1722.4</ele>
        <time>2022-01-09T09:11:53Z</time>
      </trkpt>
      <trkpt lat="42.82389" lon="0.2551">
        <ele>1722.6</ele>
        <time>2022-01-09T09:11:54Z</time>
      </trkpt>
      <trkpt lat="42.82387" lon="0.25512">
        <ele>1723</ele>
        <time>2022-01-09T09:11:55Z</time>
      </trkpt>
      <trkpt lat="42.82387" lon="0.25512">
        <ele>1723.2</ele>
        <time>2022-01-09T09:11:56Z</time>
      </trkpt>
      <trkpt lat="42.82384" lon="0.25515">
        <ele>1723.6</ele>
        <time>2022-01-09T09:11:57Z</time>
      </trkpt>
      <trkpt lat="42.82384" lon="0.25515">
        <ele>1723.6</ele>
        <time>2022-01-09T09:11:58Z</time>
      </trkpt>
      <trkpt lat="42.82383" lon="0.25517">
        <ele>1723.8</ele>
        <time>2022-01-09T09:11:59Z</time>
      </trkpt>
      <trkpt lat="42.82383" lon="0.25517">
        <ele>1724.4</ele>
        <time>2022-01-09T09:12:00Z</time>
      </trkpt>
      <trkpt lat="42.82381" lon="0.25518">
        <ele>1724.6</ele>
        <time>2022-01-09T09:12:01Z</time>
      </trkpt>
      <trkpt lat="42.82381" lon="0.25518">
        <ele>1725</ele>
        <time>2022-01-09T09:12:02Z</time>
      </trkpt>
      <trkpt lat="42.82379" lon="0.25519">
        <ele>1725.2</ele>
        <time>2022-01-09T09:12:03Z</time>
      </trkpt>
      <trkpt lat="42.82379" lon="0.25519">
        <ele>1725.4</ele>
        <time>2022-01-09T09:12:04Z</time>
      </trkpt>
      <trkpt lat="42.82379" lon="0.25519">
        <ele>1725.8</ele>
        <time>2022-01-09T09:12:05Z</time>
      </trkpt>
      <trkpt lat="42.82377" lon="0.25521">
        <ele>1726.2</ele>
        <time>2022-01-09T09:12:06Z</time>
      </trkpt>
      <trkpt lat="42.82377" lon="0.25521">
        <ele>1726.4</ele>
        <time>2022-01-09T09:12:07Z</time>
      </trkpt>
      <trkpt lat="42.82375" lon="0.25523">
        <ele>1727</ele>
        <time>2022-01-09T09:12:08Z</time>
      </trkpt>
      <trkpt lat="42.82375" lon="0.25523">
        <ele>1727.4</ele>
        <time>2022-01-09T09:12:09Z</time>
      </trkpt>
      <trkpt lat="42.82374" lon="0.25524">
        <ele>1727.6</ele>
        <time>2022-01-09T09:12:10Z</time>
      </trkpt>
      <trkpt lat="42.82374" lon="0.25524">
        <ele>1728</ele>
        <time>2022-01-09T09:12:11Z</time>
      </trkpt>
      <trkpt lat="42.82372" lon="0.25525">
        <ele>1728.4</ele>
        <time>2022-01-09T09:12:12Z</time>
      </trkpt>
      <trkpt lat="42.82372" lon="0.25525">
        <ele>1728.8</ele>
        <time>2022-01-09T09:12:13Z</time>
      </trkpt>
      <trkpt lat="42.8237" lon="0.25525">
        <ele>1729.4</ele>
        <time>2022-01-09T09:12:14Z</time>
      </trkpt>
      <trkpt lat="42.8237" lon="0.25525">
        <ele>1729.8</ele>
        <time>2022-01-09T09:12:15Z</time>
      </trkpt>
      <trkpt lat="42.82368" lon="0.25526">
        <ele>1730</ele>
        <time>2022-01-09T09:12:16Z</time>
      </trkpt>
      <trkpt lat="42.82368" lon="0.25526">
        <ele>1730.2</ele>
        <time>2022-01-09T09:12:17Z</time>
      </trkpt>
      <trkpt lat="42.82368" lon="0.25526">
        <ele>1730.6</ele>
        <time>2022-01-09T09:12:18Z</time>
      </trkpt>
      <trkpt lat="42.82366" lon="0.25528">
        <ele>1731.2</ele>
        <time>2022-01-09T09:12:19Z</time>
      </trkpt>
      <trkpt lat="42.82366" lon="0.25528">
        <ele>1731.2</ele>
        <time>2022-01-09T09:12:20Z</time>
      </trkpt>
      <trkpt lat="42.82364" lon="0.25529">
        <ele>1731.8</ele>
        <time>2022-01-09T09:12:21Z</time>
      </trkpt>
      <trkpt lat="42.82364" lon="0.25529">
        <ele>1732</ele>
        <time>2022-01-09T09:12:22Z</time>
      </trkpt>
      <trkpt lat="42.82364" lon="0.25529">
        <ele>1732.4</ele>
        <time>2022-01-09T09:12:23Z</time>
      </trkpt>
      <trkpt lat="42.82362" lon="0.25532">
        <ele>1732.8</ele>
        <time>2022-01-09T09:12:24Z</time>
      </trkpt>
      <trkpt lat="42.82362" lon="0.25532">
        <ele>1733</ele>
        <time>2022-01-09T09:12:25Z</time>
      </trkpt>
      <trkpt lat="42.82359" lon="0.25534">
        <ele>1733.4</ele>
        <time>2022-01-09T09:12:26Z</time>
      </trkpt>
      <trkpt lat="42.82359" lon="0.25534">
        <ele>1733.6</ele>
        <time>2022-01-09T09:12:27Z</time>
      </trkpt>
      <trkpt lat="42.82359" lon="0.25534">
        <ele>1734</ele>
        <time>2022-01-09T09:12:28Z</time>
      </trkpt>
      <trkpt lat="42.82357" lon="0.25535">
        <ele>1734.6</ele>
        <time>2022-01-09T09:12:29Z</time>
      </trkpt>
      <trkpt lat="42.82357" lon="0.25535">
        <ele>1734.8</ele>
        <time>2022-01-09T09:12:30Z</time>
      </trkpt>
      <trkpt lat="42.82355" lon="0.25533">
        <ele>1735.2</ele>
        <time>2022-01-09T09:12:31Z</time>
      </trkpt>
      <trkpt lat="42.82355" lon="0.25532">
        <ele>1735.6</ele>
        <time>2022-01-09T09:12:32Z</time>
      </trkpt>
      <trkpt lat="42.82355" lon="0.2553">
        <ele>1735.8</ele>
        <time>2022-01-09T09:12:33Z</time>
      </trkpt>
      <trkpt lat="42.82355" lon="0.25529">
        <ele>1736.4</ele>
        <time>2022-01-09T09:12:34Z</time>
      </trkpt>
      <trkpt lat="42.82355" lon="0.25527">
        <ele>1736.6</ele>
        <time>2022-01-09T09:12:35Z</time>
      </trkpt>
      <trkpt lat="42.82355" lon="0.25526">
        <ele>1737</ele>
        <time>2022-01-09T09:12:36Z</time>
      </trkpt>
      <trkpt lat="42.82355" lon="0.25525">
        <ele>1737.2</ele>
        <time>2022-01-09T09:12:37Z</time>
      </trkpt>
      <trkpt lat="42.82355" lon="0.25523">
        <ele>1737.8</ele>
        <time>2022-01-09T09:12:38Z</time>
      </trkpt>
      <trkpt lat="42.82355" lon="0.25522">
        <ele>1738.2</ele>
        <time>2022-01-09T09:12:39Z</time>
      </trkpt>
      <trkpt lat="42.82355" lon="0.25521">
        <ele>1738.4</ele>
        <time>2022-01-09T09:12:40Z</time>
      </trkpt>
      <trkpt lat="42.82355" lon="0.25519">
        <ele>1738.8</ele>
        <time>2022-01-09T09:12:41Z</time>
      </trkpt>
      <trkpt lat="42.82355" lon="0.25517">
        <ele>1739.2</ele>
        <time>2022-01-09T09:12:42Z</time>
      </trkpt>
      <trkpt lat="42.82355" lon="0.25516">
        <ele>1739.4</ele>
        <time>2022-01-09T09:12:43Z</time>
      </trkpt>
      <trkpt lat="42.82355" lon="0.25514">
        <ele>1740.2</ele>
        <time>2022-01-09T09:12:44Z</time>
      </trkpt>
      <trkpt lat="42.82355" lon="0.25513">
        <ele>1740.4</ele>
        <time>2022-01-09T09:12:45Z</time>
      </trkpt>
      <trkpt lat="42.82354" lon="0.25511">
        <ele>1740.6</ele>
        <time>2022-01-09T09:12:46Z</time>
      </trkpt>
      <trkpt lat="42.82354" lon="0.2551">
        <ele>1740.8</ele>
        <time>2022-01-09T09:12:47Z</time>
      </trkpt>
      <trkpt lat="42.82354" lon="0.25508">
        <ele>1741.2</ele>
        <time>2022-01-09T09:12:48Z</time>
      </trkpt>
      <trkpt lat="42.82353" lon="0.25508">
        <ele>1741.4</ele>
        <time>2022-01-09T09:12:49Z</time>
      </trkpt>
      <trkpt lat="42.82352" lon="0.25509">
        <ele>1741.8</ele>
        <time>2022-01-09T09:12:50Z</time>
      </trkpt>
      <trkpt lat="42.82351" lon="0.25509">
        <ele>1742.2</ele>
        <time>2022-01-09T09:12:51Z</time>
      </trkpt>
      <trkpt lat="42.8235" lon="0.2551">
        <ele>1742.6</ele>
        <time>2022-01-09T09:12:52Z</time>
      </trkpt>
      <trkpt lat="42.82349" lon="0.2551">
        <ele>1742.8</ele>
        <time>2022-01-09T09:12:53Z</time>
      </trkpt>
      <trkpt lat="42.82348" lon="0.25511">
        <ele>1743.2</ele>
        <time>2022-01-09T09:12:54Z</time>
      </trkpt>
      <trkpt lat="42.82347" lon="0.25511">
        <ele>1743.6</ele>
        <time>2022-01-09T09:12:55Z</time>
      </trkpt>
      <trkpt lat="42.82346" lon="0.25512">
        <ele>1743.8</ele>
        <time>2022-01-09T09:12:56Z</time>
      </trkpt>
      <trkpt lat="42.82345" lon="0.25512">
        <ele>1744.2</ele>
        <time>2022-01-09T09:12:57Z</time>
      </trkpt>
      <trkpt lat="42.82345" lon="0.25512">
        <ele>1744.6</ele>
        <time>2022-01-09T09:12:58Z</time>
      </trkpt>
      <trkpt lat="42.82343" lon="0.25513">
        <ele>1744.8</ele>
        <time>2022-01-09T09:12:59Z</time>
      </trkpt>
      <trkpt lat="42.82343" lon="0.25513">
        <ele>1745.2</ele>
        <time>2022-01-09T09:13:00Z</time>
      </trkpt>
      <trkpt lat="42.8234" lon="0.25514">
        <ele>1745.6</ele>
        <time>2022-01-09T09:13:01Z</time>
      </trkpt>
      <trkpt lat="42.8234" lon="0.25514">
        <ele>1745.8</ele>
        <time>2022-01-09T09:13:02Z</time>
      </trkpt>
      <trkpt lat="42.82338" lon="0.25516">
        <ele>1746.4</ele>
        <time>2022-01-09T09:13:03Z</time>
      </trkpt>
      <trkpt lat="42.82338" lon="0.25516">
        <ele>1746.8</ele>
        <time>2022-01-09T09:13:04Z</time>
      </trkpt>
      <trkpt lat="42.82335" lon="0.25516">
        <ele>1747</ele>
        <time>2022-01-09T09:13:05Z</time>
      </trkpt>
      <trkpt lat="42.82335" lon="0.25516">
        <ele>1747.2</ele>
        <time>2022-01-09T09:13:06Z</time>
      </trkpt>
      <trkpt lat="42.82335" lon="0.25516">
        <ele>1747.4</ele>
        <time>2022-01-09T09:13:07Z</time>
      </trkpt>
      <trkpt lat="42.82333" lon="0.25518">
        <ele>1747.6</ele>
        <time>2022-01-09T09:13:08Z</time>
      </trkpt>
      <trkpt lat="42.82333" lon="0.25518">
        <ele>1748.4</ele>
        <time>2022-01-09T09:13:09Z</time>
      </trkpt>
      <trkpt lat="42.82333" lon="0.25518">
        <ele>1748.8</ele>
        <time>2022-01-09T09:13:10Z</time>
      </trkpt>
      <trkpt lat="42.82332" lon="0.25516">
        <ele>1749</ele>
        <time>2022-01-09T09:13:11Z</time>
      </trkpt>
      <trkpt lat="42.82332" lon="0.25514">
        <ele>1749.6</ele>
        <time>2022-01-09T09:13:12Z</time>
      </trkpt>
      <trkpt lat="42.82332" lon="0.25512">
        <ele>1750</ele>
        <time>2022-01-09T09:13:13Z</time>
      </trkpt>
      <trkpt lat="42.82332" lon="0.2551">
        <ele>1750.4</ele>
        <time>2022-01-09T09:13:14Z</time>
      </trkpt>
      <trkpt lat="42.82332" lon="0.25509">
        <ele>1750.4</ele>
        <time>2022-01-09T09:13:15Z</time>
      </trkpt>
      <trkpt lat="42.82332" lon="0.25507">
        <ele>1751.2</ele>
        <time>2022-01-09T09:13:16Z</time>
      </trkpt>
      <trkpt lat="42.82333" lon="0.25505">
        <ele>1751.4</ele>
        <time>2022-01-09T09:13:17Z</time>
      </trkpt>
      <trkpt lat="42.82333" lon="0.25503">
        <ele>1751.6</ele>
        <time>2022-01-09T09:13:18Z</time>
      </trkpt>
      <trkpt lat="42.82333" lon="0.25502">
        <ele>1751.8</ele>
        <time>2022-01-09T09:13:19Z</time>
      </trkpt>
      <trkpt lat="42.82333" lon="0.255">
        <ele>1752.2</ele>
        <time>2022-01-09T09:13:20Z</time>
      </trkpt>
      <trkpt lat="42.82334" lon="0.25499">
        <ele>1752.4</ele>
        <time>2022-01-09T09:13:21Z</time>
      </trkpt>
      <trkpt lat="42.82334" lon="0.25497">
        <ele>1752.8</ele>
        <time>2022-01-09T09:13:22Z</time>
      </trkpt>
      <trkpt lat="42.82334" lon="0.25496">
        <ele>1753</ele>
        <time>2022-01-09T09:13:23Z</time>
      </trkpt>
      <trkpt lat="42.82335" lon="0.25494">
        <ele>1753.8</ele>
        <time>2022-01-09T09:13:24Z</time>
      </trkpt>
      <trkpt lat="42.82335" lon="0.25493">
        <ele>1754</ele>
        <time>2022-01-09T09:13:25Z</time>
      </trkpt>
      <trkpt lat="42.82335" lon="0.25492">
        <ele>1754.4</ele>
        <time>2022-01-09T09:13:26Z</time>
      </trkpt>
      <trkpt lat="42.82335" lon="0.25491">
        <ele>1754.6</ele>
        <time>2022-01-09T09:13:27Z</time>
      </trkpt>
      <trkpt lat="42.82336" lon="0.2549">
        <ele>1754.8</ele>
        <time>2022-01-09T09:13:28Z</time>
      </trkpt>
      <trkpt lat="42.82336" lon="0.25489">
        <ele>1755.4</ele>
        <time>2022-01-09T09:13:29Z</time>
      </trkpt>
      <trkpt lat="42.82336" lon="0.25488">
        <ele>1755.8</ele>
        <time>2022-01-09T09:13:30Z</time>
      </trkpt>
      <trkpt lat="42.82336" lon="0.25487">
        <ele>1756</ele>
        <time>2022-01-09T09:13:31Z</time>
      </trkpt>
      <trkpt lat="42.82336" lon="0.25486">
        <ele>1756.4</ele>
        <time>2022-01-09T09:13:32Z</time>
      </trkpt>
      <trkpt lat="42.82336" lon="0.25486">
        <ele>1756.6</ele>
        <time>2022-01-09T09:13:33Z</time>
      </trkpt>
      <trkpt lat="42.82336" lon="0.25485">
        <ele>1757</ele>
        <time>2022-01-09T09:13:34Z</time>
      </trkpt>
      <trkpt lat="42.82337" lon="0.25476">
        <ele>1757.4</ele>
        <time>2022-01-09T09:13:35Z</time>
      </trkpt>
      <trkpt lat="42.82337" lon="0.25474">
        <ele>1757.8</ele>
        <time>2022-01-09T09:13:36Z</time>
      </trkpt>
      <trkpt lat="42.82336" lon="0.25472">
        <ele>1758</ele>
        <time>2022-01-09T09:13:37Z</time>
      </trkpt>
      <trkpt lat="42.82336" lon="0.2547">
        <ele>1758.4</ele>
        <time>2022-01-09T09:13:38Z</time>
      </trkpt>
      <trkpt lat="42.82336" lon="0.25468">
        <ele>1758.8</ele>
        <time>2022-01-09T09:13:39Z</time>
      </trkpt>
      <trkpt lat="42.82335" lon="0.25466">
        <ele>1759</ele>
        <time>2022-01-09T09:13:40Z</time>
      </trkpt>
      <trkpt lat="42.82336" lon="0.25464">
        <ele>1760</ele>
        <time>2022-01-09T09:13:41Z</time>
      </trkpt>
      <trkpt lat="42.82336" lon="0.25462">
        <ele>1760.4</ele>
        <time>2022-01-09T09:13:42Z</time>
      </trkpt>
      <trkpt lat="42.82337" lon="0.25459">
        <ele>1760.4</ele>
        <time>2022-01-09T09:13:43Z</time>
      </trkpt>
      <trkpt lat="42.82338" lon="0.25457">
        <ele>1760.2</ele>
        <time>2022-01-09T09:13:44Z</time>
      </trkpt>
      <trkpt lat="42.82338" lon="0.25455">
        <ele>1760.2</ele>
        <time>2022-01-09T09:13:45Z</time>
      </trkpt>
      <trkpt lat="42.82339" lon="0.25453">
        <ele>1760.6</ele>
        <time>2022-01-09T09:13:46Z</time>
      </trkpt>
      <trkpt lat="42.82339" lon="0.2545">
        <ele>1760.8</ele>
        <time>2022-01-09T09:13:47Z</time>
      </trkpt>
      <trkpt lat="42.8234" lon="0.25448">
        <ele>1761.2</ele>
        <time>2022-01-09T09:13:48Z</time>
      </trkpt>
      <trkpt lat="42.82341" lon="0.25446">
        <ele>1761.2</ele>
        <time>2022-01-09T09:13:49Z</time>
      </trkpt>
      <trkpt lat="42.82341" lon="0.25443">
        <ele>1761.4</ele>
        <time>2022-01-09T09:13:50Z</time>
      </trkpt>
      <trkpt lat="42.82342" lon="0.25441">
        <ele>1761.8</ele>
        <time>2022-01-09T09:13:51Z</time>
      </trkpt>
      <trkpt lat="42.82343" lon="0.25439">
        <ele>1762</ele>
        <time>2022-01-09T09:13:52Z</time>
      </trkpt>
      <trkpt lat="42.82344" lon="0.25437">
        <ele>1762.4</ele>
        <time>2022-01-09T09:13:53Z</time>
      </trkpt>
      <trkpt lat="42.82345" lon="0.25434">
        <ele>1762.6</ele>
        <time>2022-01-09T09:13:54Z</time>
      </trkpt>
      <trkpt lat="42.82346" lon="0.25432">
        <ele>1762.8</ele>
        <time>2022-01-09T09:13:55Z</time>
      </trkpt>
      <trkpt lat="42.82348" lon="0.2543">
        <ele>1762.8</ele>
        <time>2022-01-09T09:13:56Z</time>
      </trkpt>
      <trkpt lat="42.82348" lon="0.25428">
        <ele>1763</ele>
        <time>2022-01-09T09:13:57Z</time>
      </trkpt>
      <trkpt lat="42.82349" lon="0.25426">
        <ele>1763.2</ele>
        <time>2022-01-09T09:13:58Z</time>
      </trkpt>
      <trkpt lat="42.82349" lon="0.25424">
        <ele>1763.8</ele>
        <time>2022-01-09T09:13:59Z</time>
      </trkpt>
      <trkpt lat="42.8235" lon="0.25422">
        <ele>1764</ele>
        <time>2022-01-09T09:14:00Z</time>
      </trkpt>
      <trkpt lat="42.8235" lon="0.2542">
        <ele>1764.4</ele>
        <time>2022-01-09T09:14:01Z</time>
      </trkpt>
      <trkpt lat="42.82351" lon="0.25418">
        <ele>1764.2</ele>
        <time>2022-01-09T09:14:02Z</time>
      </trkpt>
      <trkpt lat="42.82352" lon="0.25417">
        <ele>1764.6</ele>
        <time>2022-01-09T09:14:03Z</time>
      </trkpt>
      <trkpt lat="42.82352" lon="0.25415">
        <ele>1764.6</ele>
        <time>2022-01-09T09:14:04Z</time>
      </trkpt>
      <trkpt lat="42.82353" lon="0.25413">
        <ele>1765</ele>
        <time>2022-01-09T09:14:05Z</time>
      </trkpt>
      <trkpt lat="42.82354" lon="0.25412">
        <ele>1765</ele>
        <time>2022-01-09T09:14:06Z</time>
      </trkpt>
      <trkpt lat="42.82355" lon="0.2541">
        <ele>1765.4</ele>
        <time>2022-01-09T09:14:07Z</time>
      </trkpt>
      <trkpt lat="42.82355" lon="0.25408">
        <ele>1765.6</ele>
        <time>2022-01-09T09:14:08Z</time>
      </trkpt>
      <trkpt lat="42.82356" lon="0.25407">
        <ele>1765.8</ele>
        <time>2022-01-09T09:14:09Z</time>
      </trkpt>
      <trkpt lat="42.82356" lon="0.25407">
        <ele>1766</ele>
        <time>2022-01-09T09:14:10Z</time>
      </trkpt>
      <trkpt lat="42.82357" lon="0.25404">
        <ele>1766.2</ele>
        <time>2022-01-09T09:14:11Z</time>
      </trkpt>
      <trkpt lat="42.82358" lon="0.25402">
        <ele>1766.8</ele>
        <time>2022-01-09T09:14:12Z</time>
      </trkpt>
      <trkpt lat="42.82359" lon="0.254">
        <ele>1767.2</ele>
        <time>2022-01-09T09:14:13Z</time>
      </trkpt>
      <trkpt lat="42.8236" lon="0.25399">
        <ele>1767.4</ele>
        <time>2022-01-09T09:14:14Z</time>
      </trkpt>
      <trkpt lat="42.82361" lon="0.25397">
        <ele>1767.6</ele>
        <time>2022-01-09T09:14:15Z</time>
      </trkpt>
      <trkpt lat="42.82362" lon="0.25395">
        <ele>1767.8</ele>
        <time>2022-01-09T09:14:16Z</time>
      </trkpt>
      <trkpt lat="42.82363" lon="0.25393">
        <ele>1768.2</ele>
        <time>2022-01-09T09:14:17Z</time>
      </trkpt>
      <trkpt lat="42.82364" lon="0.25392">
        <ele>1768.2</ele>
        <time>2022-01-09T09:14:18Z</time>
      </trkpt>
      <trkpt lat="42.82365" lon="0.2539">
        <ele>1768.6</ele>
        <time>2022-01-09T09:14:19Z</time>
      </trkpt>
      <trkpt lat="42.82366" lon="0.25389">
        <ele>1768.6</ele>
        <time>2022-01-09T09:14:20Z</time>
      </trkpt>
      <trkpt lat="42.82367" lon="0.25387">
        <ele>1769</ele>
        <time>2022-01-09T09:14:21Z</time>
      </trkpt>
      <trkpt lat="42.82368" lon="0.25385">
        <ele>1769.4</ele>
        <time>2022-01-09T09:14:22Z</time>
      </trkpt>
      <trkpt lat="42.82368" lon="0.25384">
        <ele>1769.6</ele>
        <time>2022-01-09T09:14:23Z</time>
      </trkpt>
      <trkpt lat="42.8237" lon="0.25382">
        <ele>1769.6</ele>
        <time>2022-01-09T09:14:24Z</time>
      </trkpt>
      <trkpt lat="42.82371" lon="0.2538">
        <ele>1769.8</ele>
        <time>2022-01-09T09:14:25Z</time>
      </trkpt>
      <trkpt lat="42.82372" lon="0.25378">
        <ele>1770.2</ele>
        <time>2022-01-09T09:14:26Z</time>
      </trkpt>
      <trkpt lat="42.82373" lon="0.25376">
        <ele>1770.6</ele>
        <time>2022-01-09T09:14:27Z</time>
      </trkpt>
      <trkpt lat="42.82374" lon="0.25375">
        <ele>1770.8</ele>
        <time>2022-01-09T09:14:28Z</time>
      </trkpt>
      <trkpt lat="42.82375" lon="0.25373">
        <ele>1771.2</ele>
        <time>2022-01-09T09:14:29Z</time>
      </trkpt>
      <trkpt lat="42.82376" lon="0.25372">
        <ele>1771.4</ele>
        <time>2022-01-09T09:14:30Z</time>
      </trkpt>
      <trkpt lat="42.82378" lon="0.2537">
        <ele>1771.8</ele>
        <time>2022-01-09T09:14:31Z</time>
      </trkpt>
      <trkpt lat="42.82379" lon="0.25369">
        <ele>1772</ele>
        <time>2022-01-09T09:14:32Z</time>
      </trkpt>
      <trkpt lat="42.8238" lon="0.25368">
        <ele>1772.2</ele>
        <time>2022-01-09T09:14:33Z</time>
      </trkpt>
      <trkpt lat="42.82381" lon="0.25366">
        <ele>1772.8</ele>
        <time>2022-01-09T09:14:34Z</time>
      </trkpt>
      <trkpt lat="42.82382" lon="0.25364">
        <ele>1773.2</ele>
        <time>2022-01-09T09:14:35Z</time>
      </trkpt>
      <trkpt lat="42.82384" lon="0.25362">
        <ele>1773.6</ele>
        <time>2022-01-09T09:14:36Z</time>
      </trkpt>
      <trkpt lat="42.82385" lon="0.2536">
        <ele>1773.8</ele>
        <time>2022-01-09T09:14:37Z</time>
      </trkpt>
      <trkpt lat="42.82386" lon="0.25359">
        <ele>1774</ele>
        <time>2022-01-09T09:14:38Z</time>
      </trkpt>
      <trkpt lat="42.82387" lon="0.25357">
        <ele>1774</ele>
        <time>2022-01-09T09:14:39Z</time>
      </trkpt>
      <trkpt lat="42.82388" lon="0.25356">
        <ele>1774.6</ele>
        <time>2022-01-09T09:14:40Z</time>
      </trkpt>
      <trkpt lat="42.82389" lon="0.25354">
        <ele>1775</ele>
        <time>2022-01-09T09:14:41Z</time>
      </trkpt>
      <trkpt lat="42.82389" lon="0.25353">
        <ele>1775</ele>
        <time>2022-01-09T09:14:42Z</time>
      </trkpt>
      <trkpt lat="42.8239" lon="0.25351">
        <ele>1775.2</ele>
        <time>2022-01-09T09:14:43Z</time>
      </trkpt>
      <trkpt lat="42.82391" lon="0.25349">
        <ele>1775.6</ele>
        <time>2022-01-09T09:14:44Z</time>
      </trkpt>
      <trkpt lat="42.82392" lon="0.25348">
        <ele>1775.6</ele>
        <time>2022-01-09T09:14:45Z</time>
      </trkpt>
      <trkpt lat="42.82392" lon="0.25346">
        <ele>1776.2</ele>
        <time>2022-01-09T09:14:46Z</time>
      </trkpt>
      <trkpt lat="42.82393" lon="0.25345">
        <ele>1776.4</ele>
        <time>2022-01-09T09:14:47Z</time>
      </trkpt>
      <trkpt lat="42.82394" lon="0.25343">
        <ele>1776.6</ele>
        <time>2022-01-09T09:14:48Z</time>
      </trkpt>
      <trkpt lat="42.82394" lon="0.25342">
        <ele>1776.8</ele>
        <time>2022-01-09T09:14:49Z</time>
      </trkpt>
      <trkpt lat="42.82395" lon="0.2534">
        <ele>1777</ele>
        <time>2022-01-09T09:14:50Z</time>
      </trkpt>
      <trkpt lat="42.82396" lon="0.25339">
        <ele>1777.2</ele>
        <time>2022-01-09T09:14:51Z</time>
      </trkpt>
      <trkpt lat="42.82396" lon="0.25337">
        <ele>1777.6</ele>
        <time>2022-01-09T09:14:52Z</time>
      </trkpt>
      <trkpt lat="42.82396" lon="0.25337">
        <ele>1777.8</ele>
        <time>2022-01-09T09:14:53Z</time>
      </trkpt>
      <trkpt lat="42.82398" lon="0.25335">
        <ele>1777.8</ele>
        <time>2022-01-09T09:14:54Z</time>
      </trkpt>
      <trkpt lat="42.82399" lon="0.25333">
        <ele>1778.4</ele>
        <time>2022-01-09T09:14:55Z</time>
      </trkpt>
      <trkpt lat="42.824" lon="0.25332">
        <ele>1778.6</ele>
        <time>2022-01-09T09:14:56Z</time>
      </trkpt>
      <trkpt lat="42.82401" lon="0.2533">
        <ele>1779</ele>
        <time>2022-01-09T09:14:57Z</time>
      </trkpt>
      <trkpt lat="42.82401" lon="0.2533">
        <ele>1779.4</ele>
        <time>2022-01-09T09:14:58Z</time>
      </trkpt>
      <trkpt lat="42.82403" lon="0.25327">
        <ele>1779.6</ele>
        <time>2022-01-09T09:14:59Z</time>
      </trkpt>
      <trkpt lat="42.82403" lon="0.25327">
        <ele>1779.8</ele>
        <time>2022-01-09T09:15:00Z</time>
      </trkpt>
      <trkpt lat="42.82406" lon="0.25324">
        <ele>1780</ele>
        <time>2022-01-09T09:15:01Z</time>
      </trkpt>
      <trkpt lat="42.82408" lon="0.25323">
        <ele>1780.6</ele>
        <time>2022-01-09T09:15:02Z</time>
      </trkpt>
      <trkpt lat="42.82409" lon="0.25321">
        <ele>1780.8</ele>
        <time>2022-01-09T09:15:03Z</time>
      </trkpt>
      <trkpt lat="42.82409" lon="0.25321">
        <ele>1781.2</ele>
        <time>2022-01-09T09:15:04Z</time>
      </trkpt>
      <trkpt lat="42.82412" lon="0.25319">
        <ele>1781.6</ele>
        <time>2022-01-09T09:15:05Z</time>
      </trkpt>
      <trkpt lat="42.82413" lon="0.25317">
        <ele>1782</ele>
        <time>2022-01-09T09:15:06Z</time>
      </trkpt>
      <trkpt lat="42.82414" lon="0.25317">
        <ele>1782.6</ele>
        <time>2022-01-09T09:15:07Z</time>
      </trkpt>
      <trkpt lat="42.82415" lon="0.25316">
        <ele>1783</ele>
        <time>2022-01-09T09:15:08Z</time>
      </trkpt>
      <trkpt lat="42.82415" lon="0.25315">
        <ele>1783.2</ele>
        <time>2022-01-09T09:15:09Z</time>
      </trkpt>
      <trkpt lat="42.82416" lon="0.25314">
        <ele>1783.6</ele>
        <time>2022-01-09T09:15:10Z</time>
      </trkpt>
      <trkpt lat="42.82417" lon="0.25313">
        <ele>1784</ele>
        <time>2022-01-09T09:15:11Z</time>
      </trkpt>
      <trkpt lat="42.82417" lon="0.25313">
        <ele>1784.4</ele>
        <time>2022-01-09T09:15:12Z</time>
      </trkpt>
      <trkpt lat="42.82423" lon="0.25306">
        <ele>1784.4</ele>
        <time>2022-01-09T09:15:13Z</time>
      </trkpt>
      <trkpt lat="42.82425" lon="0.25305">
        <ele>1784.8</ele>
        <time>2022-01-09T09:15:14Z</time>
      </trkpt>
      <trkpt lat="42.82426" lon="0.25303">
        <ele>1785</ele>
        <time>2022-01-09T09:15:15Z</time>
      </trkpt>
      <trkpt lat="42.82428" lon="0.25302">
        <ele>1785.6</ele>
        <time>2022-01-09T09:15:16Z</time>
      </trkpt>
      <trkpt lat="42.8243" lon="0.253">
        <ele>1786</ele>
        <time>2022-01-09T09:15:17Z</time>
      </trkpt>
      <trkpt lat="42.82431" lon="0.25298">
        <ele>1786</ele>
        <time>2022-01-09T09:15:18Z</time>
      </trkpt>
      <trkpt lat="42.82433" lon="0.25297">
        <ele>1786.4</ele>
        <time>2022-01-09T09:15:19Z</time>
      </trkpt>
      <trkpt lat="42.82434" lon="0.25295">
        <ele>1786.8</ele>
        <time>2022-01-09T09:15:20Z</time>
      </trkpt>
      <trkpt lat="42.82436" lon="0.25293">
        <ele>1786.8</ele>
        <time>2022-01-09T09:15:21Z</time>
      </trkpt>
      <trkpt lat="42.82437" lon="0.25292">
        <ele>1787.4</ele>
        <time>2022-01-09T09:15:22Z</time>
      </trkpt>
      <trkpt lat="42.82438" lon="0.25291">
        <ele>1788</ele>
        <time>2022-01-09T09:15:23Z</time>
      </trkpt>
      <trkpt lat="42.82439" lon="0.25289">
        <ele>1788.6</ele>
        <time>2022-01-09T09:15:24Z</time>
      </trkpt>
      <trkpt lat="42.8244" lon="0.25288">
        <ele>1789</ele>
        <time>2022-01-09T09:15:25Z</time>
      </trkpt>
      <trkpt lat="42.82441" lon="0.25287">
        <ele>1789</ele>
        <time>2022-01-09T09:15:26Z</time>
      </trkpt>
      <trkpt lat="42.82442" lon="0.25286">
        <ele>1789.2</ele>
        <time>2022-01-09T09:15:27Z</time>
      </trkpt>
      <trkpt lat="42.82443" lon="0.25284">
        <ele>1789.4</ele>
        <time>2022-01-09T09:15:28Z</time>
      </trkpt>
      <trkpt lat="42.82444" lon="0.25283">
        <ele>1789.6</ele>
        <time>2022-01-09T09:15:29Z</time>
      </trkpt>
      <trkpt lat="42.82445" lon="0.25282">
        <ele>1789.8</ele>
        <time>2022-01-09T09:15:30Z</time>
      </trkpt>
      <trkpt lat="42.82446" lon="0.25282">
        <ele>1790.4</ele>
        <time>2022-01-09T09:15:31Z</time>
      </trkpt>
      <trkpt lat="42.82446" lon="0.25281">
        <ele>1790.8</ele>
        <time>2022-01-09T09:15:32Z</time>
      </trkpt>
      <trkpt lat="42.82447" lon="0.2528">
        <ele>1790.8</ele>
        <time>2022-01-09T09:15:33Z</time>
      </trkpt>
      <trkpt lat="42.82447" lon="0.2528">
        <ele>1791.2</ele>
        <time>2022-01-09T09:15:34Z</time>
      </trkpt>
      <trkpt lat="42.82448" lon="0.25279">
        <ele>1791.2</ele>
        <time>2022-01-09T09:15:35Z</time>
      </trkpt>
      <trkpt lat="42.82449" lon="0.25279">
        <ele>1791.6</ele>
        <time>2022-01-09T09:15:36Z</time>
      </trkpt>
      <trkpt lat="42.82454" lon="0.25273">
        <ele>1791.8</ele>
        <time>2022-01-09T09:15:37Z</time>
      </trkpt>
      <trkpt lat="42.82455" lon="0.25271">
        <ele>1792.2</ele>
        <time>2022-01-09T09:15:38Z</time>
      </trkpt>
      <trkpt lat="42.82456" lon="0.2527">
        <ele>1792.6</ele>
        <time>2022-01-09T09:15:39Z</time>
      </trkpt>
      <trkpt lat="42.82457" lon="0.25268">
        <ele>1793</ele>
        <time>2022-01-09T09:15:40Z</time>
      </trkpt>
      <trkpt lat="42.82458" lon="0.25266">
        <ele>1793</ele>
        <time>2022-01-09T09:15:41Z</time>
      </trkpt>
      <trkpt lat="42.82459" lon="0.25265">
        <ele>1793.6</ele>
        <time>2022-01-09T09:15:42Z</time>
      </trkpt>
      <trkpt lat="42.8246" lon="0.25264">
        <ele>1793.8</ele>
        <time>2022-01-09T09:15:43Z</time>
      </trkpt>
      <trkpt lat="42.82461" lon="0.25262">
        <ele>1794.2</ele>
        <time>2022-01-09T09:15:44Z</time>
      </trkpt>
      <trkpt lat="42.82462" lon="0.25261">
        <ele>1794.6</ele>
        <time>2022-01-09T09:15:45Z</time>
      </trkpt>
      <trkpt lat="42.82463" lon="0.2526">
        <ele>1795</ele>
        <time>2022-01-09T09:15:46Z</time>
      </trkpt>
      <trkpt lat="42.82464" lon="0.25258">
        <ele>1795.2</ele>
        <time>2022-01-09T09:15:47Z</time>
      </trkpt>
      <trkpt lat="42.82465" lon="0.25257">
        <ele>1795.6</ele>
        <time>2022-01-09T09:15:48Z</time>
      </trkpt>
      <trkpt lat="42.82466" lon="0.25256">
        <ele>1796</ele>
        <time>2022-01-09T09:15:49Z</time>
      </trkpt>
      <trkpt lat="42.82467" lon="0.25254">
        <ele>1796</ele>
        <time>2022-01-09T09:15:50Z</time>
      </trkpt>
      <trkpt lat="42.82468" lon="0.25253">
        <ele>1796.2</ele>
        <time>2022-01-09T09:15:51Z</time>
      </trkpt>
      <trkpt lat="42.82469" lon="0.25251">
        <ele>1796.8</ele>
        <time>2022-01-09T09:15:52Z</time>
      </trkpt>
      <trkpt lat="42.8247" lon="0.2525">
        <ele>1797.2</ele>
        <time>2022-01-09T09:15:53Z</time>
      </trkpt>
      <trkpt lat="42.8247" lon="0.25249">
        <ele>1797.6</ele>
        <time>2022-01-09T09:15:54Z</time>
      </trkpt>
      <trkpt lat="42.82471" lon="0.25247">
        <ele>1797.8</ele>
        <time>2022-01-09T09:15:55Z</time>
      </trkpt>
      <trkpt lat="42.82472" lon="0.25246">
        <ele>1798.2</ele>
        <time>2022-01-09T09:15:56Z</time>
      </trkpt>
      <trkpt lat="42.82472" lon="0.25244">
        <ele>1798.2</ele>
        <time>2022-01-09T09:15:57Z</time>
      </trkpt>
      <trkpt lat="42.82473" lon="0.25243">
        <ele>1798.6</ele>
        <time>2022-01-09T09:15:58Z</time>
      </trkpt>
      <trkpt lat="42.82474" lon="0.25241">
        <ele>1798.6</ele>
        <time>2022-01-09T09:15:59Z</time>
      </trkpt>
      <trkpt lat="42.82475" lon="0.2524">
        <ele>1799</ele>
        <time>2022-01-09T09:16:00Z</time>
      </trkpt>
      <trkpt lat="42.82475" lon="0.25239">
        <ele>1799</ele>
        <time>2022-01-09T09:16:01Z</time>
      </trkpt>
      <trkpt lat="42.82476" lon="0.25237">
        <ele>1799.6</ele>
        <time>2022-01-09T09:16:02Z</time>
      </trkpt>
      <trkpt lat="42.82477" lon="0.25236">
        <ele>1799.8</ele>
        <time>2022-01-09T09:16:03Z</time>
      </trkpt>
      <trkpt lat="42.82478" lon="0.25234">
        <ele>1800.2</ele>
        <time>2022-01-09T09:16:04Z</time>
      </trkpt>
      <trkpt lat="42.82478" lon="0.25234">
        <ele>1800.4</ele>
        <time>2022-01-09T09:16:05Z</time>
      </trkpt>
      <trkpt lat="42.82478" lon="0.25233">
        <ele>1800.8</ele>
        <time>2022-01-09T09:16:06Z</time>
      </trkpt>
      <trkpt lat="42.82479" lon="0.25232">
        <ele>1801</ele>
        <time>2022-01-09T09:16:07Z</time>
      </trkpt>
      <trkpt lat="42.82479" lon="0.25231">
        <ele>1801.4</ele>
        <time>2022-01-09T09:16:08Z</time>
      </trkpt>
      <trkpt lat="42.8248" lon="0.2523">
        <ele>1801.4</ele>
        <time>2022-01-09T09:16:09Z</time>
      </trkpt>
      <trkpt lat="42.8248" lon="0.25229">
        <ele>1801.8</ele>
        <time>2022-01-09T09:16:10Z</time>
      </trkpt>
      <trkpt lat="42.8248" lon="0.25228">
        <ele>1802.2</ele>
        <time>2022-01-09T09:16:11Z</time>
      </trkpt>
      <trkpt lat="42.82484" lon="0.25221">
        <ele>1802.6</ele>
        <time>2022-01-09T09:16:12Z</time>
      </trkpt>
      <trkpt lat="42.82484" lon="0.25219">
        <ele>1802.8</ele>
        <time>2022-01-09T09:16:13Z</time>
      </trkpt>
      <trkpt lat="42.82485" lon="0.25217">
        <ele>1803.2</ele>
        <time>2022-01-09T09:16:14Z</time>
      </trkpt>
      <trkpt lat="42.82485" lon="0.25215">
        <ele>1803.6</ele>
        <time>2022-01-09T09:16:15Z</time>
      </trkpt>
      <trkpt lat="42.82486" lon="0.25213">
        <ele>1803.8</ele>
        <time>2022-01-09T09:16:16Z</time>
      </trkpt>
      <trkpt lat="42.82487" lon="0.25211">
        <ele>1804.2</ele>
        <time>2022-01-09T09:16:17Z</time>
      </trkpt>
      <trkpt lat="42.82488" lon="0.25209">
        <ele>1804.4</ele>
        <time>2022-01-09T09:16:18Z</time>
      </trkpt>
      <trkpt lat="42.82489" lon="0.25207">
        <ele>1804.8</ele>
        <time>2022-01-09T09:16:19Z</time>
      </trkpt>
      <trkpt lat="42.8249" lon="0.25205">
        <ele>1805</ele>
        <time>2022-01-09T09:16:20Z</time>
      </trkpt>
      <trkpt lat="42.82491" lon="0.25203">
        <ele>1805.2</ele>
        <time>2022-01-09T09:16:21Z</time>
      </trkpt>
      <trkpt lat="42.82492" lon="0.25201">
        <ele>1805.4</ele>
        <time>2022-01-09T09:16:22Z</time>
      </trkpt>
      <trkpt lat="42.82493" lon="0.25199">
        <ele>1805.8</ele>
        <time>2022-01-09T09:16:23Z</time>
      </trkpt>
      <trkpt lat="42.82493" lon="0.25198">
        <ele>1806</ele>
        <time>2022-01-09T09:16:24Z</time>
      </trkpt>
      <trkpt lat="42.82494" lon="0.25196">
        <ele>1806.4</ele>
        <time>2022-01-09T09:16:25Z</time>
      </trkpt>
      <trkpt lat="42.82494" lon="0.25194">
        <ele>1806.8</ele>
        <time>2022-01-09T09:16:26Z</time>
      </trkpt>
      <trkpt lat="42.82494" lon="0.25194">
        <ele>1807.2</ele>
        <time>2022-01-09T09:16:27Z</time>
      </trkpt>
      <trkpt lat="42.82494" lon="0.25192">
        <ele>1807.2</ele>
        <time>2022-01-09T09:16:28Z</time>
      </trkpt>
      <trkpt lat="42.82495" lon="0.2519">
        <ele>1807.4</ele>
        <time>2022-01-09T09:16:29Z</time>
      </trkpt>
      <trkpt lat="42.82496" lon="0.25188">
        <ele>1807.8</ele>
        <time>2022-01-09T09:16:30Z</time>
      </trkpt>
      <trkpt lat="42.82497" lon="0.25186">
        <ele>1808.2</ele>
        <time>2022-01-09T09:16:31Z</time>
      </trkpt>
      <trkpt lat="42.82497" lon="0.25184">
        <ele>1808.6</ele>
        <time>2022-01-09T09:16:32Z</time>
      </trkpt>
      <trkpt lat="42.82498" lon="0.25182">
        <ele>1808.8</ele>
        <time>2022-01-09T09:16:33Z</time>
      </trkpt>
      <trkpt lat="42.82499" lon="0.2518">
        <ele>1809.4</ele>
        <time>2022-01-09T09:16:34Z</time>
      </trkpt>
      <trkpt lat="42.825" lon="0.25178">
        <ele>1809.8</ele>
        <time>2022-01-09T09:16:35Z</time>
      </trkpt>
      <trkpt lat="42.825" lon="0.25177">
        <ele>1810</ele>
        <time>2022-01-09T09:16:36Z</time>
      </trkpt>
      <trkpt lat="42.82501" lon="0.25175">
        <ele>1810.4</ele>
        <time>2022-01-09T09:16:37Z</time>
      </trkpt>
      <trkpt lat="42.82502" lon="0.25173">
        <ele>1810.6</ele>
        <time>2022-01-09T09:16:38Z</time>
      </trkpt>
      <trkpt lat="42.82502" lon="0.25172">
        <ele>1810.8</ele>
        <time>2022-01-09T09:16:39Z</time>
      </trkpt>
      <trkpt lat="42.82503" lon="0.2517">
        <ele>1811</ele>
        <time>2022-01-09T09:16:40Z</time>
      </trkpt>
      <trkpt lat="42.82503" lon="0.2517">
        <ele>1811.4</ele>
        <time>2022-01-09T09:16:41Z</time>
      </trkpt>
      <trkpt lat="42.82504" lon="0.25166">
        <ele>1811.8</ele>
        <time>2022-01-09T09:16:42Z</time>
      </trkpt>
      <trkpt lat="42.82504" lon="0.25166">
        <ele>1812</ele>
        <time>2022-01-09T09:16:43Z</time>
      </trkpt>
      <trkpt lat="42.82505" lon="0.25162">
        <ele>1812.2</ele>
        <time>2022-01-09T09:16:44Z</time>
      </trkpt>
      <trkpt lat="42.82506" lon="0.25161">
        <ele>1812.4</ele>
        <time>2022-01-09T09:16:45Z</time>
      </trkpt>
      <trkpt lat="42.82506" lon="0.2516">
        <ele>1812.8</ele>
        <time>2022-01-09T09:16:46Z</time>
      </trkpt>
      <trkpt lat="42.82507" lon="0.25159">
        <ele>1813</ele>
        <time>2022-01-09T09:16:47Z</time>
      </trkpt>
      <trkpt lat="42.82507" lon="0.25158">
        <ele>1813</ele>
        <time>2022-01-09T09:16:48Z</time>
      </trkpt>
      <trkpt lat="42.82508" lon="0.25157">
        <ele>1813.2</ele>
        <time>2022-01-09T09:16:49Z</time>
      </trkpt>
      <trkpt lat="42.82508" lon="0.25156">
        <ele>1813.6</ele>
        <time>2022-01-09T09:16:50Z</time>
      </trkpt>
      <trkpt lat="42.82512" lon="0.25147">
        <ele>1813.4</ele>
        <time>2022-01-09T09:16:51Z</time>
      </trkpt>
      <trkpt lat="42.82513" lon="0.25144">
        <ele>1813.6</ele>
        <time>2022-01-09T09:16:52Z</time>
      </trkpt>
      <trkpt lat="42.82514" lon="0.2514">
        <ele>1813.4</ele>
        <time>2022-01-09T09:16:53Z</time>
      </trkpt>
      <trkpt lat="42.82514" lon="0.25137">
        <ele>1813.4</ele>
        <time>2022-01-09T09:16:54Z</time>
      </trkpt>
      <trkpt lat="42.82515" lon="0.25135">
        <ele>1813.8</ele>
        <time>2022-01-09T09:16:55Z</time>
      </trkpt>
      <trkpt lat="42.82515" lon="0.25133">
        <ele>1813.8</ele>
        <time>2022-01-09T09:16:56Z</time>
      </trkpt>
      <trkpt lat="42.82516" lon="0.25132">
        <ele>1814</ele>
        <time>2022-01-09T09:16:57Z</time>
      </trkpt>
      <trkpt lat="42.82516" lon="0.2513">
        <ele>1814</ele>
        <time>2022-01-09T09:16:58Z</time>
      </trkpt>
      <trkpt lat="42.82518" lon="0.25121">
        <ele>1814</ele>
        <time>2022-01-09T09:16:59Z</time>
      </trkpt>
      <trkpt lat="42.82518" lon="0.25119">
        <ele>1813.8</ele>
        <time>2022-01-09T09:17:00Z</time>
      </trkpt>
      <trkpt lat="42.82519" lon="0.25117">
        <ele>1814.2</ele>
        <time>2022-01-09T09:17:01Z</time>
      </trkpt>
      <trkpt lat="42.82519" lon="0.25116">
        <ele>1814.4</ele>
        <time>2022-01-09T09:17:02Z</time>
      </trkpt>
      <trkpt lat="42.82522" lon="0.25106">
        <ele>1814.4</ele>
        <time>2022-01-09T09:17:03Z</time>
      </trkpt>
      <trkpt lat="42.82522" lon="0.25103">
        <ele>1814.6</ele>
        <time>2022-01-09T09:17:04Z</time>
      </trkpt>
      <trkpt lat="42.82523" lon="0.251">
        <ele>1814.6</ele>
        <time>2022-01-09T09:17:05Z</time>
      </trkpt>
      <trkpt lat="42.82524" lon="0.25097">
        <ele>1814.6</ele>
        <time>2022-01-09T09:17:06Z</time>
      </trkpt>
      <trkpt lat="42.82524" lon="0.25093">
        <ele>1814.4</ele>
        <time>2022-01-09T09:17:07Z</time>
      </trkpt>
      <trkpt lat="42.82524" lon="0.2509">
        <ele>1814.8</ele>
        <time>2022-01-09T09:17:08Z</time>
      </trkpt>
      <trkpt lat="42.82524" lon="0.25087">
        <ele>1815</ele>
        <time>2022-01-09T09:17:09Z</time>
      </trkpt>
      <trkpt lat="42.82525" lon="0.25084">
        <ele>1815.2</ele>
        <time>2022-01-09T09:17:10Z</time>
      </trkpt>
      <trkpt lat="42.82525" lon="0.25083">
        <ele>1814.8</ele>
        <time>2022-01-09T09:17:11Z</time>
      </trkpt>
      <trkpt lat="42.82525" lon="0.25081">
        <ele>1815</ele>
        <time>2022-01-09T09:17:12Z</time>
      </trkpt>
      <trkpt lat="42.82525" lon="0.2508">
        <ele>1815.4</ele>
        <time>2022-01-09T09:17:13Z</time>
      </trkpt>
      <trkpt lat="42.82526" lon="0.25079">
        <ele>1815.4</ele>
        <time>2022-01-09T09:17:14Z</time>
      </trkpt>
      <trkpt lat="42.82526" lon="0.25077">
        <ele>1815.8</ele>
        <time>2022-01-09T09:17:15Z</time>
      </trkpt>
      <trkpt lat="42.82528" lon="0.25068">
        <ele>1816</ele>
        <time>2022-01-09T09:17:16Z</time>
      </trkpt>
      <trkpt lat="42.82528" lon="0.25066">
        <ele>1816.2</ele>
        <time>2022-01-09T09:17:17Z</time>
      </trkpt>
      <trkpt lat="42.82529" lon="0.25064">
        <ele>1815.8</ele>
        <time>2022-01-09T09:17:18Z</time>
      </trkpt>
      <trkpt lat="42.82529" lon="0.25061">
        <ele>1816</ele>
        <time>2022-01-09T09:17:19Z</time>
      </trkpt>
      <trkpt lat="42.8253" lon="0.25059">
        <ele>1816.2</ele>
        <time>2022-01-09T09:17:20Z</time>
      </trkpt>
      <trkpt lat="42.8253" lon="0.25057">
        <ele>1816.4</ele>
        <time>2022-01-09T09:17:21Z</time>
      </trkpt>
      <trkpt lat="42.8253" lon="0.25056">
        <ele>1816.4</ele>
        <time>2022-01-09T09:17:22Z</time>
      </trkpt>
      <trkpt lat="42.8253" lon="0.25054">
        <ele>1816.6</ele>
        <time>2022-01-09T09:17:23Z</time>
      </trkpt>
      <trkpt lat="42.8253" lon="0.25053">
        <ele>1816.6</ele>
        <time>2022-01-09T09:17:24Z</time>
      </trkpt>
      <trkpt lat="42.82531" lon="0.25051">
        <ele>1816.6</ele>
        <time>2022-01-09T09:17:25Z</time>
      </trkpt>
      <trkpt lat="42.82532" lon="0.25043">
        <ele>1816.8</ele>
        <time>2022-01-09T09:17:26Z</time>
      </trkpt>
      <trkpt lat="42.82532" lon="0.25041">
        <ele>1816.8</ele>
        <time>2022-01-09T09:17:27Z</time>
      </trkpt>
      <trkpt lat="42.82532" lon="0.2504">
        <ele>1817</ele>
        <time>2022-01-09T09:17:28Z</time>
      </trkpt>
      <trkpt lat="42.82532" lon="0.25038">
        <ele>1817.2</ele>
        <time>2022-01-09T09:17:29Z</time>
      </trkpt>
      <trkpt lat="42.82532" lon="0.25037">
        <ele>1817.4</ele>
        <time>2022-01-09T09:17:30Z</time>
      </trkpt>
      <trkpt lat="42.82533" lon="0.25028">
        <ele>1817.8</ele>
        <time>2022-01-09T09:17:31Z</time>
      </trkpt>
      <trkpt lat="42.82534" lon="0.25027">
        <ele>1818</ele>
        <time>2022-01-09T09:17:32Z</time>
      </trkpt>
      <trkpt lat="42.82534" lon="0.25025">
        <ele>1818.6</ele>
        <time>2022-01-09T09:17:33Z</time>
      </trkpt>
      <trkpt lat="42.82534" lon="0.25024">
        <ele>1818.6</ele>
        <time>2022-01-09T09:17:34Z</time>
      </trkpt>
      <trkpt lat="42.82535" lon="0.25022">
        <ele>1819</ele>
        <time>2022-01-09T09:17:35Z</time>
      </trkpt>
      <trkpt lat="42.82537" lon="0.25012">
        <ele>1819</ele>
        <time>2022-01-09T09:17:36Z</time>
      </trkpt>
      <trkpt lat="42.82538" lon="0.25008">
        <ele>1819.4</ele>
        <time>2022-01-09T09:17:37Z</time>
      </trkpt>
      <trkpt lat="42.82538" lon="0.25005">
        <ele>1819.6</ele>
        <time>2022-01-09T09:17:38Z</time>
      </trkpt>
      <trkpt lat="42.82539" lon="0.25002">
        <ele>1819.6</ele>
        <time>2022-01-09T09:17:39Z</time>
      </trkpt>
      <trkpt lat="42.82539" lon="0.25">
        <ele>1820</ele>
        <time>2022-01-09T09:17:40Z</time>
      </trkpt>
      <trkpt lat="42.82539" lon="0.24999">
        <ele>1820.4</ele>
        <time>2022-01-09T09:17:41Z</time>
      </trkpt>
      <trkpt lat="42.82539" lon="0.24998">
        <ele>1820.4</ele>
        <time>2022-01-09T09:17:42Z</time>
      </trkpt>
      <trkpt lat="42.8254" lon="0.24996">
        <ele>1820.8</ele>
        <time>2022-01-09T09:17:43Z</time>
      </trkpt>
      <trkpt lat="42.8254" lon="0.24995">
        <ele>1821</ele>
        <time>2022-01-09T09:17:44Z</time>
      </trkpt>
      <trkpt lat="42.82541" lon="0.24986">
        <ele>1821.2</ele>
        <time>2022-01-09T09:17:45Z</time>
      </trkpt>
      <trkpt lat="42.82541" lon="0.24985">
        <ele>1821.8</ele>
        <time>2022-01-09T09:17:46Z</time>
      </trkpt>
      <trkpt lat="42.82541" lon="0.24984">
        <ele>1822</ele>
        <time>2022-01-09T09:17:47Z</time>
      </trkpt>
      <trkpt lat="42.82541" lon="0.24983">
        <ele>1822.2</ele>
        <time>2022-01-09T09:17:48Z</time>
      </trkpt>
      <trkpt lat="42.82541" lon="0.24982">
        <ele>1822.2</ele>
        <time>2022-01-09T09:17:49Z</time>
      </trkpt>
      <trkpt lat="42.82541" lon="0.24981">
        <ele>1822.4</ele>
        <time>2022-01-09T09:17:50Z</time>
      </trkpt>
      <trkpt lat="42.82542" lon="0.24971">
        <ele>1822.6</ele>
        <time>2022-01-09T09:17:51Z</time>
      </trkpt>
      <trkpt lat="42.82542" lon="0.24969">
        <ele>1822.6</ele>
        <time>2022-01-09T09:17:52Z</time>
      </trkpt>
      <trkpt lat="42.82543" lon="0.24966">
        <ele>1823</ele>
        <time>2022-01-09T09:17:53Z</time>
      </trkpt>
      <trkpt lat="42.82543" lon="0.24964">
        <ele>1823</ele>
        <time>2022-01-09T09:17:54Z</time>
      </trkpt>
      <trkpt lat="42.82543" lon="0.24962">
        <ele>1823.2</ele>
        <time>2022-01-09T09:17:55Z</time>
      </trkpt>
      <trkpt lat="42.82543" lon="0.2496">
        <ele>1823.6</ele>
        <time>2022-01-09T09:17:56Z</time>
      </trkpt>
      <trkpt lat="42.82544" lon="0.24959">
        <ele>1824.2</ele>
        <time>2022-01-09T09:17:57Z</time>
      </trkpt>
      <trkpt lat="42.82544" lon="0.24957">
        <ele>1824</ele>
        <time>2022-01-09T09:17:58Z</time>
      </trkpt>
      <trkpt lat="42.82544" lon="0.24956">
        <ele>1824.2</ele>
        <time>2022-01-09T09:17:59Z</time>
      </trkpt>
      <trkpt lat="42.82545" lon="0.24955">
        <ele>1824.2</ele>
        <time>2022-01-09T09:18:00Z</time>
      </trkpt>
      <trkpt lat="42.82547" lon="0.24945">
        <ele>1824.8</ele>
        <time>2022-01-09T09:18:01Z</time>
      </trkpt>
      <trkpt lat="42.82548" lon="0.24943">
        <ele>1825</ele>
        <time>2022-01-09T09:18:02Z</time>
      </trkpt>
      <trkpt lat="42.82549" lon="0.2494">
        <ele>1825.4</ele>
        <time>2022-01-09T09:18:03Z</time>
      </trkpt>
      <trkpt lat="42.8255" lon="0.24938">
        <ele>1826.4</ele>
        <time>2022-01-09T09:18:04Z</time>
      </trkpt>
      <trkpt lat="42.82551" lon="0.24936">
        <ele>1826.4</ele>
        <time>2022-01-09T09:18:05Z</time>
      </trkpt>
      <trkpt lat="42.82551" lon="0.24933">
        <ele>1826.8</ele>
        <time>2022-01-09T09:18:06Z</time>
      </trkpt>
      <trkpt lat="42.82552" lon="0.24931">
        <ele>1827</ele>
        <time>2022-01-09T09:18:07Z</time>
      </trkpt>
      <trkpt lat="42.82553" lon="0.24929">
        <ele>1827.4</ele>
        <time>2022-01-09T09:18:08Z</time>
      </trkpt>
      <trkpt lat="42.82554" lon="0.24927">
        <ele>1827.8</ele>
        <time>2022-01-09T09:18:09Z</time>
      </trkpt>
      <trkpt lat="42.82554" lon="0.24924">
        <ele>1828.2</ele>
        <time>2022-01-09T09:18:10Z</time>
      </trkpt>
      <trkpt lat="42.82555" lon="0.24922">
        <ele>1828.6</ele>
        <time>2022-01-09T09:18:11Z</time>
      </trkpt>
      <trkpt lat="42.82555" lon="0.24921">
        <ele>1828.8</ele>
        <time>2022-01-09T09:18:12Z</time>
      </trkpt>
      <trkpt lat="42.82556" lon="0.2492">
        <ele>1829</ele>
        <time>2022-01-09T09:18:13Z</time>
      </trkpt>
      <trkpt lat="42.82556" lon="0.24919">
        <ele>1829</ele>
        <time>2022-01-09T09:18:14Z</time>
      </trkpt>
      <trkpt lat="42.82556" lon="0.24918">
        <ele>1829.2</ele>
        <time>2022-01-09T09:18:15Z</time>
      </trkpt>
      <trkpt lat="42.82557" lon="0.24916">
        <ele>1829.4</ele>
        <time>2022-01-09T09:18:16Z</time>
      </trkpt>
      <trkpt lat="42.82557" lon="0.24915">
        <ele>1829.4</ele>
        <time>2022-01-09T09:18:17Z</time>
      </trkpt>
      <trkpt lat="42.82561" lon="0.24906">
        <ele>1829.6</ele>
        <time>2022-01-09T09:18:18Z</time>
      </trkpt>
      <trkpt lat="42.82562" lon="0.24904">
        <ele>1829.6</ele>
        <time>2022-01-09T09:18:19Z</time>
      </trkpt>
      <trkpt lat="42.82563" lon="0.24902">
        <ele>1829.6</ele>
        <time>2022-01-09T09:18:20Z</time>
      </trkpt>
      <trkpt lat="42.82564" lon="0.249">
        <ele>1829.8</ele>
        <time>2022-01-09T09:18:21Z</time>
      </trkpt>
      <trkpt lat="42.82565" lon="0.24898">
        <ele>1829.8</ele>
        <time>2022-01-09T09:18:22Z</time>
      </trkpt>
      <trkpt lat="42.82566" lon="0.24896">
        <ele>1830</ele>
        <time>2022-01-09T09:18:23Z</time>
      </trkpt>
      <trkpt lat="42.82568" lon="0.24895">
        <ele>1830.4</ele>
        <time>2022-01-09T09:18:24Z</time>
      </trkpt>
      <trkpt lat="42.8257" lon="0.24893">
        <ele>1830.4</ele>
        <time>2022-01-09T09:18:25Z</time>
      </trkpt>
      <trkpt lat="42.82571" lon="0.24892">
        <ele>1830.8</ele>
        <time>2022-01-09T09:18:26Z</time>
      </trkpt>
      <trkpt lat="42.82573" lon="0.2489">
        <ele>1831.2</ele>
        <time>2022-01-09T09:18:27Z</time>
      </trkpt>
      <trkpt lat="42.82574" lon="0.24889">
        <ele>1831.4</ele>
        <time>2022-01-09T09:18:28Z</time>
      </trkpt>
      <trkpt lat="42.82576" lon="0.24888">
        <ele>1831.6</ele>
        <time>2022-01-09T09:18:29Z</time>
      </trkpt>
      <trkpt lat="42.82578" lon="0.24886">
        <ele>1831.8</ele>
        <time>2022-01-09T09:18:30Z</time>
      </trkpt>
      <trkpt lat="42.82579" lon="0.24885">
        <ele>1832</ele>
        <time>2022-01-09T09:18:31Z</time>
      </trkpt>
      <trkpt lat="42.82581" lon="0.24884">
        <ele>1832.2</ele>
        <time>2022-01-09T09:18:32Z</time>
      </trkpt>
      <trkpt lat="42.82583" lon="0.24882">
        <ele>1832</ele>
        <time>2022-01-09T09:18:33Z</time>
      </trkpt>
      <trkpt lat="42.82585" lon="0.24881">
        <ele>1832.2</ele>
        <time>2022-01-09T09:18:34Z</time>
      </trkpt>
      <trkpt lat="42.82587" lon="0.2488">
        <ele>1832.2</ele>
        <time>2022-01-09T09:18:35Z</time>
      </trkpt>
      <trkpt lat="42.82588" lon="0.24879">
        <ele>1832.8</ele>
        <time>2022-01-09T09:18:36Z</time>
      </trkpt>
      <trkpt lat="42.8259" lon="0.24878">
        <ele>1832.8</ele>
        <time>2022-01-09T09:18:37Z</time>
      </trkpt>
      <trkpt lat="42.82592" lon="0.24877">
        <ele>1832.6</ele>
        <time>2022-01-09T09:18:38Z</time>
      </trkpt>
      <trkpt lat="42.82594" lon="0.24877">
        <ele>1833.2</ele>
        <time>2022-01-09T09:18:39Z</time>
      </trkpt>
      <trkpt lat="42.82596" lon="0.24876">
        <ele>1833.2</ele>
        <time>2022-01-09T09:18:40Z</time>
      </trkpt>
      <trkpt lat="42.82596" lon="0.24876">
        <ele>1833.2</ele>
        <time>2022-01-09T09:18:41Z</time>
      </trkpt>
      <trkpt lat="42.82598" lon="0.24876">
        <ele>1833</ele>
        <time>2022-01-09T09:18:42Z</time>
      </trkpt>
      <trkpt lat="42.82598" lon="0.24877">
        <ele>1832.8</ele>
        <time>2022-01-09T09:18:43Z</time>
      </trkpt>
      <trkpt lat="42.82598" lon="0.24877">
        <ele>1832.8</ele>
        <time>2022-01-09T09:18:44Z</time>
      </trkpt>
      <trkpt lat="42.82598" lon="0.24877">
        <ele>1833</ele>
        <time>2022-01-09T09:18:45Z</time>
      </trkpt>
      <trkpt lat="42.82598" lon="0.24878">
        <ele>1833.2</ele>
        <time>2022-01-09T09:18:46Z</time>
      </trkpt>
      <trkpt lat="42.82598" lon="0.24878">
        <ele>1833.4</ele>
        <time>2022-01-09T09:18:47Z</time>
      </trkpt>
      <trkpt lat="42.82598" lon="0.24879">
        <ele>1833.2</ele>
        <time>2022-01-09T09:18:48Z</time>
      </trkpt>
      <trkpt lat="42.82598" lon="0.24879">
        <ele>1833</ele>
        <time>2022-01-09T09:18:49Z</time>
      </trkpt>
      <trkpt lat="42.82598" lon="0.24879">
        <ele>1833.2</ele>
        <time>2022-01-09T09:18:50Z</time>
      </trkpt>
      <trkpt lat="42.82598" lon="0.2488">
        <ele>1833</ele>
        <time>2022-01-09T09:18:51Z</time>
      </trkpt>
      <trkpt lat="42.82598" lon="0.2488">
        <ele>1833.4</ele>
        <time>2022-01-09T09:18:52Z</time>
      </trkpt>
      <trkpt lat="42.82598" lon="0.2488">
        <ele>1833.2</ele>
        <time>2022-01-09T09:18:53Z</time>
      </trkpt>
      <trkpt lat="42.82598" lon="0.24881">
        <ele>1833</ele>
        <time>2022-01-09T09:18:54Z</time>
      </trkpt>
      <trkpt lat="42.82598" lon="0.24881">
        <ele>1832.8</ele>
        <time>2022-01-09T09:18:55Z</time>
      </trkpt>
      <trkpt lat="42.82598" lon="0.24881">
        <ele>1832.8</ele>
        <time>2022-01-09T09:18:56Z</time>
      </trkpt>
      <trkpt lat="42.82598" lon="0.24882">
        <ele>1832.6</ele>
        <time>2022-01-09T09:18:57Z</time>
      </trkpt>
      <trkpt lat="42.82598" lon="0.24882">
        <ele>1832.8</ele>
        <time>2022-01-09T09:18:58Z</time>
      </trkpt>
      <trkpt lat="42.82598" lon="0.24883">
        <ele>1832.6</ele>
        <time>2022-01-09T09:18:59Z</time>
      </trkpt>
      <trkpt lat="42.82598" lon="0.24883">
        <ele>1832.8</ele>
        <time>2022-01-09T09:19:00Z</time>
      </trkpt>
      <trkpt lat="42.82599" lon="0.24883">
        <ele>1833</ele>
        <time>2022-01-09T09:19:01Z</time>
      </trkpt>
      <trkpt lat="42.82599" lon="0.24884">
        <ele>1832.6</ele>
        <time>2022-01-09T09:19:02Z</time>
      </trkpt>
      <trkpt lat="42.82599" lon="0.24884">
        <ele>1832.4</ele>
        <time>2022-01-09T09:19:03Z</time>
      </trkpt>
      <trkpt lat="42.82599" lon="0.24884">
        <ele>1832</ele>
        <time>2022-01-09T09:19:04Z</time>
      </trkpt>
      <trkpt lat="42.826" lon="0.24897">
        <ele>1830.8</ele>
        <time>2022-01-09T09:19:05Z</time>
      </trkpt>
      <trkpt lat="42.826" lon="0.24902">
        <ele>1829.4</ele>
        <time>2022-01-09T09:19:06Z</time>
      </trkpt>
      <trkpt lat="42.82601" lon="0.24917">
        <ele>1828</ele>
        <time>2022-01-09T09:19:07Z</time>
      </trkpt>
      <trkpt lat="42.82603" lon="0.24922">
        <ele>1825.8</ele>
        <time>2022-01-09T09:19:08Z</time>
      </trkpt>
      <trkpt lat="42.82606" lon="0.24943">
        <ele>1822.4</ele>
        <time>2022-01-09T09:19:09Z</time>
      </trkpt>
      <trkpt lat="42.82606" lon="0.24952">
        <ele>1819.2</ele>
        <time>2022-01-09T09:19:10Z</time>
      </trkpt>
      <trkpt lat="42.82606" lon="0.24971">
        <ele>1816.4</ele>
        <time>2022-01-09T09:19:11Z</time>
      </trkpt>
      <trkpt lat="42.82608" lon="0.24986">
        <ele>1813.2</ele>
        <time>2022-01-09T09:19:12Z</time>
      </trkpt>
      <trkpt lat="42.82609" lon="0.25001">
        <ele>1809.4</ele>
        <time>2022-01-09T09:19:13Z</time>
      </trkpt>
      <trkpt lat="42.82612" lon="0.25015">
        <ele>1807.2</ele>
        <time>2022-01-09T09:19:14Z</time>
      </trkpt>
      <trkpt lat="42.82617" lon="0.25027">
        <ele>1803.8</ele>
        <time>2022-01-09T09:19:15Z</time>
      </trkpt>
      <trkpt lat="42.8262" lon="0.25041">
        <ele>1800</ele>
        <time>2022-01-09T09:19:16Z</time>
      </trkpt>
      <trkpt lat="42.82623" lon="0.25054">
        <ele>1796.6</ele>
        <time>2022-01-09T09:19:17Z</time>
      </trkpt>
      <trkpt lat="42.82629" lon="0.25066">
        <ele>1793.6</ele>
        <time>2022-01-09T09:19:18Z</time>
      </trkpt>
      <trkpt lat="42.82636" lon="0.2508">
        <ele>1788.2</ele>
        <time>2022-01-09T09:19:19Z</time>
      </trkpt>
      <trkpt lat="42.82643" lon="0.25096">
        <ele>1785.4</ele>
        <time>2022-01-09T09:19:20Z</time>
      </trkpt>
      <trkpt lat="42.82648" lon="0.25111">
        <ele>1780</ele>
        <time>2022-01-09T09:19:21Z</time>
      </trkpt>
      <trkpt lat="42.82651" lon="0.25126">
        <ele>1775.8</ele>
        <time>2022-01-09T09:19:22Z</time>
      </trkpt>
      <trkpt lat="42.82656" lon="0.25138">
        <ele>1772.2</ele>
        <time>2022-01-09T09:19:23Z</time>
      </trkpt>
      <trkpt lat="42.82662" lon="0.25149">
        <ele>1767.6</ele>
        <time>2022-01-09T09:19:24Z</time>
      </trkpt>
      <trkpt lat="42.82668" lon="0.25161">
        <ele>1764.6</ele>
        <time>2022-01-09T09:19:25Z</time>
      </trkpt>
      <trkpt lat="42.82672" lon="0.25176">
        <ele>1761.4</ele>
        <time>2022-01-09T09:19:26Z</time>
      </trkpt>
      <trkpt lat="42.82673" lon="0.25191">
        <ele>1756.4</ele>
        <time>2022-01-09T09:19:27Z</time>
      </trkpt>
      <trkpt lat="42.82671" lon="0.25205">
        <ele>1751.2</ele>
        <time>2022-01-09T09:19:28Z</time>
      </trkpt>
      <trkpt lat="42.82672" lon="0.25219">
        <ele>1746.4</ele>
        <time>2022-01-09T09:19:29Z</time>
      </trkpt>
      <trkpt lat="42.82677" lon="0.25233">
        <ele>1742.2</ele>
        <time>2022-01-09T09:19:30Z</time>
      </trkpt>
      <trkpt lat="42.82682" lon="0.25248">
        <ele>1737.4</ele>
        <time>2022-01-09T09:19:31Z</time>
      </trkpt>
      <trkpt lat="42.82684" lon="0.25264">
        <ele>1730.8</ele>
        <time>2022-01-09T09:19:32Z</time>
      </trkpt>
      <trkpt lat="42.82682" lon="0.25282">
        <ele>1723.4</ele>
        <time>2022-01-09T09:19:33Z</time>
      </trkpt>
      <trkpt lat="42.82683" lon="0.25296">
        <ele>1716.2</ele>
        <time>2022-01-09T09:19:34Z</time>
      </trkpt>
      <trkpt lat="42.82687" lon="0.25312">
        <ele>1710.6</ele>
        <time>2022-01-09T09:19:35Z</time>
      </trkpt>
      <trkpt lat="42.82688" lon="0.2533">
        <ele>1705.4</ele>
        <time>2022-01-09T09:19:36Z</time>
      </trkpt>
      <trkpt lat="42.82685" lon="0.25351">
        <ele>1697</ele>
        <time>2022-01-09T09:19:37Z</time>
      </trkpt>
      <trkpt lat="42.82681" lon="0.25372">
        <ele>1690.2</ele>
        <time>2022-01-09T09:19:38Z</time>
      </trkpt>
      <trkpt lat="42.82676" lon="0.25393">
        <ele>1680.4</ele>
        <time>2022-01-09T09:19:39Z</time>
      </trkpt>
      <trkpt lat="42.8267" lon="0.25414">
        <ele>1674</ele>
        <time>2022-01-09T09:19:40Z</time>
      </trkpt>
      <trkpt lat="42.82663" lon="0.25435">
        <ele>1669.4</ele>
        <time>2022-01-09T09:19:41Z</time>
      </trkpt>
      <trkpt lat="42.82655" lon="0.25455">
        <ele>1665</ele>
        <time>2022-01-09T09:19:42Z</time>
      </trkpt>
      <trkpt lat="42.82647" lon="0.25476">
        <ele>1661</ele>
        <time>2022-01-09T09:19:43Z</time>
      </trkpt>
      <trkpt lat="42.82638" lon="0.25498">
        <ele>1657.8</ele>
        <time>2022-01-09T09:19:44Z</time>
      </trkpt>
      <trkpt lat="42.8263" lon="0.2552">
        <ele>1652.4</ele>
        <time>2022-01-09T09:19:45Z</time>
      </trkpt>
      <trkpt lat="42.82622" lon="0.25542">
        <ele>1647.4</ele>
        <time>2022-01-09T09:19:46Z</time>
      </trkpt>
      <trkpt lat="42.82614" lon="0.25564">
        <ele>1641.8</ele>
        <time>2022-01-09T09:19:47Z</time>
      </trkpt>
      <trkpt lat="42.82608" lon="0.25586">
        <ele>1638</ele>
        <time>2022-01-09T09:19:48Z</time>
      </trkpt>
      <trkpt lat="42.82604" lon="0.25609">
        <ele>1634.8</ele>
        <time>2022-01-09T09:19:49Z</time>
      </trkpt>
      <trkpt lat="42.82601" lon="0.25631">
        <ele>1630.6</ele>
        <time>2022-01-09T09:19:50Z</time>
      </trkpt>
      <trkpt lat="42.826" lon="0.25652">
        <ele>1626.4</ele>
        <time>2022-01-09T09:19:51Z</time>
      </trkpt>
      <trkpt lat="42.826" lon="0.25674">
        <ele>1622</ele>
        <time>2022-01-09T09:19:52Z</time>
      </trkpt>
      <trkpt lat="42.82599" lon="0.25695">
        <ele>1618.6</ele>
        <time>2022-01-09T09:19:53Z</time>
      </trkpt>
      <trkpt lat="42.82599" lon="0.25717">
        <ele>1615.2</ele>
        <time>2022-01-09T09:19:54Z</time>
      </trkpt>
      <trkpt lat="42.82598" lon="0.25737">
        <ele>1612.6</ele>
        <time>2022-01-09T09:19:55Z</time>
      </trkpt>
      <trkpt lat="42.82598" lon="0.25757">
        <ele>1609.2</ele>
        <time>2022-01-09T09:19:56Z</time>
      </trkpt>
      <trkpt lat="42.82596" lon="0.25776">
        <ele>1605</ele>
        <time>2022-01-09T09:19:57Z</time>
      </trkpt>
      <trkpt lat="42.8259" lon="0.2579">
        <ele>1601.8</ele>
        <time>2022-01-09T09:19:58Z</time>
      </trkpt>
      <trkpt lat="42.82587" lon="0.25803">
        <ele>1599.2</ele>
        <time>2022-01-09T09:19:59Z</time>
      </trkpt>
      <trkpt lat="42.82589" lon="0.25809">
        <ele>1596</ele>
        <time>2022-01-09T09:20:01Z</time>
      </trkpt>
      <trkpt lat="42.82591" lon="0.25815">
        <ele>1594.6</ele>
        <time>2022-01-09T09:20:02Z</time>
      </trkpt>
      <trkpt lat="42.82589" lon="0.25814">
        <ele>1593.6</ele>
        <time>2022-01-09T09:20:03Z</time>
      </trkpt>
      <trkpt lat="42.82586" lon="0.25812">
        <ele>1592.6</ele>
        <time>2022-01-09T09:20:04Z</time>
      </trkpt>
      <trkpt lat="42.82583" lon="0.25811">
        <ele>1592</ele>
        <time>2022-01-09T09:20:05Z</time>
      </trkpt>
      <trkpt lat="42.82583" lon="0.25811">
        <ele>1591.6</ele>
        <time>2022-01-09T09:20:06Z</time>
      </trkpt>
      <trkpt lat="42.82583" lon="0.25811">
        <ele>1591.2</ele>
        <time>2022-01-09T09:20:07Z</time>
      </trkpt>
      <trkpt lat="42.82583" lon="0.25811">
        <ele>1591</ele>
        <time>2022-01-09T09:20:08Z</time>
      </trkpt>
      <trkpt lat="42.82583" lon="0.25811">
        <ele>1590.8</ele>
        <time>2022-01-09T09:20:09Z</time>
      </trkpt>
      <trkpt lat="42.82583" lon="0.25811">
        <ele>1590.4</ele>
        <time>2022-01-09T09:20:10Z</time>
      </trkpt>
      <trkpt lat="42.82583" lon="0.25811">
        <ele>1590.4</ele>
        <time>2022-01-09T09:20:11Z</time>
      </trkpt>
      <trkpt lat="42.82583" lon="0.25811">
        <ele>1590.8</ele>
        <time>2022-01-09T09:20:12Z</time>
      </trkpt>
      <trkpt lat="42.82583" lon="0.25811">
        <ele>1590.2</ele>
        <time>2022-01-09T09:20:13Z</time>
      </trkpt>
      <trkpt lat="42.82583" lon="0.25811">
        <ele>1590</ele>
        <time>2022-01-09T09:20:14Z</time>
      </trkpt>
      <trkpt lat="42.82583" lon="0.25811">
        <ele>1590</ele>
        <time>2022-01-09T09:20:15Z</time>
      </trkpt>
      <trkpt lat="42.82583" lon="0.25811">
        <ele>1590</ele>
        <time>2022-01-09T09:20:16Z</time>
      </trkpt>
      <trkpt lat="42.82583" lon="0.25811">
        <ele>1590</ele>
        <time>2022-01-09T09:20:17Z</time>
      </trkpt>
      <trkpt lat="42.82583" lon="0.25811">
        <ele>1590</ele>
        <time>2022-01-09T09:20:18Z</time>
      </trkpt>
      <trkpt lat="42.82583" lon="0.25811">
        <ele>1590</ele>
        <time>2022-01-09T09:20:19Z</time>
      </trkpt>
      <trkpt lat="42.82583" lon="0.25811">
        <ele>1590</ele>
        <time>2022-01-09T09:20:20Z</time>
      </trkpt>
      <trkpt lat="42.8258" lon="0.25808">
        <ele>1589.8</ele>
        <time>2022-01-09T09:20:21Z</time>
      </trkpt>
      <trkpt lat="42.8258" lon="0.25808">
        <ele>1589.8</ele>
        <time>2022-01-09T09:20:22Z</time>
      </trkpt>
      <trkpt lat="42.8258" lon="0.25808">
        <ele>1589.8</ele>
        <time>2022-01-09T09:20:23Z</time>
      </trkpt>
      <trkpt lat="42.8258" lon="0.25808">
        <ele>1590</ele>
        <time>2022-01-09T09:20:24Z</time>
      </trkpt>
      <trkpt lat="42.8258" lon="0.25808">
        <ele>1590</ele>
        <time>2022-01-09T09:20:25Z</time>
      </trkpt>
      <trkpt lat="42.8258" lon="0.25808">
        <ele>1590</ele>
        <time>2022-01-09T09:20:26Z</time>
      </trkpt>
      <trkpt lat="42.8258" lon="0.25808">
        <ele>1590</ele>
        <time>2022-01-09T09:20:27Z</time>
      </trkpt>
      <trkpt lat="42.8258" lon="0.25808">
        <ele>1590.2</ele>
        <time>2022-01-09T09:20:28Z</time>
      </trkpt>
      <trkpt lat="42.8258" lon="0.25808">
        <ele>1590</ele>
        <time>2022-01-09T09:20:29Z</time>
      </trkpt>
      <trkpt lat="42.8258" lon="0.25808">
        <ele>1590</ele>
        <time>2022-01-09T09:20:30Z</time>
      </trkpt>
      <trkpt lat="42.8258" lon="0.25808">
        <ele>1590</ele>
        <time>2022-01-09T09:20:31Z</time>
      </trkpt>
      <trkpt lat="42.8258" lon="0.25808">
        <ele>1589.6</ele>
        <time>2022-01-09T09:20:32Z</time>
      </trkpt>
      <trkpt lat="42.82578" lon="0.25805">
        <ele>1589.6</ele>
        <time>2022-01-09T09:20:33Z</time>
      </trkpt>
      <trkpt lat="42.82577" lon="0.25805">
        <ele>1589.6</ele>
        <time>2022-01-09T09:20:34Z</time>
      </trkpt>
      <trkpt lat="42.82576" lon="0.25805">
        <ele>1589.8</ele>
        <time>2022-01-09T09:20:35Z</time>
      </trkpt>
      <trkpt lat="42.82575" lon="0.25805">
        <ele>1589.8</ele>
        <time>2022-01-09T09:20:36Z</time>
      </trkpt>
      <trkpt lat="42.82574" lon="0.25804">
        <ele>1589.6</ele>
        <time>2022-01-09T09:20:37Z</time>
      </trkpt>
      <trkpt lat="42.82573" lon="0.25804">
        <ele>1589.6</ele>
        <time>2022-01-09T09:20:38Z</time>
      </trkpt>
      <trkpt lat="42.82572" lon="0.25804">
        <ele>1589.4</ele>
        <time>2022-01-09T09:20:39Z</time>
      </trkpt>
      <trkpt lat="42.82571" lon="0.25804">
        <ele>1589.8</ele>
        <time>2022-01-09T09:20:40Z</time>
      </trkpt>
      <trkpt lat="42.8257" lon="0.25803">
        <ele>1590</ele>
        <time>2022-01-09T09:20:41Z</time>
      </trkpt>
      <trkpt lat="42.8257" lon="0.25803">
        <ele>1590.2</ele>
        <time>2022-01-09T09:20:42Z</time>
      </trkpt>
      <trkpt lat="42.82569" lon="0.25803">
        <ele>1590.6</ele>
        <time>2022-01-09T09:20:43Z</time>
      </trkpt>
      <trkpt lat="42.82566" lon="0.25801">
        <ele>1591</ele>
        <time>2022-01-09T09:20:44Z</time>
      </trkpt>
      <trkpt lat="42.82563" lon="0.25799">
        <ele>1591.2</ele>
        <time>2022-01-09T09:20:45Z</time>
      </trkpt>
      <trkpt lat="42.8256" lon="0.25796">
        <ele>1590.8</ele>
        <time>2022-01-09T09:20:46Z</time>
      </trkpt>
      <trkpt lat="42.82559" lon="0.25796">
        <ele>1590.8</ele>
        <time>2022-01-09T09:20:47Z</time>
      </trkpt>
      <trkpt lat="42.82558" lon="0.25795">
        <ele>1590.4</ele>
        <time>2022-01-09T09:20:48Z</time>
      </trkpt>
      <trkpt lat="42.82556" lon="0.25794">
        <ele>1590.4</ele>
        <time>2022-01-09T09:20:49Z</time>
      </trkpt>
      <trkpt lat="42.82555" lon="0.25794">
        <ele>1590.2</ele>
        <time>2022-01-09T09:20:50Z</time>
      </trkpt>
      <trkpt lat="42.82549" lon="0.25791">
        <ele>1590</ele>
        <time>2022-01-09T09:20:51Z</time>
      </trkpt>
    </trkseg>
  </trk>
</gpx>